<?xml version="1.0" encoding="UTF-8" standalone="no" ?>
<gpx xmlns="http://www.topografix.com/GPX/1/1" xmlns:xsi="http://www.w3.org/2001/XMLSchema-instance" xsi:schemaLocation="http://www.topografix.com/GPX/1/1 http://www.topografix.com/GPX/1/1/gpx.xsd" version="1.1" creator="VisuGPX - https://www.visugpx.com">
  <metadata>
    <name>Raid Avy 2024 38km_Bleue Rouge</name>
  </metadata>
  <wpt lat="43.64207" lon="3.79854">
    <ele>51.5</ele>
    <name><![CDATA[Ravito 2]]></name>
    <desc><![CDATA[Pour les retours de la Souca qui partent sur le rouge de la Goule]]></desc>
  </wpt>
  <wpt lat="43.64996" lon="3.79101">
    <ele>61.5</ele>
    <name><![CDATA[Ravito1 arrivée]]></name>
    <desc><![CDATA[Site départ / arrivée]]></desc>
  </wpt>
  <trk>
    <name><![CDATA[avy-2024-_Rouge Souca - Goule_pour balisage]]></name>
    <trkseg>
      <trkpt lat="43.65019" lon="3.79175">
        <ele>64.4</ele>
        <time>2024-04-07T15:06:18.757Z</time>
      </trkpt>
      <trkpt lat="43.65034" lon="3.79157">
        <ele>64.2</ele>
        <time>2024-04-07T15:06:42.757Z</time>
      </trkpt>
      <trkpt lat="43.65044" lon="3.79136">
        <ele>64.1</ele>
        <time>2024-04-07T15:06:43.435Z</time>
      </trkpt>
      <trkpt lat="43.65056" lon="3.79112">
        <ele>64.1</ele>
        <time>2024-04-07T15:06:44.222Z</time>
      </trkpt>
      <trkpt lat="43.65062" lon="3.79103">
        <ele>64.4</ele>
        <time>2024-04-07T15:06:44.552Z</time>
      </trkpt>
      <trkpt lat="43.6507" lon="3.79095">
        <ele>64.6</ele>
        <time>2024-04-07T15:06:44.920Z</time>
      </trkpt>
      <trkpt lat="43.65071" lon="3.7909">
        <ele>64.2</ele>
        <time>2024-04-07T15:06:45.060Z</time>
      </trkpt>
      <trkpt lat="43.65073" lon="3.79075">
        <ele>62.9</ele>
        <time>2024-04-07T15:06:45.471Z</time>
      </trkpt>
      <trkpt lat="43.65081" lon="3.79062">
        <ele>62.3</ele>
        <time>2024-04-07T15:06:45.931Z</time>
      </trkpt>
      <trkpt lat="43.65096" lon="3.79036">
        <ele>60.9</ele>
        <time>2024-04-07T15:06:46.828Z</time>
      </trkpt>
      <trkpt lat="43.65102" lon="3.79009">
        <ele>59.7</ele>
        <time>2024-04-07T15:06:47.590Z</time>
      </trkpt>
      <trkpt lat="43.65099" lon="3.78982">
        <ele>58.8</ele>
        <time>2024-04-07T15:06:48.327Z</time>
      </trkpt>
      <trkpt lat="43.65088" lon="3.78944">
        <ele>56.4</ele>
        <time>2024-04-07T15:06:48.757Z</time>
      </trkpt>
      <trkpt lat="43.65075" lon="3.78892">
        <ele>59.7</ele>
        <time>2024-04-07T15:07:07.718Z</time>
      </trkpt>
      <trkpt lat="43.65085" lon="3.78872">
        <ele>60.2</ele>
        <time>2024-04-07T15:07:16.096Z</time>
      </trkpt>
      <trkpt lat="43.65094" lon="3.78858">
        <ele>61</ele>
        <time>2024-04-07T15:07:22.550Z</time>
      </trkpt>
      <trkpt lat="43.65108" lon="3.78843">
        <ele>61.6</ele>
        <time>2024-04-07T15:07:30.987Z</time>
      </trkpt>
      <trkpt lat="43.6514" lon="3.78823">
        <ele>61.7</ele>
        <time>2024-04-07T15:07:28.757Z</time>
      </trkpt>
      <trkpt lat="43.65143" lon="3.7882">
        <ele>61.8</ele>
        <time>2024-04-07T15:07:29.757Z</time>
      </trkpt>
      <trkpt lat="43.65143" lon="3.7882">
        <ele>61.8</ele>
        <time>2024-04-07T15:07:30.757Z</time>
      </trkpt>
      <trkpt lat="43.65145" lon="3.78818">
        <ele>61.9</ele>
        <time>2024-04-07T15:07:31.757Z</time>
      </trkpt>
      <trkpt lat="43.65146" lon="3.78817">
        <ele>61.9</ele>
        <time>2024-04-07T15:07:32.757Z</time>
      </trkpt>
      <trkpt lat="43.65149" lon="3.78815">
        <ele>62</ele>
        <time>2024-04-07T15:07:33.757Z</time>
      </trkpt>
      <trkpt lat="43.6515" lon="3.78814">
        <ele>62</ele>
        <time>2024-04-07T15:07:34.757Z</time>
      </trkpt>
      <trkpt lat="43.65153" lon="3.78812">
        <ele>62</ele>
        <time>2024-04-07T15:07:35.757Z</time>
      </trkpt>
      <trkpt lat="43.65156" lon="3.78811">
        <ele>62</ele>
        <time>2024-04-07T15:07:36.757Z</time>
      </trkpt>
      <trkpt lat="43.65161" lon="3.78809">
        <ele>62</ele>
        <time>2024-04-07T15:07:37.757Z</time>
      </trkpt>
      <trkpt lat="43.65165" lon="3.78808">
        <ele>61.9</ele>
        <time>2024-04-07T15:07:38.757Z</time>
      </trkpt>
      <trkpt lat="43.65169" lon="3.78807">
        <ele>61.9</ele>
        <time>2024-04-07T15:07:39.757Z</time>
      </trkpt>
      <trkpt lat="43.65172" lon="3.78806">
        <ele>62</ele>
        <time>2024-04-07T15:07:40.757Z</time>
      </trkpt>
      <trkpt lat="43.65175" lon="3.78803">
        <ele>62.1</ele>
        <time>2024-04-07T15:07:41.757Z</time>
      </trkpt>
      <trkpt lat="43.65178" lon="3.78801">
        <ele>62.2</ele>
        <time>2024-04-07T15:07:42.757Z</time>
      </trkpt>
      <trkpt lat="43.65181" lon="3.78798">
        <ele>62.3</ele>
        <time>2024-04-07T15:07:43.757Z</time>
      </trkpt>
      <trkpt lat="43.65184" lon="3.78793">
        <ele>62.3</ele>
        <time>2024-04-07T15:07:44.757Z</time>
      </trkpt>
      <trkpt lat="43.65187" lon="3.78789">
        <ele>62.3</ele>
        <time>2024-04-07T15:07:45.757Z</time>
      </trkpt>
      <trkpt lat="43.6519" lon="3.78784">
        <ele>62.2</ele>
        <time>2024-04-07T15:07:46.757Z</time>
      </trkpt>
      <trkpt lat="43.65193" lon="3.78782">
        <ele>62.1</ele>
        <time>2024-04-07T15:07:47.757Z</time>
      </trkpt>
      <trkpt lat="43.65196" lon="3.78783">
        <ele>61.8</ele>
        <time>2024-04-07T15:07:48.757Z</time>
      </trkpt>
      <trkpt lat="43.65198" lon="3.78782">
        <ele>61.6</ele>
        <time>2024-04-07T15:07:49.757Z</time>
      </trkpt>
      <trkpt lat="43.65201" lon="3.78779">
        <ele>61.3</ele>
        <time>2024-04-07T15:07:50.757Z</time>
      </trkpt>
      <trkpt lat="43.65203" lon="3.78777">
        <ele>61.1</ele>
        <time>2024-04-07T15:07:51.757Z</time>
      </trkpt>
      <trkpt lat="43.65206" lon="3.78773">
        <ele>61.2</ele>
        <time>2024-04-07T15:07:52.757Z</time>
      </trkpt>
      <trkpt lat="43.65207" lon="3.78772">
        <ele>61.2</ele>
        <time>2024-04-07T15:07:53.757Z</time>
      </trkpt>
      <trkpt lat="43.65209" lon="3.78768">
        <ele>61.3</ele>
        <time>2024-04-07T15:07:54.757Z</time>
      </trkpt>
      <trkpt lat="43.6521" lon="3.78767">
        <ele>61.3</ele>
        <time>2024-04-07T15:07:55.757Z</time>
      </trkpt>
      <trkpt lat="43.65212" lon="3.78763">
        <ele>61.5</ele>
        <time>2024-04-07T15:07:56.757Z</time>
      </trkpt>
      <trkpt lat="43.65213" lon="3.78762">
        <ele>61.5</ele>
        <time>2024-04-07T15:07:57.757Z</time>
      </trkpt>
      <trkpt lat="43.65215" lon="3.78758">
        <ele>61.7</ele>
        <time>2024-04-07T15:07:58.757Z</time>
      </trkpt>
      <trkpt lat="43.65215" lon="3.78757">
        <ele>61.8</ele>
        <time>2024-04-07T15:07:59.757Z</time>
      </trkpt>
      <trkpt lat="43.65218" lon="3.78754">
        <ele>61.9</ele>
        <time>2024-04-07T15:08:00.757Z</time>
      </trkpt>
      <trkpt lat="43.65219" lon="3.78753">
        <ele>61.9</ele>
        <time>2024-04-07T15:08:01.757Z</time>
      </trkpt>
      <trkpt lat="43.65219" lon="3.78752">
        <ele>62</ele>
        <time>2024-04-07T15:08:02.757Z</time>
      </trkpt>
      <trkpt lat="43.6522" lon="3.7875">
        <ele>62.2</ele>
        <time>2024-04-07T15:08:03.757Z</time>
      </trkpt>
      <trkpt lat="43.65223" lon="3.78748">
        <ele>62.2</ele>
        <time>2024-04-07T15:08:04.757Z</time>
      </trkpt>
      <trkpt lat="43.65224" lon="3.78747">
        <ele>62.3</ele>
        <time>2024-04-07T15:08:05.757Z</time>
      </trkpt>
      <trkpt lat="43.65227" lon="3.78745">
        <ele>62.5</ele>
        <time>2024-04-07T15:08:06.757Z</time>
      </trkpt>
      <trkpt lat="43.65228" lon="3.78744">
        <ele>62.6</ele>
        <time>2024-04-07T15:08:07.757Z</time>
      </trkpt>
      <trkpt lat="43.65232" lon="3.78743">
        <ele>62.8</ele>
        <time>2024-04-07T15:08:08.757Z</time>
      </trkpt>
      <trkpt lat="43.65233" lon="3.78743">
        <ele>62.8</ele>
        <time>2024-04-07T15:08:09.757Z</time>
      </trkpt>
      <trkpt lat="43.65236" lon="3.78741">
        <ele>63</ele>
        <time>2024-04-07T15:08:10.757Z</time>
      </trkpt>
      <trkpt lat="43.65238" lon="3.7874">
        <ele>63.1</ele>
        <time>2024-04-07T15:08:11.757Z</time>
      </trkpt>
      <trkpt lat="43.6524" lon="3.78738">
        <ele>63.2</ele>
        <time>2024-04-07T15:08:12.757Z</time>
      </trkpt>
      <trkpt lat="43.65243" lon="3.78736">
        <ele>63.4</ele>
        <time>2024-04-07T15:08:13.757Z</time>
      </trkpt>
      <trkpt lat="43.65246" lon="3.78734">
        <ele>63.5</ele>
        <time>2024-04-07T15:08:14.757Z</time>
      </trkpt>
      <trkpt lat="43.65249" lon="3.78732">
        <ele>63.6</ele>
        <time>2024-04-07T15:08:15.757Z</time>
      </trkpt>
      <trkpt lat="43.65251" lon="3.7873">
        <ele>63.7</ele>
        <time>2024-04-07T15:08:16.757Z</time>
      </trkpt>
      <trkpt lat="43.65255" lon="3.78729">
        <ele>63.8</ele>
        <time>2024-04-07T15:08:17.757Z</time>
      </trkpt>
      <trkpt lat="43.65256" lon="3.78729">
        <ele>63.8</ele>
        <time>2024-04-07T15:08:18.757Z</time>
      </trkpt>
      <trkpt lat="43.65296" lon="3.7871">
        <ele>64.4</ele>
        <time>2024-04-07T15:08:31.757Z</time>
      </trkpt>
      <trkpt lat="43.65298" lon="3.78707">
        <ele>64.5</ele>
        <time>2024-04-07T15:08:32.757Z</time>
      </trkpt>
      <trkpt lat="43.65301" lon="3.78704">
        <ele>64.7</ele>
        <time>2024-04-07T15:08:33.757Z</time>
      </trkpt>
      <trkpt lat="43.65305" lon="3.78702">
        <ele>64.7</ele>
        <time>2024-04-07T15:08:34.757Z</time>
      </trkpt>
      <trkpt lat="43.65306" lon="3.78701">
        <ele>64.8</ele>
        <time>2024-04-07T15:08:35.757Z</time>
      </trkpt>
      <trkpt lat="43.65308" lon="3.78699">
        <ele>64.8</ele>
        <time>2024-04-07T15:08:36.757Z</time>
      </trkpt>
      <trkpt lat="43.65312" lon="3.78696">
        <ele>64.9</ele>
        <time>2024-04-07T15:08:37.757Z</time>
      </trkpt>
      <trkpt lat="43.65313" lon="3.78695">
        <ele>65</ele>
        <time>2024-04-07T15:08:38.757Z</time>
      </trkpt>
      <trkpt lat="43.65317" lon="3.78693">
        <ele>65</ele>
        <time>2024-04-07T15:08:39.757Z</time>
      </trkpt>
      <trkpt lat="43.6532" lon="3.7869">
        <ele>65.1</ele>
        <time>2024-04-07T15:08:40.757Z</time>
      </trkpt>
      <trkpt lat="43.65324" lon="3.78686">
        <ele>65.1</ele>
        <time>2024-04-07T15:08:41.757Z</time>
      </trkpt>
      <trkpt lat="43.65328" lon="3.78684">
        <ele>65.1</ele>
        <time>2024-04-07T15:08:42.757Z</time>
      </trkpt>
      <trkpt lat="43.65332" lon="3.78684">
        <ele>65</ele>
        <time>2024-04-07T15:08:43.757Z</time>
      </trkpt>
      <trkpt lat="43.65361" lon="3.78667">
        <ele>63</ele>
        <time>2024-04-07T15:08:51.757Z</time>
      </trkpt>
      <trkpt lat="43.65366" lon="3.78663">
        <ele>62.7</ele>
        <time>2024-04-07T15:08:52.757Z</time>
      </trkpt>
      <trkpt lat="43.65371" lon="3.78659">
        <ele>62.4</ele>
        <time>2024-04-07T15:08:53.757Z</time>
      </trkpt>
      <trkpt lat="43.65378" lon="3.78656">
        <ele>61.7</ele>
        <time>2024-04-07T15:08:54.757Z</time>
      </trkpt>
      <trkpt lat="43.65383" lon="3.78652">
        <ele>61.3</ele>
        <time>2024-04-07T15:08:55.757Z</time>
      </trkpt>
      <trkpt lat="43.6539" lon="3.78648">
        <ele>60.7</ele>
        <time>2024-04-07T15:08:56.757Z</time>
      </trkpt>
      <trkpt lat="43.65397" lon="3.78645">
        <ele>60.7</ele>
        <time>2024-04-07T15:08:57.757Z</time>
      </trkpt>
      <trkpt lat="43.65402" lon="3.78642">
        <ele>60.6</ele>
        <time>2024-04-07T15:08:58.757Z</time>
      </trkpt>
      <trkpt lat="43.65408" lon="3.78641">
        <ele>60.4</ele>
        <time>2024-04-07T15:08:59.757Z</time>
      </trkpt>
      <trkpt lat="43.65413" lon="3.78637">
        <ele>60.1</ele>
        <time>2024-04-07T15:09:00.757Z</time>
      </trkpt>
      <trkpt lat="43.65418" lon="3.78632">
        <ele>60.1</ele>
        <time>2024-04-07T15:09:01.757Z</time>
      </trkpt>
      <trkpt lat="43.65423" lon="3.78626">
        <ele>60.4</ele>
        <time>2024-04-07T15:09:02.757Z</time>
      </trkpt>
      <trkpt lat="43.65429" lon="3.78624">
        <ele>65</ele>
        <time>2024-04-07T15:09:06.766Z</time>
      </trkpt>
      <trkpt lat="43.65431" lon="3.78622">
        <ele>65</ele>
        <time>2024-04-07T15:09:08.715Z</time>
      </trkpt>
      <trkpt lat="43.65429" lon="3.78636">
        <ele>65</ele>
        <time>2024-04-07T15:09:15.730Z</time>
      </trkpt>
      <trkpt lat="43.65426" lon="3.78645">
        <ele>65</ele>
        <time>2024-04-07T15:09:20.937Z</time>
      </trkpt>
      <trkpt lat="43.65408" lon="3.7868">
        <ele>65</ele>
        <time>2024-04-07T15:09:41.884Z</time>
      </trkpt>
      <trkpt lat="43.65407" lon="3.78683">
        <ele>65</ele>
        <time>2024-04-07T15:09:43.909Z</time>
      </trkpt>
      <trkpt lat="43.65403" lon="3.78692">
        <ele>65</ele>
        <time>2024-04-07T15:09:49.228Z</time>
      </trkpt>
      <trkpt lat="43.65399" lon="3.78726">
        <ele>64.8</ele>
        <time>2024-04-07T15:10:06.592Z</time>
      </trkpt>
      <trkpt lat="43.65384" lon="3.78751">
        <ele>64</ele>
        <time>2024-04-07T15:10:22.571Z</time>
      </trkpt>
      <trkpt lat="43.65378" lon="3.7876">
        <ele>63.8</ele>
        <time>2024-04-07T15:10:29.121Z</time>
      </trkpt>
      <trkpt lat="43.65373" lon="3.78766">
        <ele>63.5</ele>
        <time>2024-04-07T15:10:33.655Z</time>
      </trkpt>
      <trkpt lat="43.65364" lon="3.78773">
        <ele>63.3</ele>
        <time>2024-04-07T15:10:40.818Z</time>
      </trkpt>
      <trkpt lat="43.65358" lon="3.78783">
        <ele>63</ele>
        <time>2024-04-07T15:10:47.274Z</time>
      </trkpt>
      <trkpt lat="43.65354" lon="3.78801">
        <ele>63</ele>
        <time>2024-04-07T15:10:56.745Z</time>
      </trkpt>
      <trkpt lat="43.65352" lon="3.78817">
        <ele>62.8</ele>
        <time>2024-04-07T15:11:05.126Z</time>
      </trkpt>
      <trkpt lat="43.65351" lon="3.78829">
        <ele>62.8</ele>
        <time>2024-04-07T15:11:10.947Z</time>
      </trkpt>
      <trkpt lat="43.65354" lon="3.7884">
        <ele>62.8</ele>
        <time>2024-04-07T15:11:16.985Z</time>
      </trkpt>
      <trkpt lat="43.65373" lon="3.7886">
        <ele>62.5</ele>
        <time>2024-04-07T15:11:33.125Z</time>
      </trkpt>
      <trkpt lat="43.65387" lon="3.78871">
        <ele>62.5</ele>
        <time>2024-04-07T15:11:44.215Z</time>
      </trkpt>
      <trkpt lat="43.65404" lon="3.78888">
        <ele>62.5</ele>
        <time>2024-04-07T15:11:58.998Z</time>
      </trkpt>
      <trkpt lat="43.65417" lon="3.78895">
        <ele>62.5</ele>
        <time>2024-04-07T15:12:09.008Z</time>
      </trkpt>
      <trkpt lat="43.65427" lon="3.78902">
        <ele>62.3</ele>
        <time>2024-04-07T15:12:16.263Z</time>
      </trkpt>
      <trkpt lat="43.65443" lon="3.78905">
        <ele>61.8</ele>
        <time>2024-04-07T15:12:27.632Z</time>
      </trkpt>
      <trkpt lat="43.655" lon="3.78929">
        <ele>60.3</ele>
        <time>2024-04-07T15:13:08.995Z</time>
      </trkpt>
      <trkpt lat="43.65533" lon="3.78931">
        <ele>60.8</ele>
        <time>2024-04-07T15:13:31.511Z</time>
      </trkpt>
      <trkpt lat="43.65539" lon="3.78928">
        <ele>60.8</ele>
        <time>2024-04-07T15:13:37.661Z</time>
      </trkpt>
      <trkpt lat="43.65574" lon="3.78913">
        <ele>60.8</ele>
        <time>2024-04-07T15:14:12.542Z</time>
      </trkpt>
      <trkpt lat="43.65589" lon="3.78907">
        <ele>61</ele>
        <time>2024-04-07T15:14:26.919Z</time>
      </trkpt>
      <trkpt lat="43.65614" lon="3.78893">
        <ele>61.5</ele>
        <time>2024-04-07T15:14:52.651Z</time>
      </trkpt>
      <trkpt lat="43.65632" lon="3.78871">
        <ele>62</ele>
        <time>2024-04-07T15:15:15.397Z</time>
      </trkpt>
      <trkpt lat="43.65649" lon="3.78838">
        <ele>62.5</ele>
        <time>2024-04-07T15:15:43.090Z</time>
      </trkpt>
      <trkpt lat="43.65661" lon="3.78809">
        <ele>63</ele>
        <time>2024-04-07T15:16:04.520Z</time>
      </trkpt>
      <trkpt lat="43.65669" lon="3.7879">
        <ele>63.5</ele>
        <time>2024-04-07T15:16:19.147Z</time>
      </trkpt>
      <trkpt lat="43.65675" lon="3.78769">
        <ele>64</ele>
        <time>2024-04-07T15:16:34.170Z</time>
      </trkpt>
      <trkpt lat="43.65676" lon="3.78777">
        <ele>64</ele>
        <time>2024-04-07T15:16:39.980Z</time>
      </trkpt>
      <trkpt lat="43.65696" lon="3.78803">
        <ele>64.3</ele>
        <time>2024-04-07T15:17:04.660Z</time>
      </trkpt>
      <trkpt lat="43.65719" lon="3.78829">
        <ele>64.3</ele>
        <time>2024-04-07T15:17:31.316Z</time>
      </trkpt>
      <trkpt lat="43.65755" lon="3.78903">
        <ele>62.5</ele>
        <time>2024-04-07T15:18:30.358Z</time>
      </trkpt>
      <trkpt lat="43.65776" lon="3.78913">
        <ele>63</ele>
        <time>2024-04-07T15:18:50.414Z</time>
      </trkpt>
      <trkpt lat="43.65811" lon="3.78901">
        <ele>65</ele>
        <time>2024-04-07T15:19:23.475Z</time>
      </trkpt>
      <trkpt lat="43.65816" lon="3.78936">
        <ele>64.3</ele>
        <time>2024-04-07T15:19:47.249Z</time>
      </trkpt>
      <trkpt lat="43.65832" lon="3.78964">
        <ele>64.3</ele>
        <time>2024-04-07T15:20:10.305Z</time>
      </trkpt>
      <trkpt lat="43.65848" lon="3.79003">
        <ele>64.3</ele>
        <time>2024-04-07T15:20:40.037Z</time>
      </trkpt>
      <trkpt lat="43.6585" lon="3.79002">
        <ele>64.3</ele>
        <time>2024-04-07T15:20:41.782Z</time>
      </trkpt>
      <trkpt lat="43.65917" lon="3.78983">
        <ele>66.5</ele>
        <time>2024-04-07T15:21:46.352Z</time>
      </trkpt>
      <trkpt lat="43.65942" lon="3.78954">
        <ele>68.3</ele>
        <time>2024-04-07T15:22:16.850Z</time>
      </trkpt>
      <trkpt lat="43.65968" lon="3.78915">
        <ele>69.5</ele>
        <time>2024-04-07T15:22:53.345Z</time>
      </trkpt>
      <trkpt lat="43.65968" lon="3.78915">
        <ele>69.3</ele>
        <time>2024-04-07T15:22:53.752Z</time>
      </trkpt>
      <trkpt lat="43.65968" lon="3.78915">
        <ele>69.5</ele>
        <time>2024-04-07T15:22:54.159Z</time>
      </trkpt>
      <trkpt lat="43.65971" lon="3.78843">
        <ele>71</ele>
        <time>2024-04-07T15:23:42.747Z</time>
      </trkpt>
      <trkpt lat="43.65986" lon="3.78802">
        <ele>71.5</ele>
        <time>2024-04-07T15:24:14.241Z</time>
      </trkpt>
      <trkpt lat="43.66009" lon="3.78766">
        <ele>71.8</ele>
        <time>2024-04-07T15:24:46.744Z</time>
      </trkpt>
      <trkpt lat="43.66034" lon="3.78747">
        <ele>72.3</ele>
        <time>2024-04-07T15:25:13.844Z</time>
      </trkpt>
      <trkpt lat="43.66053" lon="3.78753">
        <ele>72.5</ele>
        <time>2024-04-07T15:25:32.120Z</time>
      </trkpt>
      <trkpt lat="43.6607" lon="3.78748">
        <ele>72.8</ele>
        <time>2024-04-07T15:25:48.651Z</time>
      </trkpt>
      <trkpt lat="43.66071" lon="3.78748">
        <ele>72.8</ele>
        <time>2024-04-07T15:25:49.506Z</time>
      </trkpt>
      <trkpt lat="43.66075" lon="3.78679">
        <ele>72.3</ele>
        <time>2024-04-07T15:26:36.679Z</time>
      </trkpt>
      <trkpt lat="43.66019" lon="3.78665">
        <ele>73.5</ele>
        <time>2024-04-07T15:27:29.447Z</time>
      </trkpt>
      <trkpt lat="43.65995" lon="3.78632">
        <ele>74</ele>
        <time>2024-04-07T15:28:01.426Z</time>
      </trkpt>
      <trkpt lat="43.65947" lon="3.78611">
        <ele>74.5</ele>
        <time>2024-04-07T15:28:48.891Z</time>
      </trkpt>
      <trkpt lat="43.65921" lon="3.78646">
        <ele>74.8</ele>
        <time>2024-04-07T15:29:22.871Z</time>
      </trkpt>
      <trkpt lat="43.65911" lon="3.78644">
        <ele>74.8</ele>
        <time>2024-04-07T15:29:32.629Z</time>
      </trkpt>
      <trkpt lat="43.65849" lon="3.7862">
        <ele>73.3</ele>
        <time>2024-04-07T15:30:32.524Z</time>
      </trkpt>
      <trkpt lat="43.65824" lon="3.78637">
        <ele>72.5</ele>
        <time>2024-04-07T15:30:59.260Z</time>
      </trkpt>
      <trkpt lat="43.65802" lon="3.78648">
        <ele>71.8</ele>
        <time>2024-04-07T15:31:20.844Z</time>
      </trkpt>
      <trkpt lat="43.65776" lon="3.78683">
        <ele>70.3</ele>
        <time>2024-04-07T15:31:55.494Z</time>
      </trkpt>
      <trkpt lat="43.65775" lon="3.78683">
        <ele>69.8</ele>
        <time>2024-04-07T15:31:55.831Z</time>
      </trkpt>
      <trkpt lat="43.6575" lon="3.78625">
        <ele>70.9</ele>
        <time>2024-04-07T15:33:27.090Z</time>
      </trkpt>
      <trkpt lat="43.65726" lon="3.78566">
        <ele>71.6</ele>
        <time>2024-04-07T15:35:48.701Z</time>
      </trkpt>
      <trkpt lat="43.6573" lon="3.78541">
        <ele>73.8</ele>
        <time>2024-04-07T15:36:41.793Z</time>
      </trkpt>
      <trkpt lat="43.65734" lon="3.78516">
        <ele>75.2</ele>
        <time>2024-04-07T15:37:32.446Z</time>
      </trkpt>
      <trkpt lat="43.65732" lon="3.7849">
        <ele>75.1</ele>
        <time>2024-04-07T15:38:24.164Z</time>
      </trkpt>
      <trkpt lat="43.65731" lon="3.78464">
        <ele>74.7</ele>
        <time>2024-04-07T15:39:07.017Z</time>
      </trkpt>
      <trkpt lat="43.65726" lon="3.78432">
        <ele>75.4</ele>
        <time>2024-04-07T15:40:00.730Z</time>
      </trkpt>
      <trkpt lat="43.65721" lon="3.784">
        <ele>77.3</ele>
        <time>2024-04-07T15:40:54.443Z</time>
      </trkpt>
      <trkpt lat="43.65685" lon="3.78434">
        <ele>76</ele>
        <time>2024-04-07T15:42:34.254Z</time>
      </trkpt>
      <trkpt lat="43.65649" lon="3.78468">
        <ele>77.3</ele>
        <time>2024-04-07T15:44:14.065Z</time>
      </trkpt>
      <trkpt lat="43.6565" lon="3.78461">
        <ele>77.6</ele>
        <time>2024-04-07T15:44:26.351Z</time>
      </trkpt>
      <trkpt lat="43.6565" lon="3.78453">
        <ele>77.9</ele>
        <time>2024-04-07T15:44:44.694Z</time>
      </trkpt>
      <trkpt lat="43.65648" lon="3.78443">
        <ele>78.6</ele>
        <time>2024-04-07T15:45:10.196Z</time>
      </trkpt>
      <trkpt lat="43.65646" lon="3.78433">
        <ele>79</ele>
        <time>2024-04-07T15:45:35.698Z</time>
      </trkpt>
      <trkpt lat="43.65644" lon="3.78419">
        <ele>79.4</ele>
        <time>2024-04-07T15:46:13.159Z</time>
      </trkpt>
      <trkpt lat="43.65641" lon="3.78404">
        <ele>79.6</ele>
        <time>2024-04-07T15:46:46.045Z</time>
      </trkpt>
      <trkpt lat="43.65634" lon="3.7838">
        <ele>79.9</ele>
        <time>2024-04-07T15:47:40.968Z</time>
      </trkpt>
      <trkpt lat="43.65627" lon="3.78357">
        <ele>79.7</ele>
        <time>2024-04-07T15:48:31.175Z</time>
      </trkpt>
      <trkpt lat="43.65635" lon="3.78338">
        <ele>79.9</ele>
        <time>2024-04-07T15:49:14.073Z</time>
      </trkpt>
      <trkpt lat="43.65643" lon="3.7832">
        <ele>80.2</ele>
        <time>2024-04-07T15:50:14.348Z</time>
      </trkpt>
      <trkpt lat="43.6565" lon="3.78311">
        <ele>80.2</ele>
        <time>2024-04-07T15:50:49.245Z</time>
      </trkpt>
      <trkpt lat="43.65657" lon="3.78302">
        <ele>80.3</ele>
        <time>2024-04-07T15:51:39.475Z</time>
      </trkpt>
      <trkpt lat="43.65656" lon="3.78298">
        <ele>80.6</ele>
        <time>2024-04-07T15:51:58.722Z</time>
      </trkpt>
      <trkpt lat="43.65655" lon="3.78293">
        <ele>80.9</ele>
        <time>2024-04-07T15:52:17.969Z</time>
      </trkpt>
      <trkpt lat="43.65653" lon="3.78288">
        <ele>81.2</ele>
        <time>2024-04-07T15:52:39.905Z</time>
      </trkpt>
      <trkpt lat="43.65651" lon="3.78284">
        <ele>81.6</ele>
        <time>2024-04-07T15:53:01.841Z</time>
      </trkpt>
      <trkpt lat="43.6566" lon="3.78272">
        <ele>80.4</ele>
        <time>2024-04-07T15:54:11.622Z</time>
      </trkpt>
      <trkpt lat="43.65675" lon="3.78243">
        <ele>81.7</ele>
        <time>2024-04-07T15:54:16.622Z</time>
      </trkpt>
      <trkpt lat="43.65692" lon="3.78213">
        <ele>81.2</ele>
        <time>2024-04-07T15:54:18.622Z</time>
      </trkpt>
      <trkpt lat="43.6571" lon="3.78193">
        <ele>81</ele>
        <time>2024-04-07T15:54:20.622Z</time>
      </trkpt>
      <trkpt lat="43.65712" lon="3.78185">
        <ele>81.3</ele>
        <time>2024-04-07T15:54:21.622Z</time>
      </trkpt>
      <trkpt lat="43.65698" lon="3.7814">
        <ele>84.3</ele>
        <time>2024-04-07T15:54:33.622Z</time>
      </trkpt>
      <trkpt lat="43.65698" lon="3.78138">
        <ele>84.4</ele>
        <time>2024-04-07T15:54:34.622Z</time>
      </trkpt>
      <trkpt lat="43.65698" lon="3.78133">
        <ele>84.6</ele>
        <time>2024-04-07T15:54:35.622Z</time>
      </trkpt>
      <trkpt lat="43.65698" lon="3.78132">
        <ele>84.6</ele>
        <time>2024-04-07T15:54:36.622Z</time>
      </trkpt>
      <trkpt lat="43.65698" lon="3.78128">
        <ele>84.8</ele>
        <time>2024-04-07T15:54:37.622Z</time>
      </trkpt>
      <trkpt lat="43.65699" lon="3.78126">
        <ele>85</ele>
        <time>2024-04-07T15:54:38.622Z</time>
      </trkpt>
      <trkpt lat="43.657" lon="3.78124">
        <ele>85.1</ele>
        <time>2024-04-07T15:54:39.622Z</time>
      </trkpt>
      <trkpt lat="43.65701" lon="3.78122">
        <ele>85.3</ele>
        <time>2024-04-07T15:54:40.622Z</time>
      </trkpt>
      <trkpt lat="43.65702" lon="3.78119">
        <ele>85.5</ele>
        <time>2024-04-07T15:54:41.622Z</time>
      </trkpt>
      <trkpt lat="43.65704" lon="3.78114">
        <ele>85.9</ele>
        <time>2024-04-07T15:54:47.622Z</time>
      </trkpt>
      <trkpt lat="43.65704" lon="3.78112">
        <ele>86</ele>
        <time>2024-04-07T15:54:48.622Z</time>
      </trkpt>
      <trkpt lat="43.65705" lon="3.78108">
        <ele>86.1</ele>
        <time>2024-04-07T15:54:49.622Z</time>
      </trkpt>
      <trkpt lat="43.65705" lon="3.78106">
        <ele>86.1</ele>
        <time>2024-04-07T15:54:50.622Z</time>
      </trkpt>
      <trkpt lat="43.65706" lon="3.78102">
        <ele>86.2</ele>
        <time>2024-04-07T15:54:51.622Z</time>
      </trkpt>
      <trkpt lat="43.65707" lon="3.78101">
        <ele>86.4</ele>
        <time>2024-04-07T15:54:52.622Z</time>
      </trkpt>
      <trkpt lat="43.65708" lon="3.78097">
        <ele>86.5</ele>
        <time>2024-04-07T15:54:53.622Z</time>
      </trkpt>
      <trkpt lat="43.65708" lon="3.78095">
        <ele>86.5</ele>
        <time>2024-04-07T15:54:54.622Z</time>
      </trkpt>
      <trkpt lat="43.65709" lon="3.78093">
        <ele>86.6</ele>
        <time>2024-04-07T15:54:55.622Z</time>
      </trkpt>
      <trkpt lat="43.65709" lon="3.78091">
        <ele>86.6</ele>
        <time>2024-04-07T15:54:56.622Z</time>
      </trkpt>
      <trkpt lat="43.65709" lon="3.78089">
        <ele>86.6</ele>
        <time>2024-04-07T15:54:57.622Z</time>
      </trkpt>
      <trkpt lat="43.6571" lon="3.78086">
        <ele>86.7</ele>
        <time>2024-04-07T15:54:58.622Z</time>
      </trkpt>
      <trkpt lat="43.65711" lon="3.78082">
        <ele>86.8</ele>
        <time>2024-04-07T15:54:59.622Z</time>
      </trkpt>
      <trkpt lat="43.65711" lon="3.78081">
        <ele>86.7</ele>
        <time>2024-04-07T15:55:00.622Z</time>
      </trkpt>
      <trkpt lat="43.65712" lon="3.78078">
        <ele>86.8</ele>
        <time>2024-04-07T15:55:01.622Z</time>
      </trkpt>
      <trkpt lat="43.65712" lon="3.78076">
        <ele>86.7</ele>
        <time>2024-04-07T15:55:02.622Z</time>
      </trkpt>
      <trkpt lat="43.65713" lon="3.78072">
        <ele>86.7</ele>
        <time>2024-04-07T15:55:03.622Z</time>
      </trkpt>
      <trkpt lat="43.65714" lon="3.7807">
        <ele>86.8</ele>
        <time>2024-04-07T15:55:04.622Z</time>
      </trkpt>
      <trkpt lat="43.65714" lon="3.78066">
        <ele>86.7</ele>
        <time>2024-04-07T15:55:05.622Z</time>
      </trkpt>
      <trkpt lat="43.65715" lon="3.78065">
        <ele>86.7</ele>
        <time>2024-04-07T15:55:06.622Z</time>
      </trkpt>
      <trkpt lat="43.65716" lon="3.7806">
        <ele>86.7</ele>
        <time>2024-04-07T15:55:07.622Z</time>
      </trkpt>
      <trkpt lat="43.65716" lon="3.78058">
        <ele>86.6</ele>
        <time>2024-04-07T15:55:08.622Z</time>
      </trkpt>
      <trkpt lat="43.65716" lon="3.78054">
        <ele>86.5</ele>
        <time>2024-04-07T15:55:09.622Z</time>
      </trkpt>
      <trkpt lat="43.65717" lon="3.7805">
        <ele>86.4</ele>
        <time>2024-04-07T15:55:10.622Z</time>
      </trkpt>
      <trkpt lat="43.65718" lon="3.78046">
        <ele>86.4</ele>
        <time>2024-04-07T15:55:11.622Z</time>
      </trkpt>
      <trkpt lat="43.6572" lon="3.78042">
        <ele>86.4</ele>
        <time>2024-04-07T15:55:12.622Z</time>
      </trkpt>
      <trkpt lat="43.65721" lon="3.78037">
        <ele>86.2</ele>
        <time>2024-04-07T15:55:13.622Z</time>
      </trkpt>
      <trkpt lat="43.65722" lon="3.78035">
        <ele>86.2</ele>
        <time>2024-04-07T15:55:14.622Z</time>
      </trkpt>
      <trkpt lat="43.65723" lon="3.78031">
        <ele>86.3</ele>
        <time>2024-04-07T15:55:15.622Z</time>
      </trkpt>
      <trkpt lat="43.65724" lon="3.7803">
        <ele>86.4</ele>
        <time>2024-04-07T15:55:16.622Z</time>
      </trkpt>
      <trkpt lat="43.65724" lon="3.78026">
        <ele>86.3</ele>
        <time>2024-04-07T15:55:17.622Z</time>
      </trkpt>
      <trkpt lat="43.65725" lon="3.78025">
        <ele>86.4</ele>
        <time>2024-04-07T15:55:18.622Z</time>
      </trkpt>
      <trkpt lat="43.65726" lon="3.78022">
        <ele>86.4</ele>
        <time>2024-04-07T15:55:19.622Z</time>
      </trkpt>
      <trkpt lat="43.65727" lon="3.7802">
        <ele>86.5</ele>
        <time>2024-04-07T15:55:20.622Z</time>
      </trkpt>
      <trkpt lat="43.65728" lon="3.78019">
        <ele>86.7</ele>
        <time>2024-04-07T15:55:21.622Z</time>
      </trkpt>
      <trkpt lat="43.65729" lon="3.78016">
        <ele>86.7</ele>
        <time>2024-04-07T15:55:22.622Z</time>
      </trkpt>
      <trkpt lat="43.6573" lon="3.78011">
        <ele>86.6</ele>
        <time>2024-04-07T15:55:23.622Z</time>
      </trkpt>
      <trkpt lat="43.65731" lon="3.7801">
        <ele>86.7</ele>
        <time>2024-04-07T15:55:24.622Z</time>
      </trkpt>
      <trkpt lat="43.65732" lon="3.78005">
        <ele>86.7</ele>
        <time>2024-04-07T15:55:25.622Z</time>
      </trkpt>
      <trkpt lat="43.65733" lon="3.78003">
        <ele>86.7</ele>
        <time>2024-04-07T15:55:26.622Z</time>
      </trkpt>
      <trkpt lat="43.65735" lon="3.77999">
        <ele>86.8</ele>
        <time>2024-04-07T15:55:27.622Z</time>
      </trkpt>
      <trkpt lat="43.65736" lon="3.77995">
        <ele>86.8</ele>
        <time>2024-04-07T15:55:28.622Z</time>
      </trkpt>
      <trkpt lat="43.65738" lon="3.77991">
        <ele>86.9</ele>
        <time>2024-04-07T15:55:29.622Z</time>
      </trkpt>
      <trkpt lat="43.6574" lon="3.77986">
        <ele>87.1</ele>
        <time>2024-04-07T15:55:30.622Z</time>
      </trkpt>
      <trkpt lat="43.65741" lon="3.77981">
        <ele>87</ele>
        <time>2024-04-07T15:55:31.622Z</time>
      </trkpt>
      <trkpt lat="43.65741" lon="3.77977">
        <ele>86.9</ele>
        <time>2024-04-07T15:55:32.622Z</time>
      </trkpt>
      <trkpt lat="43.65741" lon="3.77973">
        <ele>86.7</ele>
        <time>2024-04-07T15:55:33.622Z</time>
      </trkpt>
      <trkpt lat="43.65741" lon="3.77968">
        <ele>86.6</ele>
        <time>2024-04-07T15:55:34.622Z</time>
      </trkpt>
      <trkpt lat="43.65742" lon="3.77964">
        <ele>86.6</ele>
        <time>2024-04-07T15:55:35.622Z</time>
      </trkpt>
      <trkpt lat="43.65743" lon="3.7796">
        <ele>86.6</ele>
        <time>2024-04-07T15:55:36.622Z</time>
      </trkpt>
      <trkpt lat="43.65745" lon="3.77956">
        <ele>86.7</ele>
        <time>2024-04-07T15:55:37.622Z</time>
      </trkpt>
      <trkpt lat="43.65746" lon="3.77951">
        <ele>86.7</ele>
        <time>2024-04-07T15:55:38.622Z</time>
      </trkpt>
      <trkpt lat="43.65748" lon="3.77946">
        <ele>86.8</ele>
        <time>2024-04-07T15:55:39.622Z</time>
      </trkpt>
      <trkpt lat="43.65748" lon="3.77941">
        <ele>86.5</ele>
        <time>2024-04-07T15:55:40.622Z</time>
      </trkpt>
      <trkpt lat="43.65749" lon="3.77937">
        <ele>86.3</ele>
        <time>2024-04-07T15:55:41.622Z</time>
      </trkpt>
      <trkpt lat="43.6575" lon="3.77931">
        <ele>86</ele>
        <time>2024-04-07T15:55:42.622Z</time>
      </trkpt>
      <trkpt lat="43.65751" lon="3.77926">
        <ele>85.8</ele>
        <time>2024-04-07T15:55:43.622Z</time>
      </trkpt>
      <trkpt lat="43.65751" lon="3.77921">
        <ele>85.5</ele>
        <time>2024-04-07T15:55:44.622Z</time>
      </trkpt>
      <trkpt lat="43.65752" lon="3.77916">
        <ele>85.3</ele>
        <time>2024-04-07T15:55:45.622Z</time>
      </trkpt>
      <trkpt lat="43.65754" lon="3.7791">
        <ele>85.5</ele>
        <time>2024-04-07T15:55:46.622Z</time>
      </trkpt>
      <trkpt lat="43.65755" lon="3.77904">
        <ele>85.4</ele>
        <time>2024-04-07T15:55:47.622Z</time>
      </trkpt>
      <trkpt lat="43.65756" lon="3.77899">
        <ele>85.4</ele>
        <time>2024-04-07T15:55:48.622Z</time>
      </trkpt>
      <trkpt lat="43.65757" lon="3.77895">
        <ele>85.5</ele>
        <time>2024-04-07T15:55:49.622Z</time>
      </trkpt>
      <trkpt lat="43.65758" lon="3.7789">
        <ele>85.5</ele>
        <time>2024-04-07T15:55:50.622Z</time>
      </trkpt>
      <trkpt lat="43.65758" lon="3.77888">
        <ele>85.5</ele>
        <time>2024-04-07T15:55:51.622Z</time>
      </trkpt>
      <trkpt lat="43.65759" lon="3.77884">
        <ele>85.7</ele>
        <time>2024-04-07T15:55:52.622Z</time>
      </trkpt>
      <trkpt lat="43.65761" lon="3.77879">
        <ele>86.2</ele>
        <time>2024-04-07T15:55:53.622Z</time>
      </trkpt>
      <trkpt lat="43.65763" lon="3.77874">
        <ele>86.6</ele>
        <time>2024-04-07T15:55:54.622Z</time>
      </trkpt>
      <trkpt lat="43.65765" lon="3.77871">
        <ele>87</ele>
        <time>2024-04-07T15:55:55.622Z</time>
      </trkpt>
      <trkpt lat="43.65766" lon="3.77867">
        <ele>87.2</ele>
        <time>2024-04-07T15:55:56.622Z</time>
      </trkpt>
      <trkpt lat="43.65768" lon="3.77864">
        <ele>87.6</ele>
        <time>2024-04-07T15:55:57.622Z</time>
      </trkpt>
      <trkpt lat="43.65771" lon="3.7786">
        <ele>88.1</ele>
        <time>2024-04-07T15:55:58.622Z</time>
      </trkpt>
      <trkpt lat="43.65772" lon="3.77859">
        <ele>88.2</ele>
        <time>2024-04-07T15:55:59.622Z</time>
      </trkpt>
      <trkpt lat="43.65773" lon="3.77858">
        <ele>88.4</ele>
        <time>2024-04-07T15:56:00.622Z</time>
      </trkpt>
      <trkpt lat="43.65774" lon="3.77857">
        <ele>88.6</ele>
        <time>2024-04-07T15:56:01.622Z</time>
      </trkpt>
      <trkpt lat="43.65776" lon="3.77856">
        <ele>88.9</ele>
        <time>2024-04-07T15:56:02.622Z</time>
      </trkpt>
      <trkpt lat="43.65776" lon="3.77853">
        <ele>89</ele>
        <time>2024-04-07T15:56:03.622Z</time>
      </trkpt>
      <trkpt lat="43.65776" lon="3.77849">
        <ele>89.2</ele>
        <time>2024-04-07T15:56:04.622Z</time>
      </trkpt>
      <trkpt lat="43.65776" lon="3.77848">
        <ele>89.2</ele>
        <time>2024-04-07T15:56:05.622Z</time>
      </trkpt>
      <trkpt lat="43.65771" lon="3.77827">
        <ele>89.7</ele>
        <time>2024-04-07T15:56:16.622Z</time>
      </trkpt>
      <trkpt lat="43.6577" lon="3.77826">
        <ele>89.6</ele>
        <time>2024-04-07T15:56:17.622Z</time>
      </trkpt>
      <trkpt lat="43.6577" lon="3.77824">
        <ele>89.8</ele>
        <time>2024-04-07T15:56:18.622Z</time>
      </trkpt>
      <trkpt lat="43.65769" lon="3.77822">
        <ele>89.8</ele>
        <time>2024-04-07T15:56:19.622Z</time>
      </trkpt>
      <trkpt lat="43.65764" lon="3.77814">
        <ele>89.8</ele>
        <time>2024-04-07T15:56:20.622Z</time>
      </trkpt>
      <trkpt lat="43.65759" lon="3.7781">
        <ele>89.2</ele>
        <time>2024-04-07T15:56:21.622Z</time>
      </trkpt>
      <trkpt lat="43.65748" lon="3.77804">
        <ele>87.8</ele>
        <time>2024-04-07T15:56:22.622Z</time>
      </trkpt>
      <trkpt lat="43.6574" lon="3.77799">
        <ele>86.9</ele>
        <time>2024-04-07T15:56:23.622Z</time>
      </trkpt>
      <trkpt lat="43.65735" lon="3.77797">
        <ele>86.3</ele>
        <time>2024-04-07T15:56:24.622Z</time>
      </trkpt>
      <trkpt lat="43.65729" lon="3.77795">
        <ele>85.4</ele>
        <time>2024-04-07T15:56:25.622Z</time>
      </trkpt>
      <trkpt lat="43.65723" lon="3.77789">
        <ele>84.7</ele>
        <time>2024-04-07T15:56:26.622Z</time>
      </trkpt>
      <trkpt lat="43.65719" lon="3.77781">
        <ele>84.5</ele>
        <time>2024-04-07T15:56:27.622Z</time>
      </trkpt>
      <trkpt lat="43.65713" lon="3.77767">
        <ele>84.3</ele>
        <time>2024-04-07T15:56:28.622Z</time>
      </trkpt>
      <trkpt lat="43.6571" lon="3.77758">
        <ele>84.1</ele>
        <time>2024-04-07T15:56:29.622Z</time>
      </trkpt>
      <trkpt lat="43.65708" lon="3.7775">
        <ele>84</ele>
        <time>2024-04-07T15:56:30.622Z</time>
      </trkpt>
      <trkpt lat="43.65708" lon="3.77742">
        <ele>84.2</ele>
        <time>2024-04-07T15:56:31.622Z</time>
      </trkpt>
      <trkpt lat="43.65708" lon="3.77735">
        <ele>84.5</ele>
        <time>2024-04-07T15:56:32.622Z</time>
      </trkpt>
      <trkpt lat="43.65709" lon="3.77728">
        <ele>84.9</ele>
        <time>2024-04-07T15:56:33.622Z</time>
      </trkpt>
      <trkpt lat="43.65711" lon="3.77723">
        <ele>85.5</ele>
        <time>2024-04-07T15:56:34.622Z</time>
      </trkpt>
      <trkpt lat="43.65712" lon="3.77717">
        <ele>86.3</ele>
        <time>2024-04-07T15:56:35.622Z</time>
      </trkpt>
      <trkpt lat="43.65711" lon="3.77712">
        <ele>86.5</ele>
        <time>2024-04-07T15:56:36.622Z</time>
      </trkpt>
      <trkpt lat="43.65708" lon="3.77708">
        <ele>86.2</ele>
        <time>2024-04-07T15:56:37.622Z</time>
      </trkpt>
      <trkpt lat="43.65705" lon="3.77705">
        <ele>85.8</ele>
        <time>2024-04-07T15:56:38.622Z</time>
      </trkpt>
      <trkpt lat="43.65702" lon="3.77703">
        <ele>85.2</ele>
        <time>2024-04-07T15:56:39.622Z</time>
      </trkpt>
      <trkpt lat="43.65701" lon="3.77698">
        <ele>85.4</ele>
        <time>2024-04-07T15:56:40.622Z</time>
      </trkpt>
      <trkpt lat="43.65701" lon="3.77696">
        <ele>85.5</ele>
        <time>2024-04-07T15:56:41.622Z</time>
      </trkpt>
      <trkpt lat="43.65701" lon="3.77692">
        <ele>85.8</ele>
        <time>2024-04-07T15:56:42.622Z</time>
      </trkpt>
      <trkpt lat="43.657" lon="3.77688">
        <ele>85.9</ele>
        <time>2024-04-07T15:56:43.622Z</time>
      </trkpt>
      <trkpt lat="43.657" lon="3.77684">
        <ele>86.2</ele>
        <time>2024-04-07T15:56:44.622Z</time>
      </trkpt>
      <trkpt lat="43.65699" lon="3.77679">
        <ele>86.3</ele>
        <time>2024-04-07T15:56:45.622Z</time>
      </trkpt>
      <trkpt lat="43.65698" lon="3.77674">
        <ele>86.4</ele>
        <time>2024-04-07T15:56:46.622Z</time>
      </trkpt>
      <trkpt lat="43.65697" lon="3.7767">
        <ele>86.4</ele>
        <time>2024-04-07T15:56:47.622Z</time>
      </trkpt>
      <trkpt lat="43.65697" lon="3.77666">
        <ele>86.7</ele>
        <time>2024-04-07T15:56:48.622Z</time>
      </trkpt>
      <trkpt lat="43.65698" lon="3.77661">
        <ele>87.1</ele>
        <time>2024-04-07T15:56:49.622Z</time>
      </trkpt>
      <trkpt lat="43.657" lon="3.77657">
        <ele>87.7</ele>
        <time>2024-04-07T15:56:50.622Z</time>
      </trkpt>
      <trkpt lat="43.657" lon="3.77656">
        <ele>87.7</ele>
        <time>2024-04-07T15:56:51.622Z</time>
      </trkpt>
      <trkpt lat="43.657" lon="3.77654">
        <ele>87.8</ele>
        <time>2024-04-07T15:56:52.622Z</time>
      </trkpt>
      <trkpt lat="43.65699" lon="3.77652">
        <ele>87.6</ele>
        <time>2024-04-07T15:56:53.622Z</time>
      </trkpt>
      <trkpt lat="43.65698" lon="3.7765">
        <ele>87.4</ele>
        <time>2024-04-07T15:56:54.622Z</time>
      </trkpt>
      <trkpt lat="43.65698" lon="3.77648">
        <ele>87.5</ele>
        <time>2024-04-07T15:56:57.622Z</time>
      </trkpt>
      <trkpt lat="43.65698" lon="3.77647">
        <ele>87.5</ele>
        <time>2024-04-07T15:56:58.622Z</time>
      </trkpt>
      <trkpt lat="43.65697" lon="3.7763">
        <ele>87.2</ele>
        <time>2024-04-07T15:57:16.622Z</time>
      </trkpt>
      <trkpt lat="43.65697" lon="3.77629">
        <ele>87.2</ele>
        <time>2024-04-07T15:58:30.622Z</time>
      </trkpt>
      <trkpt lat="43.65697" lon="3.77627">
        <ele>87.1</ele>
        <time>2024-04-07T15:58:31.622Z</time>
      </trkpt>
      <trkpt lat="43.65697" lon="3.77626">
        <ele>87.1</ele>
        <time>2024-04-07T15:58:32.622Z</time>
      </trkpt>
      <trkpt lat="43.65699" lon="3.77621">
        <ele>87.3</ele>
        <time>2024-04-07T15:58:33.622Z</time>
      </trkpt>
      <trkpt lat="43.65701" lon="3.77616">
        <ele>87.6</ele>
        <time>2024-04-07T15:58:34.622Z</time>
      </trkpt>
      <trkpt lat="43.65703" lon="3.77612">
        <ele>87.9</ele>
        <time>2024-04-07T15:58:35.622Z</time>
      </trkpt>
      <trkpt lat="43.65705" lon="3.77607">
        <ele>88.3</ele>
        <time>2024-04-07T15:58:36.622Z</time>
      </trkpt>
      <trkpt lat="43.65707" lon="3.77603">
        <ele>88.7</ele>
        <time>2024-04-07T15:58:37.622Z</time>
      </trkpt>
      <trkpt lat="43.65709" lon="3.77598">
        <ele>89.1</ele>
        <time>2024-04-07T15:58:38.622Z</time>
      </trkpt>
      <trkpt lat="43.65712" lon="3.77594">
        <ele>89.8</ele>
        <time>2024-04-07T15:58:39.622Z</time>
      </trkpt>
      <trkpt lat="43.65714" lon="3.7759">
        <ele>90.2</ele>
        <time>2024-04-07T15:58:40.622Z</time>
      </trkpt>
      <trkpt lat="43.65715" lon="3.77586">
        <ele>90.4</ele>
        <time>2024-04-07T15:58:41.622Z</time>
      </trkpt>
      <trkpt lat="43.65717" lon="3.77581">
        <ele>90.8</ele>
        <time>2024-04-07T15:58:42.622Z</time>
      </trkpt>
      <trkpt lat="43.65719" lon="3.77574">
        <ele>91.1</ele>
        <time>2024-04-07T15:58:43.622Z</time>
      </trkpt>
      <trkpt lat="43.65722" lon="3.77569">
        <ele>91.4</ele>
        <time>2024-04-07T15:58:44.622Z</time>
      </trkpt>
      <trkpt lat="43.65724" lon="3.77564">
        <ele>91.6</ele>
        <time>2024-04-07T15:58:45.622Z</time>
      </trkpt>
      <trkpt lat="43.65727" lon="3.7756">
        <ele>91.9</ele>
        <time>2024-04-07T15:58:46.622Z</time>
      </trkpt>
      <trkpt lat="43.65729" lon="3.77556">
        <ele>92</ele>
        <time>2024-04-07T15:58:47.622Z</time>
      </trkpt>
      <trkpt lat="43.65731" lon="3.77551">
        <ele>92</ele>
        <time>2024-04-07T15:58:48.622Z</time>
      </trkpt>
      <trkpt lat="43.65733" lon="3.77547">
        <ele>92.1</ele>
        <time>2024-04-07T15:58:49.622Z</time>
      </trkpt>
      <trkpt lat="43.65735" lon="3.77542">
        <ele>92.1</ele>
        <time>2024-04-07T15:58:50.622Z</time>
      </trkpt>
      <trkpt lat="43.65736" lon="3.77538">
        <ele>92</ele>
        <time>2024-04-07T15:58:51.622Z</time>
      </trkpt>
      <trkpt lat="43.65736" lon="3.77533">
        <ele>91.8</ele>
        <time>2024-04-07T15:58:52.622Z</time>
      </trkpt>
      <trkpt lat="43.65736" lon="3.77529">
        <ele>91.5</ele>
        <time>2024-04-07T15:58:53.622Z</time>
      </trkpt>
      <trkpt lat="43.65736" lon="3.77524">
        <ele>91.5</ele>
        <time>2024-04-07T15:58:54.622Z</time>
      </trkpt>
      <trkpt lat="43.65737" lon="3.77519">
        <ele>91.8</ele>
        <time>2024-04-07T15:58:55.622Z</time>
      </trkpt>
      <trkpt lat="43.65737" lon="3.77515">
        <ele>91.9</ele>
        <time>2024-04-07T15:58:56.622Z</time>
      </trkpt>
      <trkpt lat="43.65738" lon="3.7751">
        <ele>92.1</ele>
        <time>2024-04-07T15:58:57.622Z</time>
      </trkpt>
      <trkpt lat="43.65739" lon="3.77506">
        <ele>92.3</ele>
        <time>2024-04-07T15:58:58.622Z</time>
      </trkpt>
      <trkpt lat="43.65741" lon="3.77502">
        <ele>92.7</ele>
        <time>2024-04-07T15:58:59.622Z</time>
      </trkpt>
      <trkpt lat="43.65743" lon="3.77498">
        <ele>92.9</ele>
        <time>2024-04-07T15:59:00.622Z</time>
      </trkpt>
      <trkpt lat="43.65745" lon="3.77494">
        <ele>93</ele>
        <time>2024-04-07T15:59:01.622Z</time>
      </trkpt>
      <trkpt lat="43.65747" lon="3.77491">
        <ele>93</ele>
        <time>2024-04-07T15:59:02.622Z</time>
      </trkpt>
      <trkpt lat="43.65749" lon="3.77487">
        <ele>93</ele>
        <time>2024-04-07T15:59:03.622Z</time>
      </trkpt>
      <trkpt lat="43.65749" lon="3.77487">
        <ele>93</ele>
        <time>2024-04-07T15:59:04.622Z</time>
      </trkpt>
      <trkpt lat="43.6575" lon="3.77482">
        <ele>92.7</ele>
        <time>2024-04-07T15:59:05.622Z</time>
      </trkpt>
      <trkpt lat="43.65751" lon="3.7748">
        <ele>92.7</ele>
        <time>2024-04-07T15:59:06.622Z</time>
      </trkpt>
      <trkpt lat="43.6575" lon="3.77476">
        <ele>92.3</ele>
        <time>2024-04-07T15:59:07.622Z</time>
      </trkpt>
      <trkpt lat="43.65749" lon="3.77474">
        <ele>92.1</ele>
        <time>2024-04-07T15:59:08.622Z</time>
      </trkpt>
      <trkpt lat="43.65746" lon="3.77472">
        <ele>91.9</ele>
        <time>2024-04-07T15:59:09.622Z</time>
      </trkpt>
      <trkpt lat="43.65746" lon="3.77472">
        <ele>91.9</ele>
        <time>2024-04-07T15:59:10.622Z</time>
      </trkpt>
      <trkpt lat="43.65744" lon="3.77471">
        <ele>91.8</ele>
        <time>2024-04-07T15:59:11.622Z</time>
      </trkpt>
      <trkpt lat="43.65743" lon="3.77471">
        <ele>91.8</ele>
        <time>2024-04-07T15:59:12.622Z</time>
      </trkpt>
      <trkpt lat="43.6574" lon="3.77471">
        <ele>91.7</ele>
        <time>2024-04-07T15:59:13.622Z</time>
      </trkpt>
      <trkpt lat="43.65739" lon="3.77472">
        <ele>91.6</ele>
        <time>2024-04-07T15:59:14.622Z</time>
      </trkpt>
      <trkpt lat="43.65735" lon="3.77474">
        <ele>91.5</ele>
        <time>2024-04-07T15:59:15.622Z</time>
      </trkpt>
      <trkpt lat="43.65732" lon="3.77475">
        <ele>91.4</ele>
        <time>2024-04-07T15:59:16.622Z</time>
      </trkpt>
      <trkpt lat="43.65727" lon="3.77474">
        <ele>91.1</ele>
        <time>2024-04-07T15:59:17.622Z</time>
      </trkpt>
      <trkpt lat="43.65722" lon="3.77476">
        <ele>90.9</ele>
        <time>2024-04-07T15:59:18.622Z</time>
      </trkpt>
      <trkpt lat="43.65719" lon="3.77481">
        <ele>91.4</ele>
        <time>2024-04-07T15:59:19.622Z</time>
      </trkpt>
      <trkpt lat="43.65715" lon="3.77482">
        <ele>92.2</ele>
        <time>2024-04-07T15:59:20.622Z</time>
      </trkpt>
      <trkpt lat="43.65712" lon="3.77484">
        <ele>92.7</ele>
        <time>2024-04-07T15:59:21.622Z</time>
      </trkpt>
      <trkpt lat="43.65709" lon="3.77486">
        <ele>93.1</ele>
        <time>2024-04-07T15:59:22.622Z</time>
      </trkpt>
      <trkpt lat="43.65707" lon="3.77489">
        <ele>93.2</ele>
        <time>2024-04-07T15:59:23.622Z</time>
      </trkpt>
      <trkpt lat="43.65705" lon="3.77493">
        <ele>93.2</ele>
        <time>2024-04-07T15:59:24.622Z</time>
      </trkpt>
      <trkpt lat="43.65705" lon="3.77499">
        <ele>92.6</ele>
        <time>2024-04-07T15:59:25.622Z</time>
      </trkpt>
      <trkpt lat="43.65705" lon="3.77504">
        <ele>92.1</ele>
        <time>2024-04-07T15:59:26.622Z</time>
      </trkpt>
      <trkpt lat="43.65705" lon="3.7751">
        <ele>91.5</ele>
        <time>2024-04-07T15:59:27.622Z</time>
      </trkpt>
      <trkpt lat="43.65696" lon="3.7754">
        <ele>89.2</ele>
        <time>2024-04-07T15:59:59.622Z</time>
      </trkpt>
      <trkpt lat="43.65696" lon="3.7754">
        <ele>89.2</ele>
        <time>2024-04-07T16:00:01.622Z</time>
      </trkpt>
      <trkpt lat="43.65696" lon="3.7754">
        <ele>89.2</ele>
        <time>2024-04-07T16:00:03.622Z</time>
      </trkpt>
      <trkpt lat="43.65694" lon="3.77547">
        <ele>88.7</ele>
        <time>2024-04-07T16:00:12.622Z</time>
      </trkpt>
      <trkpt lat="43.65694" lon="3.77552">
        <ele>88.3</ele>
        <time>2024-04-07T16:00:14.622Z</time>
      </trkpt>
      <trkpt lat="43.6569" lon="3.77559">
        <ele>88.6</ele>
        <time>2024-04-07T16:00:15.622Z</time>
      </trkpt>
      <trkpt lat="43.65689" lon="3.77565">
        <ele>88.3</ele>
        <time>2024-04-07T16:00:16.622Z</time>
      </trkpt>
      <trkpt lat="43.65688" lon="3.7757">
        <ele>88.1</ele>
        <time>2024-04-07T16:00:17.622Z</time>
      </trkpt>
      <trkpt lat="43.65686" lon="3.77575">
        <ele>88.1</ele>
        <time>2024-04-07T16:00:18.622Z</time>
      </trkpt>
      <trkpt lat="43.65683" lon="3.77583">
        <ele>88.1</ele>
        <time>2024-04-07T16:00:19.622Z</time>
      </trkpt>
      <trkpt lat="43.65682" lon="3.77591">
        <ele>87.7</ele>
        <time>2024-04-07T16:00:20.622Z</time>
      </trkpt>
      <trkpt lat="43.65681" lon="3.77595">
        <ele>87.6</ele>
        <time>2024-04-07T16:00:21.622Z</time>
      </trkpt>
      <trkpt lat="43.6568" lon="3.77606">
        <ele>86.9</ele>
        <time>2024-04-07T16:00:22.622Z</time>
      </trkpt>
      <trkpt lat="43.65677" lon="3.77615">
        <ele>86.5</ele>
        <time>2024-04-07T16:00:23.622Z</time>
      </trkpt>
      <trkpt lat="43.65672" lon="3.77633">
        <ele>85.7</ele>
        <time>2024-04-07T16:00:27.622Z</time>
      </trkpt>
      <trkpt lat="43.65673" lon="3.77646">
        <ele>85.2</ele>
        <time>2024-04-07T16:00:28.622Z</time>
      </trkpt>
      <trkpt lat="43.6567" lon="3.7765">
        <ele>84.8</ele>
        <time>2024-04-07T16:00:29.622Z</time>
      </trkpt>
      <trkpt lat="43.65668" lon="3.77656">
        <ele>84.5</ele>
        <time>2024-04-07T16:00:30.622Z</time>
      </trkpt>
      <trkpt lat="43.65665" lon="3.77661">
        <ele>84.5</ele>
        <time>2024-04-07T16:00:31.622Z</time>
      </trkpt>
      <trkpt lat="43.65664" lon="3.77667">
        <ele>84.4</ele>
        <time>2024-04-07T16:00:32.622Z</time>
      </trkpt>
      <trkpt lat="43.65663" lon="3.77671">
        <ele>84.2</ele>
        <time>2024-04-07T16:00:33.622Z</time>
      </trkpt>
      <trkpt lat="43.65661" lon="3.77675">
        <ele>84.2</ele>
        <time>2024-04-07T16:00:34.622Z</time>
      </trkpt>
      <trkpt lat="43.6566" lon="3.77679">
        <ele>84</ele>
        <time>2024-04-07T16:00:35.622Z</time>
      </trkpt>
      <trkpt lat="43.65659" lon="3.77684">
        <ele>83.7</ele>
        <time>2024-04-07T16:00:36.622Z</time>
      </trkpt>
      <trkpt lat="43.65659" lon="3.77687">
        <ele>83.4</ele>
        <time>2024-04-07T16:00:37.622Z</time>
      </trkpt>
      <trkpt lat="43.65657" lon="3.77693">
        <ele>83.2</ele>
        <time>2024-04-07T16:00:38.622Z</time>
      </trkpt>
      <trkpt lat="43.65651" lon="3.777">
        <ele>83.4</ele>
        <time>2024-04-07T16:00:39.622Z</time>
      </trkpt>
      <trkpt lat="43.65646" lon="3.77709">
        <ele>83.3</ele>
        <time>2024-04-07T16:00:40.622Z</time>
      </trkpt>
      <trkpt lat="43.65644" lon="3.77716">
        <ele>83</ele>
        <time>2024-04-07T16:00:41.622Z</time>
      </trkpt>
      <trkpt lat="43.65644" lon="3.77722">
        <ele>82.6</ele>
        <time>2024-04-07T16:00:42.622Z</time>
      </trkpt>
      <trkpt lat="43.65643" lon="3.77728">
        <ele>82.3</ele>
        <time>2024-04-07T16:00:43.622Z</time>
      </trkpt>
      <trkpt lat="43.65641" lon="3.77732">
        <ele>82.2</ele>
        <time>2024-04-07T16:00:44.622Z</time>
      </trkpt>
      <trkpt lat="43.65639" lon="3.77736">
        <ele>82</ele>
        <time>2024-04-07T16:00:45.622Z</time>
      </trkpt>
      <trkpt lat="43.65637" lon="3.77742">
        <ele>81.8</ele>
        <time>2024-04-07T16:00:46.622Z</time>
      </trkpt>
      <trkpt lat="43.65636" lon="3.77747">
        <ele>81.5</ele>
        <time>2024-04-07T16:00:47.622Z</time>
      </trkpt>
      <trkpt lat="43.65634" lon="3.77755">
        <ele>81.3</ele>
        <time>2024-04-07T16:00:48.622Z</time>
      </trkpt>
      <trkpt lat="43.65632" lon="3.77763">
        <ele>81.3</ele>
        <time>2024-04-07T16:00:49.622Z</time>
      </trkpt>
      <trkpt lat="43.65629" lon="3.77773">
        <ele>81.2</ele>
        <time>2024-04-07T16:00:50.622Z</time>
      </trkpt>
      <trkpt lat="43.65628" lon="3.77781">
        <ele>81</ele>
        <time>2024-04-07T16:00:51.622Z</time>
      </trkpt>
      <trkpt lat="43.65626" lon="3.77789">
        <ele>80.8</ele>
        <time>2024-04-07T16:00:52.622Z</time>
      </trkpt>
      <trkpt lat="43.65623" lon="3.77797">
        <ele>80.6</ele>
        <time>2024-04-07T16:00:53.622Z</time>
      </trkpt>
      <trkpt lat="43.65621" lon="3.77804">
        <ele>80.4</ele>
        <time>2024-04-07T16:00:54.622Z</time>
      </trkpt>
      <trkpt lat="43.65618" lon="3.77811">
        <ele>80.1</ele>
        <time>2024-04-07T16:00:55.622Z</time>
      </trkpt>
      <trkpt lat="43.65615" lon="3.77816">
        <ele>79.7</ele>
        <time>2024-04-07T16:00:56.622Z</time>
      </trkpt>
      <trkpt lat="43.65613" lon="3.77821">
        <ele>79.3</ele>
        <time>2024-04-07T16:00:57.622Z</time>
      </trkpt>
      <trkpt lat="43.65608" lon="3.77827">
        <ele>78.8</ele>
        <time>2024-04-07T16:00:58.622Z</time>
      </trkpt>
      <trkpt lat="43.65604" lon="3.77832">
        <ele>78.4</ele>
        <time>2024-04-07T16:00:59.622Z</time>
      </trkpt>
      <trkpt lat="43.65597" lon="3.77838">
        <ele>78.2</ele>
        <time>2024-04-07T16:01:00.622Z</time>
      </trkpt>
      <trkpt lat="43.65593" lon="3.77843">
        <ele>77.9</ele>
        <time>2024-04-07T16:01:01.622Z</time>
      </trkpt>
      <trkpt lat="43.65589" lon="3.77847">
        <ele>77.5</ele>
        <time>2024-04-07T16:01:02.622Z</time>
      </trkpt>
      <trkpt lat="43.65585" lon="3.77851">
        <ele>77.1</ele>
        <time>2024-04-07T16:01:03.622Z</time>
      </trkpt>
      <trkpt lat="43.65581" lon="3.77854">
        <ele>76.8</ele>
        <time>2024-04-07T16:01:04.622Z</time>
      </trkpt>
      <trkpt lat="43.65579" lon="3.77858">
        <ele>76.3</ele>
        <time>2024-04-07T16:01:05.622Z</time>
      </trkpt>
      <trkpt lat="43.65576" lon="3.77862">
        <ele>76</ele>
        <time>2024-04-07T16:01:06.622Z</time>
      </trkpt>
      <trkpt lat="43.65574" lon="3.77867">
        <ele>75.9</ele>
        <time>2024-04-07T16:01:07.622Z</time>
      </trkpt>
      <trkpt lat="43.65571" lon="3.77872">
        <ele>75.8</ele>
        <time>2024-04-07T16:01:08.622Z</time>
      </trkpt>
      <trkpt lat="43.65569" lon="3.77877">
        <ele>75.7</ele>
        <time>2024-04-07T16:01:09.622Z</time>
      </trkpt>
      <trkpt lat="43.65566" lon="3.7788">
        <ele>75.6</ele>
        <time>2024-04-07T16:01:10.622Z</time>
      </trkpt>
      <trkpt lat="43.65562" lon="3.77882">
        <ele>75.4</ele>
        <time>2024-04-07T16:01:11.622Z</time>
      </trkpt>
      <trkpt lat="43.65558" lon="3.77883">
        <ele>75.3</ele>
        <time>2024-04-07T16:01:12.622Z</time>
      </trkpt>
      <trkpt lat="43.65555" lon="3.77884">
        <ele>75.2</ele>
        <time>2024-04-07T16:01:13.622Z</time>
      </trkpt>
      <trkpt lat="43.65551" lon="3.77885">
        <ele>75</ele>
        <time>2024-04-07T16:01:14.622Z</time>
      </trkpt>
      <trkpt lat="43.65547" lon="3.77887">
        <ele>74.8</ele>
        <time>2024-04-07T16:01:15.622Z</time>
      </trkpt>
      <trkpt lat="43.65543" lon="3.77888">
        <ele>74.6</ele>
        <time>2024-04-07T16:01:16.622Z</time>
      </trkpt>
      <trkpt lat="43.65539" lon="3.77889">
        <ele>74.4</ele>
        <time>2024-04-07T16:01:17.622Z</time>
      </trkpt>
      <trkpt lat="43.65535" lon="3.7789">
        <ele>74.2</ele>
        <time>2024-04-07T16:01:18.622Z</time>
      </trkpt>
      <trkpt lat="43.6553" lon="3.77892">
        <ele>74</ele>
        <time>2024-04-07T16:01:19.622Z</time>
      </trkpt>
      <trkpt lat="43.65527" lon="3.77895">
        <ele>73.8</ele>
        <time>2024-04-07T16:01:20.622Z</time>
      </trkpt>
      <trkpt lat="43.65524" lon="3.77898">
        <ele>73.7</ele>
        <time>2024-04-07T16:01:21.622Z</time>
      </trkpt>
      <trkpt lat="43.65522" lon="3.77902">
        <ele>73.5</ele>
        <time>2024-04-07T16:01:22.622Z</time>
      </trkpt>
      <trkpt lat="43.65519" lon="3.77906">
        <ele>73.4</ele>
        <time>2024-04-07T16:01:23.622Z</time>
      </trkpt>
      <trkpt lat="43.65515" lon="3.7791">
        <ele>73.2</ele>
        <time>2024-04-07T16:01:24.622Z</time>
      </trkpt>
      <trkpt lat="43.65511" lon="3.77914">
        <ele>73.1</ele>
        <time>2024-04-07T16:01:25.622Z</time>
      </trkpt>
      <trkpt lat="43.65507" lon="3.77918">
        <ele>73</ele>
        <time>2024-04-07T16:01:26.622Z</time>
      </trkpt>
      <trkpt lat="43.65502" lon="3.7792">
        <ele>72.9</ele>
        <time>2024-04-07T16:01:27.622Z</time>
      </trkpt>
      <trkpt lat="43.65497" lon="3.77921">
        <ele>72.7</ele>
        <time>2024-04-07T16:01:28.622Z</time>
      </trkpt>
      <trkpt lat="43.65494" lon="3.77923">
        <ele>72.4</ele>
        <time>2024-04-07T16:01:29.622Z</time>
      </trkpt>
      <trkpt lat="43.65491" lon="3.77925">
        <ele>72.2</ele>
        <time>2024-04-07T16:01:30.622Z</time>
      </trkpt>
      <trkpt lat="43.6549" lon="3.77925">
        <ele>72.2</ele>
        <time>2024-04-07T16:01:31.622Z</time>
      </trkpt>
      <trkpt lat="43.65487" lon="3.77926">
        <ele>72</ele>
        <time>2024-04-07T16:01:32.622Z</time>
      </trkpt>
      <trkpt lat="43.65486" lon="3.77926">
        <ele>72</ele>
        <time>2024-04-07T16:01:33.622Z</time>
      </trkpt>
      <trkpt lat="43.65483" lon="3.77924">
        <ele>71.8</ele>
        <time>2024-04-07T16:01:34.622Z</time>
      </trkpt>
      <trkpt lat="43.65483" lon="3.77924">
        <ele>71.8</ele>
        <time>2024-04-07T16:01:35.622Z</time>
      </trkpt>
      <trkpt lat="43.65481" lon="3.77921">
        <ele>71.7</ele>
        <time>2024-04-07T16:01:36.622Z</time>
      </trkpt>
      <trkpt lat="43.6548" lon="3.7792">
        <ele>71.6</ele>
        <time>2024-04-07T16:01:37.622Z</time>
      </trkpt>
      <trkpt lat="43.65478" lon="3.77917">
        <ele>71.4</ele>
        <time>2024-04-07T16:01:38.622Z</time>
      </trkpt>
      <trkpt lat="43.65476" lon="3.77917">
        <ele>71.3</ele>
        <time>2024-04-07T16:01:39.622Z</time>
      </trkpt>
      <trkpt lat="43.65473" lon="3.77917">
        <ele>71.1</ele>
        <time>2024-04-07T16:01:40.622Z</time>
      </trkpt>
      <trkpt lat="43.65469" lon="3.77919">
        <ele>71.4</ele>
        <time>2024-04-07T16:01:41.622Z</time>
      </trkpt>
      <trkpt lat="43.65466" lon="3.77923">
        <ele>71.8</ele>
        <time>2024-04-07T16:01:42.622Z</time>
      </trkpt>
      <trkpt lat="43.65463" lon="3.77925">
        <ele>72.1</ele>
        <time>2024-04-07T16:01:43.622Z</time>
      </trkpt>
      <trkpt lat="43.65458" lon="3.77926">
        <ele>72.5</ele>
        <time>2024-04-07T16:01:44.622Z</time>
      </trkpt>
      <trkpt lat="43.65454" lon="3.77927">
        <ele>72.9</ele>
        <time>2024-04-07T16:01:45.622Z</time>
      </trkpt>
      <trkpt lat="43.65451" lon="3.77927">
        <ele>73.1</ele>
        <time>2024-04-07T16:01:46.622Z</time>
      </trkpt>
      <trkpt lat="43.6545" lon="3.77927">
        <ele>73.2</ele>
        <time>2024-04-07T16:01:47.622Z</time>
      </trkpt>
      <trkpt lat="43.65447" lon="3.77925">
        <ele>73.5</ele>
        <time>2024-04-07T16:01:48.622Z</time>
      </trkpt>
      <trkpt lat="43.65446" lon="3.77924">
        <ele>73.6</ele>
        <time>2024-04-07T16:01:49.622Z</time>
      </trkpt>
      <trkpt lat="43.65444" lon="3.77923">
        <ele>73.8</ele>
        <time>2024-04-07T16:01:50.622Z</time>
      </trkpt>
      <trkpt lat="43.65444" lon="3.77922">
        <ele>73.9</ele>
        <time>2024-04-07T16:01:51.622Z</time>
      </trkpt>
      <trkpt lat="43.65444" lon="3.7792">
        <ele>74</ele>
        <time>2024-04-07T16:01:53.622Z</time>
      </trkpt>
      <trkpt lat="43.65449" lon="3.77888">
        <ele>73.7</ele>
        <time>2024-04-07T16:04:01.622Z</time>
      </trkpt>
      <trkpt lat="43.65449" lon="3.7788">
        <ele>73.9</ele>
        <time>2024-04-07T16:04:02.622Z</time>
      </trkpt>
      <trkpt lat="43.6545" lon="3.77871">
        <ele>74.1</ele>
        <time>2024-04-07T16:04:03.622Z</time>
      </trkpt>
      <trkpt lat="43.6545" lon="3.77863">
        <ele>74.3</ele>
        <time>2024-04-07T16:04:04.622Z</time>
      </trkpt>
      <trkpt lat="43.65451" lon="3.77856">
        <ele>74.5</ele>
        <time>2024-04-07T16:04:05.622Z</time>
      </trkpt>
      <trkpt lat="43.65451" lon="3.77848">
        <ele>74.8</ele>
        <time>2024-04-07T16:04:06.622Z</time>
      </trkpt>
      <trkpt lat="43.65452" lon="3.77842">
        <ele>74.9</ele>
        <time>2024-04-07T16:04:07.622Z</time>
      </trkpt>
      <trkpt lat="43.65454" lon="3.77836">
        <ele>74.9</ele>
        <time>2024-04-07T16:04:08.622Z</time>
      </trkpt>
      <trkpt lat="43.65456" lon="3.77829">
        <ele>74.8</ele>
        <time>2024-04-07T16:04:09.622Z</time>
      </trkpt>
      <trkpt lat="43.65458" lon="3.77823">
        <ele>74.7</ele>
        <time>2024-04-07T16:04:10.622Z</time>
      </trkpt>
      <trkpt lat="43.6546" lon="3.77818">
        <ele>74.6</ele>
        <time>2024-04-07T16:04:11.622Z</time>
      </trkpt>
      <trkpt lat="43.65461" lon="3.77813">
        <ele>74.5</ele>
        <time>2024-04-07T16:04:12.622Z</time>
      </trkpt>
      <trkpt lat="43.65464" lon="3.77807">
        <ele>74.2</ele>
        <time>2024-04-07T16:04:13.622Z</time>
      </trkpt>
      <trkpt lat="43.65467" lon="3.778">
        <ele>73.9</ele>
        <time>2024-04-07T16:04:14.622Z</time>
      </trkpt>
      <trkpt lat="43.65469" lon="3.77794">
        <ele>73.8</ele>
        <time>2024-04-07T16:04:15.622Z</time>
      </trkpt>
      <trkpt lat="43.65471" lon="3.77788">
        <ele>73.8</ele>
        <time>2024-04-07T16:04:16.622Z</time>
      </trkpt>
      <trkpt lat="43.65472" lon="3.77784">
        <ele>73.8</ele>
        <time>2024-04-07T16:04:17.622Z</time>
      </trkpt>
      <trkpt lat="43.65473" lon="3.77777">
        <ele>74</ele>
        <time>2024-04-07T16:04:18.622Z</time>
      </trkpt>
      <trkpt lat="43.65473" lon="3.77771">
        <ele>74.2</ele>
        <time>2024-04-07T16:04:19.622Z</time>
      </trkpt>
      <trkpt lat="43.65474" lon="3.77765">
        <ele>74.4</ele>
        <time>2024-04-07T16:04:20.622Z</time>
      </trkpt>
      <trkpt lat="43.65476" lon="3.7776">
        <ele>74.6</ele>
        <time>2024-04-07T16:04:21.622Z</time>
      </trkpt>
      <trkpt lat="43.65478" lon="3.77753">
        <ele>74.7</ele>
        <time>2024-04-07T16:04:22.622Z</time>
      </trkpt>
      <trkpt lat="43.65481" lon="3.77745">
        <ele>74.7</ele>
        <time>2024-04-07T16:04:23.622Z</time>
      </trkpt>
      <trkpt lat="43.65483" lon="3.7774">
        <ele>74.6</ele>
        <time>2024-04-07T16:04:24.622Z</time>
      </trkpt>
      <trkpt lat="43.65484" lon="3.77734">
        <ele>74.6</ele>
        <time>2024-04-07T16:04:25.622Z</time>
      </trkpt>
      <trkpt lat="43.65486" lon="3.77729">
        <ele>74.5</ele>
        <time>2024-04-07T16:04:26.622Z</time>
      </trkpt>
      <trkpt lat="43.65486" lon="3.77726">
        <ele>74.5</ele>
        <time>2024-04-07T16:04:27.622Z</time>
      </trkpt>
      <trkpt lat="43.65487" lon="3.77721">
        <ele>74.5</ele>
        <time>2024-04-07T16:04:28.622Z</time>
      </trkpt>
      <trkpt lat="43.65489" lon="3.77715">
        <ele>74.6</ele>
        <time>2024-04-07T16:04:29.622Z</time>
      </trkpt>
      <trkpt lat="43.6549" lon="3.7771">
        <ele>74.6</ele>
        <time>2024-04-07T16:04:30.622Z</time>
      </trkpt>
      <trkpt lat="43.6549" lon="3.77705">
        <ele>74.8</ele>
        <time>2024-04-07T16:04:31.622Z</time>
      </trkpt>
      <trkpt lat="43.6549" lon="3.77698">
        <ele>74.9</ele>
        <time>2024-04-07T16:04:32.622Z</time>
      </trkpt>
      <trkpt lat="43.65491" lon="3.77692">
        <ele>75.1</ele>
        <time>2024-04-07T16:04:33.622Z</time>
      </trkpt>
      <trkpt lat="43.65492" lon="3.77684">
        <ele>75.4</ele>
        <time>2024-04-07T16:04:34.622Z</time>
      </trkpt>
      <trkpt lat="43.65492" lon="3.77677">
        <ele>75.7</ele>
        <time>2024-04-07T16:04:35.622Z</time>
      </trkpt>
      <trkpt lat="43.65493" lon="3.77672">
        <ele>75.8</ele>
        <time>2024-04-07T16:04:36.622Z</time>
      </trkpt>
      <trkpt lat="43.65494" lon="3.77667">
        <ele>75.9</ele>
        <time>2024-04-07T16:04:37.622Z</time>
      </trkpt>
      <trkpt lat="43.65495" lon="3.77663">
        <ele>75.8</ele>
        <time>2024-04-07T16:04:38.622Z</time>
      </trkpt>
      <trkpt lat="43.65495" lon="3.77659">
        <ele>75.9</ele>
        <time>2024-04-07T16:04:39.622Z</time>
      </trkpt>
      <trkpt lat="43.65495" lon="3.77654">
        <ele>76.1</ele>
        <time>2024-04-07T16:04:40.622Z</time>
      </trkpt>
      <trkpt lat="43.65495" lon="3.77648">
        <ele>76.3</ele>
        <time>2024-04-07T16:04:41.622Z</time>
      </trkpt>
      <trkpt lat="43.65492" lon="3.77639">
        <ele>76.9</ele>
        <time>2024-04-07T16:04:43.622Z</time>
      </trkpt>
      <trkpt lat="43.65491" lon="3.77634">
        <ele>77.3</ele>
        <time>2024-04-07T16:04:44.622Z</time>
      </trkpt>
      <trkpt lat="43.65491" lon="3.77631">
        <ele>77.5</ele>
        <time>2024-04-07T16:04:45.622Z</time>
      </trkpt>
      <trkpt lat="43.65492" lon="3.77627">
        <ele>77.7</ele>
        <time>2024-04-07T16:04:46.622Z</time>
      </trkpt>
      <trkpt lat="43.65493" lon="3.77622">
        <ele>78</ele>
        <time>2024-04-07T16:04:47.622Z</time>
      </trkpt>
      <trkpt lat="43.65494" lon="3.77617">
        <ele>78.2</ele>
        <time>2024-04-07T16:04:48.622Z</time>
      </trkpt>
      <trkpt lat="43.65495" lon="3.77614">
        <ele>78.3</ele>
        <time>2024-04-07T16:04:49.622Z</time>
      </trkpt>
      <trkpt lat="43.65495" lon="3.77609">
        <ele>78.6</ele>
        <time>2024-04-07T16:04:50.622Z</time>
      </trkpt>
      <trkpt lat="43.65496" lon="3.77605">
        <ele>78.5</ele>
        <time>2024-04-07T16:04:51.622Z</time>
      </trkpt>
      <trkpt lat="43.65496" lon="3.776">
        <ele>78.5</ele>
        <time>2024-04-07T16:04:52.622Z</time>
      </trkpt>
      <trkpt lat="43.65498" lon="3.77595">
        <ele>78.3</ele>
        <time>2024-04-07T16:04:53.622Z</time>
      </trkpt>
      <trkpt lat="43.65498" lon="3.77594">
        <ele>78.3</ele>
        <time>2024-04-07T16:04:54.622Z</time>
      </trkpt>
      <trkpt lat="43.65498" lon="3.77589">
        <ele>78.3</ele>
        <time>2024-04-07T16:04:55.622Z</time>
      </trkpt>
      <trkpt lat="43.65497" lon="3.77585">
        <ele>78.4</ele>
        <time>2024-04-07T16:04:56.622Z</time>
      </trkpt>
      <trkpt lat="43.65497" lon="3.77581">
        <ele>78.5</ele>
        <time>2024-04-07T16:04:57.622Z</time>
      </trkpt>
      <trkpt lat="43.65496" lon="3.77576">
        <ele>78.8</ele>
        <time>2024-04-07T16:04:58.622Z</time>
      </trkpt>
      <trkpt lat="43.65497" lon="3.77571">
        <ele>78.8</ele>
        <time>2024-04-07T16:04:59.622Z</time>
      </trkpt>
      <trkpt lat="43.65496" lon="3.77566">
        <ele>79.1</ele>
        <time>2024-04-07T16:05:00.622Z</time>
      </trkpt>
      <trkpt lat="43.65495" lon="3.77563">
        <ele>79.3</ele>
        <time>2024-04-07T16:05:01.622Z</time>
      </trkpt>
      <trkpt lat="43.65496" lon="3.77557">
        <ele>79.4</ele>
        <time>2024-04-07T16:05:02.622Z</time>
      </trkpt>
      <trkpt lat="43.65496" lon="3.77556">
        <ele>79.4</ele>
        <time>2024-04-07T16:05:03.622Z</time>
      </trkpt>
      <trkpt lat="43.65497" lon="3.7755">
        <ele>79.5</ele>
        <time>2024-04-07T16:05:04.622Z</time>
      </trkpt>
      <trkpt lat="43.65497" lon="3.77549">
        <ele>79.6</ele>
        <time>2024-04-07T16:05:05.622Z</time>
      </trkpt>
      <trkpt lat="43.65498" lon="3.77545">
        <ele>79.6</ele>
        <time>2024-04-07T16:05:06.622Z</time>
      </trkpt>
      <trkpt lat="43.65499" lon="3.77543">
        <ele>79.6</ele>
        <time>2024-04-07T16:05:07.622Z</time>
      </trkpt>
      <trkpt lat="43.655" lon="3.77539">
        <ele>79.6</ele>
        <time>2024-04-07T16:05:08.622Z</time>
      </trkpt>
      <trkpt lat="43.65501" lon="3.77536">
        <ele>79.6</ele>
        <time>2024-04-07T16:05:09.622Z</time>
      </trkpt>
      <trkpt lat="43.65502" lon="3.77531">
        <ele>79.7</ele>
        <time>2024-04-07T16:05:10.622Z</time>
      </trkpt>
      <trkpt lat="43.65504" lon="3.77528">
        <ele>79.7</ele>
        <time>2024-04-07T16:05:11.622Z</time>
      </trkpt>
      <trkpt lat="43.65505" lon="3.77524">
        <ele>79.8</ele>
        <time>2024-04-07T16:05:12.622Z</time>
      </trkpt>
      <trkpt lat="43.65506" lon="3.7752">
        <ele>79.8</ele>
        <time>2024-04-07T16:05:13.622Z</time>
      </trkpt>
      <trkpt lat="43.65508" lon="3.77515">
        <ele>79.9</ele>
        <time>2024-04-07T16:05:14.622Z</time>
      </trkpt>
      <trkpt lat="43.65509" lon="3.77513">
        <ele>79.9</ele>
        <time>2024-04-07T16:05:15.622Z</time>
      </trkpt>
      <trkpt lat="43.6551" lon="3.7751">
        <ele>79.9</ele>
        <time>2024-04-07T16:05:16.622Z</time>
      </trkpt>
      <trkpt lat="43.65512" lon="3.77507">
        <ele>79.9</ele>
        <time>2024-04-07T16:05:17.622Z</time>
      </trkpt>
      <trkpt lat="43.65513" lon="3.77503">
        <ele>80</ele>
        <time>2024-04-07T16:05:18.622Z</time>
      </trkpt>
      <trkpt lat="43.65514" lon="3.77499">
        <ele>80</ele>
        <time>2024-04-07T16:05:19.622Z</time>
      </trkpt>
      <trkpt lat="43.65515" lon="3.77494">
        <ele>80</ele>
        <time>2024-04-07T16:05:20.622Z</time>
      </trkpt>
      <trkpt lat="43.65516" lon="3.77489">
        <ele>80</ele>
        <time>2024-04-07T16:05:21.622Z</time>
      </trkpt>
      <trkpt lat="43.65517" lon="3.77483">
        <ele>80</ele>
        <time>2024-04-07T16:05:22.622Z</time>
      </trkpt>
      <trkpt lat="43.65518" lon="3.77479">
        <ele>80</ele>
        <time>2024-04-07T16:05:23.622Z</time>
      </trkpt>
      <trkpt lat="43.6552" lon="3.77474">
        <ele>79.8</ele>
        <time>2024-04-07T16:05:24.622Z</time>
      </trkpt>
      <trkpt lat="43.65521" lon="3.77468">
        <ele>79.9</ele>
        <time>2024-04-07T16:05:25.622Z</time>
      </trkpt>
      <trkpt lat="43.65522" lon="3.77464">
        <ele>79.9</ele>
        <time>2024-04-07T16:05:26.622Z</time>
      </trkpt>
      <trkpt lat="43.65523" lon="3.77459">
        <ele>80</ele>
        <time>2024-04-07T16:05:27.622Z</time>
      </trkpt>
      <trkpt lat="43.65525" lon="3.77454">
        <ele>80</ele>
        <time>2024-04-07T16:05:28.622Z</time>
      </trkpt>
      <trkpt lat="43.65527" lon="3.77449">
        <ele>79.9</ele>
        <time>2024-04-07T16:05:29.622Z</time>
      </trkpt>
      <trkpt lat="43.65529" lon="3.77445">
        <ele>80</ele>
        <time>2024-04-07T16:05:30.622Z</time>
      </trkpt>
      <trkpt lat="43.65531" lon="3.77441">
        <ele>80.1</ele>
        <time>2024-04-07T16:05:31.622Z</time>
      </trkpt>
      <trkpt lat="43.65532" lon="3.77437">
        <ele>80.3</ele>
        <time>2024-04-07T16:05:32.622Z</time>
      </trkpt>
      <trkpt lat="43.65533" lon="3.77434">
        <ele>80.4</ele>
        <time>2024-04-07T16:05:33.622Z</time>
      </trkpt>
      <trkpt lat="43.65536" lon="3.7743">
        <ele>80.5</ele>
        <time>2024-04-07T16:05:34.622Z</time>
      </trkpt>
      <trkpt lat="43.65536" lon="3.77429">
        <ele>80.6</ele>
        <time>2024-04-07T16:05:35.622Z</time>
      </trkpt>
      <trkpt lat="43.65539" lon="3.77425">
        <ele>80.7</ele>
        <time>2024-04-07T16:05:36.622Z</time>
      </trkpt>
      <trkpt lat="43.65539" lon="3.77424">
        <ele>80.7</ele>
        <time>2024-04-07T16:05:37.622Z</time>
      </trkpt>
      <trkpt lat="43.65541" lon="3.77419">
        <ele>80.9</ele>
        <time>2024-04-07T16:05:38.622Z</time>
      </trkpt>
      <trkpt lat="43.65541" lon="3.77417">
        <ele>81</ele>
        <time>2024-04-07T16:05:39.622Z</time>
      </trkpt>
      <trkpt lat="43.65542" lon="3.77413">
        <ele>81.2</ele>
        <time>2024-04-07T16:05:40.622Z</time>
      </trkpt>
      <trkpt lat="43.65544" lon="3.7741">
        <ele>81.3</ele>
        <time>2024-04-07T16:05:41.622Z</time>
      </trkpt>
      <trkpt lat="43.65548" lon="3.77407">
        <ele>81.4</ele>
        <time>2024-04-07T16:05:42.622Z</time>
      </trkpt>
      <trkpt lat="43.65551" lon="3.77403">
        <ele>81.6</ele>
        <time>2024-04-07T16:05:43.622Z</time>
      </trkpt>
      <trkpt lat="43.65554" lon="3.774">
        <ele>81.6</ele>
        <time>2024-04-07T16:05:44.622Z</time>
      </trkpt>
      <trkpt lat="43.65555" lon="3.77396">
        <ele>81.8</ele>
        <time>2024-04-07T16:05:45.622Z</time>
      </trkpt>
      <trkpt lat="43.65556" lon="3.77391">
        <ele>81.9</ele>
        <time>2024-04-07T16:05:46.622Z</time>
      </trkpt>
      <trkpt lat="43.65557" lon="3.7739">
        <ele>81.9</ele>
        <time>2024-04-07T16:05:47.622Z</time>
      </trkpt>
      <trkpt lat="43.65558" lon="3.77386">
        <ele>82</ele>
        <time>2024-04-07T16:05:48.622Z</time>
      </trkpt>
      <trkpt lat="43.65561" lon="3.77382">
        <ele>82.1</ele>
        <time>2024-04-07T16:05:49.622Z</time>
      </trkpt>
      <trkpt lat="43.65564" lon="3.77378">
        <ele>82.1</ele>
        <time>2024-04-07T16:05:50.622Z</time>
      </trkpt>
      <trkpt lat="43.65568" lon="3.77375">
        <ele>82.1</ele>
        <time>2024-04-07T16:05:51.622Z</time>
      </trkpt>
      <trkpt lat="43.65572" lon="3.77371">
        <ele>82.1</ele>
        <time>2024-04-07T16:05:52.622Z</time>
      </trkpt>
      <trkpt lat="43.65575" lon="3.77368">
        <ele>82.1</ele>
        <time>2024-04-07T16:05:53.622Z</time>
      </trkpt>
      <trkpt lat="43.65577" lon="3.77364">
        <ele>82.1</ele>
        <time>2024-04-07T16:05:54.622Z</time>
      </trkpt>
      <trkpt lat="43.65578" lon="3.7736">
        <ele>82.3</ele>
        <time>2024-04-07T16:05:55.622Z</time>
      </trkpt>
      <trkpt lat="43.6558" lon="3.77355">
        <ele>82.5</ele>
        <time>2024-04-07T16:05:56.622Z</time>
      </trkpt>
      <trkpt lat="43.65581" lon="3.77352">
        <ele>82.7</ele>
        <time>2024-04-07T16:05:57.622Z</time>
      </trkpt>
      <trkpt lat="43.65583" lon="3.77348">
        <ele>83</ele>
        <time>2024-04-07T16:05:58.622Z</time>
      </trkpt>
      <trkpt lat="43.65585" lon="3.77345">
        <ele>83.1</ele>
        <time>2024-04-07T16:05:59.622Z</time>
      </trkpt>
      <trkpt lat="43.65586" lon="3.77341">
        <ele>83.3</ele>
        <time>2024-04-07T16:06:00.622Z</time>
      </trkpt>
      <trkpt lat="43.65586" lon="3.7734">
        <ele>83.4</ele>
        <time>2024-04-07T16:06:01.622Z</time>
      </trkpt>
      <trkpt lat="43.65586" lon="3.77335">
        <ele>83.7</ele>
        <time>2024-04-07T16:06:02.622Z</time>
      </trkpt>
      <trkpt lat="43.65586" lon="3.77334">
        <ele>83.8</ele>
        <time>2024-04-07T16:06:03.622Z</time>
      </trkpt>
      <trkpt lat="43.65585" lon="3.7733">
        <ele>83.9</ele>
        <time>2024-04-07T16:06:04.622Z</time>
      </trkpt>
      <trkpt lat="43.65585" lon="3.77328">
        <ele>83.9</ele>
        <time>2024-04-07T16:06:05.622Z</time>
      </trkpt>
      <trkpt lat="43.65584" lon="3.77323">
        <ele>84</ele>
        <time>2024-04-07T16:06:06.622Z</time>
      </trkpt>
      <trkpt lat="43.65583" lon="3.77321">
        <ele>84</ele>
        <time>2024-04-07T16:06:07.622Z</time>
      </trkpt>
      <trkpt lat="43.65581" lon="3.77316">
        <ele>84.1</ele>
        <time>2024-04-07T16:06:08.622Z</time>
      </trkpt>
      <trkpt lat="43.65581" lon="3.77314">
        <ele>84.1</ele>
        <time>2024-04-07T16:06:09.622Z</time>
      </trkpt>
      <trkpt lat="43.65579" lon="3.7731">
        <ele>84.3</ele>
        <time>2024-04-07T16:06:10.622Z</time>
      </trkpt>
      <trkpt lat="43.65577" lon="3.77306">
        <ele>84.4</ele>
        <time>2024-04-07T16:06:11.622Z</time>
      </trkpt>
      <trkpt lat="43.65576" lon="3.77301">
        <ele>84.5</ele>
        <time>2024-04-07T16:06:12.622Z</time>
      </trkpt>
      <trkpt lat="43.65575" lon="3.77297">
        <ele>84.6</ele>
        <time>2024-04-07T16:06:13.622Z</time>
      </trkpt>
      <trkpt lat="43.65575" lon="3.77293">
        <ele>84.6</ele>
        <time>2024-04-07T16:06:14.622Z</time>
      </trkpt>
      <trkpt lat="43.65576" lon="3.77289">
        <ele>84.5</ele>
        <time>2024-04-07T16:06:15.622Z</time>
      </trkpt>
      <trkpt lat="43.65576" lon="3.77285">
        <ele>84.5</ele>
        <time>2024-04-07T16:06:16.622Z</time>
      </trkpt>
      <trkpt lat="43.65577" lon="3.77281">
        <ele>84.5</ele>
        <time>2024-04-07T16:06:17.622Z</time>
      </trkpt>
      <trkpt lat="43.65578" lon="3.77276">
        <ele>84.4</ele>
        <time>2024-04-07T16:06:18.622Z</time>
      </trkpt>
      <trkpt lat="43.65578" lon="3.77271">
        <ele>84.4</ele>
        <time>2024-04-07T16:06:19.622Z</time>
      </trkpt>
      <trkpt lat="43.65578" lon="3.77267">
        <ele>84.4</ele>
        <time>2024-04-07T16:06:20.622Z</time>
      </trkpt>
      <trkpt lat="43.65577" lon="3.77263">
        <ele>84.5</ele>
        <time>2024-04-07T16:06:21.622Z</time>
      </trkpt>
      <trkpt lat="43.65575" lon="3.77258">
        <ele>84.6</ele>
        <time>2024-04-07T16:06:22.622Z</time>
      </trkpt>
      <trkpt lat="43.65575" lon="3.77254">
        <ele>84.6</ele>
        <time>2024-04-07T16:06:23.622Z</time>
      </trkpt>
      <trkpt lat="43.65574" lon="3.77249">
        <ele>84.7</ele>
        <time>2024-04-07T16:06:24.622Z</time>
      </trkpt>
      <trkpt lat="43.65574" lon="3.77248">
        <ele>84.7</ele>
        <time>2024-04-07T16:06:25.622Z</time>
      </trkpt>
      <trkpt lat="43.65575" lon="3.77243">
        <ele>84.9</ele>
        <time>2024-04-07T16:06:26.622Z</time>
      </trkpt>
      <trkpt lat="43.65575" lon="3.77242">
        <ele>84.9</ele>
        <time>2024-04-07T16:06:27.622Z</time>
      </trkpt>
      <trkpt lat="43.65574" lon="3.77238">
        <ele>85.1</ele>
        <time>2024-04-07T16:06:28.622Z</time>
      </trkpt>
      <trkpt lat="43.65574" lon="3.77237">
        <ele>85.1</ele>
        <time>2024-04-07T16:06:29.622Z</time>
      </trkpt>
      <trkpt lat="43.65574" lon="3.77233">
        <ele>85.3</ele>
        <time>2024-04-07T16:06:30.622Z</time>
      </trkpt>
      <trkpt lat="43.65574" lon="3.77231">
        <ele>85.4</ele>
        <time>2024-04-07T16:06:31.622Z</time>
      </trkpt>
      <trkpt lat="43.65574" lon="3.77227">
        <ele>85.5</ele>
        <time>2024-04-07T16:06:32.622Z</time>
      </trkpt>
      <trkpt lat="43.65575" lon="3.77225">
        <ele>85.5</ele>
        <time>2024-04-07T16:06:33.622Z</time>
      </trkpt>
      <trkpt lat="43.65575" lon="3.7722">
        <ele>85.7</ele>
        <time>2024-04-07T16:06:34.622Z</time>
      </trkpt>
      <trkpt lat="43.65575" lon="3.77218">
        <ele>85.8</ele>
        <time>2024-04-07T16:06:35.622Z</time>
      </trkpt>
      <trkpt lat="43.65575" lon="3.77214">
        <ele>85.9</ele>
        <time>2024-04-07T16:06:36.622Z</time>
      </trkpt>
      <trkpt lat="43.65575" lon="3.7721">
        <ele>86</ele>
        <time>2024-04-07T16:06:37.622Z</time>
      </trkpt>
      <trkpt lat="43.65575" lon="3.77204">
        <ele>86.3</ele>
        <time>2024-04-07T16:06:38.622Z</time>
      </trkpt>
      <trkpt lat="43.65575" lon="3.772">
        <ele>86.4</ele>
        <time>2024-04-07T16:06:39.622Z</time>
      </trkpt>
      <trkpt lat="43.65575" lon="3.77194">
        <ele>86.6</ele>
        <time>2024-04-07T16:06:40.622Z</time>
      </trkpt>
      <trkpt lat="43.65575" lon="3.77193">
        <ele>86.7</ele>
        <time>2024-04-07T16:06:41.622Z</time>
      </trkpt>
      <trkpt lat="43.65574" lon="3.77187">
        <ele>86.9</ele>
        <time>2024-04-07T16:06:42.622Z</time>
      </trkpt>
      <trkpt lat="43.65574" lon="3.77185">
        <ele>87</ele>
        <time>2024-04-07T16:06:43.622Z</time>
      </trkpt>
      <trkpt lat="43.65575" lon="3.77181">
        <ele>87.1</ele>
        <time>2024-04-07T16:06:44.622Z</time>
      </trkpt>
      <trkpt lat="43.65576" lon="3.77177">
        <ele>87.2</ele>
        <time>2024-04-07T16:06:45.622Z</time>
      </trkpt>
      <trkpt lat="43.65576" lon="3.77173">
        <ele>87.3</ele>
        <time>2024-04-07T16:06:46.622Z</time>
      </trkpt>
      <trkpt lat="43.65576" lon="3.7717">
        <ele>87.4</ele>
        <time>2024-04-07T16:06:47.622Z</time>
      </trkpt>
      <trkpt lat="43.65575" lon="3.77169">
        <ele>87.5</ele>
        <time>2024-04-07T16:06:48.622Z</time>
      </trkpt>
      <trkpt lat="43.65572" lon="3.77167">
        <ele>87.8</ele>
        <time>2024-04-07T16:06:49.622Z</time>
      </trkpt>
      <trkpt lat="43.65571" lon="3.77167">
        <ele>87.9</ele>
        <time>2024-04-07T16:06:50.622Z</time>
      </trkpt>
      <trkpt lat="43.65559" lon="3.77163">
        <ele>88.9</ele>
        <time>2024-04-07T16:07:08.622Z</time>
      </trkpt>
      <trkpt lat="43.65559" lon="3.77163">
        <ele>88.9</ele>
        <time>2024-04-07T16:07:10.622Z</time>
      </trkpt>
      <trkpt lat="43.65559" lon="3.77163">
        <ele>88.9</ele>
        <time>2024-04-07T16:07:14.622Z</time>
      </trkpt>
      <trkpt lat="43.65552" lon="3.7716">
        <ele>89.4</ele>
        <time>2024-04-07T16:07:57.622Z</time>
      </trkpt>
      <trkpt lat="43.65548" lon="3.77159">
        <ele>89.5</ele>
        <time>2024-04-07T16:07:58.622Z</time>
      </trkpt>
      <trkpt lat="43.65547" lon="3.77159">
        <ele>89.6</ele>
        <time>2024-04-07T16:07:59.622Z</time>
      </trkpt>
      <trkpt lat="43.65545" lon="3.77159">
        <ele>89.7</ele>
        <time>2024-04-07T16:08:00.622Z</time>
      </trkpt>
      <trkpt lat="43.65544" lon="3.77159">
        <ele>89.7</ele>
        <time>2024-04-07T16:08:01.622Z</time>
      </trkpt>
      <trkpt lat="43.65543" lon="3.77159">
        <ele>89.7</ele>
        <time>2024-04-07T16:08:02.622Z</time>
      </trkpt>
      <trkpt lat="43.65539" lon="3.77157">
        <ele>89.9</ele>
        <time>2024-04-07T16:08:03.622Z</time>
      </trkpt>
      <trkpt lat="43.65538" lon="3.77155">
        <ele>90.1</ele>
        <time>2024-04-07T16:08:04.622Z</time>
      </trkpt>
      <trkpt lat="43.65535" lon="3.77153">
        <ele>90.2</ele>
        <time>2024-04-07T16:08:05.622Z</time>
      </trkpt>
      <trkpt lat="43.65531" lon="3.77151">
        <ele>90.4</ele>
        <time>2024-04-07T16:08:06.622Z</time>
      </trkpt>
      <trkpt lat="43.65527" lon="3.7715">
        <ele>90.6</ele>
        <time>2024-04-07T16:08:07.622Z</time>
      </trkpt>
      <trkpt lat="43.65523" lon="3.7715">
        <ele>90.6</ele>
        <time>2024-04-07T16:08:08.622Z</time>
      </trkpt>
      <trkpt lat="43.65519" lon="3.7715">
        <ele>90.6</ele>
        <time>2024-04-07T16:08:09.622Z</time>
      </trkpt>
      <trkpt lat="43.65518" lon="3.77149">
        <ele>90.6</ele>
        <time>2024-04-07T16:08:10.622Z</time>
      </trkpt>
      <trkpt lat="43.65514" lon="3.77147">
        <ele>90.7</ele>
        <time>2024-04-07T16:08:11.622Z</time>
      </trkpt>
      <trkpt lat="43.65512" lon="3.77144">
        <ele>90.8</ele>
        <time>2024-04-07T16:08:12.622Z</time>
      </trkpt>
      <trkpt lat="43.65509" lon="3.77142">
        <ele>90.9</ele>
        <time>2024-04-07T16:08:13.622Z</time>
      </trkpt>
      <trkpt lat="43.65506" lon="3.77139">
        <ele>91</ele>
        <time>2024-04-07T16:08:14.622Z</time>
      </trkpt>
      <trkpt lat="43.65504" lon="3.77137">
        <ele>91.1</ele>
        <time>2024-04-07T16:08:15.622Z</time>
      </trkpt>
      <trkpt lat="43.655" lon="3.77134">
        <ele>91.2</ele>
        <time>2024-04-07T16:08:16.622Z</time>
      </trkpt>
      <trkpt lat="43.65499" lon="3.77133">
        <ele>91.2</ele>
        <time>2024-04-07T16:08:17.622Z</time>
      </trkpt>
      <trkpt lat="43.65496" lon="3.7713">
        <ele>91.5</ele>
        <time>2024-04-07T16:08:18.622Z</time>
      </trkpt>
      <trkpt lat="43.65495" lon="3.77129">
        <ele>91.5</ele>
        <time>2024-04-07T16:08:19.622Z</time>
      </trkpt>
      <trkpt lat="43.65492" lon="3.77127">
        <ele>91.7</ele>
        <time>2024-04-07T16:08:20.622Z</time>
      </trkpt>
      <trkpt lat="43.65489" lon="3.77125">
        <ele>91.9</ele>
        <time>2024-04-07T16:08:21.622Z</time>
      </trkpt>
      <trkpt lat="43.65486" lon="3.77123">
        <ele>92.1</ele>
        <time>2024-04-07T16:08:22.622Z</time>
      </trkpt>
      <trkpt lat="43.65482" lon="3.7712">
        <ele>92.3</ele>
        <time>2024-04-07T16:08:23.622Z</time>
      </trkpt>
      <trkpt lat="43.65479" lon="3.77118">
        <ele>92.5</ele>
        <time>2024-04-07T16:08:24.622Z</time>
      </trkpt>
      <trkpt lat="43.65475" lon="3.77116">
        <ele>92.7</ele>
        <time>2024-04-07T16:08:25.622Z</time>
      </trkpt>
      <trkpt lat="43.65472" lon="3.77116">
        <ele>92.8</ele>
        <time>2024-04-07T16:08:26.622Z</time>
      </trkpt>
      <trkpt lat="43.6547" lon="3.77116">
        <ele>92.9</ele>
        <time>2024-04-07T16:08:27.622Z</time>
      </trkpt>
      <trkpt lat="43.65466" lon="3.77117">
        <ele>93</ele>
        <time>2024-04-07T16:08:28.622Z</time>
      </trkpt>
      <trkpt lat="43.65465" lon="3.77117">
        <ele>93</ele>
        <time>2024-04-07T16:08:29.622Z</time>
      </trkpt>
      <trkpt lat="43.65462" lon="3.77116">
        <ele>93.1</ele>
        <time>2024-04-07T16:08:30.622Z</time>
      </trkpt>
      <trkpt lat="43.65461" lon="3.77116">
        <ele>93.2</ele>
        <time>2024-04-07T16:08:31.622Z</time>
      </trkpt>
      <trkpt lat="43.65459" lon="3.77116">
        <ele>93.2</ele>
        <time>2024-04-07T16:08:32.622Z</time>
      </trkpt>
      <trkpt lat="43.65458" lon="3.77116">
        <ele>93.2</ele>
        <time>2024-04-07T16:08:33.622Z</time>
      </trkpt>
      <trkpt lat="43.65455" lon="3.77115">
        <ele>93.4</ele>
        <time>2024-04-07T16:08:34.622Z</time>
      </trkpt>
      <trkpt lat="43.65454" lon="3.77115">
        <ele>93.4</ele>
        <time>2024-04-07T16:08:35.622Z</time>
      </trkpt>
      <trkpt lat="43.65453" lon="3.77114">
        <ele>93.5</ele>
        <time>2024-04-07T16:08:36.622Z</time>
      </trkpt>
      <trkpt lat="43.65451" lon="3.77113">
        <ele>93.6</ele>
        <time>2024-04-07T16:08:37.622Z</time>
      </trkpt>
      <trkpt lat="43.65449" lon="3.77113">
        <ele>93.7</ele>
        <time>2024-04-07T16:08:38.622Z</time>
      </trkpt>
      <trkpt lat="43.65447" lon="3.77113">
        <ele>93.8</ele>
        <time>2024-04-07T16:08:39.622Z</time>
      </trkpt>
      <trkpt lat="43.65446" lon="3.77112">
        <ele>93.9</ele>
        <time>2024-04-07T16:08:40.622Z</time>
      </trkpt>
      <trkpt lat="43.65444" lon="3.77113">
        <ele>93.9</ele>
        <time>2024-04-07T16:08:41.622Z</time>
      </trkpt>
      <trkpt lat="43.65443" lon="3.77114">
        <ele>93.8</ele>
        <time>2024-04-07T16:08:42.622Z</time>
      </trkpt>
      <trkpt lat="43.65439" lon="3.77113">
        <ele>93.9</ele>
        <time>2024-04-07T16:08:43.622Z</time>
      </trkpt>
      <trkpt lat="43.65438" lon="3.77113">
        <ele>93.9</ele>
        <time>2024-04-07T16:08:44.622Z</time>
      </trkpt>
      <trkpt lat="43.65435" lon="3.77113">
        <ele>93.9</ele>
        <time>2024-04-07T16:08:45.622Z</time>
      </trkpt>
      <trkpt lat="43.65431" lon="3.77113">
        <ele>93.9</ele>
        <time>2024-04-07T16:08:46.622Z</time>
      </trkpt>
      <trkpt lat="43.65427" lon="3.77112">
        <ele>94</ele>
        <time>2024-04-07T16:08:47.622Z</time>
      </trkpt>
      <trkpt lat="43.65424" lon="3.77111">
        <ele>94</ele>
        <time>2024-04-07T16:08:48.622Z</time>
      </trkpt>
      <trkpt lat="43.65421" lon="3.77109">
        <ele>94.2</ele>
        <time>2024-04-07T16:08:49.622Z</time>
      </trkpt>
      <trkpt lat="43.6542" lon="3.77108">
        <ele>94.3</ele>
        <time>2024-04-07T16:08:50.622Z</time>
      </trkpt>
      <trkpt lat="43.65417" lon="3.77107">
        <ele>94.4</ele>
        <time>2024-04-07T16:08:51.622Z</time>
      </trkpt>
      <trkpt lat="43.65414" lon="3.77103">
        <ele>95</ele>
        <time>2024-04-07T16:08:52.622Z</time>
      </trkpt>
      <trkpt lat="43.65413" lon="3.77102">
        <ele>95.1</ele>
        <time>2024-04-07T16:08:53.622Z</time>
      </trkpt>
      <trkpt lat="43.6541" lon="3.77099">
        <ele>95.5</ele>
        <time>2024-04-07T16:08:54.622Z</time>
      </trkpt>
      <trkpt lat="43.65408" lon="3.77095">
        <ele>95.8</ele>
        <time>2024-04-07T16:08:55.622Z</time>
      </trkpt>
      <trkpt lat="43.65407" lon="3.77094">
        <ele>95.9</ele>
        <time>2024-04-07T16:08:56.622Z</time>
      </trkpt>
      <trkpt lat="43.65404" lon="3.77092">
        <ele>96</ele>
        <time>2024-04-07T16:08:57.622Z</time>
      </trkpt>
      <trkpt lat="43.65401" lon="3.77089">
        <ele>96.2</ele>
        <time>2024-04-07T16:08:58.622Z</time>
      </trkpt>
      <trkpt lat="43.65399" lon="3.77087">
        <ele>96.2</ele>
        <time>2024-04-07T16:08:59.622Z</time>
      </trkpt>
      <trkpt lat="43.65393" lon="3.77083">
        <ele>96.2</ele>
        <time>2024-04-07T16:09:01.622Z</time>
      </trkpt>
      <trkpt lat="43.6539" lon="3.77084">
        <ele>96</ele>
        <time>2024-04-07T16:09:02.622Z</time>
      </trkpt>
      <trkpt lat="43.65389" lon="3.77086">
        <ele>96</ele>
        <time>2024-04-07T16:09:03.622Z</time>
      </trkpt>
      <trkpt lat="43.65387" lon="3.77088">
        <ele>96.1</ele>
        <time>2024-04-07T16:09:04.622Z</time>
      </trkpt>
      <trkpt lat="43.65385" lon="3.7709">
        <ele>96.3</ele>
        <time>2024-04-07T16:09:05.622Z</time>
      </trkpt>
      <trkpt lat="43.65382" lon="3.77091">
        <ele>96.6</ele>
        <time>2024-04-07T16:09:06.622Z</time>
      </trkpt>
      <trkpt lat="43.65381" lon="3.7709">
        <ele>96.6</ele>
        <time>2024-04-07T16:09:07.622Z</time>
      </trkpt>
      <trkpt lat="43.65378" lon="3.77087">
        <ele>96.8</ele>
        <time>2024-04-07T16:09:08.622Z</time>
      </trkpt>
      <trkpt lat="43.65377" lon="3.77086">
        <ele>96.9</ele>
        <time>2024-04-07T16:09:09.622Z</time>
      </trkpt>
      <trkpt lat="43.65375" lon="3.77082">
        <ele>97.1</ele>
        <time>2024-04-07T16:09:10.622Z</time>
      </trkpt>
      <trkpt lat="43.65374" lon="3.77081">
        <ele>97.2</ele>
        <time>2024-04-07T16:09:11.622Z</time>
      </trkpt>
      <trkpt lat="43.65371" lon="3.77079">
        <ele>97.5</ele>
        <time>2024-04-07T16:09:12.622Z</time>
      </trkpt>
      <trkpt lat="43.6537" lon="3.77079">
        <ele>97.6</ele>
        <time>2024-04-07T16:09:13.622Z</time>
      </trkpt>
      <trkpt lat="43.65367" lon="3.77076">
        <ele>97.9</ele>
        <time>2024-04-07T16:09:14.622Z</time>
      </trkpt>
      <trkpt lat="43.65367" lon="3.77075">
        <ele>97.9</ele>
        <time>2024-04-07T16:09:15.622Z</time>
      </trkpt>
      <trkpt lat="43.65365" lon="3.77073">
        <ele>98.1</ele>
        <time>2024-04-07T16:09:16.622Z</time>
      </trkpt>
      <trkpt lat="43.65365" lon="3.77072">
        <ele>98.2</ele>
        <time>2024-04-07T16:09:17.622Z</time>
      </trkpt>
      <trkpt lat="43.65364" lon="3.7707">
        <ele>98.3</ele>
        <time>2024-04-07T16:09:18.622Z</time>
      </trkpt>
      <trkpt lat="43.65363" lon="3.77069">
        <ele>98.4</ele>
        <time>2024-04-07T16:09:19.622Z</time>
      </trkpt>
      <trkpt lat="43.65363" lon="3.77068">
        <ele>98.5</ele>
        <time>2024-04-07T16:09:20.622Z</time>
      </trkpt>
      <trkpt lat="43.65361" lon="3.77067">
        <ele>98.6</ele>
        <time>2024-04-07T16:09:21.622Z</time>
      </trkpt>
      <trkpt lat="43.6536" lon="3.77066">
        <ele>98.8</ele>
        <time>2024-04-07T16:09:22.622Z</time>
      </trkpt>
      <trkpt lat="43.65359" lon="3.77064">
        <ele>99.1</ele>
        <time>2024-04-07T16:09:23.622Z</time>
      </trkpt>
      <trkpt lat="43.65358" lon="3.77063">
        <ele>99.3</ele>
        <time>2024-04-07T16:09:24.622Z</time>
      </trkpt>
      <trkpt lat="43.65355" lon="3.77059">
        <ele>100</ele>
        <time>2024-04-07T16:09:26.622Z</time>
      </trkpt>
      <trkpt lat="43.65353" lon="3.77056">
        <ele>100.4</ele>
        <time>2024-04-07T16:09:27.622Z</time>
      </trkpt>
      <trkpt lat="43.65352" lon="3.77055">
        <ele>100.7</ele>
        <time>2024-04-07T16:09:28.622Z</time>
      </trkpt>
      <trkpt lat="43.6535" lon="3.77052">
        <ele>101.2</ele>
        <time>2024-04-07T16:09:29.622Z</time>
      </trkpt>
      <trkpt lat="43.6535" lon="3.77051">
        <ele>101.3</ele>
        <time>2024-04-07T16:09:30.622Z</time>
      </trkpt>
      <trkpt lat="43.65347" lon="3.77048">
        <ele>101.9</ele>
        <time>2024-04-07T16:09:31.622Z</time>
      </trkpt>
      <trkpt lat="43.65346" lon="3.77046">
        <ele>102.2</ele>
        <time>2024-04-07T16:09:32.622Z</time>
      </trkpt>
      <trkpt lat="43.65344" lon="3.77042">
        <ele>102.8</ele>
        <time>2024-04-07T16:09:33.622Z</time>
      </trkpt>
      <trkpt lat="43.65344" lon="3.7704">
        <ele>102.9</ele>
        <time>2024-04-07T16:09:34.622Z</time>
      </trkpt>
      <trkpt lat="43.65343" lon="3.77036">
        <ele>103.2</ele>
        <time>2024-04-07T16:09:35.622Z</time>
      </trkpt>
      <trkpt lat="43.65343" lon="3.77034">
        <ele>103.3</ele>
        <time>2024-04-07T16:09:36.622Z</time>
      </trkpt>
      <trkpt lat="43.65342" lon="3.77032">
        <ele>103.6</ele>
        <time>2024-04-07T16:09:37.622Z</time>
      </trkpt>
      <trkpt lat="43.65342" lon="3.7703">
        <ele>103.6</ele>
        <time>2024-04-07T16:09:38.622Z</time>
      </trkpt>
      <trkpt lat="43.65341" lon="3.77026">
        <ele>103.9</ele>
        <time>2024-04-07T16:09:39.622Z</time>
      </trkpt>
      <trkpt lat="43.65341" lon="3.77024">
        <ele>103.9</ele>
        <time>2024-04-07T16:09:40.622Z</time>
      </trkpt>
      <trkpt lat="43.6534" lon="3.7702">
        <ele>104.1</ele>
        <time>2024-04-07T16:09:41.622Z</time>
      </trkpt>
      <trkpt lat="43.6534" lon="3.77019">
        <ele>104.1</ele>
        <time>2024-04-07T16:09:42.622Z</time>
      </trkpt>
      <trkpt lat="43.65339" lon="3.77017">
        <ele>104.3</ele>
        <time>2024-04-07T16:09:43.622Z</time>
      </trkpt>
      <trkpt lat="43.65338" lon="3.77017">
        <ele>104.4</ele>
        <time>2024-04-07T16:09:44.622Z</time>
      </trkpt>
      <trkpt lat="43.65337" lon="3.77016">
        <ele>104.5</ele>
        <time>2024-04-07T16:09:45.622Z</time>
      </trkpt>
      <trkpt lat="43.65337" lon="3.77014">
        <ele>104.5</ele>
        <time>2024-04-07T16:09:46.622Z</time>
      </trkpt>
      <trkpt lat="43.65336" lon="3.77011">
        <ele>104.7</ele>
        <time>2024-04-07T16:09:47.622Z</time>
      </trkpt>
      <trkpt lat="43.65335" lon="3.77008">
        <ele>104.8</ele>
        <time>2024-04-07T16:09:48.622Z</time>
      </trkpt>
      <trkpt lat="43.65335" lon="3.77007">
        <ele>104.8</ele>
        <time>2024-04-07T16:09:49.622Z</time>
      </trkpt>
      <trkpt lat="43.65334" lon="3.77005">
        <ele>104.9</ele>
        <time>2024-04-07T16:09:50.622Z</time>
      </trkpt>
      <trkpt lat="43.65334" lon="3.77003">
        <ele>104.9</ele>
        <time>2024-04-07T16:09:51.622Z</time>
      </trkpt>
      <trkpt lat="43.65333" lon="3.77001">
        <ele>105.1</ele>
        <time>2024-04-07T16:09:52.622Z</time>
      </trkpt>
      <trkpt lat="43.65332" lon="3.76998">
        <ele>105.3</ele>
        <time>2024-04-07T16:09:53.622Z</time>
      </trkpt>
      <trkpt lat="43.65331" lon="3.76994">
        <ele>105.6</ele>
        <time>2024-04-07T16:09:54.622Z</time>
      </trkpt>
      <trkpt lat="43.65331" lon="3.76993">
        <ele>105.6</ele>
        <time>2024-04-07T16:09:55.622Z</time>
      </trkpt>
      <trkpt lat="43.65329" lon="3.76988">
        <ele>106.1</ele>
        <time>2024-04-07T16:09:56.622Z</time>
      </trkpt>
      <trkpt lat="43.65329" lon="3.76987">
        <ele>106.1</ele>
        <time>2024-04-07T16:09:57.622Z</time>
      </trkpt>
      <trkpt lat="43.65328" lon="3.76983">
        <ele>106.3</ele>
        <time>2024-04-07T16:09:58.622Z</time>
      </trkpt>
      <trkpt lat="43.65327" lon="3.76982">
        <ele>106.5</ele>
        <time>2024-04-07T16:09:59.622Z</time>
      </trkpt>
      <trkpt lat="43.65327" lon="3.76979">
        <ele>106.6</ele>
        <time>2024-04-07T16:10:00.622Z</time>
      </trkpt>
      <trkpt lat="43.65327" lon="3.76978">
        <ele>106.6</ele>
        <time>2024-04-07T16:10:01.622Z</time>
      </trkpt>
      <trkpt lat="43.65327" lon="3.76976">
        <ele>106.6</ele>
        <time>2024-04-07T16:10:02.622Z</time>
      </trkpt>
      <trkpt lat="43.65326" lon="3.76975">
        <ele>106.7</ele>
        <time>2024-04-07T16:10:03.622Z</time>
      </trkpt>
      <trkpt lat="43.65325" lon="3.76974">
        <ele>106.9</ele>
        <time>2024-04-07T16:10:04.622Z</time>
      </trkpt>
      <trkpt lat="43.65324" lon="3.76976">
        <ele>107</ele>
        <time>2024-04-07T16:10:05.622Z</time>
      </trkpt>
      <trkpt lat="43.65323" lon="3.76976">
        <ele>107.1</ele>
        <time>2024-04-07T16:10:06.622Z</time>
      </trkpt>
      <trkpt lat="43.65322" lon="3.76977">
        <ele>107.2</ele>
        <time>2024-04-07T16:10:07.622Z</time>
      </trkpt>
      <trkpt lat="43.65322" lon="3.76978">
        <ele>107.2</ele>
        <time>2024-04-07T16:10:08.622Z</time>
      </trkpt>
      <trkpt lat="43.65322" lon="3.7698">
        <ele>107.2</ele>
        <time>2024-04-07T16:10:09.622Z</time>
      </trkpt>
      <trkpt lat="43.65322" lon="3.76981">
        <ele>107.2</ele>
        <time>2024-04-07T16:10:10.622Z</time>
      </trkpt>
      <trkpt lat="43.65322" lon="3.76981">
        <ele>107.2</ele>
        <time>2024-04-07T16:10:11.622Z</time>
      </trkpt>
      <trkpt lat="43.65321" lon="3.76982">
        <ele>107.3</ele>
        <time>2024-04-07T16:10:12.622Z</time>
      </trkpt>
      <trkpt lat="43.65321" lon="3.76982">
        <ele>107.3</ele>
        <time>2024-04-07T16:10:13.622Z</time>
      </trkpt>
      <trkpt lat="43.6529" lon="3.7703">
        <ele>112.8</ele>
        <time>2024-04-07T16:10:51.622Z</time>
      </trkpt>
      <trkpt lat="43.65289" lon="3.77032">
        <ele>113</ele>
        <time>2024-04-07T16:10:53.622Z</time>
      </trkpt>
      <trkpt lat="43.65288" lon="3.77033">
        <ele>113.2</ele>
        <time>2024-04-07T16:10:54.622Z</time>
      </trkpt>
      <trkpt lat="43.65287" lon="3.77034">
        <ele>113.5</ele>
        <time>2024-04-07T16:10:55.622Z</time>
      </trkpt>
      <trkpt lat="43.65287" lon="3.77036">
        <ele>113.4</ele>
        <time>2024-04-07T16:10:56.622Z</time>
      </trkpt>
      <trkpt lat="43.65286" lon="3.77038">
        <ele>113.6</ele>
        <time>2024-04-07T16:10:57.622Z</time>
      </trkpt>
      <trkpt lat="43.65286" lon="3.77039">
        <ele>113.5</ele>
        <time>2024-04-07T16:10:58.622Z</time>
      </trkpt>
      <trkpt lat="43.65285" lon="3.7704">
        <ele>113.7</ele>
        <time>2024-04-07T16:10:59.622Z</time>
      </trkpt>
      <trkpt lat="43.65285" lon="3.77041">
        <ele>113.7</ele>
        <time>2024-04-07T16:11:00.622Z</time>
      </trkpt>
      <trkpt lat="43.65285" lon="3.77042">
        <ele>113.7</ele>
        <time>2024-04-07T16:11:01.622Z</time>
      </trkpt>
      <trkpt lat="43.65284" lon="3.77045">
        <ele>113.8</ele>
        <time>2024-04-07T16:11:04.622Z</time>
      </trkpt>
      <trkpt lat="43.65283" lon="3.77046">
        <ele>114</ele>
        <time>2024-04-07T16:11:05.622Z</time>
      </trkpt>
      <trkpt lat="43.65282" lon="3.77047">
        <ele>114.2</ele>
        <time>2024-04-07T16:11:06.622Z</time>
      </trkpt>
      <trkpt lat="43.65281" lon="3.77049">
        <ele>114.4</ele>
        <time>2024-04-07T16:11:07.622Z</time>
      </trkpt>
      <trkpt lat="43.65281" lon="3.77051">
        <ele>114.4</ele>
        <time>2024-04-07T16:11:08.622Z</time>
      </trkpt>
      <trkpt lat="43.65281" lon="3.77052">
        <ele>114.3</ele>
        <time>2024-04-07T16:11:09.622Z</time>
      </trkpt>
      <trkpt lat="43.6528" lon="3.77054">
        <ele>114.5</ele>
        <time>2024-04-07T16:11:11.622Z</time>
      </trkpt>
      <trkpt lat="43.6527" lon="3.77065">
        <ele>115.4</ele>
        <time>2024-04-07T16:11:22.622Z</time>
      </trkpt>
      <trkpt lat="43.65268" lon="3.77066">
        <ele>115.7</ele>
        <time>2024-04-07T16:11:23.622Z</time>
      </trkpt>
      <trkpt lat="43.65265" lon="3.77067">
        <ele>116.3</ele>
        <time>2024-04-07T16:11:24.622Z</time>
      </trkpt>
      <trkpt lat="43.65264" lon="3.77067">
        <ele>116.5</ele>
        <time>2024-04-07T16:11:25.622Z</time>
      </trkpt>
      <trkpt lat="43.65263" lon="3.77067">
        <ele>116.8</ele>
        <time>2024-04-07T16:11:26.622Z</time>
      </trkpt>
      <trkpt lat="43.65262" lon="3.77068">
        <ele>116.9</ele>
        <time>2024-04-07T16:11:27.622Z</time>
      </trkpt>
      <trkpt lat="43.65258" lon="3.77069">
        <ele>117.7</ele>
        <time>2024-04-07T16:11:28.622Z</time>
      </trkpt>
      <trkpt lat="43.65257" lon="3.77069">
        <ele>117.9</ele>
        <time>2024-04-07T16:11:29.622Z</time>
      </trkpt>
      <trkpt lat="43.65254" lon="3.7707">
        <ele>118.5</ele>
        <time>2024-04-07T16:11:30.622Z</time>
      </trkpt>
      <trkpt lat="43.65253" lon="3.7707">
        <ele>118.7</ele>
        <time>2024-04-07T16:11:31.622Z</time>
      </trkpt>
      <trkpt lat="43.65251" lon="3.77071">
        <ele>119.1</ele>
        <time>2024-04-07T16:11:32.622Z</time>
      </trkpt>
      <trkpt lat="43.6525" lon="3.77073">
        <ele>119.1</ele>
        <time>2024-04-07T16:11:33.622Z</time>
      </trkpt>
      <trkpt lat="43.65249" lon="3.77074">
        <ele>119.1</ele>
        <time>2024-04-07T16:11:34.622Z</time>
      </trkpt>
      <trkpt lat="43.65248" lon="3.77075">
        <ele>119.1</ele>
        <time>2024-04-07T16:11:35.622Z</time>
      </trkpt>
      <trkpt lat="43.65248" lon="3.77075">
        <ele>119.1</ele>
        <time>2024-04-07T16:11:36.622Z</time>
      </trkpt>
      <trkpt lat="43.65246" lon="3.77076">
        <ele>119.3</ele>
        <time>2024-04-07T16:11:37.622Z</time>
      </trkpt>
      <trkpt lat="43.65245" lon="3.77076">
        <ele>119.4</ele>
        <time>2024-04-07T16:11:38.622Z</time>
      </trkpt>
      <trkpt lat="43.65244" lon="3.77076">
        <ele>119.5</ele>
        <time>2024-04-07T16:11:39.622Z</time>
      </trkpt>
      <trkpt lat="43.65243" lon="3.77076">
        <ele>119.7</ele>
        <time>2024-04-07T16:11:40.622Z</time>
      </trkpt>
      <trkpt lat="43.65243" lon="3.77076">
        <ele>119.7</ele>
        <time>2024-04-07T16:11:41.622Z</time>
      </trkpt>
      <trkpt lat="43.65242" lon="3.77076">
        <ele>119.8</ele>
        <time>2024-04-07T16:11:42.622Z</time>
      </trkpt>
      <trkpt lat="43.65241" lon="3.77076">
        <ele>119.9</ele>
        <time>2024-04-07T16:11:43.622Z</time>
      </trkpt>
      <trkpt lat="43.65239" lon="3.77077">
        <ele>120.1</ele>
        <time>2024-04-07T16:11:44.622Z</time>
      </trkpt>
      <trkpt lat="43.65239" lon="3.77077">
        <ele>120.1</ele>
        <time>2024-04-07T16:11:45.622Z</time>
      </trkpt>
      <trkpt lat="43.65238" lon="3.77078">
        <ele>120.1</ele>
        <time>2024-04-07T16:11:46.622Z</time>
      </trkpt>
      <trkpt lat="43.65237" lon="3.77079">
        <ele>120.2</ele>
        <time>2024-04-07T16:11:47.622Z</time>
      </trkpt>
      <trkpt lat="43.65237" lon="3.7708">
        <ele>120.1</ele>
        <time>2024-04-07T16:11:48.622Z</time>
      </trkpt>
      <trkpt lat="43.65237" lon="3.7708">
        <ele>120.1</ele>
        <time>2024-04-07T16:11:49.622Z</time>
      </trkpt>
      <trkpt lat="43.65237" lon="3.7708">
        <ele>120.1</ele>
        <time>2024-04-07T16:11:50.622Z</time>
      </trkpt>
      <trkpt lat="43.65237" lon="3.7708">
        <ele>120.1</ele>
        <time>2024-04-07T16:11:51.622Z</time>
      </trkpt>
      <trkpt lat="43.65237" lon="3.7708">
        <ele>120.1</ele>
        <time>2024-04-07T16:11:52.622Z</time>
      </trkpt>
      <trkpt lat="43.65237" lon="3.7708">
        <ele>120.1</ele>
        <time>2024-04-07T16:11:53.622Z</time>
      </trkpt>
      <trkpt lat="43.65236" lon="3.77081">
        <ele>120.2</ele>
        <time>2024-04-07T16:11:54.622Z</time>
      </trkpt>
      <trkpt lat="43.65233" lon="3.77083">
        <ele>120.5</ele>
        <time>2024-04-07T16:11:55.622Z</time>
      </trkpt>
      <trkpt lat="43.65232" lon="3.77083">
        <ele>120.6</ele>
        <time>2024-04-07T16:11:56.622Z</time>
      </trkpt>
      <trkpt lat="43.6523" lon="3.77083">
        <ele>120.9</ele>
        <time>2024-04-07T16:11:57.622Z</time>
      </trkpt>
      <trkpt lat="43.65226" lon="3.77085">
        <ele>121.4</ele>
        <time>2024-04-07T16:11:58.622Z</time>
      </trkpt>
      <trkpt lat="43.65225" lon="3.77085">
        <ele>121.5</ele>
        <time>2024-04-07T16:11:59.622Z</time>
      </trkpt>
      <trkpt lat="43.65223" lon="3.77086">
        <ele>121.8</ele>
        <time>2024-04-07T16:12:00.622Z</time>
      </trkpt>
      <trkpt lat="43.65222" lon="3.77087">
        <ele>121.9</ele>
        <time>2024-04-07T16:12:01.622Z</time>
      </trkpt>
      <trkpt lat="43.65222" lon="3.77089">
        <ele>121.8</ele>
        <time>2024-04-07T16:12:02.622Z</time>
      </trkpt>
      <trkpt lat="43.65221" lon="3.7709">
        <ele>121.8</ele>
        <time>2024-04-07T16:12:03.622Z</time>
      </trkpt>
      <trkpt lat="43.6522" lon="3.77091">
        <ele>121.8</ele>
        <time>2024-04-07T16:12:04.622Z</time>
      </trkpt>
      <trkpt lat="43.65218" lon="3.77092">
        <ele>121.8</ele>
        <time>2024-04-07T16:12:05.622Z</time>
      </trkpt>
      <trkpt lat="43.65217" lon="3.77094">
        <ele>121.8</ele>
        <time>2024-04-07T16:12:06.622Z</time>
      </trkpt>
      <trkpt lat="43.65216" lon="3.77095">
        <ele>121.8</ele>
        <time>2024-04-07T16:12:07.622Z</time>
      </trkpt>
      <trkpt lat="43.65215" lon="3.77096">
        <ele>121.8</ele>
        <time>2024-04-07T16:12:08.622Z</time>
      </trkpt>
      <trkpt lat="43.65214" lon="3.77098">
        <ele>121.8</ele>
        <time>2024-04-07T16:12:09.622Z</time>
      </trkpt>
      <trkpt lat="43.65213" lon="3.77099">
        <ele>121.8</ele>
        <time>2024-04-07T16:12:10.622Z</time>
      </trkpt>
      <trkpt lat="43.65212" lon="3.771">
        <ele>121.8</ele>
        <time>2024-04-07T16:12:11.622Z</time>
      </trkpt>
      <trkpt lat="43.65211" lon="3.771">
        <ele>121.8</ele>
        <time>2024-04-07T16:12:12.622Z</time>
      </trkpt>
      <trkpt lat="43.6521" lon="3.77101">
        <ele>121.8</ele>
        <time>2024-04-07T16:12:13.622Z</time>
      </trkpt>
      <trkpt lat="43.65206" lon="3.77103">
        <ele>121.9</ele>
        <time>2024-04-07T16:12:15.622Z</time>
      </trkpt>
      <trkpt lat="43.65204" lon="3.77103">
        <ele>121.9</ele>
        <time>2024-04-07T16:12:16.622Z</time>
      </trkpt>
      <trkpt lat="43.65201" lon="3.77103">
        <ele>122.1</ele>
        <time>2024-04-07T16:12:17.622Z</time>
      </trkpt>
      <trkpt lat="43.652" lon="3.77102">
        <ele>122.1</ele>
        <time>2024-04-07T16:12:18.622Z</time>
      </trkpt>
      <trkpt lat="43.65196" lon="3.77102">
        <ele>122.3</ele>
        <time>2024-04-07T16:12:19.622Z</time>
      </trkpt>
      <trkpt lat="43.65194" lon="3.77098">
        <ele>122.5</ele>
        <time>2024-04-07T16:20:58.622Z</time>
      </trkpt>
      <trkpt lat="43.65195" lon="3.77091">
        <ele>122.7</ele>
        <time>2024-04-07T16:21:00.622Z</time>
      </trkpt>
      <trkpt lat="43.65197" lon="3.77088">
        <ele>122.7</ele>
        <time>2024-04-07T16:21:01.622Z</time>
      </trkpt>
      <trkpt lat="43.65198" lon="3.77084">
        <ele>122.8</ele>
        <time>2024-04-07T16:21:02.622Z</time>
      </trkpt>
      <trkpt lat="43.65198" lon="3.77079">
        <ele>123.4</ele>
        <time>2024-04-07T16:21:03.622Z</time>
      </trkpt>
      <trkpt lat="43.65199" lon="3.77075">
        <ele>123.9</ele>
        <time>2024-04-07T16:21:04.622Z</time>
      </trkpt>
      <trkpt lat="43.652" lon="3.77074">
        <ele>123.9</ele>
        <time>2024-04-07T16:21:05.622Z</time>
      </trkpt>
      <trkpt lat="43.65202" lon="3.77069">
        <ele>124.4</ele>
        <time>2024-04-07T16:21:06.622Z</time>
      </trkpt>
      <trkpt lat="43.65202" lon="3.77068">
        <ele>124.5</ele>
        <time>2024-04-07T16:21:07.622Z</time>
      </trkpt>
      <trkpt lat="43.65204" lon="3.77065">
        <ele>124.6</ele>
        <time>2024-04-07T16:21:08.622Z</time>
      </trkpt>
      <trkpt lat="43.65206" lon="3.77061">
        <ele>124.8</ele>
        <time>2024-04-07T16:21:09.622Z</time>
      </trkpt>
      <trkpt lat="43.65208" lon="3.77057">
        <ele>124.9</ele>
        <time>2024-04-07T16:21:10.622Z</time>
      </trkpt>
      <trkpt lat="43.65211" lon="3.77052">
        <ele>125.1</ele>
        <time>2024-04-07T16:21:11.622Z</time>
      </trkpt>
      <trkpt lat="43.65213" lon="3.77048">
        <ele>125.2</ele>
        <time>2024-04-07T16:21:12.622Z</time>
      </trkpt>
      <trkpt lat="43.65215" lon="3.77044">
        <ele>125.3</ele>
        <time>2024-04-07T16:21:13.622Z</time>
      </trkpt>
      <trkpt lat="43.65216" lon="3.77041">
        <ele>125.4</ele>
        <time>2024-04-07T16:21:14.622Z</time>
      </trkpt>
      <trkpt lat="43.65219" lon="3.77033">
        <ele>125.5</ele>
        <time>2024-04-07T16:21:16.622Z</time>
      </trkpt>
      <trkpt lat="43.65222" lon="3.77029">
        <ele>125</ele>
        <time>2024-04-07T16:21:17.622Z</time>
      </trkpt>
      <trkpt lat="43.65223" lon="3.77024">
        <ele>125.3</ele>
        <time>2024-04-07T16:21:18.622Z</time>
      </trkpt>
      <trkpt lat="43.65225" lon="3.77019">
        <ele>125.6</ele>
        <time>2024-04-07T16:21:19.622Z</time>
      </trkpt>
      <trkpt lat="43.65226" lon="3.77014">
        <ele>125.9</ele>
        <time>2024-04-07T16:21:20.622Z</time>
      </trkpt>
      <trkpt lat="43.65228" lon="3.77009">
        <ele>126.1</ele>
        <time>2024-04-07T16:21:21.622Z</time>
      </trkpt>
      <trkpt lat="43.65229" lon="3.77004">
        <ele>126.4</ele>
        <time>2024-04-07T16:21:22.622Z</time>
      </trkpt>
      <trkpt lat="43.6523" lon="3.77">
        <ele>126.6</ele>
        <time>2024-04-07T16:21:23.622Z</time>
      </trkpt>
      <trkpt lat="43.6523" lon="3.76995">
        <ele>127.2</ele>
        <time>2024-04-07T16:21:24.622Z</time>
      </trkpt>
      <trkpt lat="43.6523" lon="3.76991">
        <ele>127.6</ele>
        <time>2024-04-07T16:21:25.622Z</time>
      </trkpt>
      <trkpt lat="43.6523" lon="3.76981">
        <ele>128.8</ele>
        <time>2024-04-07T16:21:27.622Z</time>
      </trkpt>
      <trkpt lat="43.6523" lon="3.76976">
        <ele>129.3</ele>
        <time>2024-04-07T16:21:28.622Z</time>
      </trkpt>
      <trkpt lat="43.65231" lon="3.76973">
        <ele>129.4</ele>
        <time>2024-04-07T16:21:29.622Z</time>
      </trkpt>
      <trkpt lat="43.65232" lon="3.76967">
        <ele>129.5</ele>
        <time>2024-04-07T16:21:30.622Z</time>
      </trkpt>
      <trkpt lat="43.65232" lon="3.76965">
        <ele>129.6</ele>
        <time>2024-04-07T16:21:31.622Z</time>
      </trkpt>
      <trkpt lat="43.65233" lon="3.76962">
        <ele>129.5</ele>
        <time>2024-04-07T16:21:32.622Z</time>
      </trkpt>
      <trkpt lat="43.65234" lon="3.7696">
        <ele>129.3</ele>
        <time>2024-04-07T16:21:33.622Z</time>
      </trkpt>
      <trkpt lat="43.65234" lon="3.76955">
        <ele>129.6</ele>
        <time>2024-04-07T16:21:34.622Z</time>
      </trkpt>
      <trkpt lat="43.65234" lon="3.76954">
        <ele>129.6</ele>
        <time>2024-04-07T16:21:35.622Z</time>
      </trkpt>
      <trkpt lat="43.65233" lon="3.76949">
        <ele>130.2</ele>
        <time>2024-04-07T16:21:36.622Z</time>
      </trkpt>
      <trkpt lat="43.65232" lon="3.76947">
        <ele>130.7</ele>
        <time>2024-04-07T16:21:37.622Z</time>
      </trkpt>
      <trkpt lat="43.65231" lon="3.76943">
        <ele>131.2</ele>
        <time>2024-04-07T16:21:38.622Z</time>
      </trkpt>
      <trkpt lat="43.65231" lon="3.76938">
        <ele>131.5</ele>
        <time>2024-04-07T16:21:39.622Z</time>
      </trkpt>
      <trkpt lat="43.65231" lon="3.76934">
        <ele>131.8</ele>
        <time>2024-04-07T16:21:40.622Z</time>
      </trkpt>
      <trkpt lat="43.65231" lon="3.76929">
        <ele>132.1</ele>
        <time>2024-04-07T16:21:41.622Z</time>
      </trkpt>
      <trkpt lat="43.65231" lon="3.76927">
        <ele>132.2</ele>
        <time>2024-04-07T16:21:42.622Z</time>
      </trkpt>
      <trkpt lat="43.65231" lon="3.76923">
        <ele>132.5</ele>
        <time>2024-04-07T16:21:43.622Z</time>
      </trkpt>
      <trkpt lat="43.65232" lon="3.76919">
        <ele>132.3</ele>
        <time>2024-04-07T16:21:44.622Z</time>
      </trkpt>
      <trkpt lat="43.65232" lon="3.76914">
        <ele>132.5</ele>
        <time>2024-04-07T16:21:45.622Z</time>
      </trkpt>
      <trkpt lat="43.65239" lon="3.76898">
        <ele>130.2</ele>
        <time>2024-04-07T16:21:52.622Z</time>
      </trkpt>
      <trkpt lat="43.65239" lon="3.76897">
        <ele>130.2</ele>
        <time>2024-04-07T16:21:53.622Z</time>
      </trkpt>
      <trkpt lat="43.6524" lon="3.76892">
        <ele>129.9</ele>
        <time>2024-04-07T16:21:54.622Z</time>
      </trkpt>
      <trkpt lat="43.65241" lon="3.7689">
        <ele>129.6</ele>
        <time>2024-04-07T16:21:55.622Z</time>
      </trkpt>
      <trkpt lat="43.65246" lon="3.76877">
        <ele>128</ele>
        <time>2024-04-07T16:21:56.622Z</time>
      </trkpt>
      <trkpt lat="43.65252" lon="3.76863">
        <ele>126.4</ele>
        <time>2024-04-07T16:21:57.622Z</time>
      </trkpt>
      <trkpt lat="43.65255" lon="3.76852">
        <ele>126</ele>
        <time>2024-04-07T16:21:58.622Z</time>
      </trkpt>
      <trkpt lat="43.65254" lon="3.76843">
        <ele>126.6</ele>
        <time>2024-04-07T16:21:59.622Z</time>
      </trkpt>
      <trkpt lat="43.65255" lon="3.76835">
        <ele>126.5</ele>
        <time>2024-04-07T16:22:00.622Z</time>
      </trkpt>
      <trkpt lat="43.65256" lon="3.76828">
        <ele>126.3</ele>
        <time>2024-04-07T16:22:01.622Z</time>
      </trkpt>
      <trkpt lat="43.65257" lon="3.7682">
        <ele>126</ele>
        <time>2024-04-07T16:22:02.622Z</time>
      </trkpt>
      <trkpt lat="43.65259" lon="3.76809">
        <ele>125.4</ele>
        <time>2024-04-07T16:22:03.622Z</time>
      </trkpt>
      <trkpt lat="43.65261" lon="3.768">
        <ele>124.9</ele>
        <time>2024-04-07T16:22:04.622Z</time>
      </trkpt>
      <trkpt lat="43.65264" lon="3.76792">
        <ele>124</ele>
        <time>2024-04-07T16:22:05.622Z</time>
      </trkpt>
      <trkpt lat="43.65268" lon="3.76783">
        <ele>122.6</ele>
        <time>2024-04-07T16:22:06.622Z</time>
      </trkpt>
      <trkpt lat="43.65272" lon="3.76772">
        <ele>121.7</ele>
        <time>2024-04-07T16:22:07.622Z</time>
      </trkpt>
      <trkpt lat="43.65277" lon="3.76764">
        <ele>120.8</ele>
        <time>2024-04-07T16:22:08.622Z</time>
      </trkpt>
      <trkpt lat="43.65283" lon="3.76758">
        <ele>120</ele>
        <time>2024-04-07T16:22:09.622Z</time>
      </trkpt>
      <trkpt lat="43.65288" lon="3.76751">
        <ele>119.7</ele>
        <time>2024-04-07T16:22:10.622Z</time>
      </trkpt>
      <trkpt lat="43.65292" lon="3.76745">
        <ele>119.6</ele>
        <time>2024-04-07T16:22:11.622Z</time>
      </trkpt>
      <trkpt lat="43.65295" lon="3.76738">
        <ele>119.9</ele>
        <time>2024-04-07T16:22:12.622Z</time>
      </trkpt>
      <trkpt lat="43.65297" lon="3.76731">
        <ele>120.3</ele>
        <time>2024-04-07T16:22:13.622Z</time>
      </trkpt>
      <trkpt lat="43.653" lon="3.76726">
        <ele>120.1</ele>
        <time>2024-04-07T16:22:14.622Z</time>
      </trkpt>
      <trkpt lat="43.65303" lon="3.76714">
        <ele>120.4</ele>
        <time>2024-04-07T16:22:16.622Z</time>
      </trkpt>
      <trkpt lat="43.65303" lon="3.76708">
        <ele>120.9</ele>
        <time>2024-04-07T16:22:17.622Z</time>
      </trkpt>
      <trkpt lat="43.65304" lon="3.76701">
        <ele>121.1</ele>
        <time>2024-04-07T16:22:18.622Z</time>
      </trkpt>
      <trkpt lat="43.65304" lon="3.76695">
        <ele>121.5</ele>
        <time>2024-04-07T16:22:19.622Z</time>
      </trkpt>
      <trkpt lat="43.65303" lon="3.76689">
        <ele>122.3</ele>
        <time>2024-04-07T16:22:20.622Z</time>
      </trkpt>
      <trkpt lat="43.65305" lon="3.76685">
        <ele>121.9</ele>
        <time>2024-04-07T16:22:21.622Z</time>
      </trkpt>
      <trkpt lat="43.65308" lon="3.76679">
        <ele>121.6</ele>
        <time>2024-04-07T16:22:22.622Z</time>
      </trkpt>
      <trkpt lat="43.65312" lon="3.76676">
        <ele>121.1</ele>
        <time>2024-04-07T16:22:23.622Z</time>
      </trkpt>
      <trkpt lat="43.65315" lon="3.76674">
        <ele>120.8</ele>
        <time>2024-04-07T16:22:24.622Z</time>
      </trkpt>
      <trkpt lat="43.65318" lon="3.76674">
        <ele>120.2</ele>
        <time>2024-04-07T16:22:25.622Z</time>
      </trkpt>
      <trkpt lat="43.65325" lon="3.76672">
        <ele>119.3</ele>
        <time>2024-04-07T16:22:57.622Z</time>
      </trkpt>
      <trkpt lat="43.65325" lon="3.76673">
        <ele>119.1</ele>
        <time>2024-04-07T16:22:58.622Z</time>
      </trkpt>
      <trkpt lat="43.65334" lon="3.76688">
        <ele>114.3</ele>
        <time>2024-04-07T16:23:14.622Z</time>
      </trkpt>
      <trkpt lat="43.65337" lon="3.76694">
        <ele>112.8</ele>
        <time>2024-04-07T16:23:15.622Z</time>
      </trkpt>
      <trkpt lat="43.65346" lon="3.76717">
        <ele>110.1</ele>
        <time>2024-04-07T16:23:17.622Z</time>
      </trkpt>
      <trkpt lat="43.6535" lon="3.76728">
        <ele>108.8</ele>
        <time>2024-04-07T16:23:19.622Z</time>
      </trkpt>
      <trkpt lat="43.65353" lon="3.76732">
        <ele>108.3</ele>
        <time>2024-04-07T16:23:20.622Z</time>
      </trkpt>
      <trkpt lat="43.65355" lon="3.76737">
        <ele>107.9</ele>
        <time>2024-04-07T16:23:21.622Z</time>
      </trkpt>
      <trkpt lat="43.65362" lon="3.76763">
        <ele>106</ele>
        <time>2024-04-07T16:23:33.622Z</time>
      </trkpt>
      <trkpt lat="43.65367" lon="3.76778">
        <ele>104.8</ele>
        <time>2024-04-07T16:23:34.622Z</time>
      </trkpt>
      <trkpt lat="43.65371" lon="3.76788">
        <ele>104.5</ele>
        <time>2024-04-07T16:23:35.622Z</time>
      </trkpt>
      <trkpt lat="43.65372" lon="3.76794">
        <ele>104.4</ele>
        <time>2024-04-07T16:23:36.622Z</time>
      </trkpt>
      <trkpt lat="43.65374" lon="3.76798">
        <ele>104.2</ele>
        <time>2024-04-07T16:23:37.622Z</time>
      </trkpt>
      <trkpt lat="43.65377" lon="3.76802">
        <ele>103.9</ele>
        <time>2024-04-07T16:23:38.622Z</time>
      </trkpt>
      <trkpt lat="43.65389" lon="3.76823">
        <ele>102.4</ele>
        <time>2024-04-07T16:23:40.622Z</time>
      </trkpt>
      <trkpt lat="43.65393" lon="3.7683">
        <ele>102</ele>
        <time>2024-04-07T16:23:41.622Z</time>
      </trkpt>
      <trkpt lat="43.65396" lon="3.76836">
        <ele>101.7</ele>
        <time>2024-04-07T16:23:42.622Z</time>
      </trkpt>
      <trkpt lat="43.65398" lon="3.76838">
        <ele>101.6</ele>
        <time>2024-04-07T16:23:43.622Z</time>
      </trkpt>
      <trkpt lat="43.654" lon="3.76837">
        <ele>101.5</ele>
        <time>2024-04-07T16:23:44.622Z</time>
      </trkpt>
      <trkpt lat="43.65402" lon="3.76834">
        <ele>101.5</ele>
        <time>2024-04-07T16:23:45.622Z</time>
      </trkpt>
      <trkpt lat="43.65402" lon="3.76833">
        <ele>101.5</ele>
        <time>2024-04-07T16:23:46.622Z</time>
      </trkpt>
      <trkpt lat="43.65404" lon="3.76829">
        <ele>101.6</ele>
        <time>2024-04-07T16:23:47.622Z</time>
      </trkpt>
      <trkpt lat="43.65406" lon="3.76826">
        <ele>101.6</ele>
        <time>2024-04-07T16:23:48.622Z</time>
      </trkpt>
      <trkpt lat="43.65409" lon="3.7682">
        <ele>101.8</ele>
        <time>2024-04-07T16:23:49.622Z</time>
      </trkpt>
      <trkpt lat="43.65411" lon="3.76817">
        <ele>101.8</ele>
        <time>2024-04-07T16:23:50.622Z</time>
      </trkpt>
      <trkpt lat="43.65414" lon="3.76814">
        <ele>101.8</ele>
        <time>2024-04-07T16:23:51.622Z</time>
      </trkpt>
      <trkpt lat="43.65416" lon="3.76812">
        <ele>101.8</ele>
        <time>2024-04-07T16:23:52.622Z</time>
      </trkpt>
      <trkpt lat="43.65419" lon="3.76809">
        <ele>101.8</ele>
        <time>2024-04-07T16:23:53.622Z</time>
      </trkpt>
      <trkpt lat="43.65421" lon="3.76806">
        <ele>101.8</ele>
        <time>2024-04-07T16:23:54.622Z</time>
      </trkpt>
      <trkpt lat="43.65424" lon="3.76804">
        <ele>101.8</ele>
        <time>2024-04-07T16:23:55.622Z</time>
      </trkpt>
      <trkpt lat="43.65427" lon="3.768">
        <ele>101.8</ele>
        <time>2024-04-07T16:23:56.622Z</time>
      </trkpt>
      <trkpt lat="43.65428" lon="3.76799">
        <ele>101.7</ele>
        <time>2024-04-07T16:23:57.622Z</time>
      </trkpt>
      <trkpt lat="43.65429" lon="3.76794">
        <ele>101.8</ele>
        <time>2024-04-07T16:23:58.622Z</time>
      </trkpt>
      <trkpt lat="43.6543" lon="3.76788">
        <ele>101.8</ele>
        <time>2024-04-07T16:23:59.622Z</time>
      </trkpt>
      <trkpt lat="43.65431" lon="3.76782">
        <ele>101.9</ele>
        <time>2024-04-07T16:24:00.622Z</time>
      </trkpt>
      <trkpt lat="43.65434" lon="3.76776">
        <ele>101.8</ele>
        <time>2024-04-07T16:24:01.622Z</time>
      </trkpt>
      <trkpt lat="43.65435" lon="3.76768">
        <ele>102</ele>
        <time>2024-04-07T16:24:02.622Z</time>
      </trkpt>
      <trkpt lat="43.65439" lon="3.76757">
        <ele>102.1</ele>
        <time>2024-04-07T16:24:04.622Z</time>
      </trkpt>
      <trkpt lat="43.65441" lon="3.76752">
        <ele>102.2</ele>
        <time>2024-04-07T16:24:05.622Z</time>
      </trkpt>
      <trkpt lat="43.65443" lon="3.76746">
        <ele>102.4</ele>
        <time>2024-04-07T16:24:06.622Z</time>
      </trkpt>
      <trkpt lat="43.65444" lon="3.7674">
        <ele>102.7</ele>
        <time>2024-04-07T16:24:07.622Z</time>
      </trkpt>
      <trkpt lat="43.65445" lon="3.76736">
        <ele>103</ele>
        <time>2024-04-07T16:24:08.622Z</time>
      </trkpt>
      <trkpt lat="43.65446" lon="3.76731">
        <ele>103.3</ele>
        <time>2024-04-07T16:24:09.622Z</time>
      </trkpt>
      <trkpt lat="43.65446" lon="3.76729">
        <ele>103.5</ele>
        <time>2024-04-07T16:24:10.622Z</time>
      </trkpt>
      <trkpt lat="43.65448" lon="3.76725">
        <ele>103.7</ele>
        <time>2024-04-07T16:24:11.622Z</time>
      </trkpt>
      <trkpt lat="43.6545" lon="3.76722">
        <ele>103.8</ele>
        <time>2024-04-07T16:24:12.622Z</time>
      </trkpt>
      <trkpt lat="43.65449" lon="3.76719">
        <ele>104.2</ele>
        <time>2024-04-07T16:24:13.622Z</time>
      </trkpt>
      <trkpt lat="43.65449" lon="3.76718">
        <ele>104.3</ele>
        <time>2024-04-07T16:24:14.622Z</time>
      </trkpt>
      <trkpt lat="43.65448" lon="3.76716">
        <ele>104.5</ele>
        <time>2024-04-07T16:24:15.622Z</time>
      </trkpt>
      <trkpt lat="43.65449" lon="3.76714">
        <ele>104.7</ele>
        <time>2024-04-07T16:24:16.622Z</time>
      </trkpt>
      <trkpt lat="43.6545" lon="3.76713">
        <ele>104.8</ele>
        <time>2024-04-07T16:24:17.622Z</time>
      </trkpt>
      <trkpt lat="43.6545" lon="3.76711">
        <ele>105</ele>
        <time>2024-04-07T16:24:18.622Z</time>
      </trkpt>
      <trkpt lat="43.65452" lon="3.76708">
        <ele>105.3</ele>
        <time>2024-04-07T16:24:19.622Z</time>
      </trkpt>
      <trkpt lat="43.65452" lon="3.76706">
        <ele>105.5</ele>
        <time>2024-04-07T16:24:20.622Z</time>
      </trkpt>
      <trkpt lat="43.65452" lon="3.76702">
        <ele>105.9</ele>
        <time>2024-04-07T16:24:21.622Z</time>
      </trkpt>
      <trkpt lat="43.65452" lon="3.76701">
        <ele>106</ele>
        <time>2024-04-07T16:24:22.622Z</time>
      </trkpt>
      <trkpt lat="43.65453" lon="3.76697">
        <ele>106.4</ele>
        <time>2024-04-07T16:24:23.622Z</time>
      </trkpt>
      <trkpt lat="43.65453" lon="3.76696">
        <ele>106.5</ele>
        <time>2024-04-07T16:24:24.622Z</time>
      </trkpt>
      <trkpt lat="43.65453" lon="3.76694">
        <ele>106.7</ele>
        <time>2024-04-07T16:24:25.622Z</time>
      </trkpt>
      <trkpt lat="43.65453" lon="3.76691">
        <ele>107</ele>
        <time>2024-04-07T16:24:26.622Z</time>
      </trkpt>
      <trkpt lat="43.65455" lon="3.76688">
        <ele>107.2</ele>
        <time>2024-04-07T16:24:27.622Z</time>
      </trkpt>
      <trkpt lat="43.65458" lon="3.76685">
        <ele>107.4</ele>
        <time>2024-04-07T16:24:28.622Z</time>
      </trkpt>
      <trkpt lat="43.65459" lon="3.76684">
        <ele>107.4</ele>
        <time>2024-04-07T16:24:29.622Z</time>
      </trkpt>
      <trkpt lat="43.6546" lon="3.76681">
        <ele>107.6</ele>
        <time>2024-04-07T16:24:30.622Z</time>
      </trkpt>
      <trkpt lat="43.6546" lon="3.76679">
        <ele>107.8</ele>
        <time>2024-04-07T16:24:31.622Z</time>
      </trkpt>
      <trkpt lat="43.65461" lon="3.76674">
        <ele>108.2</ele>
        <time>2024-04-07T16:24:32.622Z</time>
      </trkpt>
      <trkpt lat="43.65462" lon="3.76673">
        <ele>108.2</ele>
        <time>2024-04-07T16:24:33.622Z</time>
      </trkpt>
      <trkpt lat="43.65463" lon="3.76669">
        <ele>108.5</ele>
        <time>2024-04-07T16:24:34.622Z</time>
      </trkpt>
      <trkpt lat="43.65464" lon="3.76668">
        <ele>108.5</ele>
        <time>2024-04-07T16:24:35.622Z</time>
      </trkpt>
      <trkpt lat="43.65465" lon="3.76666">
        <ele>108.6</ele>
        <time>2024-04-07T16:24:36.622Z</time>
      </trkpt>
      <trkpt lat="43.65466" lon="3.76665">
        <ele>108.5</ele>
        <time>2024-04-07T16:24:37.622Z</time>
      </trkpt>
      <trkpt lat="43.65467" lon="3.76661">
        <ele>108.6</ele>
        <time>2024-04-07T16:24:38.622Z</time>
      </trkpt>
      <trkpt lat="43.65468" lon="3.76659">
        <ele>108.6</ele>
        <time>2024-04-07T16:24:39.622Z</time>
      </trkpt>
      <trkpt lat="43.65467" lon="3.76653">
        <ele>109</ele>
        <time>2024-04-07T16:24:40.622Z</time>
      </trkpt>
      <trkpt lat="43.65467" lon="3.76651">
        <ele>109</ele>
        <time>2024-04-07T16:24:41.622Z</time>
      </trkpt>
      <trkpt lat="43.65465" lon="3.76648">
        <ele>109.4</ele>
        <time>2024-04-07T16:24:42.622Z</time>
      </trkpt>
      <trkpt lat="43.65464" lon="3.76644">
        <ele>109.6</ele>
        <time>2024-04-07T16:24:43.622Z</time>
      </trkpt>
      <trkpt lat="43.65459" lon="3.76637">
        <ele>110.5</ele>
        <time>2024-04-07T16:24:47.622Z</time>
      </trkpt>
      <trkpt lat="43.65458" lon="3.76636">
        <ele>110.6</ele>
        <time>2024-04-07T16:24:48.622Z</time>
      </trkpt>
      <trkpt lat="43.65458" lon="3.76634">
        <ele>110.7</ele>
        <time>2024-04-07T16:24:49.622Z</time>
      </trkpt>
      <trkpt lat="43.65459" lon="3.76633">
        <ele>110.6</ele>
        <time>2024-04-07T16:24:50.622Z</time>
      </trkpt>
      <trkpt lat="43.65467" lon="3.76615">
        <ele>110.4</ele>
        <time>2024-04-07T16:25:24.622Z</time>
      </trkpt>
      <trkpt lat="43.65466" lon="3.7661">
        <ele>110.7</ele>
        <time>2024-04-07T16:25:25.622Z</time>
      </trkpt>
      <trkpt lat="43.65465" lon="3.76604">
        <ele>111.1</ele>
        <time>2024-04-07T16:25:26.622Z</time>
      </trkpt>
      <trkpt lat="43.65464" lon="3.76598">
        <ele>111.5</ele>
        <time>2024-04-07T16:25:27.622Z</time>
      </trkpt>
      <trkpt lat="43.65466" lon="3.76593">
        <ele>111.5</ele>
        <time>2024-04-07T16:25:28.622Z</time>
      </trkpt>
      <trkpt lat="43.65468" lon="3.76589">
        <ele>111.4</ele>
        <time>2024-04-07T16:25:29.622Z</time>
      </trkpt>
      <trkpt lat="43.65471" lon="3.76586">
        <ele>111.1</ele>
        <time>2024-04-07T16:25:30.622Z</time>
      </trkpt>
      <trkpt lat="43.65473" lon="3.76582">
        <ele>111</ele>
        <time>2024-04-07T16:25:31.622Z</time>
      </trkpt>
      <trkpt lat="43.65475" lon="3.76578">
        <ele>110.9</ele>
        <time>2024-04-07T16:25:32.622Z</time>
      </trkpt>
      <trkpt lat="43.65476" lon="3.76577">
        <ele>110.8</ele>
        <time>2024-04-07T16:25:33.622Z</time>
      </trkpt>
      <trkpt lat="43.65478" lon="3.76573">
        <ele>110.8</ele>
        <time>2024-04-07T16:25:34.622Z</time>
      </trkpt>
      <trkpt lat="43.65478" lon="3.76571">
        <ele>110.9</ele>
        <time>2024-04-07T16:25:35.622Z</time>
      </trkpt>
      <trkpt lat="43.6548" lon="3.76568">
        <ele>110.7</ele>
        <time>2024-04-07T16:25:36.622Z</time>
      </trkpt>
      <trkpt lat="43.65481" lon="3.76568">
        <ele>110.5</ele>
        <time>2024-04-07T16:25:37.622Z</time>
      </trkpt>
      <trkpt lat="43.65483" lon="3.76563">
        <ele>110.3</ele>
        <time>2024-04-07T16:25:38.622Z</time>
      </trkpt>
      <trkpt lat="43.65484" lon="3.76561">
        <ele>110.2</ele>
        <time>2024-04-07T16:25:39.622Z</time>
      </trkpt>
      <trkpt lat="43.65485" lon="3.76557">
        <ele>110.2</ele>
        <time>2024-04-07T16:25:40.622Z</time>
      </trkpt>
      <trkpt lat="43.65486" lon="3.76552">
        <ele>110.3</ele>
        <time>2024-04-07T16:25:41.622Z</time>
      </trkpt>
      <trkpt lat="43.65486" lon="3.76551">
        <ele>110.4</ele>
        <time>2024-04-07T16:25:42.622Z</time>
      </trkpt>
      <trkpt lat="43.65488" lon="3.76547">
        <ele>110.4</ele>
        <time>2024-04-07T16:25:43.622Z</time>
      </trkpt>
      <trkpt lat="43.65489" lon="3.76546">
        <ele>110.3</ele>
        <time>2024-04-07T16:25:44.622Z</time>
      </trkpt>
      <trkpt lat="43.6549" lon="3.76542">
        <ele>110.4</ele>
        <time>2024-04-07T16:25:45.622Z</time>
      </trkpt>
      <trkpt lat="43.65492" lon="3.76538">
        <ele>110.4</ele>
        <time>2024-04-07T16:25:46.622Z</time>
      </trkpt>
      <trkpt lat="43.65504" lon="3.76522">
        <ele>109</ele>
        <time>2024-04-07T16:25:53.622Z</time>
      </trkpt>
      <trkpt lat="43.65503" lon="3.7652">
        <ele>109.2</ele>
        <time>2024-04-07T16:25:54.622Z</time>
      </trkpt>
      <trkpt lat="43.65504" lon="3.76518">
        <ele>109</ele>
        <time>2024-04-07T16:25:55.622Z</time>
      </trkpt>
      <trkpt lat="43.65504" lon="3.76516">
        <ele>109</ele>
        <time>2024-04-07T16:25:56.622Z</time>
      </trkpt>
      <trkpt lat="43.65504" lon="3.76515">
        <ele>109</ele>
        <time>2024-04-07T16:25:57.622Z</time>
      </trkpt>
      <trkpt lat="43.65503" lon="3.76515">
        <ele>109.2</ele>
        <time>2024-04-07T16:25:58.622Z</time>
      </trkpt>
      <trkpt lat="43.65502" lon="3.76515">
        <ele>109.5</ele>
        <time>2024-04-07T16:25:59.622Z</time>
      </trkpt>
      <trkpt lat="43.65501" lon="3.76516">
        <ele>109.7</ele>
        <time>2024-04-07T16:26:00.622Z</time>
      </trkpt>
      <trkpt lat="43.65473" lon="3.76542">
        <ele>113.8</ele>
        <time>2024-04-07T16:26:28.622Z</time>
      </trkpt>
      <trkpt lat="43.6547" lon="3.76542">
        <ele>114.4</ele>
        <time>2024-04-07T16:26:29.622Z</time>
      </trkpt>
      <trkpt lat="43.65467" lon="3.76543">
        <ele>114.8</ele>
        <time>2024-04-07T16:26:30.622Z</time>
      </trkpt>
      <trkpt lat="43.65466" lon="3.76543">
        <ele>115</ele>
        <time>2024-04-07T16:26:31.622Z</time>
      </trkpt>
      <trkpt lat="43.65463" lon="3.76544">
        <ele>115.5</ele>
        <time>2024-04-07T16:26:32.622Z</time>
      </trkpt>
      <trkpt lat="43.65462" lon="3.76545">
        <ele>115.6</ele>
        <time>2024-04-07T16:26:33.622Z</time>
      </trkpt>
      <trkpt lat="43.65461" lon="3.76544">
        <ele>115.9</ele>
        <time>2024-04-07T16:26:34.622Z</time>
      </trkpt>
      <trkpt lat="43.6546" lon="3.76542">
        <ele>116.2</ele>
        <time>2024-04-07T16:26:35.622Z</time>
      </trkpt>
      <trkpt lat="43.65457" lon="3.76538">
        <ele>117</ele>
        <time>2024-04-07T16:26:36.622Z</time>
      </trkpt>
      <trkpt lat="43.65453" lon="3.76534">
        <ele>118</ele>
        <time>2024-04-07T16:26:37.622Z</time>
      </trkpt>
      <trkpt lat="43.6545" lon="3.76531">
        <ele>118.8</ele>
        <time>2024-04-07T16:26:38.622Z</time>
      </trkpt>
      <trkpt lat="43.65447" lon="3.76529">
        <ele>119.5</ele>
        <time>2024-04-07T16:26:39.622Z</time>
      </trkpt>
      <trkpt lat="43.65436" lon="3.7653">
        <ele>120.5</ele>
        <time>2024-04-07T16:26:52.622Z</time>
      </trkpt>
      <trkpt lat="43.65435" lon="3.7653">
        <ele>120.5</ele>
        <time>2024-04-07T16:26:53.622Z</time>
      </trkpt>
      <trkpt lat="43.65435" lon="3.7653">
        <ele>120.5</ele>
        <time>2024-04-07T16:27:02.622Z</time>
      </trkpt>
      <trkpt lat="43.65431" lon="3.7651">
        <ele>120.3</ele>
        <time>2024-04-07T16:27:17.622Z</time>
      </trkpt>
      <trkpt lat="43.65431" lon="3.76506">
        <ele>120.2</ele>
        <time>2024-04-07T16:27:29.622Z</time>
      </trkpt>
      <trkpt lat="43.65431" lon="3.76493">
        <ele>119.3</ele>
        <time>2024-04-07T16:27:37.622Z</time>
      </trkpt>
      <trkpt lat="43.6543" lon="3.76481">
        <ele>118.3</ele>
        <time>2024-04-07T16:30:08.622Z</time>
      </trkpt>
      <trkpt lat="43.6543" lon="3.76468">
        <ele>117</ele>
        <time>2024-04-07T16:30:09.622Z</time>
      </trkpt>
      <trkpt lat="43.65431" lon="3.76456">
        <ele>115.4</ele>
        <time>2024-04-07T16:30:10.622Z</time>
      </trkpt>
      <trkpt lat="43.65431" lon="3.76443">
        <ele>113.9</ele>
        <time>2024-04-07T16:30:11.622Z</time>
      </trkpt>
      <trkpt lat="43.65431" lon="3.76429">
        <ele>112.8</ele>
        <time>2024-04-07T16:30:12.622Z</time>
      </trkpt>
      <trkpt lat="43.65434" lon="3.76419">
        <ele>111.7</ele>
        <time>2024-04-07T16:30:13.622Z</time>
      </trkpt>
      <trkpt lat="43.65435" lon="3.76409">
        <ele>111.5</ele>
        <time>2024-04-07T16:30:14.622Z</time>
      </trkpt>
      <trkpt lat="43.65436" lon="3.76398">
        <ele>111.4</ele>
        <time>2024-04-07T16:30:15.622Z</time>
      </trkpt>
      <trkpt lat="43.65435" lon="3.7639">
        <ele>111.7</ele>
        <time>2024-04-07T16:30:16.622Z</time>
      </trkpt>
      <trkpt lat="43.65435" lon="3.76382">
        <ele>111.9</ele>
        <time>2024-04-07T16:30:17.622Z</time>
      </trkpt>
      <trkpt lat="43.65433" lon="3.76378">
        <ele>112.3</ele>
        <time>2024-04-07T16:30:18.622Z</time>
      </trkpt>
      <trkpt lat="43.6543" lon="3.76374">
        <ele>112.9</ele>
        <time>2024-04-07T16:30:19.622Z</time>
      </trkpt>
      <trkpt lat="43.65427" lon="3.76371">
        <ele>113.4</ele>
        <time>2024-04-07T16:30:20.622Z</time>
      </trkpt>
      <trkpt lat="43.65423" lon="3.76367">
        <ele>114</ele>
        <time>2024-04-07T16:30:21.622Z</time>
      </trkpt>
      <trkpt lat="43.6542" lon="3.76365">
        <ele>114.5</ele>
        <time>2024-04-07T16:30:22.622Z</time>
      </trkpt>
      <trkpt lat="43.65417" lon="3.76362">
        <ele>115</ele>
        <time>2024-04-07T16:30:23.622Z</time>
      </trkpt>
      <trkpt lat="43.65415" lon="3.76359">
        <ele>114.9</ele>
        <time>2024-04-07T16:30:24.622Z</time>
      </trkpt>
      <trkpt lat="43.65412" lon="3.76356">
        <ele>114.7</ele>
        <time>2024-04-07T16:30:25.622Z</time>
      </trkpt>
      <trkpt lat="43.65406" lon="3.76354">
        <ele>114.4</ele>
        <time>2024-04-07T16:30:27.622Z</time>
      </trkpt>
      <trkpt lat="43.65406" lon="3.7635">
        <ele>114.1</ele>
        <time>2024-04-07T16:30:28.622Z</time>
      </trkpt>
      <trkpt lat="43.65404" lon="3.76347">
        <ele>113.8</ele>
        <time>2024-04-07T16:30:29.622Z</time>
      </trkpt>
      <trkpt lat="43.65401" lon="3.76345">
        <ele>113.4</ele>
        <time>2024-04-07T16:30:30.622Z</time>
      </trkpt>
      <trkpt lat="43.65399" lon="3.76344">
        <ele>113.2</ele>
        <time>2024-04-07T16:30:31.622Z</time>
      </trkpt>
      <trkpt lat="43.65396" lon="3.76343">
        <ele>112.9</ele>
        <time>2024-04-07T16:30:32.622Z</time>
      </trkpt>
      <trkpt lat="43.65395" lon="3.76342">
        <ele>112.7</ele>
        <time>2024-04-07T16:30:33.622Z</time>
      </trkpt>
      <trkpt lat="43.65392" lon="3.76344">
        <ele>112.7</ele>
        <time>2024-04-07T16:30:34.622Z</time>
      </trkpt>
      <trkpt lat="43.65391" lon="3.76345">
        <ele>112.8</ele>
        <time>2024-04-07T16:30:35.622Z</time>
      </trkpt>
      <trkpt lat="43.65388" lon="3.76344">
        <ele>112.5</ele>
        <time>2024-04-07T16:30:36.622Z</time>
      </trkpt>
      <trkpt lat="43.65386" lon="3.76343">
        <ele>112.2</ele>
        <time>2024-04-07T16:30:37.622Z</time>
      </trkpt>
      <trkpt lat="43.65383" lon="3.76341">
        <ele>111.7</ele>
        <time>2024-04-07T16:30:38.622Z</time>
      </trkpt>
      <trkpt lat="43.65379" lon="3.7634">
        <ele>111.2</ele>
        <time>2024-04-07T16:30:39.622Z</time>
      </trkpt>
      <trkpt lat="43.65375" lon="3.76339">
        <ele>110.8</ele>
        <time>2024-04-07T16:30:40.622Z</time>
      </trkpt>
      <trkpt lat="43.65373" lon="3.76338">
        <ele>110.5</ele>
        <time>2024-04-07T16:30:41.622Z</time>
      </trkpt>
      <trkpt lat="43.6537" lon="3.76339">
        <ele>110.5</ele>
        <time>2024-04-07T16:30:42.622Z</time>
      </trkpt>
      <trkpt lat="43.65367" lon="3.7634">
        <ele>110.4</ele>
        <time>2024-04-07T16:30:43.622Z</time>
      </trkpt>
      <trkpt lat="43.65363" lon="3.7634">
        <ele>110.1</ele>
        <time>2024-04-07T16:30:44.622Z</time>
      </trkpt>
      <trkpt lat="43.65362" lon="3.7634">
        <ele>110</ele>
        <time>2024-04-07T16:30:45.622Z</time>
      </trkpt>
      <trkpt lat="43.65359" lon="3.7634">
        <ele>110</ele>
        <time>2024-04-07T16:30:46.622Z</time>
      </trkpt>
      <trkpt lat="43.65356" lon="3.76339">
        <ele>109.9</ele>
        <time>2024-04-07T16:30:47.622Z</time>
      </trkpt>
      <trkpt lat="43.65353" lon="3.76338">
        <ele>109.9</ele>
        <time>2024-04-07T16:30:48.622Z</time>
      </trkpt>
      <trkpt lat="43.65349" lon="3.76336">
        <ele>109.7</ele>
        <time>2024-04-07T16:30:49.622Z</time>
      </trkpt>
      <trkpt lat="43.65344" lon="3.76335">
        <ele>109.8</ele>
        <time>2024-04-07T16:30:50.622Z</time>
      </trkpt>
      <trkpt lat="43.6534" lon="3.76334">
        <ele>109.8</ele>
        <time>2024-04-07T16:30:51.622Z</time>
      </trkpt>
      <trkpt lat="43.65338" lon="3.76333">
        <ele>109.8</ele>
        <time>2024-04-07T16:30:52.622Z</time>
      </trkpt>
      <trkpt lat="43.65335" lon="3.76333">
        <ele>109.9</ele>
        <time>2024-04-07T16:30:53.622Z</time>
      </trkpt>
      <trkpt lat="43.65334" lon="3.76332">
        <ele>110</ele>
        <time>2024-04-07T16:30:54.622Z</time>
      </trkpt>
      <trkpt lat="43.65331" lon="3.7633">
        <ele>110.5</ele>
        <time>2024-04-07T16:30:55.622Z</time>
      </trkpt>
      <trkpt lat="43.65329" lon="3.76327">
        <ele>110.9</ele>
        <time>2024-04-07T16:30:56.622Z</time>
      </trkpt>
      <trkpt lat="43.65326" lon="3.76323">
        <ele>111.5</ele>
        <time>2024-04-07T16:30:57.622Z</time>
      </trkpt>
      <trkpt lat="43.65324" lon="3.76319">
        <ele>112</ele>
        <time>2024-04-07T16:30:58.622Z</time>
      </trkpt>
      <trkpt lat="43.65324" lon="3.76317">
        <ele>112.1</ele>
        <time>2024-04-07T16:30:59.622Z</time>
      </trkpt>
      <trkpt lat="43.65324" lon="3.76316">
        <ele>112.2</ele>
        <time>2024-04-07T16:31:00.622Z</time>
      </trkpt>
      <trkpt lat="43.65324" lon="3.76314">
        <ele>112.3</ele>
        <time>2024-04-07T16:31:01.622Z</time>
      </trkpt>
      <trkpt lat="43.65324" lon="3.76313">
        <ele>112.3</ele>
        <time>2024-04-07T16:31:02.622Z</time>
      </trkpt>
      <trkpt lat="43.65323" lon="3.76312">
        <ele>112.5</ele>
        <time>2024-04-07T16:31:03.622Z</time>
      </trkpt>
      <trkpt lat="43.65321" lon="3.76311">
        <ele>112.9</ele>
        <time>2024-04-07T16:31:04.622Z</time>
      </trkpt>
      <trkpt lat="43.65317" lon="3.76294">
        <ele>114.8</ele>
        <time>2024-04-07T16:31:15.622Z</time>
      </trkpt>
      <trkpt lat="43.65319" lon="3.76291">
        <ele>114.6</ele>
        <time>2024-04-07T16:31:16.622Z</time>
      </trkpt>
      <trkpt lat="43.65322" lon="3.76287">
        <ele>114.4</ele>
        <time>2024-04-07T16:31:17.622Z</time>
      </trkpt>
      <trkpt lat="43.65324" lon="3.76284">
        <ele>114.2</ele>
        <time>2024-04-07T16:31:18.622Z</time>
      </trkpt>
      <trkpt lat="43.65307" lon="3.76258">
        <ele>117.1</ele>
        <time>2024-04-07T16:31:34.622Z</time>
      </trkpt>
      <trkpt lat="43.65288" lon="3.76239">
        <ele>117.2</ele>
        <time>2024-04-07T16:31:50.622Z</time>
      </trkpt>
      <trkpt lat="43.65286" lon="3.76235">
        <ele>116.9</ele>
        <time>2024-04-07T16:31:51.622Z</time>
      </trkpt>
      <trkpt lat="43.65285" lon="3.76234">
        <ele>116.9</ele>
        <time>2024-04-07T16:31:52.622Z</time>
      </trkpt>
      <trkpt lat="43.65282" lon="3.76231">
        <ele>116.7</ele>
        <time>2024-04-07T16:31:53.622Z</time>
      </trkpt>
      <trkpt lat="43.6528" lon="3.76228">
        <ele>116.5</ele>
        <time>2024-04-07T16:31:54.622Z</time>
      </trkpt>
      <trkpt lat="43.65278" lon="3.76225">
        <ele>116.3</ele>
        <time>2024-04-07T16:31:55.622Z</time>
      </trkpt>
      <trkpt lat="43.65276" lon="3.76221">
        <ele>116.1</ele>
        <time>2024-04-07T16:31:56.622Z</time>
      </trkpt>
      <trkpt lat="43.65275" lon="3.76219">
        <ele>116.1</ele>
        <time>2024-04-07T16:31:57.622Z</time>
      </trkpt>
      <trkpt lat="43.65273" lon="3.76218">
        <ele>116.2</ele>
        <time>2024-04-07T16:31:58.622Z</time>
      </trkpt>
      <trkpt lat="43.65272" lon="3.76217">
        <ele>116.3</ele>
        <time>2024-04-07T16:31:59.622Z</time>
      </trkpt>
      <trkpt lat="43.65271" lon="3.76215">
        <ele>116.3</ele>
        <time>2024-04-07T16:32:00.622Z</time>
      </trkpt>
      <trkpt lat="43.6527" lon="3.76215">
        <ele>116.4</ele>
        <time>2024-04-07T16:32:01.622Z</time>
      </trkpt>
      <trkpt lat="43.65269" lon="3.76214">
        <ele>116.4</ele>
        <time>2024-04-07T16:32:02.622Z</time>
      </trkpt>
      <trkpt lat="43.65268" lon="3.76214">
        <ele>116.6</ele>
        <time>2024-04-07T16:32:03.622Z</time>
      </trkpt>
      <trkpt lat="43.65265" lon="3.76208">
        <ele>116.6</ele>
        <time>2024-04-07T16:32:05.622Z</time>
      </trkpt>
      <trkpt lat="43.65264" lon="3.76205">
        <ele>116.6</ele>
        <time>2024-04-07T16:32:07.622Z</time>
      </trkpt>
      <trkpt lat="43.65264" lon="3.76202">
        <ele>116.4</ele>
        <time>2024-04-07T16:32:08.622Z</time>
      </trkpt>
      <trkpt lat="43.65251" lon="3.76187">
        <ele>117.6</ele>
        <time>2024-04-07T16:32:16.622Z</time>
      </trkpt>
      <trkpt lat="43.65248" lon="3.76185">
        <ele>117.9</ele>
        <time>2024-04-07T16:32:17.622Z</time>
      </trkpt>
      <trkpt lat="43.65248" lon="3.76185">
        <ele>117.9</ele>
        <time>2024-04-07T16:32:18.622Z</time>
      </trkpt>
      <trkpt lat="43.65248" lon="3.76184">
        <ele>117.9</ele>
        <time>2024-04-07T16:32:19.622Z</time>
      </trkpt>
      <trkpt lat="43.65247" lon="3.76183">
        <ele>117.9</ele>
        <time>2024-04-07T16:32:20.622Z</time>
      </trkpt>
      <trkpt lat="43.65246" lon="3.76182">
        <ele>118</ele>
        <time>2024-04-07T16:32:21.622Z</time>
      </trkpt>
      <trkpt lat="43.65245" lon="3.7618">
        <ele>118</ele>
        <time>2024-04-07T16:32:22.622Z</time>
      </trkpt>
      <trkpt lat="43.65242" lon="3.76178">
        <ele>118.2</ele>
        <time>2024-04-07T16:32:28.622Z</time>
      </trkpt>
      <trkpt lat="43.65229" lon="3.76174">
        <ele>119.2</ele>
        <time>2024-04-07T16:32:31.622Z</time>
      </trkpt>
      <trkpt lat="43.65229" lon="3.76173">
        <ele>119.1</ele>
        <time>2024-04-07T16:32:32.622Z</time>
      </trkpt>
      <trkpt lat="43.65228" lon="3.76171">
        <ele>119</ele>
        <time>2024-04-07T16:32:33.622Z</time>
      </trkpt>
      <trkpt lat="43.65227" lon="3.7617">
        <ele>119</ele>
        <time>2024-04-07T16:32:34.622Z</time>
      </trkpt>
      <trkpt lat="43.65227" lon="3.76169">
        <ele>118.9</ele>
        <time>2024-04-07T16:32:35.622Z</time>
      </trkpt>
      <trkpt lat="43.65228" lon="3.76168">
        <ele>118.7</ele>
        <time>2024-04-07T16:32:36.622Z</time>
      </trkpt>
      <trkpt lat="43.65228" lon="3.76167">
        <ele>118.6</ele>
        <time>2024-04-07T16:32:37.622Z</time>
      </trkpt>
      <trkpt lat="43.65206" lon="3.76128">
        <ele>113.9</ele>
        <time>2024-04-07T16:32:52.622Z</time>
      </trkpt>
      <trkpt lat="43.65202" lon="3.76126">
        <ele>113.3</ele>
        <time>2024-04-07T16:32:53.622Z</time>
      </trkpt>
      <trkpt lat="43.652" lon="3.76123">
        <ele>112.8</ele>
        <time>2024-04-07T16:32:54.622Z</time>
      </trkpt>
      <trkpt lat="43.65198" lon="3.76119">
        <ele>112.1</ele>
        <time>2024-04-07T16:32:55.622Z</time>
      </trkpt>
      <trkpt lat="43.65197" lon="3.76117">
        <ele>111.8</ele>
        <time>2024-04-07T16:32:56.622Z</time>
      </trkpt>
      <trkpt lat="43.65194" lon="3.76115">
        <ele>111.4</ele>
        <time>2024-04-07T16:32:57.622Z</time>
      </trkpt>
      <trkpt lat="43.65192" lon="3.76116">
        <ele>111.3</ele>
        <time>2024-04-07T16:32:58.622Z</time>
      </trkpt>
      <trkpt lat="43.65189" lon="3.76118">
        <ele>111.2</ele>
        <time>2024-04-07T16:32:59.622Z</time>
      </trkpt>
      <trkpt lat="43.65185" lon="3.76121">
        <ele>111</ele>
        <time>2024-04-07T16:33:00.622Z</time>
      </trkpt>
      <trkpt lat="43.65184" lon="3.76121">
        <ele>110.9</ele>
        <time>2024-04-07T16:33:01.622Z</time>
      </trkpt>
      <trkpt lat="43.6518" lon="3.76122">
        <ele>110.6</ele>
        <time>2024-04-07T16:33:02.622Z</time>
      </trkpt>
      <trkpt lat="43.65179" lon="3.76123">
        <ele>110.6</ele>
        <time>2024-04-07T16:33:03.622Z</time>
      </trkpt>
      <trkpt lat="43.6516" lon="3.76139">
        <ele>110.8</ele>
        <time>2024-04-07T16:33:28.622Z</time>
      </trkpt>
      <trkpt lat="43.6516" lon="3.76139">
        <ele>110.8</ele>
        <time>2024-04-07T16:33:29.622Z</time>
      </trkpt>
      <trkpt lat="43.6516" lon="3.7614">
        <ele>110.9</ele>
        <time>2024-04-07T16:33:30.622Z</time>
      </trkpt>
      <trkpt lat="43.65159" lon="3.7614">
        <ele>110.9</ele>
        <time>2024-04-07T16:33:31.622Z</time>
      </trkpt>
      <trkpt lat="43.65159" lon="3.7614">
        <ele>110.9</ele>
        <time>2024-04-07T16:33:32.622Z</time>
      </trkpt>
      <trkpt lat="43.65159" lon="3.76141">
        <ele>111</ele>
        <time>2024-04-07T16:33:33.622Z</time>
      </trkpt>
      <trkpt lat="43.65159" lon="3.76141">
        <ele>111</ele>
        <time>2024-04-07T16:33:34.622Z</time>
      </trkpt>
      <trkpt lat="43.65158" lon="3.76142">
        <ele>111.1</ele>
        <time>2024-04-07T16:33:35.622Z</time>
      </trkpt>
      <trkpt lat="43.65158" lon="3.76142">
        <ele>111.1</ele>
        <time>2024-04-07T16:33:36.622Z</time>
      </trkpt>
      <trkpt lat="43.65158" lon="3.76143">
        <ele>111.2</ele>
        <time>2024-04-07T16:33:37.622Z</time>
      </trkpt>
      <trkpt lat="43.65157" lon="3.76144">
        <ele>111.3</ele>
        <time>2024-04-07T16:33:39.622Z</time>
      </trkpt>
      <trkpt lat="43.65157" lon="3.76144">
        <ele>111.3</ele>
        <time>2024-04-07T16:37:34.622Z</time>
      </trkpt>
      <trkpt lat="43.65156" lon="3.76145">
        <ele>111.3</ele>
        <time>2024-04-07T16:37:35.622Z</time>
      </trkpt>
      <trkpt lat="43.65156" lon="3.76145">
        <ele>111.3</ele>
        <time>2024-04-07T16:37:36.622Z</time>
      </trkpt>
      <trkpt lat="43.65153" lon="3.76148">
        <ele>111.5</ele>
        <time>2024-04-07T16:37:37.622Z</time>
      </trkpt>
      <trkpt lat="43.6515" lon="3.76151">
        <ele>111.6</ele>
        <time>2024-04-07T16:37:38.622Z</time>
      </trkpt>
      <trkpt lat="43.65146" lon="3.76154">
        <ele>111.6</ele>
        <time>2024-04-07T16:37:39.622Z</time>
      </trkpt>
      <trkpt lat="43.65142" lon="3.76156">
        <ele>111.5</ele>
        <time>2024-04-07T16:37:40.622Z</time>
      </trkpt>
      <trkpt lat="43.65139" lon="3.76158">
        <ele>111.4</ele>
        <time>2024-04-07T16:37:41.622Z</time>
      </trkpt>
      <trkpt lat="43.65133" lon="3.76161">
        <ele>111.9</ele>
        <time>2024-04-07T16:37:43.622Z</time>
      </trkpt>
      <trkpt lat="43.65131" lon="3.76161">
        <ele>112</ele>
        <time>2024-04-07T16:37:44.622Z</time>
      </trkpt>
      <trkpt lat="43.6513" lon="3.76162">
        <ele>112.1</ele>
        <time>2024-04-07T16:37:45.622Z</time>
      </trkpt>
      <trkpt lat="43.65128" lon="3.76163">
        <ele>112.2</ele>
        <time>2024-04-07T16:37:46.622Z</time>
      </trkpt>
      <trkpt lat="43.65127" lon="3.76164">
        <ele>112.3</ele>
        <time>2024-04-07T16:37:47.622Z</time>
      </trkpt>
      <trkpt lat="43.65125" lon="3.76164">
        <ele>112.4</ele>
        <time>2024-04-07T16:37:48.622Z</time>
      </trkpt>
      <trkpt lat="43.65122" lon="3.76165">
        <ele>112.6</ele>
        <time>2024-04-07T16:37:49.622Z</time>
      </trkpt>
      <trkpt lat="43.6512" lon="3.76166">
        <ele>112.7</ele>
        <time>2024-04-07T16:37:50.622Z</time>
      </trkpt>
      <trkpt lat="43.65117" lon="3.76167">
        <ele>112.8</ele>
        <time>2024-04-07T16:37:51.622Z</time>
      </trkpt>
      <trkpt lat="43.65113" lon="3.76169">
        <ele>113</ele>
        <time>2024-04-07T16:37:52.622Z</time>
      </trkpt>
      <trkpt lat="43.65109" lon="3.76171">
        <ele>113.4</ele>
        <time>2024-04-07T16:37:53.622Z</time>
      </trkpt>
      <trkpt lat="43.65106" lon="3.76172">
        <ele>114</ele>
        <time>2024-04-07T16:37:54.622Z</time>
      </trkpt>
      <trkpt lat="43.65103" lon="3.76174">
        <ele>114.6</ele>
        <time>2024-04-07T16:37:55.622Z</time>
      </trkpt>
      <trkpt lat="43.65102" lon="3.76177">
        <ele>114.7</ele>
        <time>2024-04-07T16:37:56.622Z</time>
      </trkpt>
      <trkpt lat="43.65101" lon="3.76177">
        <ele>114.9</ele>
        <time>2024-04-07T16:37:57.622Z</time>
      </trkpt>
      <trkpt lat="43.65101" lon="3.76178">
        <ele>114.9</ele>
        <time>2024-04-07T16:37:58.622Z</time>
      </trkpt>
      <trkpt lat="43.651" lon="3.7618">
        <ele>115</ele>
        <time>2024-04-07T16:37:59.622Z</time>
      </trkpt>
      <trkpt lat="43.651" lon="3.76182">
        <ele>115</ele>
        <time>2024-04-07T16:38:00.622Z</time>
      </trkpt>
      <trkpt lat="43.65098" lon="3.76186">
        <ele>115.2</ele>
        <time>2024-04-07T16:38:01.622Z</time>
      </trkpt>
      <trkpt lat="43.65097" lon="3.76187">
        <ele>115.3</ele>
        <time>2024-04-07T16:38:02.622Z</time>
      </trkpt>
      <trkpt lat="43.65095" lon="3.7619">
        <ele>115.5</ele>
        <time>2024-04-07T16:38:03.622Z</time>
      </trkpt>
      <trkpt lat="43.65093" lon="3.76194">
        <ele>115.6</ele>
        <time>2024-04-07T16:38:04.622Z</time>
      </trkpt>
      <trkpt lat="43.65092" lon="3.76195">
        <ele>115.8</ele>
        <time>2024-04-07T16:38:05.622Z</time>
      </trkpt>
      <trkpt lat="43.6509" lon="3.762">
        <ele>116</ele>
        <time>2024-04-07T16:38:06.622Z</time>
      </trkpt>
      <trkpt lat="43.6509" lon="3.76202">
        <ele>116</ele>
        <time>2024-04-07T16:38:07.622Z</time>
      </trkpt>
      <trkpt lat="43.65088" lon="3.76206">
        <ele>116</ele>
        <time>2024-04-07T16:38:08.622Z</time>
      </trkpt>
      <trkpt lat="43.65087" lon="3.76208">
        <ele>115.9</ele>
        <time>2024-04-07T16:38:09.622Z</time>
      </trkpt>
      <trkpt lat="43.65085" lon="3.76211">
        <ele>115.8</ele>
        <time>2024-04-07T16:38:10.622Z</time>
      </trkpt>
      <trkpt lat="43.65084" lon="3.76213">
        <ele>115.7</ele>
        <time>2024-04-07T16:38:11.622Z</time>
      </trkpt>
      <trkpt lat="43.65084" lon="3.76217">
        <ele>115.4</ele>
        <time>2024-04-07T16:38:12.622Z</time>
      </trkpt>
      <trkpt lat="43.65085" lon="3.76218">
        <ele>115.4</ele>
        <time>2024-04-07T16:38:13.622Z</time>
      </trkpt>
      <trkpt lat="43.65085" lon="3.7622">
        <ele>115.3</ele>
        <time>2024-04-07T16:38:14.622Z</time>
      </trkpt>
      <trkpt lat="43.65085" lon="3.76223">
        <ele>115.2</ele>
        <time>2024-04-07T16:38:15.622Z</time>
      </trkpt>
      <trkpt lat="43.65084" lon="3.76225">
        <ele>115.3</ele>
        <time>2024-04-07T16:38:16.622Z</time>
      </trkpt>
      <trkpt lat="43.65084" lon="3.76227">
        <ele>115.4</ele>
        <time>2024-04-07T16:38:17.622Z</time>
      </trkpt>
      <trkpt lat="43.65084" lon="3.76229">
        <ele>115.6</ele>
        <time>2024-04-07T16:38:18.622Z</time>
      </trkpt>
      <trkpt lat="43.65084" lon="3.76231">
        <ele>115.7</ele>
        <time>2024-04-07T16:38:19.622Z</time>
      </trkpt>
      <trkpt lat="43.65082" lon="3.76238">
        <ele>116.5</ele>
        <time>2024-04-07T16:38:23.622Z</time>
      </trkpt>
      <trkpt lat="43.65082" lon="3.76241">
        <ele>116.7</ele>
        <time>2024-04-07T16:38:25.622Z</time>
      </trkpt>
      <trkpt lat="43.65081" lon="3.76243">
        <ele>117</ele>
        <time>2024-04-07T16:38:27.622Z</time>
      </trkpt>
      <trkpt lat="43.65077" lon="3.76257">
        <ele>118.4</ele>
        <time>2024-04-07T16:38:35.622Z</time>
      </trkpt>
      <trkpt lat="43.65072" lon="3.76281">
        <ele>120</ele>
        <time>2024-04-07T16:38:51.622Z</time>
      </trkpt>
      <trkpt lat="43.65072" lon="3.76282">
        <ele>120.1</ele>
        <time>2024-04-07T16:38:52.622Z</time>
      </trkpt>
      <trkpt lat="43.65072" lon="3.76285">
        <ele>120.3</ele>
        <time>2024-04-07T16:38:53.622Z</time>
      </trkpt>
      <trkpt lat="43.65072" lon="3.76286">
        <ele>120.3</ele>
        <time>2024-04-07T16:38:54.622Z</time>
      </trkpt>
      <trkpt lat="43.65072" lon="3.76287">
        <ele>120.4</ele>
        <time>2024-04-07T16:38:55.622Z</time>
      </trkpt>
      <trkpt lat="43.65061" lon="3.76332">
        <ele>123.6</ele>
        <time>2024-04-07T16:39:14.622Z</time>
      </trkpt>
      <trkpt lat="43.65061" lon="3.76335">
        <ele>123.7</ele>
        <time>2024-04-07T16:39:15.622Z</time>
      </trkpt>
      <trkpt lat="43.65061" lon="3.76337">
        <ele>123.7</ele>
        <time>2024-04-07T16:39:16.622Z</time>
      </trkpt>
      <trkpt lat="43.65061" lon="3.7634">
        <ele>123.8</ele>
        <time>2024-04-07T16:39:17.622Z</time>
      </trkpt>
      <trkpt lat="43.6506" lon="3.76341">
        <ele>123.9</ele>
        <time>2024-04-07T16:39:18.622Z</time>
      </trkpt>
      <trkpt lat="43.6506" lon="3.76343">
        <ele>123.9</ele>
        <time>2024-04-07T16:39:19.622Z</time>
      </trkpt>
      <trkpt lat="43.65058" lon="3.76348">
        <ele>124</ele>
        <time>2024-04-07T16:39:24.622Z</time>
      </trkpt>
      <trkpt lat="43.65058" lon="3.7635">
        <ele>124</ele>
        <time>2024-04-07T16:39:25.622Z</time>
      </trkpt>
      <trkpt lat="43.65058" lon="3.76352">
        <ele>124.1</ele>
        <time>2024-04-07T16:39:26.622Z</time>
      </trkpt>
      <trkpt lat="43.65055" lon="3.76367">
        <ele>124.1</ele>
        <time>2024-04-07T16:39:59.622Z</time>
      </trkpt>
      <trkpt lat="43.65055" lon="3.76367">
        <ele>124.1</ele>
        <time>2024-04-07T16:40:00.622Z</time>
      </trkpt>
      <trkpt lat="43.65054" lon="3.76367">
        <ele>124.4</ele>
        <time>2024-04-07T16:40:01.622Z</time>
      </trkpt>
      <trkpt lat="43.65054" lon="3.76368">
        <ele>124.4</ele>
        <time>2024-04-07T16:40:02.622Z</time>
      </trkpt>
      <trkpt lat="43.65054" lon="3.76369">
        <ele>124.4</ele>
        <time>2024-04-07T16:40:03.622Z</time>
      </trkpt>
      <trkpt lat="43.65054" lon="3.7637">
        <ele>124.4</ele>
        <time>2024-04-07T16:40:04.622Z</time>
      </trkpt>
      <trkpt lat="43.65054" lon="3.7637">
        <ele>124.4</ele>
        <time>2024-04-07T16:40:05.622Z</time>
      </trkpt>
      <trkpt lat="43.65054" lon="3.76372">
        <ele>124.4</ele>
        <time>2024-04-07T16:40:07.622Z</time>
      </trkpt>
      <trkpt lat="43.65054" lon="3.76378">
        <ele>124.4</ele>
        <time>2024-04-07T16:40:11.622Z</time>
      </trkpt>
      <trkpt lat="43.65054" lon="3.76379">
        <ele>124.4</ele>
        <time>2024-04-07T16:40:12.622Z</time>
      </trkpt>
      <trkpt lat="43.65054" lon="3.76384">
        <ele>124.4</ele>
        <time>2024-04-07T16:40:13.622Z</time>
      </trkpt>
      <trkpt lat="43.65054" lon="3.76385">
        <ele>124.4</ele>
        <time>2024-04-07T16:40:14.622Z</time>
      </trkpt>
      <trkpt lat="43.65054" lon="3.7639">
        <ele>124.5</ele>
        <time>2024-04-07T16:40:15.622Z</time>
      </trkpt>
      <trkpt lat="43.65054" lon="3.76391">
        <ele>124.5</ele>
        <time>2024-04-07T16:40:16.622Z</time>
      </trkpt>
      <trkpt lat="43.65054" lon="3.76395">
        <ele>124.7</ele>
        <time>2024-04-07T16:40:17.622Z</time>
      </trkpt>
      <trkpt lat="43.65054" lon="3.76397">
        <ele>124.7</ele>
        <time>2024-04-07T16:40:18.622Z</time>
      </trkpt>
      <trkpt lat="43.65053" lon="3.76401">
        <ele>125.2</ele>
        <time>2024-04-07T16:40:19.622Z</time>
      </trkpt>
      <trkpt lat="43.65052" lon="3.76403">
        <ele>125.5</ele>
        <time>2024-04-07T16:40:20.622Z</time>
      </trkpt>
      <trkpt lat="43.65052" lon="3.76405">
        <ele>125.6</ele>
        <time>2024-04-07T16:40:21.622Z</time>
      </trkpt>
      <trkpt lat="43.65052" lon="3.76407">
        <ele>125.7</ele>
        <time>2024-04-07T16:40:22.622Z</time>
      </trkpt>
      <trkpt lat="43.65051" lon="3.76411">
        <ele>126.1</ele>
        <time>2024-04-07T16:40:23.622Z</time>
      </trkpt>
      <trkpt lat="43.6505" lon="3.76412">
        <ele>126.4</ele>
        <time>2024-04-07T16:40:24.622Z</time>
      </trkpt>
      <trkpt lat="43.65049" lon="3.76416">
        <ele>126.9</ele>
        <time>2024-04-07T16:40:25.622Z</time>
      </trkpt>
      <trkpt lat="43.65047" lon="3.76419">
        <ele>127.6</ele>
        <time>2024-04-07T16:40:26.622Z</time>
      </trkpt>
      <trkpt lat="43.65046" lon="3.76423">
        <ele>128.2</ele>
        <time>2024-04-07T16:40:27.622Z</time>
      </trkpt>
      <trkpt lat="43.65045" lon="3.76434">
        <ele>129.2</ele>
        <time>2024-04-07T16:40:33.622Z</time>
      </trkpt>
      <trkpt lat="43.65044" lon="3.76436">
        <ele>129.5</ele>
        <time>2024-04-07T16:40:34.622Z</time>
      </trkpt>
      <trkpt lat="43.65043" lon="3.7644">
        <ele>130</ele>
        <time>2024-04-07T16:40:35.622Z</time>
      </trkpt>
      <trkpt lat="43.65043" lon="3.76441">
        <ele>130.1</ele>
        <time>2024-04-07T16:40:36.622Z</time>
      </trkpt>
      <trkpt lat="43.65044" lon="3.76458">
        <ele>131.5</ele>
        <time>2024-04-07T16:41:03.622Z</time>
      </trkpt>
      <trkpt lat="43.65044" lon="3.76458">
        <ele>131.5</ele>
        <time>2024-04-07T16:41:04.622Z</time>
      </trkpt>
      <trkpt lat="43.65044" lon="3.76459">
        <ele>131.6</ele>
        <time>2024-04-07T16:41:05.622Z</time>
      </trkpt>
      <trkpt lat="43.65044" lon="3.7646">
        <ele>131.7</ele>
        <time>2024-04-07T16:41:06.622Z</time>
      </trkpt>
      <trkpt lat="43.65043" lon="3.76465">
        <ele>132.4</ele>
        <time>2024-04-07T16:41:07.622Z</time>
      </trkpt>
      <trkpt lat="43.65043" lon="3.76467">
        <ele>132.6</ele>
        <time>2024-04-07T16:41:08.622Z</time>
      </trkpt>
      <trkpt lat="43.65042" lon="3.76472">
        <ele>133.4</ele>
        <time>2024-04-07T16:41:09.622Z</time>
      </trkpt>
      <trkpt lat="43.6504" lon="3.76504">
        <ele>136.1</ele>
        <time>2024-04-07T16:41:16.622Z</time>
      </trkpt>
      <trkpt lat="43.6504" lon="3.76519">
        <ele>136.9</ele>
        <time>2024-04-07T16:41:24.622Z</time>
      </trkpt>
      <trkpt lat="43.65039" lon="3.76522">
        <ele>137.3</ele>
        <time>2024-04-07T16:41:25.622Z</time>
      </trkpt>
      <trkpt lat="43.65039" lon="3.76523">
        <ele>137.3</ele>
        <time>2024-04-07T16:41:26.622Z</time>
      </trkpt>
      <trkpt lat="43.65039" lon="3.76525">
        <ele>137.4</ele>
        <time>2024-04-07T16:41:27.622Z</time>
      </trkpt>
      <trkpt lat="43.65039" lon="3.76526">
        <ele>137.5</ele>
        <time>2024-04-07T16:41:28.622Z</time>
      </trkpt>
      <trkpt lat="43.65039" lon="3.76527">
        <ele>137.5</ele>
        <time>2024-04-07T16:41:29.622Z</time>
      </trkpt>
      <trkpt lat="43.65039" lon="3.76531">
        <ele>137.8</ele>
        <time>2024-04-07T16:41:32.622Z</time>
      </trkpt>
      <trkpt lat="43.65039" lon="3.76534">
        <ele>137.9</ele>
        <time>2024-04-07T16:41:33.622Z</time>
      </trkpt>
      <trkpt lat="43.65034" lon="3.76563">
        <ele>139.8</ele>
        <time>2024-04-07T16:41:50.622Z</time>
      </trkpt>
      <trkpt lat="43.65028" lon="3.76597">
        <ele>141</ele>
        <time>2024-04-07T16:42:05.622Z</time>
      </trkpt>
      <trkpt lat="43.65025" lon="3.76607">
        <ele>142.2</ele>
        <time>2024-04-07T16:42:09.622Z</time>
      </trkpt>
      <trkpt lat="43.65018" lon="3.76634">
        <ele>146.1</ele>
        <time>2024-04-07T16:42:33.622Z</time>
      </trkpt>
      <trkpt lat="43.65017" lon="3.76645">
        <ele>147.1</ele>
        <time>2024-04-07T16:42:36.871Z</time>
      </trkpt>
      <trkpt lat="43.65015" lon="3.76647">
        <ele>147.1</ele>
        <time>2024-04-07T16:42:34.622Z</time>
      </trkpt>
      <trkpt lat="43.65013" lon="3.76647">
        <ele>147.1</ele>
        <time>2024-04-07T16:42:35.622Z</time>
      </trkpt>
      <trkpt lat="43.65011" lon="3.76628">
        <ele>145.6</ele>
        <time>2024-04-07T16:42:37.622Z</time>
      </trkpt>
      <trkpt lat="43.65011" lon="3.76608">
        <ele>144.5</ele>
        <time>2024-04-07T16:43:26.622Z</time>
      </trkpt>
      <trkpt lat="43.65011" lon="3.76592">
        <ele>144.7</ele>
        <time>2024-04-07T16:45:46.622Z</time>
      </trkpt>
      <trkpt lat="43.65011" lon="3.76573">
        <ele>144.8</ele>
        <time>2024-04-07T16:45:50.622Z</time>
      </trkpt>
      <trkpt lat="43.65008" lon="3.76534">
        <ele>145.1</ele>
        <time>2024-04-07T16:45:57.622Z</time>
      </trkpt>
      <trkpt lat="43.65006" lon="3.76501">
        <ele>143.8</ele>
        <time>2024-04-07T16:46:02.622Z</time>
      </trkpt>
      <trkpt lat="43.65003" lon="3.7647">
        <ele>143.1</ele>
        <time>2024-04-07T16:46:07.622Z</time>
      </trkpt>
      <trkpt lat="43.65003" lon="3.76463">
        <ele>142.5</ele>
        <time>2024-04-07T16:46:08.622Z</time>
      </trkpt>
      <trkpt lat="43.65" lon="3.76456">
        <ele>142.8</ele>
        <time>2024-04-07T16:46:09.622Z</time>
      </trkpt>
      <trkpt lat="43.64998" lon="3.76452">
        <ele>143</ele>
        <time>2024-04-07T16:46:10.622Z</time>
      </trkpt>
      <trkpt lat="43.64997" lon="3.76444">
        <ele>142.7</ele>
        <time>2024-04-07T16:46:12.622Z</time>
      </trkpt>
      <trkpt lat="43.64998" lon="3.76441">
        <ele>142.4</ele>
        <time>2024-04-07T16:46:13.622Z</time>
      </trkpt>
      <trkpt lat="43.64996" lon="3.76435">
        <ele>142.7</ele>
        <time>2024-04-07T16:46:15.622Z</time>
      </trkpt>
      <trkpt lat="43.64994" lon="3.76431">
        <ele>143</ele>
        <time>2024-04-07T16:46:16.622Z</time>
      </trkpt>
      <trkpt lat="43.64992" lon="3.76426">
        <ele>143.4</ele>
        <time>2024-04-07T16:46:17.622Z</time>
      </trkpt>
      <trkpt lat="43.64992" lon="3.76419">
        <ele>143.1</ele>
        <time>2024-04-07T16:46:18.622Z</time>
      </trkpt>
      <trkpt lat="43.64992" lon="3.76413">
        <ele>142.9</ele>
        <time>2024-04-07T16:46:19.622Z</time>
      </trkpt>
      <trkpt lat="43.64991" lon="3.76408">
        <ele>143.1</ele>
        <time>2024-04-07T16:46:21.622Z</time>
      </trkpt>
      <trkpt lat="43.64989" lon="3.76399">
        <ele>143.4</ele>
        <time>2024-04-07T16:46:22.622Z</time>
      </trkpt>
      <trkpt lat="43.64989" lon="3.76395">
        <ele>143.3</ele>
        <time>2024-04-07T16:46:23.622Z</time>
      </trkpt>
      <trkpt lat="43.64988" lon="3.76331">
        <ele>143.4</ele>
        <time>2024-04-07T16:46:37.622Z</time>
      </trkpt>
      <trkpt lat="43.64988" lon="3.76326">
        <ele>143.3</ele>
        <time>2024-04-07T16:46:38.622Z</time>
      </trkpt>
      <trkpt lat="43.64988" lon="3.76322">
        <ele>143.3</ele>
        <time>2024-04-07T16:46:39.622Z</time>
      </trkpt>
      <trkpt lat="43.64991" lon="3.76292">
        <ele>142.3</ele>
        <time>2024-04-07T16:46:47.622Z</time>
      </trkpt>
      <trkpt lat="43.64993" lon="3.76287">
        <ele>141.8</ele>
        <time>2024-04-07T16:46:48.622Z</time>
      </trkpt>
      <trkpt lat="43.64994" lon="3.7628">
        <ele>141.5</ele>
        <time>2024-04-07T16:46:49.622Z</time>
      </trkpt>
      <trkpt lat="43.64995" lon="3.76274">
        <ele>141.1</ele>
        <time>2024-04-07T16:46:50.622Z</time>
      </trkpt>
      <trkpt lat="43.64995" lon="3.76269">
        <ele>141</ele>
        <time>2024-04-07T16:46:51.622Z</time>
      </trkpt>
      <trkpt lat="43.64995" lon="3.76265">
        <ele>140.9</ele>
        <time>2024-04-07T16:46:52.622Z</time>
      </trkpt>
      <trkpt lat="43.64995" lon="3.7626">
        <ele>140.7</ele>
        <time>2024-04-07T16:46:53.622Z</time>
      </trkpt>
      <trkpt lat="43.64994" lon="3.76255">
        <ele>140.9</ele>
        <time>2024-04-07T16:46:54.622Z</time>
      </trkpt>
      <trkpt lat="43.64994" lon="3.76254">
        <ele>140.8</ele>
        <time>2024-04-07T16:46:55.622Z</time>
      </trkpt>
      <trkpt lat="43.64995" lon="3.76249">
        <ele>140.4</ele>
        <time>2024-04-07T16:46:56.622Z</time>
      </trkpt>
      <trkpt lat="43.64995" lon="3.76247">
        <ele>140.4</ele>
        <time>2024-04-07T16:46:57.622Z</time>
      </trkpt>
      <trkpt lat="43.64994" lon="3.76242">
        <ele>140.7</ele>
        <time>2024-04-07T16:46:58.622Z</time>
      </trkpt>
      <trkpt lat="43.64994" lon="3.76241">
        <ele>140.7</ele>
        <time>2024-04-07T16:46:59.622Z</time>
      </trkpt>
      <trkpt lat="43.64994" lon="3.76239">
        <ele>140.6</ele>
        <time>2024-04-07T16:47:00.622Z</time>
      </trkpt>
      <trkpt lat="43.64995" lon="3.76233">
        <ele>140.3</ele>
        <time>2024-04-07T16:47:02.622Z</time>
      </trkpt>
      <trkpt lat="43.64995" lon="3.76232">
        <ele>140.3</ele>
        <time>2024-04-07T16:47:03.622Z</time>
      </trkpt>
      <trkpt lat="43.64996" lon="3.7623">
        <ele>140</ele>
        <time>2024-04-07T16:47:04.622Z</time>
      </trkpt>
      <trkpt lat="43.64996" lon="3.76228">
        <ele>140</ele>
        <time>2024-04-07T16:47:05.622Z</time>
      </trkpt>
      <trkpt lat="43.64996" lon="3.76226">
        <ele>140</ele>
        <time>2024-04-07T16:47:06.622Z</time>
      </trkpt>
      <trkpt lat="43.64997" lon="3.76224">
        <ele>139.8</ele>
        <time>2024-04-07T16:47:07.622Z</time>
      </trkpt>
      <trkpt lat="43.64995" lon="3.76203">
        <ele>140.3</ele>
        <time>2024-04-07T16:47:13.622Z</time>
      </trkpt>
      <trkpt lat="43.64994" lon="3.762">
        <ele>140.5</ele>
        <time>2024-04-07T16:47:14.622Z</time>
      </trkpt>
      <trkpt lat="43.64993" lon="3.76196">
        <ele>140.8</ele>
        <time>2024-04-07T16:47:15.622Z</time>
      </trkpt>
      <trkpt lat="43.64993" lon="3.76191">
        <ele>140.7</ele>
        <time>2024-04-07T16:47:16.622Z</time>
      </trkpt>
      <trkpt lat="43.64993" lon="3.76186">
        <ele>140.7</ele>
        <time>2024-04-07T16:47:17.622Z</time>
      </trkpt>
      <trkpt lat="43.64994" lon="3.76182">
        <ele>140.4</ele>
        <time>2024-04-07T16:47:18.622Z</time>
      </trkpt>
      <trkpt lat="43.64994" lon="3.76178">
        <ele>140.4</ele>
        <time>2024-04-07T16:47:19.622Z</time>
      </trkpt>
      <trkpt lat="43.64993" lon="3.76173">
        <ele>140.6</ele>
        <time>2024-04-07T16:47:20.622Z</time>
      </trkpt>
      <trkpt lat="43.64993" lon="3.76168">
        <ele>140.5</ele>
        <time>2024-04-07T16:47:22.622Z</time>
      </trkpt>
      <trkpt lat="43.6499" lon="3.76163">
        <ele>141</ele>
        <time>2024-04-07T16:47:24.622Z</time>
      </trkpt>
      <trkpt lat="43.64987" lon="3.7616">
        <ele>141.5</ele>
        <time>2024-04-07T16:47:26.622Z</time>
      </trkpt>
      <trkpt lat="43.64985" lon="3.76156">
        <ele>141.6</ele>
        <time>2024-04-07T16:47:27.622Z</time>
      </trkpt>
      <trkpt lat="43.64984" lon="3.76154">
        <ele>141.7</ele>
        <time>2024-04-07T16:47:28.622Z</time>
      </trkpt>
      <trkpt lat="43.64981" lon="3.76143">
        <ele>141.7</ele>
        <time>2024-04-07T16:47:33.622Z</time>
      </trkpt>
      <trkpt lat="43.64981" lon="3.76141">
        <ele>141.5</ele>
        <time>2024-04-07T16:47:34.622Z</time>
      </trkpt>
      <trkpt lat="43.64981" lon="3.76141">
        <ele>141.5</ele>
        <time>2024-04-07T16:47:35.622Z</time>
      </trkpt>
      <trkpt lat="43.64981" lon="3.76139">
        <ele>141.4</ele>
        <time>2024-04-07T16:47:36.622Z</time>
      </trkpt>
      <trkpt lat="43.6498" lon="3.76138">
        <ele>141.5</ele>
        <time>2024-04-07T16:47:37.622Z</time>
      </trkpt>
      <trkpt lat="43.6498" lon="3.76136">
        <ele>141.3</ele>
        <time>2024-04-07T16:47:38.622Z</time>
      </trkpt>
      <trkpt lat="43.6498" lon="3.76135">
        <ele>141.3</ele>
        <time>2024-04-07T16:47:39.622Z</time>
      </trkpt>
      <trkpt lat="43.64979" lon="3.76134">
        <ele>141.3</ele>
        <time>2024-04-07T16:47:40.622Z</time>
      </trkpt>
      <trkpt lat="43.64978" lon="3.76129">
        <ele>141</ele>
        <time>2024-04-07T16:47:41.622Z</time>
      </trkpt>
      <trkpt lat="43.64976" lon="3.76123">
        <ele>140.8</ele>
        <time>2024-04-07T16:47:42.622Z</time>
      </trkpt>
      <trkpt lat="43.64974" lon="3.76116">
        <ele>140.3</ele>
        <time>2024-04-07T16:47:43.622Z</time>
      </trkpt>
      <trkpt lat="43.6497" lon="3.76101">
        <ele>138.6</ele>
        <time>2024-04-07T16:47:45.622Z</time>
      </trkpt>
      <trkpt lat="43.64968" lon="3.76094">
        <ele>137.7</ele>
        <time>2024-04-07T16:47:46.622Z</time>
      </trkpt>
      <trkpt lat="43.64964" lon="3.76073">
        <ele>134.2</ele>
        <time>2024-04-07T16:47:50.622Z</time>
      </trkpt>
      <trkpt lat="43.64965" lon="3.76067">
        <ele>133</ele>
        <time>2024-04-07T16:47:51.622Z</time>
      </trkpt>
      <trkpt lat="43.64964" lon="3.76062">
        <ele>132</ele>
        <time>2024-04-07T16:47:52.622Z</time>
      </trkpt>
      <trkpt lat="43.64963" lon="3.76057">
        <ele>131</ele>
        <time>2024-04-07T16:47:53.622Z</time>
      </trkpt>
      <trkpt lat="43.64962" lon="3.76054">
        <ele>130.3</ele>
        <time>2024-04-07T16:47:54.622Z</time>
      </trkpt>
      <trkpt lat="43.6496" lon="3.7605">
        <ele>129.5</ele>
        <time>2024-04-07T16:47:55.622Z</time>
      </trkpt>
      <trkpt lat="43.64958" lon="3.76047">
        <ele>129</ele>
        <time>2024-04-07T16:47:56.622Z</time>
      </trkpt>
      <trkpt lat="43.64956" lon="3.76044">
        <ele>128.4</ele>
        <time>2024-04-07T16:47:57.622Z</time>
      </trkpt>
      <trkpt lat="43.64955" lon="3.76037">
        <ele>127.2</ele>
        <time>2024-04-07T16:47:58.622Z</time>
      </trkpt>
      <trkpt lat="43.64951" lon="3.76028">
        <ele>125.8</ele>
        <time>2024-04-07T16:48:00.622Z</time>
      </trkpt>
      <trkpt lat="43.64942" lon="3.76034">
        <ele>127.4</ele>
        <time>2024-04-07T16:48:02.622Z</time>
      </trkpt>
      <trkpt lat="43.64941" lon="3.76034">
        <ele>127.6</ele>
        <time>2024-04-07T16:48:03.622Z</time>
      </trkpt>
      <trkpt lat="43.6494" lon="3.76035">
        <ele>127.9</ele>
        <time>2024-04-07T16:48:04.622Z</time>
      </trkpt>
      <trkpt lat="43.64938" lon="3.76036">
        <ele>128.4</ele>
        <time>2024-04-07T16:48:05.622Z</time>
      </trkpt>
      <trkpt lat="43.64937" lon="3.76037">
        <ele>128.7</ele>
        <time>2024-04-07T16:48:06.622Z</time>
      </trkpt>
      <trkpt lat="43.64937" lon="3.76038">
        <ele>128.8</ele>
        <time>2024-04-07T16:48:07.622Z</time>
      </trkpt>
      <trkpt lat="43.64937" lon="3.76039">
        <ele>128.8</ele>
        <time>2024-04-07T16:48:08.622Z</time>
      </trkpt>
      <trkpt lat="43.64935" lon="3.76041">
        <ele>129.3</ele>
        <time>2024-04-07T16:48:09.622Z</time>
      </trkpt>
      <trkpt lat="43.64934" lon="3.76041">
        <ele>129.5</ele>
        <time>2024-04-07T16:48:10.622Z</time>
      </trkpt>
      <trkpt lat="43.64934" lon="3.76042">
        <ele>129.5</ele>
        <time>2024-04-07T16:48:11.622Z</time>
      </trkpt>
      <trkpt lat="43.64931" lon="3.76043">
        <ele>130</ele>
        <time>2024-04-07T16:48:12.622Z</time>
      </trkpt>
      <trkpt lat="43.6493" lon="3.76044">
        <ele>130.2</ele>
        <time>2024-04-07T16:48:13.622Z</time>
      </trkpt>
      <trkpt lat="43.64928" lon="3.76044">
        <ele>130.4</ele>
        <time>2024-04-07T16:48:14.622Z</time>
      </trkpt>
      <trkpt lat="43.64928" lon="3.76046">
        <ele>130.4</ele>
        <time>2024-04-07T16:48:15.622Z</time>
      </trkpt>
      <trkpt lat="43.64928" lon="3.76047">
        <ele>130.5</ele>
        <time>2024-04-07T16:48:16.622Z</time>
      </trkpt>
      <trkpt lat="43.64927" lon="3.76048">
        <ele>130.6</ele>
        <time>2024-04-07T16:48:17.622Z</time>
      </trkpt>
      <trkpt lat="43.64926" lon="3.76048">
        <ele>130.7</ele>
        <time>2024-04-07T16:48:18.622Z</time>
      </trkpt>
      <trkpt lat="43.64926" lon="3.76049">
        <ele>130.7</ele>
        <time>2024-04-07T16:48:19.622Z</time>
      </trkpt>
      <trkpt lat="43.64923" lon="3.76049">
        <ele>130.9</ele>
        <time>2024-04-07T16:48:20.622Z</time>
      </trkpt>
      <trkpt lat="43.64922" lon="3.76049">
        <ele>131</ele>
        <time>2024-04-07T16:48:21.622Z</time>
      </trkpt>
      <trkpt lat="43.64919" lon="3.76051">
        <ele>131.2</ele>
        <time>2024-04-07T16:48:22.622Z</time>
      </trkpt>
      <trkpt lat="43.64918" lon="3.76052">
        <ele>131.2</ele>
        <time>2024-04-07T16:48:23.622Z</time>
      </trkpt>
      <trkpt lat="43.64918" lon="3.76053">
        <ele>131.1</ele>
        <time>2024-04-07T16:48:24.622Z</time>
      </trkpt>
      <trkpt lat="43.64917" lon="3.76054">
        <ele>131.1</ele>
        <time>2024-04-07T16:48:25.622Z</time>
      </trkpt>
      <trkpt lat="43.64916" lon="3.76055">
        <ele>131.2</ele>
        <time>2024-04-07T16:48:26.622Z</time>
      </trkpt>
      <trkpt lat="43.64916" lon="3.76056">
        <ele>131.2</ele>
        <time>2024-04-07T16:48:27.622Z</time>
      </trkpt>
      <trkpt lat="43.64915" lon="3.76058">
        <ele>131.6</ele>
        <time>2024-04-07T16:48:28.622Z</time>
      </trkpt>
      <trkpt lat="43.64913" lon="3.7606">
        <ele>132.2</ele>
        <time>2024-04-07T16:48:29.622Z</time>
      </trkpt>
      <trkpt lat="43.6491" lon="3.76062">
        <ele>132.8</ele>
        <time>2024-04-07T16:48:30.622Z</time>
      </trkpt>
      <trkpt lat="43.64908" lon="3.76066">
        <ele>133.5</ele>
        <time>2024-04-07T16:48:31.622Z</time>
      </trkpt>
      <trkpt lat="43.64908" lon="3.76067">
        <ele>133.6</ele>
        <time>2024-04-07T16:48:32.622Z</time>
      </trkpt>
      <trkpt lat="43.64907" lon="3.76071">
        <ele>134</ele>
        <time>2024-04-07T16:48:33.622Z</time>
      </trkpt>
      <trkpt lat="43.64907" lon="3.76072">
        <ele>134.1</ele>
        <time>2024-04-07T16:48:34.622Z</time>
      </trkpt>
      <trkpt lat="43.64905" lon="3.76076">
        <ele>134.5</ele>
        <time>2024-04-07T16:48:35.622Z</time>
      </trkpt>
      <trkpt lat="43.64904" lon="3.76077">
        <ele>134.6</ele>
        <time>2024-04-07T16:48:36.622Z</time>
      </trkpt>
      <trkpt lat="43.64901" lon="3.7608">
        <ele>134.9</ele>
        <time>2024-04-07T16:48:37.622Z</time>
      </trkpt>
      <trkpt lat="43.64899" lon="3.76081">
        <ele>134.9</ele>
        <time>2024-04-07T16:48:38.622Z</time>
      </trkpt>
      <trkpt lat="43.64897" lon="3.76084">
        <ele>135</ele>
        <time>2024-04-07T16:48:39.622Z</time>
      </trkpt>
      <trkpt lat="43.64896" lon="3.76085">
        <ele>135.1</ele>
        <time>2024-04-07T16:48:40.622Z</time>
      </trkpt>
      <trkpt lat="43.64895" lon="3.76087">
        <ele>135.1</ele>
        <time>2024-04-07T16:48:41.622Z</time>
      </trkpt>
      <trkpt lat="43.64895" lon="3.76089">
        <ele>135.2</ele>
        <time>2024-04-07T16:48:42.622Z</time>
      </trkpt>
      <trkpt lat="43.64893" lon="3.76092">
        <ele>135.2</ele>
        <time>2024-04-07T16:48:44.622Z</time>
      </trkpt>
      <trkpt lat="43.64892" lon="3.76093">
        <ele>135.2</ele>
        <time>2024-04-07T16:48:45.622Z</time>
      </trkpt>
      <trkpt lat="43.64891" lon="3.76094">
        <ele>135.1</ele>
        <time>2024-04-07T16:48:46.622Z</time>
      </trkpt>
      <trkpt lat="43.64891" lon="3.76095">
        <ele>135.1</ele>
        <time>2024-04-07T16:48:47.622Z</time>
      </trkpt>
      <trkpt lat="43.6489" lon="3.76098">
        <ele>135.1</ele>
        <time>2024-04-07T16:48:49.622Z</time>
      </trkpt>
      <trkpt lat="43.6489" lon="3.761">
        <ele>135.1</ele>
        <time>2024-04-07T16:48:50.622Z</time>
      </trkpt>
      <trkpt lat="43.64887" lon="3.76103">
        <ele>135.2</ele>
        <time>2024-04-07T16:48:51.622Z</time>
      </trkpt>
      <trkpt lat="43.64887" lon="3.76103">
        <ele>135.2</ele>
        <time>2024-04-07T16:48:52.622Z</time>
      </trkpt>
      <trkpt lat="43.64884" lon="3.76106">
        <ele>135.6</ele>
        <time>2024-04-07T16:48:53.622Z</time>
      </trkpt>
      <trkpt lat="43.64884" lon="3.76106">
        <ele>135.6</ele>
        <time>2024-04-07T16:48:54.622Z</time>
      </trkpt>
      <trkpt lat="43.64883" lon="3.76108">
        <ele>135.7</ele>
        <time>2024-04-07T16:48:55.622Z</time>
      </trkpt>
      <trkpt lat="43.64881" lon="3.76108">
        <ele>135.9</ele>
        <time>2024-04-07T16:48:56.622Z</time>
      </trkpt>
      <trkpt lat="43.64878" lon="3.76109">
        <ele>136.2</ele>
        <time>2024-04-07T16:48:57.622Z</time>
      </trkpt>
      <trkpt lat="43.64877" lon="3.76108">
        <ele>136.3</ele>
        <time>2024-04-07T16:48:58.622Z</time>
      </trkpt>
      <trkpt lat="43.64876" lon="3.76108">
        <ele>136.4</ele>
        <time>2024-04-07T16:48:59.622Z</time>
      </trkpt>
      <trkpt lat="43.64874" lon="3.76108">
        <ele>136.7</ele>
        <time>2024-04-07T16:49:00.622Z</time>
      </trkpt>
      <trkpt lat="43.64872" lon="3.76108">
        <ele>136.9</ele>
        <time>2024-04-07T16:49:01.622Z</time>
      </trkpt>
      <trkpt lat="43.64871" lon="3.76108">
        <ele>137</ele>
        <time>2024-04-07T16:49:02.622Z</time>
      </trkpt>
      <trkpt lat="43.64868" lon="3.76105">
        <ele>137.4</ele>
        <time>2024-04-07T16:49:03.622Z</time>
      </trkpt>
      <trkpt lat="43.64868" lon="3.76104">
        <ele>137.4</ele>
        <time>2024-04-07T16:49:04.622Z</time>
      </trkpt>
      <trkpt lat="43.64866" lon="3.76103">
        <ele>137.7</ele>
        <time>2024-04-07T16:49:05.622Z</time>
      </trkpt>
      <trkpt lat="43.64865" lon="3.76102">
        <ele>137.9</ele>
        <time>2024-04-07T16:49:06.622Z</time>
      </trkpt>
      <trkpt lat="43.64862" lon="3.76102">
        <ele>138.2</ele>
        <time>2024-04-07T16:49:07.622Z</time>
      </trkpt>
      <trkpt lat="43.64861" lon="3.76102">
        <ele>138.3</ele>
        <time>2024-04-07T16:49:08.622Z</time>
      </trkpt>
      <trkpt lat="43.64859" lon="3.76101">
        <ele>138.5</ele>
        <time>2024-04-07T16:49:09.622Z</time>
      </trkpt>
      <trkpt lat="43.64858" lon="3.76101">
        <ele>138.6</ele>
        <time>2024-04-07T16:49:10.622Z</time>
      </trkpt>
      <trkpt lat="43.64857" lon="3.76101">
        <ele>138.7</ele>
        <time>2024-04-07T16:49:11.622Z</time>
      </trkpt>
      <trkpt lat="43.64856" lon="3.76101">
        <ele>138.8</ele>
        <time>2024-04-07T16:49:12.622Z</time>
      </trkpt>
      <trkpt lat="43.64856" lon="3.76101">
        <ele>138.8</ele>
        <time>2024-04-07T16:49:13.622Z</time>
      </trkpt>
      <trkpt lat="43.64856" lon="3.761">
        <ele>138.8</ele>
        <time>2024-04-07T16:49:14.622Z</time>
      </trkpt>
      <trkpt lat="43.64856" lon="3.76099">
        <ele>138.8</ele>
        <time>2024-04-07T16:49:15.622Z</time>
      </trkpt>
      <trkpt lat="43.64857" lon="3.76098">
        <ele>138.8</ele>
        <time>2024-04-07T16:49:16.622Z</time>
      </trkpt>
      <trkpt lat="43.64858" lon="3.76096">
        <ele>138.8</ele>
        <time>2024-04-07T16:49:17.622Z</time>
      </trkpt>
      <trkpt lat="43.64859" lon="3.76095">
        <ele>138.7</ele>
        <time>2024-04-07T16:49:18.622Z</time>
      </trkpt>
      <trkpt lat="43.64859" lon="3.76093">
        <ele>138.8</ele>
        <time>2024-04-07T16:49:19.622Z</time>
      </trkpt>
      <trkpt lat="43.64859" lon="3.76091">
        <ele>138.8</ele>
        <time>2024-04-07T16:49:20.622Z</time>
      </trkpt>
      <trkpt lat="43.64859" lon="3.76088">
        <ele>138.9</ele>
        <time>2024-04-07T16:49:21.622Z</time>
      </trkpt>
      <trkpt lat="43.64859" lon="3.76084">
        <ele>139.1</ele>
        <time>2024-04-07T16:49:22.622Z</time>
      </trkpt>
      <trkpt lat="43.64859" lon="3.76083">
        <ele>139.1</ele>
        <time>2024-04-07T16:49:23.622Z</time>
      </trkpt>
      <trkpt lat="43.64858" lon="3.7608">
        <ele>139.2</ele>
        <time>2024-04-07T16:49:24.622Z</time>
      </trkpt>
      <trkpt lat="43.64858" lon="3.76078">
        <ele>139.3</ele>
        <time>2024-04-07T16:49:25.622Z</time>
      </trkpt>
      <trkpt lat="43.64857" lon="3.76077">
        <ele>139.4</ele>
        <time>2024-04-07T16:49:26.622Z</time>
      </trkpt>
      <trkpt lat="43.64856" lon="3.76076">
        <ele>139.4</ele>
        <time>2024-04-07T16:49:27.622Z</time>
      </trkpt>
      <trkpt lat="43.64856" lon="3.76076">
        <ele>139.4</ele>
        <time>2024-04-07T16:49:28.622Z</time>
      </trkpt>
      <trkpt lat="43.64855" lon="3.76074">
        <ele>139.6</ele>
        <time>2024-04-07T16:49:29.622Z</time>
      </trkpt>
      <trkpt lat="43.64855" lon="3.76073">
        <ele>139.6</ele>
        <time>2024-04-07T16:49:30.622Z</time>
      </trkpt>
      <trkpt lat="43.64854" lon="3.76072">
        <ele>139.7</ele>
        <time>2024-04-07T16:49:31.622Z</time>
      </trkpt>
      <trkpt lat="43.64854" lon="3.76071">
        <ele>139.7</ele>
        <time>2024-04-07T16:49:32.622Z</time>
      </trkpt>
      <trkpt lat="43.64854" lon="3.76069">
        <ele>139.8</ele>
        <time>2024-04-07T16:49:33.622Z</time>
      </trkpt>
      <trkpt lat="43.64853" lon="3.76067">
        <ele>139.9</ele>
        <time>2024-04-07T16:49:34.622Z</time>
      </trkpt>
      <trkpt lat="43.64852" lon="3.76064">
        <ele>140</ele>
        <time>2024-04-07T16:49:35.622Z</time>
      </trkpt>
      <trkpt lat="43.64852" lon="3.76063">
        <ele>140.1</ele>
        <time>2024-04-07T16:49:36.622Z</time>
      </trkpt>
      <trkpt lat="43.64852" lon="3.76062">
        <ele>140.1</ele>
        <time>2024-04-07T16:49:37.622Z</time>
      </trkpt>
      <trkpt lat="43.64851" lon="3.7606">
        <ele>140.2</ele>
        <time>2024-04-07T16:49:38.622Z</time>
      </trkpt>
      <trkpt lat="43.64851" lon="3.76059">
        <ele>140.2</ele>
        <time>2024-04-07T16:49:39.622Z</time>
      </trkpt>
      <trkpt lat="43.6485" lon="3.76058">
        <ele>140.3</ele>
        <time>2024-04-07T16:49:40.622Z</time>
      </trkpt>
      <trkpt lat="43.64849" lon="3.76056">
        <ele>140.4</ele>
        <time>2024-04-07T16:49:41.622Z</time>
      </trkpt>
      <trkpt lat="43.64847" lon="3.76055">
        <ele>140.5</ele>
        <time>2024-04-07T16:49:42.622Z</time>
      </trkpt>
      <trkpt lat="43.64847" lon="3.76055">
        <ele>140.5</ele>
        <time>2024-04-07T16:49:43.622Z</time>
      </trkpt>
      <trkpt lat="43.64845" lon="3.76052">
        <ele>140.6</ele>
        <time>2024-04-07T16:49:44.622Z</time>
      </trkpt>
      <trkpt lat="43.64844" lon="3.7605">
        <ele>140.7</ele>
        <time>2024-04-07T16:49:45.622Z</time>
      </trkpt>
      <trkpt lat="43.64843" lon="3.76049">
        <ele>140.7</ele>
        <time>2024-04-07T16:49:46.622Z</time>
      </trkpt>
      <trkpt lat="43.64843" lon="3.76048">
        <ele>140.7</ele>
        <time>2024-04-07T16:49:47.622Z</time>
      </trkpt>
      <trkpt lat="43.64841" lon="3.76046">
        <ele>140.8</ele>
        <time>2024-04-07T16:49:48.622Z</time>
      </trkpt>
      <trkpt lat="43.6484" lon="3.76046">
        <ele>140.8</ele>
        <time>2024-04-07T16:49:49.622Z</time>
      </trkpt>
      <trkpt lat="43.64839" lon="3.76045">
        <ele>140.9</ele>
        <time>2024-04-07T16:49:50.622Z</time>
      </trkpt>
      <trkpt lat="43.64837" lon="3.76043">
        <ele>140.9</ele>
        <time>2024-04-07T16:49:51.622Z</time>
      </trkpt>
      <trkpt lat="43.64836" lon="3.76042">
        <ele>141</ele>
        <time>2024-04-07T16:49:52.622Z</time>
      </trkpt>
      <trkpt lat="43.64835" lon="3.7604">
        <ele>141</ele>
        <time>2024-04-07T16:49:53.622Z</time>
      </trkpt>
      <trkpt lat="43.64835" lon="3.76038">
        <ele>141</ele>
        <time>2024-04-07T16:49:54.622Z</time>
      </trkpt>
      <trkpt lat="43.64834" lon="3.76037">
        <ele>141</ele>
        <time>2024-04-07T16:49:55.622Z</time>
      </trkpt>
      <trkpt lat="43.64833" lon="3.76035">
        <ele>141</ele>
        <time>2024-04-07T16:49:56.622Z</time>
      </trkpt>
      <trkpt lat="43.64832" lon="3.76033">
        <ele>141.1</ele>
        <time>2024-04-07T16:49:57.622Z</time>
      </trkpt>
      <trkpt lat="43.64831" lon="3.76031">
        <ele>141.1</ele>
        <time>2024-04-07T16:49:58.622Z</time>
      </trkpt>
      <trkpt lat="43.6483" lon="3.76028">
        <ele>141.1</ele>
        <time>2024-04-07T16:49:59.622Z</time>
      </trkpt>
      <trkpt lat="43.64829" lon="3.76027">
        <ele>141.2</ele>
        <time>2024-04-07T16:50:00.622Z</time>
      </trkpt>
      <trkpt lat="43.64828" lon="3.76023">
        <ele>141.2</ele>
        <time>2024-04-07T16:50:01.622Z</time>
      </trkpt>
      <trkpt lat="43.64827" lon="3.76021">
        <ele>141.2</ele>
        <time>2024-04-07T16:50:02.622Z</time>
      </trkpt>
      <trkpt lat="43.64826" lon="3.76019">
        <ele>141.2</ele>
        <time>2024-04-07T16:50:03.622Z</time>
      </trkpt>
      <trkpt lat="43.64825" lon="3.76018">
        <ele>141.2</ele>
        <time>2024-04-07T16:50:04.622Z</time>
      </trkpt>
      <trkpt lat="43.64824" lon="3.76017">
        <ele>141.2</ele>
        <time>2024-04-07T16:50:05.622Z</time>
      </trkpt>
      <trkpt lat="43.64823" lon="3.76014">
        <ele>141.2</ele>
        <time>2024-04-07T16:50:06.622Z</time>
      </trkpt>
      <trkpt lat="43.64822" lon="3.7601">
        <ele>141.1</ele>
        <time>2024-04-07T16:50:07.622Z</time>
      </trkpt>
      <trkpt lat="43.6482" lon="3.76006">
        <ele>141.1</ele>
        <time>2024-04-07T16:50:08.622Z</time>
      </trkpt>
      <trkpt lat="43.64818" lon="3.76002">
        <ele>141</ele>
        <time>2024-04-07T16:50:09.622Z</time>
      </trkpt>
      <trkpt lat="43.64817" lon="3.75999">
        <ele>140.9</ele>
        <time>2024-04-07T16:50:10.622Z</time>
      </trkpt>
      <trkpt lat="43.64814" lon="3.75995">
        <ele>140.8</ele>
        <time>2024-04-07T16:50:11.622Z</time>
      </trkpt>
      <trkpt lat="43.64814" lon="3.75994">
        <ele>140.7</ele>
        <time>2024-04-07T16:50:12.622Z</time>
      </trkpt>
      <trkpt lat="43.64814" lon="3.75989">
        <ele>140.5</ele>
        <time>2024-04-07T16:50:13.622Z</time>
      </trkpt>
      <trkpt lat="43.64814" lon="3.75987">
        <ele>140.4</ele>
        <time>2024-04-07T16:50:14.622Z</time>
      </trkpt>
      <trkpt lat="43.64813" lon="3.75985">
        <ele>140.3</ele>
        <time>2024-04-07T16:50:15.622Z</time>
      </trkpt>
      <trkpt lat="43.64812" lon="3.75984">
        <ele>140.3</ele>
        <time>2024-04-07T16:50:16.622Z</time>
      </trkpt>
      <trkpt lat="43.64811" lon="3.75981">
        <ele>140.2</ele>
        <time>2024-04-07T16:50:17.622Z</time>
      </trkpt>
      <trkpt lat="43.6481" lon="3.75981">
        <ele>140.2</ele>
        <time>2024-04-07T16:50:18.622Z</time>
      </trkpt>
      <trkpt lat="43.64806" lon="3.75978">
        <ele>140.2</ele>
        <time>2024-04-07T16:50:20.622Z</time>
      </trkpt>
      <trkpt lat="43.64804" lon="3.75976">
        <ele>140.2</ele>
        <time>2024-04-07T16:50:21.622Z</time>
      </trkpt>
      <trkpt lat="43.64803" lon="3.75975">
        <ele>140.3</ele>
        <time>2024-04-07T16:50:22.622Z</time>
      </trkpt>
      <trkpt lat="43.648" lon="3.75973">
        <ele>140.4</ele>
        <time>2024-04-07T16:50:23.622Z</time>
      </trkpt>
      <trkpt lat="43.64798" lon="3.75969">
        <ele>140.7</ele>
        <time>2024-04-07T16:50:24.622Z</time>
      </trkpt>
      <trkpt lat="43.64798" lon="3.75968">
        <ele>140.8</ele>
        <time>2024-04-07T16:50:25.622Z</time>
      </trkpt>
      <trkpt lat="43.64797" lon="3.75967">
        <ele>140.9</ele>
        <time>2024-04-07T16:50:26.622Z</time>
      </trkpt>
      <trkpt lat="43.64795" lon="3.75966">
        <ele>141</ele>
        <time>2024-04-07T16:50:27.622Z</time>
      </trkpt>
      <trkpt lat="43.64793" lon="3.75963">
        <ele>141.3</ele>
        <time>2024-04-07T16:50:28.622Z</time>
      </trkpt>
      <trkpt lat="43.64793" lon="3.75962">
        <ele>141.3</ele>
        <time>2024-04-07T16:50:29.622Z</time>
      </trkpt>
      <trkpt lat="43.6479" lon="3.75957">
        <ele>141.6</ele>
        <time>2024-04-07T16:50:31.622Z</time>
      </trkpt>
      <trkpt lat="43.64788" lon="3.75955">
        <ele>141.7</ele>
        <time>2024-04-07T16:50:32.622Z</time>
      </trkpt>
      <trkpt lat="43.64785" lon="3.7595">
        <ele>141.9</ele>
        <time>2024-04-07T16:50:34.622Z</time>
      </trkpt>
      <trkpt lat="43.64784" lon="3.75945">
        <ele>142</ele>
        <time>2024-04-07T16:50:36.622Z</time>
      </trkpt>
      <trkpt lat="43.64783" lon="3.75942">
        <ele>142.1</ele>
        <time>2024-04-07T16:50:37.622Z</time>
      </trkpt>
      <trkpt lat="43.64782" lon="3.75941">
        <ele>142.2</ele>
        <time>2024-04-07T16:50:38.622Z</time>
      </trkpt>
      <trkpt lat="43.64781" lon="3.7594">
        <ele>142.2</ele>
        <time>2024-04-07T16:50:39.622Z</time>
      </trkpt>
      <trkpt lat="43.6478" lon="3.75939">
        <ele>142.2</ele>
        <time>2024-04-07T16:50:40.622Z</time>
      </trkpt>
      <trkpt lat="43.64779" lon="3.75938">
        <ele>142.3</ele>
        <time>2024-04-07T16:50:41.622Z</time>
      </trkpt>
      <trkpt lat="43.64778" lon="3.75936">
        <ele>142.3</ele>
        <time>2024-04-07T16:50:42.622Z</time>
      </trkpt>
      <trkpt lat="43.64778" lon="3.75933">
        <ele>142.4</ele>
        <time>2024-04-07T16:50:43.622Z</time>
      </trkpt>
      <trkpt lat="43.64778" lon="3.75932">
        <ele>142.5</ele>
        <time>2024-04-07T16:50:44.622Z</time>
      </trkpt>
      <trkpt lat="43.64778" lon="3.75931">
        <ele>142.5</ele>
        <time>2024-04-07T16:50:45.622Z</time>
      </trkpt>
      <trkpt lat="43.64777" lon="3.75929">
        <ele>142.6</ele>
        <time>2024-04-07T16:50:46.622Z</time>
      </trkpt>
      <trkpt lat="43.64776" lon="3.75928">
        <ele>142.7</ele>
        <time>2024-04-07T16:50:47.622Z</time>
      </trkpt>
      <trkpt lat="43.64774" lon="3.75923">
        <ele>143</ele>
        <time>2024-04-07T16:50:48.622Z</time>
      </trkpt>
      <trkpt lat="43.64774" lon="3.75922">
        <ele>143.1</ele>
        <time>2024-04-07T16:50:49.622Z</time>
      </trkpt>
      <trkpt lat="43.64772" lon="3.75918">
        <ele>143.4</ele>
        <time>2024-04-07T16:50:50.622Z</time>
      </trkpt>
      <trkpt lat="43.64772" lon="3.75917">
        <ele>143.4</ele>
        <time>2024-04-07T16:50:51.622Z</time>
      </trkpt>
      <trkpt lat="43.64771" lon="3.75915">
        <ele>143.6</ele>
        <time>2024-04-07T16:50:52.622Z</time>
      </trkpt>
      <trkpt lat="43.6477" lon="3.75913">
        <ele>143.8</ele>
        <time>2024-04-07T16:50:53.622Z</time>
      </trkpt>
      <trkpt lat="43.64771" lon="3.75906">
        <ele>144.4</ele>
        <time>2024-04-07T16:50:55.622Z</time>
      </trkpt>
      <trkpt lat="43.64771" lon="3.75904">
        <ele>144.5</ele>
        <time>2024-04-07T16:50:56.622Z</time>
      </trkpt>
      <trkpt lat="43.64772" lon="3.75902">
        <ele>144.7</ele>
        <time>2024-04-07T16:50:57.622Z</time>
      </trkpt>
      <trkpt lat="43.64773" lon="3.75898">
        <ele>145</ele>
        <time>2024-04-07T16:50:58.622Z</time>
      </trkpt>
      <trkpt lat="43.64774" lon="3.75896">
        <ele>145.2</ele>
        <time>2024-04-07T16:50:59.622Z</time>
      </trkpt>
      <trkpt lat="43.64774" lon="3.75895">
        <ele>145.3</ele>
        <time>2024-04-07T16:51:00.622Z</time>
      </trkpt>
      <trkpt lat="43.64774" lon="3.75893">
        <ele>145.5</ele>
        <time>2024-04-07T16:51:01.622Z</time>
      </trkpt>
      <trkpt lat="43.64774" lon="3.75891">
        <ele>145.7</ele>
        <time>2024-04-07T16:51:02.622Z</time>
      </trkpt>
      <trkpt lat="43.64771" lon="3.75889">
        <ele>145.7</ele>
        <time>2024-04-07T16:51:03.622Z</time>
      </trkpt>
      <trkpt lat="43.64769" lon="3.75888">
        <ele>145.8</ele>
        <time>2024-04-07T16:51:04.622Z</time>
      </trkpt>
      <trkpt lat="43.64767" lon="3.75886">
        <ele>145.8</ele>
        <time>2024-04-07T16:51:05.622Z</time>
      </trkpt>
      <trkpt lat="43.64764" lon="3.75885">
        <ele>145.8</ele>
        <time>2024-04-07T16:51:06.622Z</time>
      </trkpt>
      <trkpt lat="43.64763" lon="3.75885">
        <ele>145.7</ele>
        <time>2024-04-07T16:51:07.622Z</time>
      </trkpt>
      <trkpt lat="43.64762" lon="3.75885">
        <ele>145.7</ele>
        <time>2024-04-07T16:51:08.622Z</time>
      </trkpt>
      <trkpt lat="43.6476" lon="3.75884">
        <ele>145.7</ele>
        <time>2024-04-07T16:51:10.622Z</time>
      </trkpt>
      <trkpt lat="43.64759" lon="3.75883">
        <ele>145.7</ele>
        <time>2024-04-07T16:51:11.622Z</time>
      </trkpt>
      <trkpt lat="43.64757" lon="3.75881">
        <ele>145.7</ele>
        <time>2024-04-07T16:51:12.622Z</time>
      </trkpt>
      <trkpt lat="43.64755" lon="3.75878">
        <ele>145.7</ele>
        <time>2024-04-07T16:51:13.622Z</time>
      </trkpt>
      <trkpt lat="43.64754" lon="3.75877">
        <ele>145.7</ele>
        <time>2024-04-07T16:51:14.622Z</time>
      </trkpt>
      <trkpt lat="43.64751" lon="3.75873">
        <ele>145.6</ele>
        <time>2024-04-07T16:51:16.622Z</time>
      </trkpt>
      <trkpt lat="43.6475" lon="3.7587">
        <ele>145.7</ele>
        <time>2024-04-07T16:51:17.622Z</time>
      </trkpt>
      <trkpt lat="43.6475" lon="3.75868">
        <ele>145.8</ele>
        <time>2024-04-07T16:51:18.622Z</time>
      </trkpt>
      <trkpt lat="43.64749" lon="3.75865">
        <ele>145.9</ele>
        <time>2024-04-07T16:51:19.622Z</time>
      </trkpt>
      <trkpt lat="43.64749" lon="3.75863">
        <ele>146</ele>
        <time>2024-04-07T16:51:20.622Z</time>
      </trkpt>
      <trkpt lat="43.64747" lon="3.75859">
        <ele>146.3</ele>
        <time>2024-04-07T16:51:21.622Z</time>
      </trkpt>
      <trkpt lat="43.64746" lon="3.75858">
        <ele>146.4</ele>
        <time>2024-04-07T16:51:22.622Z</time>
      </trkpt>
      <trkpt lat="43.64745" lon="3.75857">
        <ele>146.6</ele>
        <time>2024-04-07T16:51:23.622Z</time>
      </trkpt>
      <trkpt lat="43.64743" lon="3.75856">
        <ele>146.7</ele>
        <time>2024-04-07T16:51:24.622Z</time>
      </trkpt>
      <trkpt lat="43.64742" lon="3.75855">
        <ele>146.8</ele>
        <time>2024-04-07T16:51:25.622Z</time>
      </trkpt>
      <trkpt lat="43.6474" lon="3.7585">
        <ele>147.3</ele>
        <time>2024-04-07T16:51:27.622Z</time>
      </trkpt>
      <trkpt lat="43.6474" lon="3.75846">
        <ele>147.6</ele>
        <time>2024-04-07T16:51:28.622Z</time>
      </trkpt>
      <trkpt lat="43.64738" lon="3.75843">
        <ele>147.8</ele>
        <time>2024-04-07T16:51:29.622Z</time>
      </trkpt>
      <trkpt lat="43.64737" lon="3.75841">
        <ele>148</ele>
        <time>2024-04-07T16:51:30.622Z</time>
      </trkpt>
      <trkpt lat="43.64735" lon="3.75839">
        <ele>148.1</ele>
        <time>2024-04-07T16:51:31.622Z</time>
      </trkpt>
      <trkpt lat="43.64734" lon="3.75838">
        <ele>148.1</ele>
        <time>2024-04-07T16:51:32.622Z</time>
      </trkpt>
      <trkpt lat="43.64733" lon="3.75835">
        <ele>148.3</ele>
        <time>2024-04-07T16:51:33.622Z</time>
      </trkpt>
      <trkpt lat="43.64732" lon="3.75834">
        <ele>148.3</ele>
        <time>2024-04-07T16:51:34.622Z</time>
      </trkpt>
      <trkpt lat="43.6473" lon="3.75831">
        <ele>148.4</ele>
        <time>2024-04-07T16:51:35.622Z</time>
      </trkpt>
      <trkpt lat="43.64729" lon="3.7583">
        <ele>148.4</ele>
        <time>2024-04-07T16:51:36.622Z</time>
      </trkpt>
      <trkpt lat="43.64728" lon="3.75827">
        <ele>148.5</ele>
        <time>2024-04-07T16:51:37.622Z</time>
      </trkpt>
      <trkpt lat="43.64727" lon="3.75826">
        <ele>148.5</ele>
        <time>2024-04-07T16:51:38.622Z</time>
      </trkpt>
      <trkpt lat="43.64726" lon="3.75824">
        <ele>148.5</ele>
        <time>2024-04-07T16:51:39.622Z</time>
      </trkpt>
      <trkpt lat="43.64723" lon="3.75819">
        <ele>148.6</ele>
        <time>2024-04-07T16:51:41.622Z</time>
      </trkpt>
      <trkpt lat="43.64722" lon="3.75817">
        <ele>148.6</ele>
        <time>2024-04-07T16:51:42.622Z</time>
      </trkpt>
      <trkpt lat="43.6472" lon="3.75812">
        <ele>148.8</ele>
        <time>2024-04-07T16:51:43.622Z</time>
      </trkpt>
      <trkpt lat="43.64719" lon="3.75811">
        <ele>148.8</ele>
        <time>2024-04-07T16:51:44.622Z</time>
      </trkpt>
      <trkpt lat="43.64717" lon="3.75808">
        <ele>148.9</ele>
        <time>2024-04-07T16:51:45.622Z</time>
      </trkpt>
      <trkpt lat="43.64717" lon="3.75807">
        <ele>148.9</ele>
        <time>2024-04-07T16:51:46.622Z</time>
      </trkpt>
      <trkpt lat="43.64715" lon="3.75803">
        <ele>149.2</ele>
        <time>2024-04-07T16:51:47.622Z</time>
      </trkpt>
      <trkpt lat="43.64715" lon="3.75802">
        <ele>149.2</ele>
        <time>2024-04-07T16:51:48.622Z</time>
      </trkpt>
      <trkpt lat="43.64713" lon="3.75797">
        <ele>149.5</ele>
        <time>2024-04-07T16:51:49.622Z</time>
      </trkpt>
      <trkpt lat="43.64713" lon="3.75796">
        <ele>149.6</ele>
        <time>2024-04-07T16:51:50.622Z</time>
      </trkpt>
      <trkpt lat="43.64711" lon="3.75791">
        <ele>149.8</ele>
        <time>2024-04-07T16:51:51.622Z</time>
      </trkpt>
      <trkpt lat="43.6471" lon="3.7579">
        <ele>149.9</ele>
        <time>2024-04-07T16:51:52.622Z</time>
      </trkpt>
      <trkpt lat="43.64708" lon="3.75785">
        <ele>150.1</ele>
        <time>2024-04-07T16:51:53.622Z</time>
      </trkpt>
      <trkpt lat="43.64708" lon="3.75784">
        <ele>150.2</ele>
        <time>2024-04-07T16:51:54.622Z</time>
      </trkpt>
      <trkpt lat="43.64706" lon="3.75779">
        <ele>150.4</ele>
        <time>2024-04-07T16:51:55.622Z</time>
      </trkpt>
      <trkpt lat="43.64706" lon="3.75778">
        <ele>150.4</ele>
        <time>2024-04-07T16:51:56.622Z</time>
      </trkpt>
      <trkpt lat="43.64704" lon="3.75774">
        <ele>150.6</ele>
        <time>2024-04-07T16:51:57.622Z</time>
      </trkpt>
      <trkpt lat="43.64703" lon="3.75773">
        <ele>150.6</ele>
        <time>2024-04-07T16:51:58.622Z</time>
      </trkpt>
      <trkpt lat="43.647" lon="3.7577">
        <ele>150.6</ele>
        <time>2024-04-07T16:51:59.622Z</time>
      </trkpt>
      <trkpt lat="43.64699" lon="3.75769">
        <ele>150.6</ele>
        <time>2024-04-07T16:52:00.622Z</time>
      </trkpt>
      <trkpt lat="43.64697" lon="3.75765">
        <ele>150.6</ele>
        <time>2024-04-07T16:52:01.622Z</time>
      </trkpt>
      <trkpt lat="43.64696" lon="3.75764">
        <ele>150.6</ele>
        <time>2024-04-07T16:52:02.622Z</time>
      </trkpt>
      <trkpt lat="43.64694" lon="3.7576">
        <ele>150.6</ele>
        <time>2024-04-07T16:52:03.622Z</time>
      </trkpt>
      <trkpt lat="43.64693" lon="3.75758">
        <ele>150.7</ele>
        <time>2024-04-07T16:52:04.622Z</time>
      </trkpt>
      <trkpt lat="43.64692" lon="3.75754">
        <ele>150.8</ele>
        <time>2024-04-07T16:52:05.622Z</time>
      </trkpt>
      <trkpt lat="43.64691" lon="3.7575">
        <ele>150.9</ele>
        <time>2024-04-07T16:52:06.622Z</time>
      </trkpt>
      <trkpt lat="43.6469" lon="3.75747">
        <ele>151</ele>
        <time>2024-04-07T16:52:07.622Z</time>
      </trkpt>
      <trkpt lat="43.64688" lon="3.75743">
        <ele>151.2</ele>
        <time>2024-04-07T16:52:08.622Z</time>
      </trkpt>
      <trkpt lat="43.64687" lon="3.75741">
        <ele>151.2</ele>
        <time>2024-04-07T16:52:09.622Z</time>
      </trkpt>
      <trkpt lat="43.64686" lon="3.75737">
        <ele>151.3</ele>
        <time>2024-04-07T16:52:10.622Z</time>
      </trkpt>
      <trkpt lat="43.64685" lon="3.75736">
        <ele>151.3</ele>
        <time>2024-04-07T16:52:11.622Z</time>
      </trkpt>
      <trkpt lat="43.64683" lon="3.75731">
        <ele>151.4</ele>
        <time>2024-04-07T16:52:12.622Z</time>
      </trkpt>
      <trkpt lat="43.64683" lon="3.7573">
        <ele>151.4</ele>
        <time>2024-04-07T16:52:13.622Z</time>
      </trkpt>
      <trkpt lat="43.64681" lon="3.75726">
        <ele>151.4</ele>
        <time>2024-04-07T16:52:14.622Z</time>
      </trkpt>
      <trkpt lat="43.64678" lon="3.7572">
        <ele>151.3</ele>
        <time>2024-04-07T16:52:16.622Z</time>
      </trkpt>
      <trkpt lat="43.64676" lon="3.75719">
        <ele>151</ele>
        <time>2024-04-07T16:52:17.622Z</time>
      </trkpt>
      <trkpt lat="43.64672" lon="3.75716">
        <ele>150.6</ele>
        <time>2024-04-07T16:52:18.622Z</time>
      </trkpt>
      <trkpt lat="43.64672" lon="3.75715">
        <ele>150.6</ele>
        <time>2024-04-07T16:52:19.622Z</time>
      </trkpt>
      <trkpt lat="43.64668" lon="3.75711">
        <ele>150.2</ele>
        <time>2024-04-07T16:52:20.622Z</time>
      </trkpt>
      <trkpt lat="43.64667" lon="3.7571">
        <ele>150</ele>
        <time>2024-04-07T16:52:21.622Z</time>
      </trkpt>
      <trkpt lat="43.64666" lon="3.75708">
        <ele>150</ele>
        <time>2024-04-07T16:52:22.622Z</time>
      </trkpt>
      <trkpt lat="43.64663" lon="3.75702">
        <ele>149.9</ele>
        <time>2024-04-07T16:52:24.622Z</time>
      </trkpt>
      <trkpt lat="43.64661" lon="3.75697">
        <ele>149.8</ele>
        <time>2024-04-07T16:52:25.622Z</time>
      </trkpt>
      <trkpt lat="43.64661" lon="3.75695">
        <ele>149.8</ele>
        <time>2024-04-07T16:52:26.622Z</time>
      </trkpt>
      <trkpt lat="43.6466" lon="3.75692">
        <ele>149.9</ele>
        <time>2024-04-07T16:52:27.622Z</time>
      </trkpt>
      <trkpt lat="43.64658" lon="3.75688">
        <ele>150</ele>
        <time>2024-04-07T16:52:28.622Z</time>
      </trkpt>
      <trkpt lat="43.64656" lon="3.7568">
        <ele>150.3</ele>
        <time>2024-04-07T16:52:30.622Z</time>
      </trkpt>
      <trkpt lat="43.64655" lon="3.75676">
        <ele>150.4</ele>
        <time>2024-04-07T16:52:31.622Z</time>
      </trkpt>
      <trkpt lat="43.64654" lon="3.75671">
        <ele>150.5</ele>
        <time>2024-04-07T16:52:32.622Z</time>
      </trkpt>
      <trkpt lat="43.64654" lon="3.75669">
        <ele>150.5</ele>
        <time>2024-04-07T16:52:33.622Z</time>
      </trkpt>
      <trkpt lat="43.64653" lon="3.75665">
        <ele>150.5</ele>
        <time>2024-04-07T16:52:34.622Z</time>
      </trkpt>
      <trkpt lat="43.64652" lon="3.75661">
        <ele>150.3</ele>
        <time>2024-04-07T16:52:35.622Z</time>
      </trkpt>
      <trkpt lat="43.6465" lon="3.75657">
        <ele>150.1</ele>
        <time>2024-04-07T16:52:36.622Z</time>
      </trkpt>
      <trkpt lat="43.64647" lon="3.75651">
        <ele>149.7</ele>
        <time>2024-04-07T16:52:38.622Z</time>
      </trkpt>
      <trkpt lat="43.64645" lon="3.7565">
        <ele>149.5</ele>
        <time>2024-04-07T16:52:39.622Z</time>
      </trkpt>
      <trkpt lat="43.64642" lon="3.75651">
        <ele>149.3</ele>
        <time>2024-04-07T16:52:40.622Z</time>
      </trkpt>
      <trkpt lat="43.64639" lon="3.75652">
        <ele>149</ele>
        <time>2024-04-07T16:52:41.622Z</time>
      </trkpt>
      <trkpt lat="43.64635" lon="3.75655">
        <ele>148.9</ele>
        <time>2024-04-07T16:52:42.622Z</time>
      </trkpt>
      <trkpt lat="43.64634" lon="3.75655">
        <ele>148.8</ele>
        <time>2024-04-07T16:52:43.622Z</time>
      </trkpt>
      <trkpt lat="43.64634" lon="3.75656">
        <ele>148.8</ele>
        <time>2024-04-07T16:52:44.622Z</time>
      </trkpt>
      <trkpt lat="43.64634" lon="3.75656">
        <ele>148.8</ele>
        <time>2024-04-07T16:52:45.622Z</time>
      </trkpt>
      <trkpt lat="43.64634" lon="3.75657">
        <ele>148.8</ele>
        <time>2024-04-07T16:52:47.622Z</time>
      </trkpt>
      <trkpt lat="43.64634" lon="3.75657">
        <ele>148.8</ele>
        <time>2024-04-07T16:52:48.622Z</time>
      </trkpt>
      <trkpt lat="43.64633" lon="3.75659">
        <ele>148.8</ele>
        <time>2024-04-07T16:52:49.622Z</time>
      </trkpt>
      <trkpt lat="43.64633" lon="3.7566">
        <ele>148.8</ele>
        <time>2024-04-07T16:52:50.622Z</time>
      </trkpt>
      <trkpt lat="43.64632" lon="3.75662">
        <ele>148.8</ele>
        <time>2024-04-07T16:52:51.622Z</time>
      </trkpt>
      <trkpt lat="43.64629" lon="3.75667">
        <ele>148.6</ele>
        <time>2024-04-07T16:52:53.622Z</time>
      </trkpt>
      <trkpt lat="43.64628" lon="3.75669">
        <ele>148.6</ele>
        <time>2024-04-07T16:52:54.622Z</time>
      </trkpt>
      <trkpt lat="43.64627" lon="3.75671">
        <ele>148.5</ele>
        <time>2024-04-07T16:52:55.622Z</time>
      </trkpt>
      <trkpt lat="43.64624" lon="3.75675">
        <ele>148.3</ele>
        <time>2024-04-07T16:52:56.622Z</time>
      </trkpt>
      <trkpt lat="43.64622" lon="3.75677">
        <ele>148.2</ele>
        <time>2024-04-07T16:52:57.622Z</time>
      </trkpt>
      <trkpt lat="43.64619" lon="3.7568">
        <ele>147.9</ele>
        <time>2024-04-07T16:52:58.622Z</time>
      </trkpt>
      <trkpt lat="43.64617" lon="3.75683">
        <ele>147.7</ele>
        <time>2024-04-07T16:52:59.622Z</time>
      </trkpt>
      <trkpt lat="43.64614" lon="3.75685">
        <ele>147.5</ele>
        <time>2024-04-07T16:53:00.622Z</time>
      </trkpt>
      <trkpt lat="43.64612" lon="3.7569">
        <ele>147.2</ele>
        <time>2024-04-07T16:53:01.622Z</time>
      </trkpt>
      <trkpt lat="43.64611" lon="3.75691">
        <ele>147.1</ele>
        <time>2024-04-07T16:53:02.622Z</time>
      </trkpt>
      <trkpt lat="43.64609" lon="3.75694">
        <ele>146.9</ele>
        <time>2024-04-07T16:53:03.622Z</time>
      </trkpt>
      <trkpt lat="43.64605" lon="3.75697">
        <ele>146.6</ele>
        <time>2024-04-07T16:53:04.622Z</time>
      </trkpt>
      <trkpt lat="43.64604" lon="3.75697">
        <ele>146.5</ele>
        <time>2024-04-07T16:53:05.622Z</time>
      </trkpt>
      <trkpt lat="43.64592" lon="3.75697">
        <ele>145.6</ele>
        <time>2024-04-07T16:53:06.622Z</time>
      </trkpt>
      <trkpt lat="43.64585" lon="3.75698">
        <ele>145.1</ele>
        <time>2024-04-07T16:53:07.622Z</time>
      </trkpt>
      <trkpt lat="43.64585" lon="3.75699">
        <ele>145.1</ele>
        <time>2024-04-07T16:53:08.622Z</time>
      </trkpt>
      <trkpt lat="43.64584" lon="3.757">
        <ele>145</ele>
        <time>2024-04-07T16:53:09.622Z</time>
      </trkpt>
      <trkpt lat="43.64582" lon="3.757">
        <ele>144.9</ele>
        <time>2024-04-07T16:53:10.622Z</time>
      </trkpt>
      <trkpt lat="43.6458" lon="3.75701">
        <ele>144.8</ele>
        <time>2024-04-07T16:53:11.622Z</time>
      </trkpt>
      <trkpt lat="43.64575" lon="3.757">
        <ele>144.4</ele>
        <time>2024-04-07T16:53:13.622Z</time>
      </trkpt>
      <trkpt lat="43.64572" lon="3.75699">
        <ele>144.2</ele>
        <time>2024-04-07T16:53:14.622Z</time>
      </trkpt>
      <trkpt lat="43.64569" lon="3.75698">
        <ele>144</ele>
        <time>2024-04-07T16:53:15.622Z</time>
      </trkpt>
      <trkpt lat="43.64567" lon="3.75696">
        <ele>143.8</ele>
        <time>2024-04-07T16:53:16.622Z</time>
      </trkpt>
      <trkpt lat="43.64561" lon="3.75694">
        <ele>143.4</ele>
        <time>2024-04-07T16:53:17.622Z</time>
      </trkpt>
      <trkpt lat="43.64553" lon="3.7569">
        <ele>142.9</ele>
        <time>2024-04-07T16:53:18.622Z</time>
      </trkpt>
      <trkpt lat="43.64547" lon="3.75686">
        <ele>142.7</ele>
        <time>2024-04-07T16:53:19.622Z</time>
      </trkpt>
      <trkpt lat="43.64542" lon="3.75682">
        <ele>142.5</ele>
        <time>2024-04-07T16:53:20.622Z</time>
      </trkpt>
      <trkpt lat="43.64538" lon="3.75678">
        <ele>142.4</ele>
        <time>2024-04-07T16:53:21.622Z</time>
      </trkpt>
      <trkpt lat="43.64534" lon="3.75675">
        <ele>142.2</ele>
        <time>2024-04-07T16:53:22.622Z</time>
      </trkpt>
      <trkpt lat="43.64531" lon="3.75672">
        <ele>142.1</ele>
        <time>2024-04-07T16:53:23.622Z</time>
      </trkpt>
      <trkpt lat="43.64529" lon="3.7567">
        <ele>142</ele>
        <time>2024-04-07T16:53:24.622Z</time>
      </trkpt>
      <trkpt lat="43.64526" lon="3.75667">
        <ele>141.9</ele>
        <time>2024-04-07T16:53:25.622Z</time>
      </trkpt>
      <trkpt lat="43.64525" lon="3.75665">
        <ele>141.9</ele>
        <time>2024-04-07T16:53:26.622Z</time>
      </trkpt>
      <trkpt lat="43.64522" lon="3.75662">
        <ele>141.8</ele>
        <time>2024-04-07T16:53:27.622Z</time>
      </trkpt>
      <trkpt lat="43.64521" lon="3.75661">
        <ele>141.8</ele>
        <time>2024-04-07T16:53:28.622Z</time>
      </trkpt>
      <trkpt lat="43.64519" lon="3.75659">
        <ele>141.8</ele>
        <time>2024-04-07T16:53:29.622Z</time>
      </trkpt>
      <trkpt lat="43.64515" lon="3.75654">
        <ele>141.7</ele>
        <time>2024-04-07T16:53:31.622Z</time>
      </trkpt>
      <trkpt lat="43.64512" lon="3.75652">
        <ele>141.7</ele>
        <time>2024-04-07T16:53:32.622Z</time>
      </trkpt>
      <trkpt lat="43.6451" lon="3.75649">
        <ele>141.8</ele>
        <time>2024-04-07T16:53:33.622Z</time>
      </trkpt>
      <trkpt lat="43.64508" lon="3.75648">
        <ele>141.8</ele>
        <time>2024-04-07T16:53:34.622Z</time>
      </trkpt>
      <trkpt lat="43.64505" lon="3.75646">
        <ele>141.8</ele>
        <time>2024-04-07T16:53:35.622Z</time>
      </trkpt>
      <trkpt lat="43.64503" lon="3.75644">
        <ele>141.8</ele>
        <time>2024-04-07T16:53:36.622Z</time>
      </trkpt>
      <trkpt lat="43.645" lon="3.75642">
        <ele>141.9</ele>
        <time>2024-04-07T16:53:37.622Z</time>
      </trkpt>
      <trkpt lat="43.64495" lon="3.75642">
        <ele>141.7</ele>
        <time>2024-04-07T16:53:38.622Z</time>
      </trkpt>
      <trkpt lat="43.64491" lon="3.75642">
        <ele>141.6</ele>
        <time>2024-04-07T16:53:39.622Z</time>
      </trkpt>
      <trkpt lat="43.64487" lon="3.75641">
        <ele>141.5</ele>
        <time>2024-04-07T16:53:40.622Z</time>
      </trkpt>
      <trkpt lat="43.64484" lon="3.75639">
        <ele>141.4</ele>
        <time>2024-04-07T16:53:41.622Z</time>
      </trkpt>
      <trkpt lat="43.64481" lon="3.75636">
        <ele>141.4</ele>
        <time>2024-04-07T16:53:42.622Z</time>
      </trkpt>
      <trkpt lat="43.64478" lon="3.75634">
        <ele>141.3</ele>
        <time>2024-04-07T16:53:43.622Z</time>
      </trkpt>
      <trkpt lat="43.64475" lon="3.75632">
        <ele>141.3</ele>
        <time>2024-04-07T16:53:44.622Z</time>
      </trkpt>
      <trkpt lat="43.64472" lon="3.7563">
        <ele>141.3</ele>
        <time>2024-04-07T16:53:45.622Z</time>
      </trkpt>
      <trkpt lat="43.64469" lon="3.75627">
        <ele>141.4</ele>
        <time>2024-04-07T16:53:46.622Z</time>
      </trkpt>
      <trkpt lat="43.64466" lon="3.75625">
        <ele>141.5</ele>
        <time>2024-04-07T16:53:47.622Z</time>
      </trkpt>
      <trkpt lat="43.64464" lon="3.75622">
        <ele>141.6</ele>
        <time>2024-04-07T16:53:48.622Z</time>
      </trkpt>
      <trkpt lat="43.64463" lon="3.75618">
        <ele>141.8</ele>
        <time>2024-04-07T16:53:49.622Z</time>
      </trkpt>
      <trkpt lat="43.64462" lon="3.75613">
        <ele>141.9</ele>
        <time>2024-04-07T16:53:50.622Z</time>
      </trkpt>
      <trkpt lat="43.64461" lon="3.75612">
        <ele>142</ele>
        <time>2024-04-07T16:53:51.622Z</time>
      </trkpt>
      <trkpt lat="43.64459" lon="3.75609">
        <ele>142.1</ele>
        <time>2024-04-07T16:53:52.622Z</time>
      </trkpt>
      <trkpt lat="43.64456" lon="3.75607">
        <ele>142.1</ele>
        <time>2024-04-07T16:53:53.622Z</time>
      </trkpt>
      <trkpt lat="43.64453" lon="3.75605">
        <ele>142.2</ele>
        <time>2024-04-07T16:53:54.622Z</time>
      </trkpt>
      <trkpt lat="43.6445" lon="3.75603">
        <ele>142.3</ele>
        <time>2024-04-07T16:53:55.622Z</time>
      </trkpt>
      <trkpt lat="43.64447" lon="3.75601">
        <ele>142.4</ele>
        <time>2024-04-07T16:53:56.622Z</time>
      </trkpt>
      <trkpt lat="43.64444" lon="3.75598">
        <ele>142.5</ele>
        <time>2024-04-07T16:53:57.622Z</time>
      </trkpt>
      <trkpt lat="43.64442" lon="3.75597">
        <ele>142.5</ele>
        <time>2024-04-07T16:53:58.622Z</time>
      </trkpt>
      <trkpt lat="43.64439" lon="3.75595">
        <ele>142.5</ele>
        <time>2024-04-07T16:53:59.622Z</time>
      </trkpt>
      <trkpt lat="43.64436" lon="3.75592">
        <ele>142.5</ele>
        <time>2024-04-07T16:54:00.622Z</time>
      </trkpt>
      <trkpt lat="43.64432" lon="3.7559">
        <ele>142.4</ele>
        <time>2024-04-07T16:54:01.622Z</time>
      </trkpt>
      <trkpt lat="43.64429" lon="3.75588">
        <ele>142.4</ele>
        <time>2024-04-07T16:54:02.622Z</time>
      </trkpt>
      <trkpt lat="43.64426" lon="3.75586">
        <ele>142.3</ele>
        <time>2024-04-07T16:54:03.622Z</time>
      </trkpt>
      <trkpt lat="43.64423" lon="3.75585">
        <ele>142.2</ele>
        <time>2024-04-07T16:54:04.622Z</time>
      </trkpt>
      <trkpt lat="43.6442" lon="3.75584">
        <ele>142.1</ele>
        <time>2024-04-07T16:54:05.622Z</time>
      </trkpt>
      <trkpt lat="43.64417" lon="3.75583">
        <ele>142</ele>
        <time>2024-04-07T16:54:06.622Z</time>
      </trkpt>
      <trkpt lat="43.64414" lon="3.75581">
        <ele>142</ele>
        <time>2024-04-07T16:54:07.622Z</time>
      </trkpt>
      <trkpt lat="43.64411" lon="3.75579">
        <ele>142</ele>
        <time>2024-04-07T16:54:08.622Z</time>
      </trkpt>
      <trkpt lat="43.64406" lon="3.75578">
        <ele>142</ele>
        <time>2024-04-07T16:54:10.622Z</time>
      </trkpt>
      <trkpt lat="43.64404" lon="3.75576">
        <ele>142</ele>
        <time>2024-04-07T16:54:11.622Z</time>
      </trkpt>
      <trkpt lat="43.64401" lon="3.75574">
        <ele>142</ele>
        <time>2024-04-07T16:54:12.622Z</time>
      </trkpt>
      <trkpt lat="43.64396" lon="3.75571">
        <ele>142</ele>
        <time>2024-04-07T16:54:14.622Z</time>
      </trkpt>
      <trkpt lat="43.64394" lon="3.75572">
        <ele>142</ele>
        <time>2024-04-07T16:54:15.622Z</time>
      </trkpt>
      <trkpt lat="43.64392" lon="3.75572">
        <ele>142</ele>
        <time>2024-04-07T16:54:16.622Z</time>
      </trkpt>
      <trkpt lat="43.64385" lon="3.75569">
        <ele>141.7</ele>
        <time>2024-04-07T16:54:18.622Z</time>
      </trkpt>
      <trkpt lat="43.64382" lon="3.75567">
        <ele>141.5</ele>
        <time>2024-04-07T16:54:19.622Z</time>
      </trkpt>
      <trkpt lat="43.64379" lon="3.75565">
        <ele>141.3</ele>
        <time>2024-04-07T16:54:20.622Z</time>
      </trkpt>
      <trkpt lat="43.64376" lon="3.75562">
        <ele>141.1</ele>
        <time>2024-04-07T16:54:21.622Z</time>
      </trkpt>
      <trkpt lat="43.64374" lon="3.75559">
        <ele>140.9</ele>
        <time>2024-04-07T16:54:22.622Z</time>
      </trkpt>
      <trkpt lat="43.64373" lon="3.75556">
        <ele>140.9</ele>
        <time>2024-04-07T16:54:23.622Z</time>
      </trkpt>
      <trkpt lat="43.64373" lon="3.75549">
        <ele>141.1</ele>
        <time>2024-04-07T16:54:25.622Z</time>
      </trkpt>
      <trkpt lat="43.64373" lon="3.75545">
        <ele>141.2</ele>
        <time>2024-04-07T16:54:26.622Z</time>
      </trkpt>
      <trkpt lat="43.64374" lon="3.75541">
        <ele>141.5</ele>
        <time>2024-04-07T16:54:27.622Z</time>
      </trkpt>
      <trkpt lat="43.64375" lon="3.75536">
        <ele>141.7</ele>
        <time>2024-04-07T16:54:28.622Z</time>
      </trkpt>
      <trkpt lat="43.64376" lon="3.75532">
        <ele>141.9</ele>
        <time>2024-04-07T16:54:29.622Z</time>
      </trkpt>
      <trkpt lat="43.64377" lon="3.75528">
        <ele>142.1</ele>
        <time>2024-04-07T16:54:30.622Z</time>
      </trkpt>
      <trkpt lat="43.64377" lon="3.75523">
        <ele>142.2</ele>
        <time>2024-04-07T16:54:31.622Z</time>
      </trkpt>
      <trkpt lat="43.64378" lon="3.75521">
        <ele>142.3</ele>
        <time>2024-04-07T16:54:32.622Z</time>
      </trkpt>
      <trkpt lat="43.64379" lon="3.75516">
        <ele>142.4</ele>
        <time>2024-04-07T16:54:33.622Z</time>
      </trkpt>
      <trkpt lat="43.6438" lon="3.75514">
        <ele>142.5</ele>
        <time>2024-04-07T16:54:34.622Z</time>
      </trkpt>
      <trkpt lat="43.64382" lon="3.75506">
        <ele>142.7</ele>
        <time>2024-04-07T16:54:36.622Z</time>
      </trkpt>
      <trkpt lat="43.64384" lon="3.75502">
        <ele>142.8</ele>
        <time>2024-04-07T16:54:37.622Z</time>
      </trkpt>
      <trkpt lat="43.64384" lon="3.75497">
        <ele>142.8</ele>
        <time>2024-04-07T16:54:38.622Z</time>
      </trkpt>
      <trkpt lat="43.64385" lon="3.75495">
        <ele>142.9</ele>
        <time>2024-04-07T16:54:39.622Z</time>
      </trkpt>
      <trkpt lat="43.64385" lon="3.75488">
        <ele>142.9</ele>
        <time>2024-04-07T16:54:41.622Z</time>
      </trkpt>
      <trkpt lat="43.64385" lon="3.75484">
        <ele>142.9</ele>
        <time>2024-04-07T16:54:42.622Z</time>
      </trkpt>
      <trkpt lat="43.64386" lon="3.7548">
        <ele>142.9</ele>
        <time>2024-04-07T16:54:43.622Z</time>
      </trkpt>
      <trkpt lat="43.64385" lon="3.75471">
        <ele>142.9</ele>
        <time>2024-04-07T16:54:45.622Z</time>
      </trkpt>
      <trkpt lat="43.64386" lon="3.75467">
        <ele>143.1</ele>
        <time>2024-04-07T16:54:46.622Z</time>
      </trkpt>
      <trkpt lat="43.64386" lon="3.75463">
        <ele>143.2</ele>
        <time>2024-04-07T16:54:47.622Z</time>
      </trkpt>
      <trkpt lat="43.64387" lon="3.75458">
        <ele>143.4</ele>
        <time>2024-04-07T16:54:48.622Z</time>
      </trkpt>
      <trkpt lat="43.64387" lon="3.75453">
        <ele>143.6</ele>
        <time>2024-04-07T16:54:49.622Z</time>
      </trkpt>
      <trkpt lat="43.64387" lon="3.75451">
        <ele>143.7</ele>
        <time>2024-04-07T16:54:50.622Z</time>
      </trkpt>
      <trkpt lat="43.64387" lon="3.75446">
        <ele>143.9</ele>
        <time>2024-04-07T16:54:51.622Z</time>
      </trkpt>
      <trkpt lat="43.64386" lon="3.75441">
        <ele>143.9</ele>
        <time>2024-04-07T16:54:52.622Z</time>
      </trkpt>
      <trkpt lat="43.64386" lon="3.75437">
        <ele>143.9</ele>
        <time>2024-04-07T16:54:53.622Z</time>
      </trkpt>
      <trkpt lat="43.64385" lon="3.75432">
        <ele>143.9</ele>
        <time>2024-04-07T16:54:54.622Z</time>
      </trkpt>
      <trkpt lat="43.64385" lon="3.7543">
        <ele>143.9</ele>
        <time>2024-04-07T16:54:55.622Z</time>
      </trkpt>
      <trkpt lat="43.64385" lon="3.75425">
        <ele>143.9</ele>
        <time>2024-04-07T16:54:56.622Z</time>
      </trkpt>
      <trkpt lat="43.64385" lon="3.75421">
        <ele>143.9</ele>
        <time>2024-04-07T16:54:57.622Z</time>
      </trkpt>
      <trkpt lat="43.64385" lon="3.75416">
        <ele>143.9</ele>
        <time>2024-04-07T16:54:58.622Z</time>
      </trkpt>
      <trkpt lat="43.64386" lon="3.75412">
        <ele>144.1</ele>
        <time>2024-04-07T16:54:59.622Z</time>
      </trkpt>
      <trkpt lat="43.64388" lon="3.75407">
        <ele>144.3</ele>
        <time>2024-04-07T16:55:00.622Z</time>
      </trkpt>
      <trkpt lat="43.64388" lon="3.75405">
        <ele>144.4</ele>
        <time>2024-04-07T16:55:01.622Z</time>
      </trkpt>
      <trkpt lat="43.64389" lon="3.75401">
        <ele>144.6</ele>
        <time>2024-04-07T16:55:02.622Z</time>
      </trkpt>
      <trkpt lat="43.64388" lon="3.75397">
        <ele>144.7</ele>
        <time>2024-04-07T16:55:03.622Z</time>
      </trkpt>
      <trkpt lat="43.64387" lon="3.75393">
        <ele>144.8</ele>
        <time>2024-04-07T16:55:04.622Z</time>
      </trkpt>
      <trkpt lat="43.64383" lon="3.75386">
        <ele>144.8</ele>
        <time>2024-04-07T16:55:06.622Z</time>
      </trkpt>
      <trkpt lat="43.6438" lon="3.75382">
        <ele>144.7</ele>
        <time>2024-04-07T16:55:08.622Z</time>
      </trkpt>
      <trkpt lat="43.6438" lon="3.75378">
        <ele>144.7</ele>
        <time>2024-04-07T16:55:09.622Z</time>
      </trkpt>
      <trkpt lat="43.64381" lon="3.75372">
        <ele>144.7</ele>
        <time>2024-04-07T16:55:10.622Z</time>
      </trkpt>
      <trkpt lat="43.6438" lon="3.75367">
        <ele>144.7</ele>
        <time>2024-04-07T16:55:11.622Z</time>
      </trkpt>
      <trkpt lat="43.64379" lon="3.75357">
        <ele>144.7</ele>
        <time>2024-04-07T16:55:13.622Z</time>
      </trkpt>
      <trkpt lat="43.64378" lon="3.75352">
        <ele>144.8</ele>
        <time>2024-04-07T16:55:14.622Z</time>
      </trkpt>
      <trkpt lat="43.64377" lon="3.75348">
        <ele>144.8</ele>
        <time>2024-04-07T16:55:15.622Z</time>
      </trkpt>
      <trkpt lat="43.64376" lon="3.75344">
        <ele>144.9</ele>
        <time>2024-04-07T16:55:16.622Z</time>
      </trkpt>
      <trkpt lat="43.64375" lon="3.75339">
        <ele>144.9</ele>
        <time>2024-04-07T16:55:17.622Z</time>
      </trkpt>
      <trkpt lat="43.64374" lon="3.75334">
        <ele>144.9</ele>
        <time>2024-04-07T16:55:18.622Z</time>
      </trkpt>
      <trkpt lat="43.64373" lon="3.7533">
        <ele>144.9</ele>
        <time>2024-04-07T16:55:19.622Z</time>
      </trkpt>
      <trkpt lat="43.64373" lon="3.75325">
        <ele>144.9</ele>
        <time>2024-04-07T16:55:20.622Z</time>
      </trkpt>
      <trkpt lat="43.64373" lon="3.7532">
        <ele>144.9</ele>
        <time>2024-04-07T16:55:21.622Z</time>
      </trkpt>
      <trkpt lat="43.64372" lon="3.75315">
        <ele>144.8</ele>
        <time>2024-04-07T16:55:22.622Z</time>
      </trkpt>
      <trkpt lat="43.64371" lon="3.75311">
        <ele>144.7</ele>
        <time>2024-04-07T16:55:23.622Z</time>
      </trkpt>
      <trkpt lat="43.6437" lon="3.75306">
        <ele>144.6</ele>
        <time>2024-04-07T16:55:24.622Z</time>
      </trkpt>
      <trkpt lat="43.64369" lon="3.75301">
        <ele>144.7</ele>
        <time>2024-04-07T16:55:25.622Z</time>
      </trkpt>
      <trkpt lat="43.64369" lon="3.75297">
        <ele>144.9</ele>
        <time>2024-04-07T16:55:26.622Z</time>
      </trkpt>
      <trkpt lat="43.64368" lon="3.75293">
        <ele>144.9</ele>
        <time>2024-04-07T16:55:27.622Z</time>
      </trkpt>
      <trkpt lat="43.64367" lon="3.75289">
        <ele>145</ele>
        <time>2024-04-07T16:55:28.622Z</time>
      </trkpt>
      <trkpt lat="43.64366" lon="3.75284">
        <ele>145.1</ele>
        <time>2024-04-07T16:55:29.622Z</time>
      </trkpt>
      <trkpt lat="43.64365" lon="3.75279">
        <ele>145.2</ele>
        <time>2024-04-07T16:55:30.622Z</time>
      </trkpt>
      <trkpt lat="43.64363" lon="3.75276">
        <ele>145.1</ele>
        <time>2024-04-07T16:55:31.622Z</time>
      </trkpt>
      <trkpt lat="43.64361" lon="3.75272">
        <ele>145</ele>
        <time>2024-04-07T16:55:32.622Z</time>
      </trkpt>
      <trkpt lat="43.64361" lon="3.75268">
        <ele>145</ele>
        <time>2024-04-07T16:55:33.622Z</time>
      </trkpt>
      <trkpt lat="43.64362" lon="3.75263">
        <ele>145.1</ele>
        <time>2024-04-07T16:55:34.622Z</time>
      </trkpt>
      <trkpt lat="43.64362" lon="3.75257">
        <ele>145.1</ele>
        <time>2024-04-07T16:55:35.622Z</time>
      </trkpt>
      <trkpt lat="43.64362" lon="3.75252">
        <ele>145.1</ele>
        <time>2024-04-07T16:55:36.622Z</time>
      </trkpt>
      <trkpt lat="43.64361" lon="3.75247">
        <ele>145</ele>
        <time>2024-04-07T16:55:37.622Z</time>
      </trkpt>
      <trkpt lat="43.64361" lon="3.75244">
        <ele>145</ele>
        <time>2024-04-07T16:55:38.622Z</time>
      </trkpt>
      <trkpt lat="43.64354" lon="3.75238">
        <ele>144.5</ele>
        <time>2024-04-07T16:55:40.622Z</time>
      </trkpt>
      <trkpt lat="43.6435" lon="3.75236">
        <ele>144.2</ele>
        <time>2024-04-07T16:55:41.622Z</time>
      </trkpt>
      <trkpt lat="43.64347" lon="3.75233">
        <ele>144</ele>
        <time>2024-04-07T16:55:42.622Z</time>
      </trkpt>
      <trkpt lat="43.64343" lon="3.75229">
        <ele>143.7</ele>
        <time>2024-04-07T16:55:43.622Z</time>
      </trkpt>
      <trkpt lat="43.6434" lon="3.75225">
        <ele>143.5</ele>
        <time>2024-04-07T16:55:44.622Z</time>
      </trkpt>
      <trkpt lat="43.64337" lon="3.7522">
        <ele>143.3</ele>
        <time>2024-04-07T16:55:45.622Z</time>
      </trkpt>
      <trkpt lat="43.64334" lon="3.75215">
        <ele>143</ele>
        <time>2024-04-07T16:55:46.622Z</time>
      </trkpt>
      <trkpt lat="43.64332" lon="3.7521">
        <ele>143</ele>
        <time>2024-04-07T16:55:47.622Z</time>
      </trkpt>
      <trkpt lat="43.64327" lon="3.75199">
        <ele>142.8</ele>
        <time>2024-04-07T16:55:49.622Z</time>
      </trkpt>
      <trkpt lat="43.64325" lon="3.75194">
        <ele>142.7</ele>
        <time>2024-04-07T16:55:50.622Z</time>
      </trkpt>
      <trkpt lat="43.64322" lon="3.75183">
        <ele>142.8</ele>
        <time>2024-04-07T16:55:52.622Z</time>
      </trkpt>
      <trkpt lat="43.6432" lon="3.75178">
        <ele>142.8</ele>
        <time>2024-04-07T16:55:53.622Z</time>
      </trkpt>
      <trkpt lat="43.64319" lon="3.75174">
        <ele>142.9</ele>
        <time>2024-04-07T16:55:54.622Z</time>
      </trkpt>
      <trkpt lat="43.64316" lon="3.7517">
        <ele>142.9</ele>
        <time>2024-04-07T16:55:55.622Z</time>
      </trkpt>
      <trkpt lat="43.64313" lon="3.75161">
        <ele>143</ele>
        <time>2024-04-07T16:55:57.622Z</time>
      </trkpt>
      <trkpt lat="43.64309" lon="3.75152">
        <ele>143</ele>
        <time>2024-04-07T16:55:59.622Z</time>
      </trkpt>
      <trkpt lat="43.64308" lon="3.75147">
        <ele>143</ele>
        <time>2024-04-07T16:56:00.622Z</time>
      </trkpt>
      <trkpt lat="43.64308" lon="3.75142">
        <ele>143</ele>
        <time>2024-04-07T16:56:01.622Z</time>
      </trkpt>
      <trkpt lat="43.64308" lon="3.75135">
        <ele>143.3</ele>
        <time>2024-04-07T16:56:02.622Z</time>
      </trkpt>
      <trkpt lat="43.64309" lon="3.75128">
        <ele>143.8</ele>
        <time>2024-04-07T16:56:03.622Z</time>
      </trkpt>
      <trkpt lat="43.64309" lon="3.75122">
        <ele>144.2</ele>
        <time>2024-04-07T16:56:04.622Z</time>
      </trkpt>
      <trkpt lat="43.64308" lon="3.75117">
        <ele>144.6</ele>
        <time>2024-04-07T16:56:05.622Z</time>
      </trkpt>
      <trkpt lat="43.64307" lon="3.75113">
        <ele>144.9</ele>
        <time>2024-04-07T16:56:06.622Z</time>
      </trkpt>
      <trkpt lat="43.64305" lon="3.75109">
        <ele>145.1</ele>
        <time>2024-04-07T16:56:07.622Z</time>
      </trkpt>
      <trkpt lat="43.64303" lon="3.75105">
        <ele>145.1</ele>
        <time>2024-04-07T16:56:08.622Z</time>
      </trkpt>
      <trkpt lat="43.64301" lon="3.75101">
        <ele>145.3</ele>
        <time>2024-04-07T16:56:09.622Z</time>
      </trkpt>
      <trkpt lat="43.64301" lon="3.75096">
        <ele>147</ele>
        <time>2024-04-07T16:56:11.814Z</time>
      </trkpt>
      <trkpt lat="43.64294" lon="3.75095">
        <ele>147</ele>
        <time>2024-04-07T16:56:15.885Z</time>
      </trkpt>
      <trkpt lat="43.64258" lon="3.75094">
        <ele>145.8</ele>
        <time>2024-04-07T16:56:36.750Z</time>
      </trkpt>
      <trkpt lat="43.64216" lon="3.75077">
        <ele>146.3</ele>
        <time>2024-04-07T16:57:01.732Z</time>
      </trkpt>
      <trkpt lat="43.64185" lon="3.75047">
        <ele>147</ele>
        <time>2024-04-07T16:57:23.060Z</time>
      </trkpt>
      <trkpt lat="43.64163" lon="3.7501">
        <ele>147.5</ele>
        <time>2024-04-07T16:57:42.612Z</time>
      </trkpt>
      <trkpt lat="43.64162" lon="3.75001">
        <ele>147.5</ele>
        <time>2024-04-07T16:57:46.654Z</time>
      </trkpt>
      <trkpt lat="43.6416" lon="3.7499">
        <ele>147.8</ele>
        <time>2024-04-07T16:57:51.791Z</time>
      </trkpt>
      <trkpt lat="43.64157" lon="3.74959">
        <ele>147.3</ele>
        <time>2024-04-07T16:58:05.113Z</time>
      </trkpt>
      <trkpt lat="43.64155" lon="3.74956">
        <ele>147.3</ele>
        <time>2024-04-07T16:58:06.874Z</time>
      </trkpt>
      <trkpt lat="43.64144" lon="3.74949">
        <ele>147</ele>
        <time>2024-04-07T16:58:14.158Z</time>
      </trkpt>
      <trkpt lat="43.64141" lon="3.74939">
        <ele>146.8</ele>
        <time>2024-04-07T16:58:18.864Z</time>
      </trkpt>
      <trkpt lat="43.64139" lon="3.74901">
        <ele>146.8</ele>
        <time>2024-04-07T16:58:35.382Z</time>
      </trkpt>
      <trkpt lat="43.64134" lon="3.74809">
        <ele>148</ele>
        <time>2024-04-07T16:59:15.280Z</time>
      </trkpt>
      <trkpt lat="43.64134" lon="3.74785">
        <ele>148.3</ele>
        <time>2024-04-07T16:59:25.718Z</time>
      </trkpt>
      <trkpt lat="43.64135" lon="3.74779">
        <ele>148.5</ele>
        <time>2024-04-07T16:59:28.307Z</time>
      </trkpt>
      <trkpt lat="43.64138" lon="3.74752">
        <ele>148.5</ele>
        <time>2024-04-07T16:59:40.229Z</time>
      </trkpt>
      <trkpt lat="43.64146" lon="3.74725">
        <ele>148.8</ele>
        <time>2024-04-07T16:59:52.578Z</time>
      </trkpt>
      <trkpt lat="43.64149" lon="3.7471">
        <ele>148.8</ele>
        <time>2024-04-07T16:59:59.492Z</time>
      </trkpt>
      <trkpt lat="43.6415" lon="3.74694">
        <ele>148.8</ele>
        <time>2024-04-07T17:00:06.644Z</time>
      </trkpt>
      <trkpt lat="43.64147" lon="3.74685">
        <ele>148.8</ele>
        <time>2024-04-07T17:00:10.555Z</time>
      </trkpt>
      <trkpt lat="43.64148" lon="3.74675">
        <ele>148.8</ele>
        <time>2024-04-07T17:00:15.005Z</time>
      </trkpt>
      <trkpt lat="43.64148" lon="3.74653">
        <ele>149</ele>
        <time>2024-04-07T17:00:24.710Z</time>
      </trkpt>
      <trkpt lat="43.64143" lon="3.74613">
        <ele>149.5</ele>
        <time>2024-04-07T17:00:42.257Z</time>
      </trkpt>
      <trkpt lat="43.64138" lon="3.74601">
        <ele>149.8</ele>
        <time>2024-04-07T17:00:48.242Z</time>
      </trkpt>
      <trkpt lat="43.64129" lon="3.74581">
        <ele>150</ele>
        <time>2024-04-07T17:00:58.299Z</time>
      </trkpt>
      <trkpt lat="43.64124" lon="3.74562">
        <ele>150.3</ele>
        <time>2024-04-07T17:01:06.953Z</time>
      </trkpt>
      <trkpt lat="43.64123" lon="3.74554">
        <ele>150.3</ele>
        <time>2024-04-07T17:01:10.341Z</time>
      </trkpt>
      <trkpt lat="43.64127" lon="3.74492">
        <ele>151</ele>
        <time>2024-04-07T17:01:37.298Z</time>
      </trkpt>
      <trkpt lat="43.64129" lon="3.74456">
        <ele>151.5</ele>
        <time>2024-04-07T17:01:53.181Z</time>
      </trkpt>
      <trkpt lat="43.6413" lon="3.74437">
        <ele>151.8</ele>
        <time>2024-04-07T17:02:01.236Z</time>
      </trkpt>
      <trkpt lat="43.64134" lon="3.74433">
        <ele>151.8</ele>
        <time>2024-04-07T17:02:04.083Z</time>
      </trkpt>
      <trkpt lat="43.64135" lon="3.74424">
        <ele>151.8</ele>
        <time>2024-04-07T17:02:08.046Z</time>
      </trkpt>
      <trkpt lat="43.64139" lon="3.7441">
        <ele>152</ele>
        <time>2024-04-07T17:02:14.440Z</time>
      </trkpt>
      <trkpt lat="43.6414" lon="3.744">
        <ele>151.8</ele>
        <time>2024-04-07T17:02:18.754Z</time>
      </trkpt>
      <trkpt lat="43.64135" lon="3.74387">
        <ele>152.6</ele>
        <time>2024-04-07T17:02:32.551Z</time>
      </trkpt>
      <trkpt lat="43.64139" lon="3.74378">
        <ele>152.7</ele>
        <time>2024-04-07T17:02:41.831Z</time>
      </trkpt>
      <trkpt lat="43.64143" lon="3.7437">
        <ele>152.7</ele>
        <time>2024-04-07T17:02:51.111Z</time>
      </trkpt>
      <trkpt lat="43.6415" lon="3.74368">
        <ele>152.6</ele>
        <time>2024-04-07T17:03:00.467Z</time>
      </trkpt>
      <trkpt lat="43.64158" lon="3.74367">
        <ele>152.4</ele>
        <time>2024-04-07T17:03:09.823Z</time>
      </trkpt>
      <trkpt lat="43.64162" lon="3.74379">
        <ele>151.5</ele>
        <time>2024-04-07T17:03:22.864Z</time>
      </trkpt>
      <trkpt lat="43.64166" lon="3.74383">
        <ele>151.5</ele>
        <time>2024-04-07T17:03:25.652Z</time>
      </trkpt>
      <trkpt lat="43.6417" lon="3.74394">
        <ele>151.5</ele>
        <time>2024-04-07T17:03:30.899Z</time>
      </trkpt>
      <trkpt lat="43.64171" lon="3.74404">
        <ele>151.8</ele>
        <time>2024-04-07T17:03:35.161Z</time>
      </trkpt>
      <trkpt lat="43.64177" lon="3.74425">
        <ele>151.8</ele>
        <time>2024-04-07T17:03:44.592Z</time>
      </trkpt>
      <trkpt lat="43.64176" lon="3.74437">
        <ele>151.8</ele>
        <time>2024-04-07T17:03:49.329Z</time>
      </trkpt>
      <trkpt lat="43.64185" lon="3.7446">
        <ele>151.3</ele>
        <time>2024-04-07T17:04:00.469Z</time>
      </trkpt>
      <trkpt lat="43.6419" lon="3.74477">
        <ele>151.3</ele>
        <time>2024-04-07T17:04:07.746Z</time>
      </trkpt>
      <trkpt lat="43.64199" lon="3.74493">
        <ele>151</ele>
        <time>2024-04-07T17:04:16.215Z</time>
      </trkpt>
      <trkpt lat="43.64216" lon="3.74539">
        <ele>151</ele>
        <time>2024-04-07T17:04:37.496Z</time>
      </trkpt>
      <trkpt lat="43.64223" lon="3.74547">
        <ele>151</ele>
        <time>2024-04-07T17:04:42.732Z</time>
      </trkpt>
      <trkpt lat="43.64232" lon="3.74556">
        <ele>151.3</ele>
        <time>2024-04-07T17:04:49.144Z</time>
      </trkpt>
      <trkpt lat="43.64277" lon="3.74671">
        <ele>151.3</ele>
        <time>2024-04-07T17:05:43.019Z</time>
      </trkpt>
      <trkpt lat="43.64324" lon="3.74789">
        <ele>153.8</ele>
        <time>2024-04-07T17:06:38.628Z</time>
      </trkpt>
      <trkpt lat="43.64365" lon="3.74895">
        <ele>153.8</ele>
        <time>2024-04-07T17:07:28.263Z</time>
      </trkpt>
      <trkpt lat="43.64365" lon="3.74892">
        <ele>154</ele>
        <time>2024-04-07T17:07:29.461Z</time>
      </trkpt>
      <trkpt lat="43.64369" lon="3.74887">
        <ele>156.1</ele>
        <time>2024-04-07T17:07:32.485Z</time>
      </trkpt>
      <trkpt lat="43.64369" lon="3.74886">
        <ele>156.1</ele>
        <time>2024-04-07T17:07:33.485Z</time>
      </trkpt>
      <trkpt lat="43.6437" lon="3.74882">
        <ele>156.2</ele>
        <time>2024-04-07T17:07:34.485Z</time>
      </trkpt>
      <trkpt lat="43.64373" lon="3.74876">
        <ele>156.5</ele>
        <time>2024-04-07T17:07:36.485Z</time>
      </trkpt>
      <trkpt lat="43.64382" lon="3.74864">
        <ele>156.9</ele>
        <time>2024-04-07T17:08:36.485Z</time>
      </trkpt>
      <trkpt lat="43.64389" lon="3.74861">
        <ele>157</ele>
        <time>2024-04-07T17:08:38.485Z</time>
      </trkpt>
      <trkpt lat="43.64402" lon="3.74859">
        <ele>156.6</ele>
        <time>2024-04-07T17:08:39.485Z</time>
      </trkpt>
      <trkpt lat="43.64406" lon="3.74861">
        <ele>156.4</ele>
        <time>2024-04-07T17:08:40.485Z</time>
      </trkpt>
      <trkpt lat="43.6441" lon="3.74865">
        <ele>156.3</ele>
        <time>2024-04-07T17:08:41.485Z</time>
      </trkpt>
      <trkpt lat="43.64413" lon="3.74868">
        <ele>156.3</ele>
        <time>2024-04-07T17:08:42.485Z</time>
      </trkpt>
      <trkpt lat="43.64419" lon="3.74872">
        <ele>156.2</ele>
        <time>2024-04-07T17:08:44.485Z</time>
      </trkpt>
      <trkpt lat="43.64422" lon="3.74872">
        <ele>155.9</ele>
        <time>2024-04-07T17:08:45.485Z</time>
      </trkpt>
      <trkpt lat="43.64425" lon="3.74871">
        <ele>155.6</ele>
        <time>2024-04-07T17:08:46.485Z</time>
      </trkpt>
      <trkpt lat="43.64427" lon="3.74868">
        <ele>155.4</ele>
        <time>2024-04-07T17:08:47.485Z</time>
      </trkpt>
      <trkpt lat="43.64428" lon="3.74863">
        <ele>155.2</ele>
        <time>2024-04-07T17:08:48.485Z</time>
      </trkpt>
      <trkpt lat="43.64428" lon="3.74856">
        <ele>155.4</ele>
        <time>2024-04-07T17:08:49.485Z</time>
      </trkpt>
      <trkpt lat="43.64427" lon="3.74841">
        <ele>156.2</ele>
        <time>2024-04-07T17:08:51.485Z</time>
      </trkpt>
      <trkpt lat="43.64426" lon="3.74834">
        <ele>156.6</ele>
        <time>2024-04-07T17:08:52.485Z</time>
      </trkpt>
      <trkpt lat="43.64426" lon="3.74828">
        <ele>156.5</ele>
        <time>2024-04-07T17:08:53.485Z</time>
      </trkpt>
      <trkpt lat="43.64426" lon="3.74819">
        <ele>156.3</ele>
        <time>2024-04-07T17:08:55.485Z</time>
      </trkpt>
      <trkpt lat="43.64426" lon="3.74815">
        <ele>156.2</ele>
        <time>2024-04-07T17:08:56.485Z</time>
      </trkpt>
      <trkpt lat="43.64427" lon="3.74809">
        <ele>156.1</ele>
        <time>2024-04-07T17:08:58.485Z</time>
      </trkpt>
      <trkpt lat="43.64438" lon="3.74795">
        <ele>156</ele>
        <time>2024-04-07T17:08:59.485Z</time>
      </trkpt>
      <trkpt lat="43.6444" lon="3.74788">
        <ele>156</ele>
        <time>2024-04-07T17:09:00.485Z</time>
      </trkpt>
      <trkpt lat="43.64441" lon="3.7478">
        <ele>156</ele>
        <time>2024-04-07T17:09:01.485Z</time>
      </trkpt>
      <trkpt lat="43.64442" lon="3.74773">
        <ele>155.8</ele>
        <time>2024-04-07T17:09:02.485Z</time>
      </trkpt>
      <trkpt lat="43.64442" lon="3.74767">
        <ele>155.6</ele>
        <time>2024-04-07T17:09:03.485Z</time>
      </trkpt>
      <trkpt lat="43.6444" lon="3.74763">
        <ele>155.5</ele>
        <time>2024-04-07T17:09:04.485Z</time>
      </trkpt>
      <trkpt lat="43.64439" lon="3.74758">
        <ele>155.3</ele>
        <time>2024-04-07T17:09:05.485Z</time>
      </trkpt>
      <trkpt lat="43.64441" lon="3.74754">
        <ele>155.1</ele>
        <time>2024-04-07T17:09:06.485Z</time>
      </trkpt>
      <trkpt lat="43.64444" lon="3.74752">
        <ele>155.1</ele>
        <time>2024-04-07T17:09:07.485Z</time>
      </trkpt>
      <trkpt lat="43.64445" lon="3.74749">
        <ele>154.9</ele>
        <time>2024-04-07T17:09:08.485Z</time>
      </trkpt>
      <trkpt lat="43.64445" lon="3.74747">
        <ele>154.8</ele>
        <time>2024-04-07T17:09:09.485Z</time>
      </trkpt>
      <trkpt lat="43.64446" lon="3.74746">
        <ele>154.6</ele>
        <time>2024-04-07T17:09:10.485Z</time>
      </trkpt>
      <trkpt lat="43.64446" lon="3.74741">
        <ele>154.5</ele>
        <time>2024-04-07T17:09:11.485Z</time>
      </trkpt>
      <trkpt lat="43.64446" lon="3.74737">
        <ele>154.3</ele>
        <time>2024-04-07T17:09:12.485Z</time>
      </trkpt>
      <trkpt lat="43.64449" lon="3.74731">
        <ele>151</ele>
        <time>2024-04-07T17:09:14.615Z</time>
      </trkpt>
      <trkpt lat="43.6445" lon="3.74726">
        <ele>151</ele>
        <time>2024-04-07T17:09:16.001Z</time>
      </trkpt>
      <trkpt lat="43.64446" lon="3.74706">
        <ele>151</ele>
        <time>2024-04-07T17:09:21.890Z</time>
      </trkpt>
      <trkpt lat="43.64434" lon="3.74692">
        <ele>151.8</ele>
        <time>2024-04-07T17:09:27.785Z</time>
      </trkpt>
      <trkpt lat="43.64425" lon="3.7467">
        <ele>152.3</ele>
        <time>2024-04-07T17:09:35.087Z</time>
      </trkpt>
      <trkpt lat="43.64416" lon="3.74643">
        <ele>152.3</ele>
        <time>2024-04-07T17:09:43.389Z</time>
      </trkpt>
      <trkpt lat="43.64412" lon="3.74622">
        <ele>151.8</ele>
        <time>2024-04-07T17:09:49.450Z</time>
      </trkpt>
      <trkpt lat="43.64413" lon="3.74601">
        <ele>151.3</ele>
        <time>2024-04-07T17:09:55.250Z</time>
      </trkpt>
      <trkpt lat="43.644" lon="3.7456">
        <ele>150.8</ele>
        <time>2024-04-07T17:10:07.775Z</time>
      </trkpt>
      <trkpt lat="43.64399" lon="3.74545">
        <ele>150.8</ele>
        <time>2024-04-07T17:10:11.998Z</time>
      </trkpt>
      <trkpt lat="43.64386" lon="3.74521">
        <ele>151</ele>
        <time>2024-04-07T17:10:20.401Z</time>
      </trkpt>
      <trkpt lat="43.64382" lon="3.74506">
        <ele>151.5</ele>
        <time>2024-04-07T17:10:24.745Z</time>
      </trkpt>
      <trkpt lat="43.64374" lon="3.74487">
        <ele>152</ele>
        <time>2024-04-07T17:10:31.036Z</time>
      </trkpt>
      <trkpt lat="43.6437" lon="3.74462">
        <ele>152.5</ele>
        <time>2024-04-07T17:10:38.039Z</time>
      </trkpt>
      <trkpt lat="43.64369" lon="3.74445">
        <ele>152.5</ele>
        <time>2024-04-07T17:10:42.821Z</time>
      </trkpt>
      <trkpt lat="43.64365" lon="3.74422">
        <ele>153</ele>
        <time>2024-04-07T17:10:49.634Z</time>
      </trkpt>
      <trkpt lat="43.64354" lon="3.74382">
        <ele>153.8</ele>
        <time>2024-04-07T17:11:01.533Z</time>
      </trkpt>
      <trkpt lat="43.64353" lon="3.74372">
        <ele>153.8</ele>
        <time>2024-04-07T17:11:04.429Z</time>
      </trkpt>
      <trkpt lat="43.64353" lon="3.74367">
        <ele>153.8</ele>
        <time>2024-04-07T17:11:05.664Z</time>
      </trkpt>
      <trkpt lat="43.64381" lon="3.7435">
        <ele>150.5</ele>
        <time>2024-04-07T17:11:17.607Z</time>
      </trkpt>
      <trkpt lat="43.64394" lon="3.74349">
        <ele>149</ele>
        <time>2024-04-07T17:11:22.824Z</time>
      </trkpt>
      <trkpt lat="43.64394" lon="3.74343">
        <ele>149</ele>
        <time>2024-04-07T17:11:24.592Z</time>
      </trkpt>
      <trkpt lat="43.64398" lon="3.7435">
        <ele>143.7</ele>
        <time>2024-04-07T17:11:27.085Z</time>
      </trkpt>
      <trkpt lat="43.644" lon="3.74358">
        <ele>143.7</ele>
        <time>2024-04-07T17:11:28.085Z</time>
      </trkpt>
      <trkpt lat="43.64401" lon="3.74365">
        <ele>143.8</ele>
        <time>2024-04-07T17:11:29.085Z</time>
      </trkpt>
      <trkpt lat="43.64403" lon="3.74372">
        <ele>143.7</ele>
        <time>2024-04-07T17:11:30.085Z</time>
      </trkpt>
      <trkpt lat="43.64403" lon="3.74389">
        <ele>144</ele>
        <time>2024-04-07T17:11:32.085Z</time>
      </trkpt>
      <trkpt lat="43.64402" lon="3.74398">
        <ele>144.4</ele>
        <time>2024-04-07T17:11:33.085Z</time>
      </trkpt>
      <trkpt lat="43.64401" lon="3.74407">
        <ele>144.8</ele>
        <time>2024-04-07T17:11:34.085Z</time>
      </trkpt>
      <trkpt lat="43.64403" lon="3.74422">
        <ele>145.2</ele>
        <time>2024-04-07T17:11:36.085Z</time>
      </trkpt>
      <trkpt lat="43.64405" lon="3.74432">
        <ele>145.4</ele>
        <time>2024-04-07T17:11:38.085Z</time>
      </trkpt>
      <trkpt lat="43.64406" lon="3.74437">
        <ele>145.5</ele>
        <time>2024-04-07T17:11:39.085Z</time>
      </trkpt>
      <trkpt lat="43.64408" lon="3.74441">
        <ele>145.5</ele>
        <time>2024-04-07T17:11:40.085Z</time>
      </trkpt>
      <trkpt lat="43.6441" lon="3.74445">
        <ele>145.5</ele>
        <time>2024-04-07T17:11:41.085Z</time>
      </trkpt>
      <trkpt lat="43.6441" lon="3.74449">
        <ele>145.7</ele>
        <time>2024-04-07T17:11:42.085Z</time>
      </trkpt>
      <trkpt lat="43.6441" lon="3.74454">
        <ele>146</ele>
        <time>2024-04-07T17:11:43.085Z</time>
      </trkpt>
      <trkpt lat="43.64412" lon="3.74458">
        <ele>146</ele>
        <time>2024-04-07T17:11:44.085Z</time>
      </trkpt>
      <trkpt lat="43.64415" lon="3.74462">
        <ele>145.8</ele>
        <time>2024-04-07T17:11:45.085Z</time>
      </trkpt>
      <trkpt lat="43.64416" lon="3.74465">
        <ele>145.8</ele>
        <time>2024-04-07T17:11:46.085Z</time>
      </trkpt>
      <trkpt lat="43.64418" lon="3.74469">
        <ele>145.8</ele>
        <time>2024-04-07T17:11:47.085Z</time>
      </trkpt>
      <trkpt lat="43.64418" lon="3.7447">
        <ele>145.8</ele>
        <time>2024-04-07T17:11:48.085Z</time>
      </trkpt>
      <trkpt lat="43.64421" lon="3.74474">
        <ele>145.7</ele>
        <time>2024-04-07T17:11:49.085Z</time>
      </trkpt>
      <trkpt lat="43.64422" lon="3.74475">
        <ele>145.6</ele>
        <time>2024-04-07T17:11:50.085Z</time>
      </trkpt>
      <trkpt lat="43.64424" lon="3.74478">
        <ele>145.5</ele>
        <time>2024-04-07T17:11:51.085Z</time>
      </trkpt>
      <trkpt lat="43.64426" lon="3.74481">
        <ele>145.3</ele>
        <time>2024-04-07T17:11:52.085Z</time>
      </trkpt>
      <trkpt lat="43.64428" lon="3.74486">
        <ele>145.2</ele>
        <time>2024-04-07T17:11:53.085Z</time>
      </trkpt>
      <trkpt lat="43.64431" lon="3.74492">
        <ele>145</ele>
        <time>2024-04-07T17:11:54.085Z</time>
      </trkpt>
      <trkpt lat="43.64435" lon="3.74498">
        <ele>144.7</ele>
        <time>2024-04-07T17:11:55.085Z</time>
      </trkpt>
      <trkpt lat="43.64438" lon="3.74503">
        <ele>144.4</ele>
        <time>2024-04-07T17:11:56.085Z</time>
      </trkpt>
      <trkpt lat="43.6444" lon="3.74507">
        <ele>144.1</ele>
        <time>2024-04-07T17:11:57.085Z</time>
      </trkpt>
      <trkpt lat="43.64441" lon="3.74511">
        <ele>143.9</ele>
        <time>2024-04-07T17:11:58.085Z</time>
      </trkpt>
      <trkpt lat="43.64443" lon="3.74516">
        <ele>143.6</ele>
        <time>2024-04-07T17:11:59.085Z</time>
      </trkpt>
      <trkpt lat="43.64444" lon="3.74521">
        <ele>143.3</ele>
        <time>2024-04-07T17:12:00.085Z</time>
      </trkpt>
      <trkpt lat="43.64446" lon="3.74526">
        <ele>142.9</ele>
        <time>2024-04-07T17:12:01.085Z</time>
      </trkpt>
      <trkpt lat="43.64448" lon="3.74531">
        <ele>142.7</ele>
        <time>2024-04-07T17:12:02.085Z</time>
      </trkpt>
      <trkpt lat="43.64451" lon="3.74534">
        <ele>142.5</ele>
        <time>2024-04-07T17:12:03.085Z</time>
      </trkpt>
      <trkpt lat="43.64453" lon="3.74538">
        <ele>142.4</ele>
        <time>2024-04-07T17:12:04.085Z</time>
      </trkpt>
      <trkpt lat="43.64455" lon="3.74542">
        <ele>142.2</ele>
        <time>2024-04-07T17:12:05.085Z</time>
      </trkpt>
      <trkpt lat="43.64462" lon="3.74555">
        <ele>141.7</ele>
        <time>2024-04-07T17:12:07.085Z</time>
      </trkpt>
      <trkpt lat="43.64465" lon="3.74562">
        <ele>141.6</ele>
        <time>2024-04-07T17:12:08.085Z</time>
      </trkpt>
      <trkpt lat="43.64468" lon="3.74568">
        <ele>141.4</ele>
        <time>2024-04-07T17:12:09.085Z</time>
      </trkpt>
      <trkpt lat="43.6447" lon="3.74576">
        <ele>141.3</ele>
        <time>2024-04-07T17:12:10.085Z</time>
      </trkpt>
      <trkpt lat="43.6447" lon="3.74582">
        <ele>141.3</ele>
        <time>2024-04-07T17:12:11.085Z</time>
      </trkpt>
      <trkpt lat="43.64472" lon="3.74589">
        <ele>141.2</ele>
        <time>2024-04-07T17:12:12.085Z</time>
      </trkpt>
      <trkpt lat="43.64474" lon="3.74595">
        <ele>141.4</ele>
        <time>2024-04-07T17:12:13.085Z</time>
      </trkpt>
      <trkpt lat="43.64476" lon="3.74601">
        <ele>141.5</ele>
        <time>2024-04-07T17:12:14.085Z</time>
      </trkpt>
      <trkpt lat="43.64478" lon="3.74607">
        <ele>141.6</ele>
        <time>2024-04-07T17:12:15.085Z</time>
      </trkpt>
      <trkpt lat="43.64482" lon="3.74614">
        <ele>141.8</ele>
        <time>2024-04-07T17:12:16.085Z</time>
      </trkpt>
      <trkpt lat="43.64484" lon="3.7462">
        <ele>142.1</ele>
        <time>2024-04-07T17:12:17.085Z</time>
      </trkpt>
      <trkpt lat="43.64488" lon="3.74629">
        <ele>142.4</ele>
        <time>2024-04-07T17:12:19.085Z</time>
      </trkpt>
      <trkpt lat="43.64491" lon="3.74633">
        <ele>142.4</ele>
        <time>2024-04-07T17:12:20.085Z</time>
      </trkpt>
      <trkpt lat="43.64496" lon="3.74636">
        <ele>142.2</ele>
        <time>2024-04-07T17:12:21.085Z</time>
      </trkpt>
      <trkpt lat="43.645" lon="3.74638">
        <ele>142</ele>
        <time>2024-04-07T17:12:22.085Z</time>
      </trkpt>
      <trkpt lat="43.64509" lon="3.74646">
        <ele>142.8</ele>
        <time>2024-04-07T17:12:24.085Z</time>
      </trkpt>
      <trkpt lat="43.64509" lon="3.74652">
        <ele>143</ele>
        <time>2024-04-07T17:12:25.085Z</time>
      </trkpt>
      <trkpt lat="43.6451" lon="3.74659">
        <ele>143.1</ele>
        <time>2024-04-07T17:12:26.085Z</time>
      </trkpt>
      <trkpt lat="43.6451" lon="3.74664">
        <ele>143.2</ele>
        <time>2024-04-07T17:12:28.085Z</time>
      </trkpt>
      <trkpt lat="43.64509" lon="3.74672">
        <ele>143.5</ele>
        <time>2024-04-07T17:12:29.085Z</time>
      </trkpt>
      <trkpt lat="43.6451" lon="3.74682">
        <ele>143.8</ele>
        <time>2024-04-07T17:12:31.085Z</time>
      </trkpt>
      <trkpt lat="43.6451" lon="3.74688">
        <ele>144</ele>
        <time>2024-04-07T17:12:32.085Z</time>
      </trkpt>
      <trkpt lat="43.64512" lon="3.74692">
        <ele>144</ele>
        <time>2024-04-07T17:12:33.085Z</time>
      </trkpt>
      <trkpt lat="43.64513" lon="3.74697">
        <ele>144.1</ele>
        <time>2024-04-07T17:12:34.085Z</time>
      </trkpt>
      <trkpt lat="43.64515" lon="3.74703">
        <ele>144.1</ele>
        <time>2024-04-07T17:12:36.085Z</time>
      </trkpt>
      <trkpt lat="43.64517" lon="3.74709">
        <ele>144.1</ele>
        <time>2024-04-07T17:12:37.085Z</time>
      </trkpt>
      <trkpt lat="43.64519" lon="3.7472">
        <ele>144.3</ele>
        <time>2024-04-07T17:12:38.085Z</time>
      </trkpt>
      <trkpt lat="43.64518" lon="3.74727">
        <ele>144</ele>
        <time>2024-04-07T17:12:39.085Z</time>
      </trkpt>
      <trkpt lat="43.6452" lon="3.74732">
        <ele>143.5</ele>
        <time>2024-04-07T17:12:40.085Z</time>
      </trkpt>
      <trkpt lat="43.6452" lon="3.74737">
        <ele>143.1</ele>
        <time>2024-04-07T17:12:41.085Z</time>
      </trkpt>
      <trkpt lat="43.6452" lon="3.74743">
        <ele>142.7</ele>
        <time>2024-04-07T17:12:42.085Z</time>
      </trkpt>
      <trkpt lat="43.6452" lon="3.7475">
        <ele>142.1</ele>
        <time>2024-04-07T17:12:43.085Z</time>
      </trkpt>
      <trkpt lat="43.64521" lon="3.74757">
        <ele>141.7</ele>
        <time>2024-04-07T17:12:44.085Z</time>
      </trkpt>
      <trkpt lat="43.64521" lon="3.74763">
        <ele>141.4</ele>
        <time>2024-04-07T17:12:45.085Z</time>
      </trkpt>
      <trkpt lat="43.64523" lon="3.74774">
        <ele>140.4</ele>
        <time>2024-04-07T17:12:47.085Z</time>
      </trkpt>
      <trkpt lat="43.64525" lon="3.7478">
        <ele>139.7</ele>
        <time>2024-04-07T17:12:48.085Z</time>
      </trkpt>
      <trkpt lat="43.64528" lon="3.74793">
        <ele>139</ele>
        <time>2024-04-07T17:12:50.085Z</time>
      </trkpt>
      <trkpt lat="43.64528" lon="3.74806">
        <ele>139</ele>
        <time>2024-04-07T17:12:52.085Z</time>
      </trkpt>
      <trkpt lat="43.64528" lon="3.74814">
        <ele>139</ele>
        <time>2024-04-07T17:12:53.085Z</time>
      </trkpt>
      <trkpt lat="43.64528" lon="3.74821">
        <ele>139</ele>
        <time>2024-04-07T17:12:54.085Z</time>
      </trkpt>
      <trkpt lat="43.64528" lon="3.74827">
        <ele>139</ele>
        <time>2024-04-07T17:12:55.085Z</time>
      </trkpt>
      <trkpt lat="43.6453" lon="3.74833">
        <ele>138.8</ele>
        <time>2024-04-07T17:12:56.085Z</time>
      </trkpt>
      <trkpt lat="43.64535" lon="3.74843">
        <ele>138.8</ele>
        <time>2024-04-07T17:12:58.085Z</time>
      </trkpt>
      <trkpt lat="43.64538" lon="3.74848">
        <ele>138.8</ele>
        <time>2024-04-07T17:12:59.085Z</time>
      </trkpt>
      <trkpt lat="43.64541" lon="3.74853">
        <ele>138.8</ele>
        <time>2024-04-07T17:13:00.085Z</time>
      </trkpt>
      <trkpt lat="43.64545" lon="3.74858">
        <ele>138.6</ele>
        <time>2024-04-07T17:13:01.085Z</time>
      </trkpt>
      <trkpt lat="43.64549" lon="3.74863">
        <ele>138.6</ele>
        <time>2024-04-07T17:13:02.085Z</time>
      </trkpt>
      <trkpt lat="43.64555" lon="3.74867">
        <ele>138.5</ele>
        <time>2024-04-07T17:13:04.085Z</time>
      </trkpt>
      <trkpt lat="43.64555" lon="3.74869">
        <ele>138.6</ele>
        <time>2024-04-07T17:13:05.085Z</time>
      </trkpt>
      <trkpt lat="43.64564" lon="3.74879">
        <ele>138.9</ele>
        <time>2024-04-07T17:13:30.085Z</time>
      </trkpt>
      <trkpt lat="43.64567" lon="3.74883">
        <ele>138.9</ele>
        <time>2024-04-07T17:13:31.085Z</time>
      </trkpt>
      <trkpt lat="43.64575" lon="3.74889">
        <ele>138.6</ele>
        <time>2024-04-07T17:13:33.085Z</time>
      </trkpt>
      <trkpt lat="43.64578" lon="3.74892">
        <ele>138.4</ele>
        <time>2024-04-07T17:13:34.085Z</time>
      </trkpt>
      <trkpt lat="43.64581" lon="3.74896">
        <ele>138.2</ele>
        <time>2024-04-07T17:13:35.085Z</time>
      </trkpt>
      <trkpt lat="43.64584" lon="3.749">
        <ele>137.9</ele>
        <time>2024-04-07T17:13:36.085Z</time>
      </trkpt>
      <trkpt lat="43.64587" lon="3.74905">
        <ele>137.7</ele>
        <time>2024-04-07T17:13:37.085Z</time>
      </trkpt>
      <trkpt lat="43.64591" lon="3.74909">
        <ele>137.4</ele>
        <time>2024-04-07T17:13:38.085Z</time>
      </trkpt>
      <trkpt lat="43.64594" lon="3.74914">
        <ele>137.2</ele>
        <time>2024-04-07T17:13:39.085Z</time>
      </trkpt>
      <trkpt lat="43.64597" lon="3.74918">
        <ele>137</ele>
        <time>2024-04-07T17:13:40.085Z</time>
      </trkpt>
      <trkpt lat="43.64601" lon="3.74923">
        <ele>136.8</ele>
        <time>2024-04-07T17:13:41.085Z</time>
      </trkpt>
      <trkpt lat="43.64604" lon="3.74929">
        <ele>136.6</ele>
        <time>2024-04-07T17:13:42.085Z</time>
      </trkpt>
      <trkpt lat="43.64605" lon="3.74935">
        <ele>136.6</ele>
        <time>2024-04-07T17:13:43.085Z</time>
      </trkpt>
      <trkpt lat="43.6461" lon="3.74952">
        <ele>136.4</ele>
        <time>2024-04-07T17:13:45.085Z</time>
      </trkpt>
      <trkpt lat="43.64614" lon="3.74961">
        <ele>136.4</ele>
        <time>2024-04-07T17:13:46.085Z</time>
      </trkpt>
      <trkpt lat="43.64617" lon="3.74967">
        <ele>136.4</ele>
        <time>2024-04-07T17:13:47.085Z</time>
      </trkpt>
      <trkpt lat="43.64619" lon="3.74972">
        <ele>136.4</ele>
        <time>2024-04-07T17:13:48.085Z</time>
      </trkpt>
      <trkpt lat="43.64622" lon="3.74978">
        <ele>136.4</ele>
        <time>2024-04-07T17:13:49.085Z</time>
      </trkpt>
      <trkpt lat="43.64623" lon="3.74986">
        <ele>136.6</ele>
        <time>2024-04-07T17:13:50.085Z</time>
      </trkpt>
      <trkpt lat="43.64626" lon="3.74991">
        <ele>136.6</ele>
        <time>2024-04-07T17:13:52.085Z</time>
      </trkpt>
      <trkpt lat="43.64629" lon="3.75004">
        <ele>136.8</ele>
        <time>2024-04-07T17:13:53.085Z</time>
      </trkpt>
      <trkpt lat="43.64629" lon="3.75012">
        <ele>137</ele>
        <time>2024-04-07T17:13:54.085Z</time>
      </trkpt>
      <trkpt lat="43.6463" lon="3.75019">
        <ele>137.1</ele>
        <time>2024-04-07T17:13:55.085Z</time>
      </trkpt>
      <trkpt lat="43.64632" lon="3.75023">
        <ele>136.9</ele>
        <time>2024-04-07T17:13:56.085Z</time>
      </trkpt>
      <trkpt lat="43.64636" lon="3.75033">
        <ele>136.8</ele>
        <time>2024-04-07T17:13:58.085Z</time>
      </trkpt>
      <trkpt lat="43.64639" lon="3.75039">
        <ele>136.8</ele>
        <time>2024-04-07T17:13:59.085Z</time>
      </trkpt>
      <trkpt lat="43.64642" lon="3.75043">
        <ele>136.9</ele>
        <time>2024-04-07T17:14:00.085Z</time>
      </trkpt>
      <trkpt lat="43.6465" lon="3.75047">
        <ele>136.7</ele>
        <time>2024-04-07T17:14:02.085Z</time>
      </trkpt>
      <trkpt lat="43.64658" lon="3.75046">
        <ele>136.2</ele>
        <time>2024-04-07T17:14:04.085Z</time>
      </trkpt>
      <trkpt lat="43.64661" lon="3.75046">
        <ele>136</ele>
        <time>2024-04-07T17:14:05.085Z</time>
      </trkpt>
      <trkpt lat="43.64665" lon="3.75049">
        <ele>135.9</ele>
        <time>2024-04-07T17:14:06.085Z</time>
      </trkpt>
      <trkpt lat="43.64668" lon="3.75052">
        <ele>135.7</ele>
        <time>2024-04-07T17:14:07.085Z</time>
      </trkpt>
      <trkpt lat="43.6467" lon="3.75056">
        <ele>135.5</ele>
        <time>2024-04-07T17:14:08.085Z</time>
      </trkpt>
      <trkpt lat="43.64673" lon="3.75061">
        <ele>134.9</ele>
        <time>2024-04-07T17:14:09.085Z</time>
      </trkpt>
      <trkpt lat="43.64675" lon="3.75066">
        <ele>134.5</ele>
        <time>2024-04-07T17:14:10.085Z</time>
      </trkpt>
      <trkpt lat="43.64678" lon="3.75071">
        <ele>134</ele>
        <time>2024-04-07T17:14:11.085Z</time>
      </trkpt>
      <trkpt lat="43.64682" lon="3.75077">
        <ele>133.4</ele>
        <time>2024-04-07T17:14:12.085Z</time>
      </trkpt>
      <trkpt lat="43.64687" lon="3.75083">
        <ele>132.8</ele>
        <time>2024-04-07T17:14:13.085Z</time>
      </trkpt>
      <trkpt lat="43.64691" lon="3.7509">
        <ele>132.2</ele>
        <time>2024-04-07T17:14:14.085Z</time>
      </trkpt>
      <trkpt lat="43.64696" lon="3.75097">
        <ele>131.4</ele>
        <time>2024-04-07T17:14:15.085Z</time>
      </trkpt>
      <trkpt lat="43.64701" lon="3.75104">
        <ele>130.8</ele>
        <time>2024-04-07T17:14:16.085Z</time>
      </trkpt>
      <trkpt lat="43.64706" lon="3.75112">
        <ele>130.1</ele>
        <time>2024-04-07T17:14:17.085Z</time>
      </trkpt>
      <trkpt lat="43.64711" lon="3.7512">
        <ele>129.5</ele>
        <time>2024-04-07T17:14:18.085Z</time>
      </trkpt>
      <trkpt lat="43.64718" lon="3.7513">
        <ele>128.6</ele>
        <time>2024-04-07T17:14:19.085Z</time>
      </trkpt>
      <trkpt lat="43.64723" lon="3.7514">
        <ele>127.9</ele>
        <time>2024-04-07T17:14:20.085Z</time>
      </trkpt>
      <trkpt lat="43.64729" lon="3.75148">
        <ele>126.9</ele>
        <time>2024-04-07T17:14:21.085Z</time>
      </trkpt>
      <trkpt lat="43.64733" lon="3.75155">
        <ele>126.3</ele>
        <time>2024-04-07T17:14:22.085Z</time>
      </trkpt>
      <trkpt lat="43.64738" lon="3.75164">
        <ele>125.6</ele>
        <time>2024-04-07T17:14:23.085Z</time>
      </trkpt>
      <trkpt lat="43.64742" lon="3.75171">
        <ele>125.1</ele>
        <time>2024-04-07T17:14:24.085Z</time>
      </trkpt>
      <trkpt lat="43.6475" lon="3.75185">
        <ele>123.7</ele>
        <time>2024-04-07T17:14:26.085Z</time>
      </trkpt>
      <trkpt lat="43.64756" lon="3.75193">
        <ele>123.1</ele>
        <time>2024-04-07T17:14:28.085Z</time>
      </trkpt>
      <trkpt lat="43.64758" lon="3.75197">
        <ele>122.9</ele>
        <time>2024-04-07T17:14:29.085Z</time>
      </trkpt>
      <trkpt lat="43.64758" lon="3.75201">
        <ele>122.8</ele>
        <time>2024-04-07T17:14:30.085Z</time>
      </trkpt>
      <trkpt lat="43.64757" lon="3.75202">
        <ele>122.7</ele>
        <time>2024-04-07T17:14:31.085Z</time>
      </trkpt>
      <trkpt lat="43.64755" lon="3.75203">
        <ele>122.7</ele>
        <time>2024-04-07T17:14:32.085Z</time>
      </trkpt>
      <trkpt lat="43.64753" lon="3.75207">
        <ele>122.5</ele>
        <time>2024-04-07T17:14:34.085Z</time>
      </trkpt>
      <trkpt lat="43.64749" lon="3.75211">
        <ele>122.6</ele>
        <time>2024-04-07T17:14:35.085Z</time>
      </trkpt>
      <trkpt lat="43.64742" lon="3.75221">
        <ele>123.5</ele>
        <time>2024-04-07T17:14:36.085Z</time>
      </trkpt>
      <trkpt lat="43.64744" lon="3.75227">
        <ele>123</ele>
        <time>2024-04-07T17:14:38.085Z</time>
      </trkpt>
      <trkpt lat="43.64749" lon="3.7524">
        <ele>122.2</ele>
        <time>2024-04-07T17:14:39.085Z</time>
      </trkpt>
      <trkpt lat="43.64749" lon="3.75246">
        <ele>122.1</ele>
        <time>2024-04-07T17:14:40.085Z</time>
      </trkpt>
      <trkpt lat="43.64751" lon="3.75253">
        <ele>122</ele>
        <time>2024-04-07T17:14:41.085Z</time>
      </trkpt>
      <trkpt lat="43.64752" lon="3.75259">
        <ele>121.9</ele>
        <time>2024-04-07T17:14:42.085Z</time>
      </trkpt>
      <trkpt lat="43.64753" lon="3.75264">
        <ele>121.9</ele>
        <time>2024-04-07T17:14:43.085Z</time>
      </trkpt>
      <trkpt lat="43.64756" lon="3.7527">
        <ele>121.8</ele>
        <time>2024-04-07T17:14:44.085Z</time>
      </trkpt>
      <trkpt lat="43.6476" lon="3.75274">
        <ele>121.6</ele>
        <time>2024-04-07T17:14:45.085Z</time>
      </trkpt>
      <trkpt lat="43.64764" lon="3.75278">
        <ele>121.5</ele>
        <time>2024-04-07T17:14:46.085Z</time>
      </trkpt>
      <trkpt lat="43.64772" lon="3.75285">
        <ele>121.6</ele>
        <time>2024-04-07T17:14:48.085Z</time>
      </trkpt>
      <trkpt lat="43.64776" lon="3.7529">
        <ele>121.6</ele>
        <time>2024-04-07T17:14:49.085Z</time>
      </trkpt>
      <trkpt lat="43.64781" lon="3.75292">
        <ele>121.2</ele>
        <time>2024-04-07T17:14:50.085Z</time>
      </trkpt>
      <trkpt lat="43.64786" lon="3.75296">
        <ele>120.9</ele>
        <time>2024-04-07T17:14:51.085Z</time>
      </trkpt>
      <trkpt lat="43.64792" lon="3.75299">
        <ele>120.3</ele>
        <time>2024-04-07T17:14:52.085Z</time>
      </trkpt>
      <trkpt lat="43.64798" lon="3.75302">
        <ele>119.8</ele>
        <time>2024-04-07T17:14:53.085Z</time>
      </trkpt>
      <trkpt lat="43.64803" lon="3.75307">
        <ele>119.3</ele>
        <time>2024-04-07T17:14:54.085Z</time>
      </trkpt>
      <trkpt lat="43.64807" lon="3.75312">
        <ele>118.9</ele>
        <time>2024-04-07T17:14:55.085Z</time>
      </trkpt>
      <trkpt lat="43.64811" lon="3.75317">
        <ele>118.7</ele>
        <time>2024-04-07T17:14:56.085Z</time>
      </trkpt>
      <trkpt lat="43.64816" lon="3.75319">
        <ele>118.4</ele>
        <time>2024-04-07T17:14:57.085Z</time>
      </trkpt>
      <trkpt lat="43.6482" lon="3.75325">
        <ele>118.1</ele>
        <time>2024-04-07T17:14:58.085Z</time>
      </trkpt>
      <trkpt lat="43.64824" lon="3.75331">
        <ele>117.7</ele>
        <time>2024-04-07T17:14:59.085Z</time>
      </trkpt>
      <trkpt lat="43.64829" lon="3.75335">
        <ele>117.4</ele>
        <time>2024-04-07T17:15:00.085Z</time>
      </trkpt>
      <trkpt lat="43.64833" lon="3.7534">
        <ele>117.3</ele>
        <time>2024-04-07T17:15:01.085Z</time>
      </trkpt>
      <trkpt lat="43.64835" lon="3.75345">
        <ele>117.3</ele>
        <time>2024-04-07T17:15:02.085Z</time>
      </trkpt>
      <trkpt lat="43.6484" lon="3.75347">
        <ele>117.1</ele>
        <time>2024-04-07T17:15:03.085Z</time>
      </trkpt>
      <trkpt lat="43.64844" lon="3.75349">
        <ele>117</ele>
        <time>2024-04-07T17:15:04.085Z</time>
      </trkpt>
      <trkpt lat="43.64848" lon="3.75353">
        <ele>116.8</ele>
        <time>2024-04-07T17:15:05.085Z</time>
      </trkpt>
      <trkpt lat="43.64852" lon="3.75358">
        <ele>116.6</ele>
        <time>2024-04-07T17:15:06.085Z</time>
      </trkpt>
      <trkpt lat="43.64858" lon="3.75363">
        <ele>116.3</ele>
        <time>2024-04-07T17:15:07.085Z</time>
      </trkpt>
      <trkpt lat="43.64865" lon="3.75367">
        <ele>115.9</ele>
        <time>2024-04-07T17:15:08.085Z</time>
      </trkpt>
      <trkpt lat="43.64871" lon="3.75372">
        <ele>115.5</ele>
        <time>2024-04-07T17:15:09.085Z</time>
      </trkpt>
      <trkpt lat="43.64876" lon="3.75376">
        <ele>115.2</ele>
        <time>2024-04-07T17:15:10.085Z</time>
      </trkpt>
      <trkpt lat="43.64879" lon="3.75381">
        <ele>115</ele>
        <time>2024-04-07T17:15:12.085Z</time>
      </trkpt>
      <trkpt lat="43.64881" lon="3.75382">
        <ele>114.8</ele>
        <time>2024-04-07T17:15:13.085Z</time>
      </trkpt>
      <trkpt lat="43.64884" lon="3.75385">
        <ele>114.5</ele>
        <time>2024-04-07T17:15:14.085Z</time>
      </trkpt>
      <trkpt lat="43.64885" lon="3.75386">
        <ele>114.4</ele>
        <time>2024-04-07T17:15:15.085Z</time>
      </trkpt>
      <trkpt lat="43.64887" lon="3.75389">
        <ele>114.2</ele>
        <time>2024-04-07T17:15:16.085Z</time>
      </trkpt>
      <trkpt lat="43.6489" lon="3.75398">
        <ele>114.3</ele>
        <time>2024-04-07T17:15:18.085Z</time>
      </trkpt>
      <trkpt lat="43.6489" lon="3.75404">
        <ele>114.5</ele>
        <time>2024-04-07T17:15:19.085Z</time>
      </trkpt>
      <trkpt lat="43.64889" lon="3.75408">
        <ele>114.7</ele>
        <time>2024-04-07T17:15:20.085Z</time>
      </trkpt>
      <trkpt lat="43.64887" lon="3.75411">
        <ele>115</ele>
        <time>2024-04-07T17:15:21.085Z</time>
      </trkpt>
      <trkpt lat="43.64885" lon="3.75416">
        <ele>115.4</ele>
        <time>2024-04-07T17:15:22.085Z</time>
      </trkpt>
      <trkpt lat="43.64883" lon="3.75419">
        <ele>115.7</ele>
        <time>2024-04-07T17:15:23.085Z</time>
      </trkpt>
      <trkpt lat="43.64884" lon="3.75424">
        <ele>115.7</ele>
        <time>2024-04-07T17:15:24.085Z</time>
      </trkpt>
      <trkpt lat="43.64885" lon="3.75426">
        <ele>115.6</ele>
        <time>2024-04-07T17:15:25.085Z</time>
      </trkpt>
      <trkpt lat="43.64887" lon="3.75429">
        <ele>115.3</ele>
        <time>2024-04-07T17:15:26.085Z</time>
      </trkpt>
      <trkpt lat="43.64888" lon="3.75433">
        <ele>115.2</ele>
        <time>2024-04-07T17:15:27.085Z</time>
      </trkpt>
      <trkpt lat="43.64889" lon="3.75437">
        <ele>115</ele>
        <time>2024-04-07T17:15:28.085Z</time>
      </trkpt>
      <trkpt lat="43.64889" lon="3.75442">
        <ele>115</ele>
        <time>2024-04-07T17:15:29.085Z</time>
      </trkpt>
      <trkpt lat="43.64889" lon="3.75444">
        <ele>115</ele>
        <time>2024-04-07T17:15:31.085Z</time>
      </trkpt>
      <trkpt lat="43.64889" lon="3.75447">
        <ele>115.2</ele>
        <time>2024-04-07T17:15:33.085Z</time>
      </trkpt>
      <trkpt lat="43.64889" lon="3.75449">
        <ele>115.3</ele>
        <time>2024-04-07T17:15:34.085Z</time>
      </trkpt>
      <trkpt lat="43.64888" lon="3.75451">
        <ele>115.7</ele>
        <time>2024-04-07T17:15:35.085Z</time>
      </trkpt>
      <trkpt lat="43.64888" lon="3.75454">
        <ele>115.9</ele>
        <time>2024-04-07T17:15:36.085Z</time>
      </trkpt>
      <trkpt lat="43.64887" lon="3.75456">
        <ele>116.2</ele>
        <time>2024-04-07T17:15:37.085Z</time>
      </trkpt>
      <trkpt lat="43.64887" lon="3.75457">
        <ele>116.3</ele>
        <time>2024-04-07T17:15:38.085Z</time>
      </trkpt>
      <trkpt lat="43.64886" lon="3.75459">
        <ele>116.7</ele>
        <time>2024-04-07T17:15:39.085Z</time>
      </trkpt>
      <trkpt lat="43.64885" lon="3.75461">
        <ele>117</ele>
        <time>2024-04-07T17:15:40.085Z</time>
      </trkpt>
      <trkpt lat="43.64885" lon="3.75463">
        <ele>117.2</ele>
        <time>2024-04-07T17:15:41.085Z</time>
      </trkpt>
      <trkpt lat="43.64884" lon="3.75468">
        <ele>117.8</ele>
        <time>2024-04-07T17:15:43.085Z</time>
      </trkpt>
      <trkpt lat="43.64883" lon="3.7547">
        <ele>118.1</ele>
        <time>2024-04-07T17:15:44.085Z</time>
      </trkpt>
      <trkpt lat="43.64882" lon="3.75471">
        <ele>118.4</ele>
        <time>2024-04-07T17:15:45.085Z</time>
      </trkpt>
      <trkpt lat="43.64881" lon="3.75473">
        <ele>118.7</ele>
        <time>2024-04-07T17:15:46.085Z</time>
      </trkpt>
      <trkpt lat="43.6488" lon="3.75475">
        <ele>118.8</ele>
        <time>2024-04-07T17:15:47.085Z</time>
      </trkpt>
      <trkpt lat="43.64879" lon="3.75476">
        <ele>119</ele>
        <time>2024-04-07T17:15:48.085Z</time>
      </trkpt>
      <trkpt lat="43.64878" lon="3.75477">
        <ele>119.2</ele>
        <time>2024-04-07T17:15:49.085Z</time>
      </trkpt>
      <trkpt lat="43.64876" lon="3.75478">
        <ele>119.6</ele>
        <time>2024-04-07T17:15:50.085Z</time>
      </trkpt>
      <trkpt lat="43.64873" lon="3.75479">
        <ele>120.2</ele>
        <time>2024-04-07T17:15:51.085Z</time>
      </trkpt>
      <trkpt lat="43.64872" lon="3.7548">
        <ele>120.4</ele>
        <time>2024-04-07T17:15:52.085Z</time>
      </trkpt>
      <trkpt lat="43.64869" lon="3.75481">
        <ele>121</ele>
        <time>2024-04-07T17:15:54.085Z</time>
      </trkpt>
      <trkpt lat="43.64866" lon="3.75481">
        <ele>121.6</ele>
        <time>2024-04-07T17:15:55.085Z</time>
      </trkpt>
      <trkpt lat="43.64863" lon="3.75481">
        <ele>122.3</ele>
        <time>2024-04-07T17:15:56.085Z</time>
      </trkpt>
      <trkpt lat="43.64862" lon="3.75481">
        <ele>122.5</ele>
        <time>2024-04-07T17:15:57.085Z</time>
      </trkpt>
      <trkpt lat="43.6486" lon="3.75481">
        <ele>122.9</ele>
        <time>2024-04-07T17:15:58.085Z</time>
      </trkpt>
      <trkpt lat="43.64859" lon="3.7548">
        <ele>123.2</ele>
        <time>2024-04-07T17:15:59.085Z</time>
      </trkpt>
      <trkpt lat="43.64859" lon="3.7548">
        <ele>123.2</ele>
        <time>2024-04-07T17:16:00.085Z</time>
      </trkpt>
      <trkpt lat="43.64856" lon="3.7548">
        <ele>123.8</ele>
        <time>2024-04-07T17:16:01.085Z</time>
      </trkpt>
      <trkpt lat="43.64855" lon="3.7548">
        <ele>124</ele>
        <time>2024-04-07T17:16:02.085Z</time>
      </trkpt>
      <trkpt lat="43.64854" lon="3.7548">
        <ele>124.2</ele>
        <time>2024-04-07T17:16:03.085Z</time>
      </trkpt>
      <trkpt lat="43.64852" lon="3.75481">
        <ele>124.6</ele>
        <time>2024-04-07T17:16:04.085Z</time>
      </trkpt>
      <trkpt lat="43.64852" lon="3.75481">
        <ele>124.6</ele>
        <time>2024-04-07T17:16:07.085Z</time>
      </trkpt>
      <trkpt lat="43.64851" lon="3.75481">
        <ele>124.8</ele>
        <time>2024-04-07T17:16:08.085Z</time>
      </trkpt>
      <trkpt lat="43.64851" lon="3.75481">
        <ele>124.8</ele>
        <time>2024-04-07T17:16:09.085Z</time>
      </trkpt>
      <trkpt lat="43.64851" lon="3.75481">
        <ele>124.8</ele>
        <time>2024-04-07T17:16:10.085Z</time>
      </trkpt>
      <trkpt lat="43.64852" lon="3.75481">
        <ele>124.6</ele>
        <time>2024-04-07T17:16:11.085Z</time>
      </trkpt>
      <trkpt lat="43.64852" lon="3.75481">
        <ele>124.6</ele>
        <time>2024-04-07T17:16:14.085Z</time>
      </trkpt>
      <trkpt lat="43.64851" lon="3.75481">
        <ele>124.8</ele>
        <time>2024-04-07T17:16:15.085Z</time>
      </trkpt>
      <trkpt lat="43.6485" lon="3.75481">
        <ele>125.1</ele>
        <time>2024-04-07T17:16:16.085Z</time>
      </trkpt>
      <trkpt lat="43.6485" lon="3.75482">
        <ele>125.1</ele>
        <time>2024-04-07T17:16:17.085Z</time>
      </trkpt>
      <trkpt lat="43.64831" lon="3.75495">
        <ele>129.9</ele>
        <time>2024-04-07T17:16:39.085Z</time>
      </trkpt>
      <trkpt lat="43.6483" lon="3.75496">
        <ele>130.1</ele>
        <time>2024-04-07T17:16:40.085Z</time>
      </trkpt>
      <trkpt lat="43.64829" lon="3.75497">
        <ele>130.3</ele>
        <time>2024-04-07T17:16:41.085Z</time>
      </trkpt>
      <trkpt lat="43.64823" lon="3.75507">
        <ele>131.5</ele>
        <time>2024-04-07T17:16:50.085Z</time>
      </trkpt>
      <trkpt lat="43.6482" lon="3.75505">
        <ele>130.8</ele>
        <time>2024-04-07T17:16:51.802Z</time>
      </trkpt>
      <trkpt lat="43.64814" lon="3.75511">
        <ele>132</ele>
        <time>2024-04-07T17:16:55.358Z</time>
      </trkpt>
      <trkpt lat="43.64787" lon="3.75478">
        <ele>133.3</ele>
        <time>2024-04-07T17:17:12.718Z</time>
      </trkpt>
      <trkpt lat="43.6477" lon="3.75461">
        <ele>134.5</ele>
        <time>2024-04-07T17:17:23.276Z</time>
      </trkpt>
      <trkpt lat="43.64756" lon="3.75452">
        <ele>136.5</ele>
        <time>2024-04-07T17:17:30.491Z</time>
      </trkpt>
      <trkpt lat="43.64748" lon="3.75446">
        <ele>136.5</ele>
        <time>2024-04-07T17:17:34.970Z</time>
      </trkpt>
      <trkpt lat="43.64687" lon="3.75425">
        <ele>139.8</ele>
        <time>2024-04-07T17:18:05.295Z</time>
      </trkpt>
      <trkpt lat="43.64685" lon="3.75421">
        <ele>139.8</ele>
        <time>2024-04-07T17:18:06.995Z</time>
      </trkpt>
      <trkpt lat="43.64685" lon="3.75422">
        <ele>139.9</ele>
        <time>2024-04-07T17:18:08.995Z</time>
      </trkpt>
      <trkpt lat="43.64683" lon="3.75423">
        <ele>140.1</ele>
        <time>2024-04-07T17:18:09.995Z</time>
      </trkpt>
      <trkpt lat="43.64681" lon="3.75424">
        <ele>140.2</ele>
        <time>2024-04-07T17:18:10.995Z</time>
      </trkpt>
      <trkpt lat="43.64679" lon="3.75424">
        <ele>140.4</ele>
        <time>2024-04-07T17:18:11.995Z</time>
      </trkpt>
      <trkpt lat="43.64678" lon="3.75425">
        <ele>140.5</ele>
        <time>2024-04-07T17:18:12.995Z</time>
      </trkpt>
      <trkpt lat="43.64677" lon="3.75426">
        <ele>140.6</ele>
        <time>2024-04-07T17:18:13.995Z</time>
      </trkpt>
      <trkpt lat="43.64676" lon="3.75426">
        <ele>140.7</ele>
        <time>2024-04-07T17:18:14.995Z</time>
      </trkpt>
      <trkpt lat="43.64676" lon="3.75427">
        <ele>140.7</ele>
        <time>2024-04-07T17:18:15.995Z</time>
      </trkpt>
      <trkpt lat="43.64673" lon="3.75428">
        <ele>141</ele>
        <time>2024-04-07T17:18:16.995Z</time>
      </trkpt>
      <trkpt lat="43.64672" lon="3.75427">
        <ele>141</ele>
        <time>2024-04-07T17:18:17.995Z</time>
      </trkpt>
      <trkpt lat="43.64669" lon="3.75427">
        <ele>141.2</ele>
        <time>2024-04-07T17:18:18.995Z</time>
      </trkpt>
      <trkpt lat="43.64667" lon="3.75427">
        <ele>141.3</ele>
        <time>2024-04-07T17:18:19.995Z</time>
      </trkpt>
      <trkpt lat="43.64665" lon="3.75428">
        <ele>141.4</ele>
        <time>2024-04-07T17:18:20.995Z</time>
      </trkpt>
      <trkpt lat="43.64663" lon="3.75429">
        <ele>141.5</ele>
        <time>2024-04-07T17:18:22.995Z</time>
      </trkpt>
      <trkpt lat="43.64662" lon="3.75429">
        <ele>141.5</ele>
        <time>2024-04-07T17:18:23.995Z</time>
      </trkpt>
      <trkpt lat="43.64658" lon="3.75432">
        <ele>141.7</ele>
        <time>2024-04-07T17:18:24.995Z</time>
      </trkpt>
      <trkpt lat="43.64655" lon="3.75436">
        <ele>142</ele>
        <time>2024-04-07T17:18:26.995Z</time>
      </trkpt>
      <trkpt lat="43.64653" lon="3.75437">
        <ele>142.1</ele>
        <time>2024-04-07T17:18:27.995Z</time>
      </trkpt>
      <trkpt lat="43.6465" lon="3.75439">
        <ele>142.3</ele>
        <time>2024-04-07T17:18:29.995Z</time>
      </trkpt>
      <trkpt lat="43.64646" lon="3.75441">
        <ele>142.5</ele>
        <time>2024-04-07T17:18:31.995Z</time>
      </trkpt>
      <trkpt lat="43.64643" lon="3.75442">
        <ele>142.7</ele>
        <time>2024-04-07T17:18:32.995Z</time>
      </trkpt>
      <trkpt lat="43.6464" lon="3.75445">
        <ele>143</ele>
        <time>2024-04-07T17:18:34.995Z</time>
      </trkpt>
      <trkpt lat="43.64638" lon="3.75446">
        <ele>143.1</ele>
        <time>2024-04-07T17:18:35.995Z</time>
      </trkpt>
      <trkpt lat="43.64635" lon="3.75447">
        <ele>143.3</ele>
        <time>2024-04-07T17:18:36.995Z</time>
      </trkpt>
      <trkpt lat="43.64634" lon="3.75447">
        <ele>143.4</ele>
        <time>2024-04-07T17:18:37.995Z</time>
      </trkpt>
      <trkpt lat="43.64631" lon="3.75447">
        <ele>143.5</ele>
        <time>2024-04-07T17:18:39.995Z</time>
      </trkpt>
      <trkpt lat="43.6463" lon="3.75447">
        <ele>143.5</ele>
        <time>2024-04-07T17:18:40.995Z</time>
      </trkpt>
      <trkpt lat="43.64628" lon="3.75448">
        <ele>143.6</ele>
        <time>2024-04-07T17:18:41.995Z</time>
      </trkpt>
      <trkpt lat="43.64628" lon="3.75448">
        <ele>143.6</ele>
        <time>2024-04-07T17:18:42.995Z</time>
      </trkpt>
      <trkpt lat="43.64627" lon="3.75448">
        <ele>143.7</ele>
        <time>2024-04-07T17:18:43.995Z</time>
      </trkpt>
      <trkpt lat="43.64626" lon="3.75447">
        <ele>143.6</ele>
        <time>2024-04-07T17:18:44.995Z</time>
      </trkpt>
      <trkpt lat="43.64623" lon="3.75449">
        <ele>143.9</ele>
        <time>2024-04-07T17:18:45.995Z</time>
      </trkpt>
      <trkpt lat="43.64622" lon="3.75449">
        <ele>143.9</ele>
        <time>2024-04-07T17:18:46.995Z</time>
      </trkpt>
      <trkpt lat="43.64619" lon="3.7545">
        <ele>144.1</ele>
        <time>2024-04-07T17:18:47.995Z</time>
      </trkpt>
      <trkpt lat="43.64618" lon="3.7545">
        <ele>144.2</ele>
        <time>2024-04-07T17:18:48.995Z</time>
      </trkpt>
      <trkpt lat="43.64616" lon="3.75451">
        <ele>144.3</ele>
        <time>2024-04-07T17:18:49.995Z</time>
      </trkpt>
      <trkpt lat="43.64616" lon="3.75455">
        <ele>144.6</ele>
        <time>2024-04-07T17:18:51.995Z</time>
      </trkpt>
      <trkpt lat="43.64615" lon="3.75457">
        <ele>144.8</ele>
        <time>2024-04-07T17:18:52.995Z</time>
      </trkpt>
      <trkpt lat="43.64614" lon="3.75459">
        <ele>144.9</ele>
        <time>2024-04-07T17:18:53.995Z</time>
      </trkpt>
      <trkpt lat="43.64611" lon="3.75462">
        <ele>145.3</ele>
        <time>2024-04-07T17:18:55.995Z</time>
      </trkpt>
      <trkpt lat="43.6461" lon="3.75463">
        <ele>145.3</ele>
        <time>2024-04-07T17:18:56.995Z</time>
      </trkpt>
      <trkpt lat="43.6461" lon="3.75463">
        <ele>145.3</ele>
        <time>2024-04-07T17:18:57.995Z</time>
      </trkpt>
      <trkpt lat="43.64609" lon="3.75465">
        <ele>145.5</ele>
        <time>2024-04-07T17:18:58.995Z</time>
      </trkpt>
      <trkpt lat="43.64607" lon="3.75466">
        <ele>145.6</ele>
        <time>2024-04-07T17:18:59.995Z</time>
      </trkpt>
      <trkpt lat="43.64606" lon="3.75466">
        <ele>145.6</ele>
        <time>2024-04-07T17:19:00.995Z</time>
      </trkpt>
      <trkpt lat="43.64606" lon="3.75466">
        <ele>145.6</ele>
        <time>2024-04-07T17:19:01.995Z</time>
      </trkpt>
      <trkpt lat="43.64604" lon="3.75467">
        <ele>145.7</ele>
        <time>2024-04-07T17:19:02.995Z</time>
      </trkpt>
      <trkpt lat="43.64602" lon="3.75468">
        <ele>145.7</ele>
        <time>2024-04-07T17:19:03.995Z</time>
      </trkpt>
      <trkpt lat="43.64602" lon="3.7547">
        <ele>145.9</ele>
        <time>2024-04-07T17:19:04.995Z</time>
      </trkpt>
      <trkpt lat="43.64597" lon="3.75474">
        <ele>146.1</ele>
        <time>2024-04-07T17:19:08.995Z</time>
      </trkpt>
      <trkpt lat="43.64595" lon="3.75474">
        <ele>146.1</ele>
        <time>2024-04-07T17:19:10.995Z</time>
      </trkpt>
      <trkpt lat="43.64594" lon="3.75476">
        <ele>146.1</ele>
        <time>2024-04-07T17:19:11.995Z</time>
      </trkpt>
      <trkpt lat="43.64593" lon="3.75477">
        <ele>146.2</ele>
        <time>2024-04-07T17:19:12.995Z</time>
      </trkpt>
      <trkpt lat="43.64592" lon="3.75478">
        <ele>146.2</ele>
        <time>2024-04-07T17:19:13.995Z</time>
      </trkpt>
      <trkpt lat="43.6459" lon="3.7548">
        <ele>146.3</ele>
        <time>2024-04-07T17:19:14.995Z</time>
      </trkpt>
      <trkpt lat="43.64588" lon="3.75481">
        <ele>146.3</ele>
        <time>2024-04-07T17:19:15.995Z</time>
      </trkpt>
      <trkpt lat="43.64585" lon="3.75482">
        <ele>146.4</ele>
        <time>2024-04-07T17:19:16.995Z</time>
      </trkpt>
      <trkpt lat="43.64583" lon="3.75484">
        <ele>146.4</ele>
        <time>2024-04-07T17:19:17.995Z</time>
      </trkpt>
      <trkpt lat="43.6458" lon="3.75485">
        <ele>146.5</ele>
        <time>2024-04-07T17:19:19.995Z</time>
      </trkpt>
      <trkpt lat="43.64578" lon="3.75487">
        <ele>146.5</ele>
        <time>2024-04-07T17:19:20.995Z</time>
      </trkpt>
      <trkpt lat="43.64575" lon="3.75489">
        <ele>146.5</ele>
        <time>2024-04-07T17:19:21.995Z</time>
      </trkpt>
      <trkpt lat="43.64574" lon="3.7549">
        <ele>146.5</ele>
        <time>2024-04-07T17:19:22.995Z</time>
      </trkpt>
      <trkpt lat="43.64572" lon="3.75493">
        <ele>146.5</ele>
        <time>2024-04-07T17:19:24.995Z</time>
      </trkpt>
      <trkpt lat="43.64571" lon="3.75494">
        <ele>146.5</ele>
        <time>2024-04-07T17:19:25.995Z</time>
      </trkpt>
      <trkpt lat="43.6457" lon="3.75496">
        <ele>146.5</ele>
        <time>2024-04-07T17:19:26.995Z</time>
      </trkpt>
      <trkpt lat="43.64569" lon="3.75497">
        <ele>146.5</ele>
        <time>2024-04-07T17:19:27.995Z</time>
      </trkpt>
      <trkpt lat="43.64568" lon="3.75499">
        <ele>146.5</ele>
        <time>2024-04-07T17:19:28.995Z</time>
      </trkpt>
      <trkpt lat="43.64567" lon="3.75501">
        <ele>146.4</ele>
        <time>2024-04-07T17:19:30.995Z</time>
      </trkpt>
      <trkpt lat="43.64564" lon="3.75503">
        <ele>146.3</ele>
        <time>2024-04-07T17:19:31.995Z</time>
      </trkpt>
      <trkpt lat="43.64563" lon="3.75504">
        <ele>146.3</ele>
        <time>2024-04-07T17:19:32.995Z</time>
      </trkpt>
      <trkpt lat="43.64561" lon="3.75505">
        <ele>146.2</ele>
        <time>2024-04-07T17:19:33.995Z</time>
      </trkpt>
      <trkpt lat="43.6456" lon="3.75506">
        <ele>146.2</ele>
        <time>2024-04-07T17:19:34.995Z</time>
      </trkpt>
      <trkpt lat="43.64556" lon="3.75509">
        <ele>146</ele>
        <time>2024-04-07T17:19:36.995Z</time>
      </trkpt>
      <trkpt lat="43.64553" lon="3.75511">
        <ele>146</ele>
        <time>2024-04-07T17:19:37.995Z</time>
      </trkpt>
      <trkpt lat="43.6455" lon="3.75514">
        <ele>145.9</ele>
        <time>2024-04-07T17:19:39.995Z</time>
      </trkpt>
      <trkpt lat="43.6455" lon="3.75515">
        <ele>145.9</ele>
        <time>2024-04-07T17:19:40.995Z</time>
      </trkpt>
      <trkpt lat="43.64549" lon="3.75518">
        <ele>145.8</ele>
        <time>2024-04-07T17:19:41.995Z</time>
      </trkpt>
      <trkpt lat="43.64548" lon="3.75519">
        <ele>145.8</ele>
        <time>2024-04-07T17:19:42.995Z</time>
      </trkpt>
      <trkpt lat="43.64547" lon="3.7552">
        <ele>145.8</ele>
        <time>2024-04-07T17:19:43.995Z</time>
      </trkpt>
      <trkpt lat="43.64545" lon="3.75525">
        <ele>145.7</ele>
        <time>2024-04-07T17:19:45.995Z</time>
      </trkpt>
      <trkpt lat="43.64543" lon="3.75526">
        <ele>145.6</ele>
        <time>2024-04-07T17:19:46.995Z</time>
      </trkpt>
      <trkpt lat="43.6454" lon="3.75528">
        <ele>145.4</ele>
        <time>2024-04-07T17:19:47.995Z</time>
      </trkpt>
      <trkpt lat="43.64539" lon="3.75528">
        <ele>145.4</ele>
        <time>2024-04-07T17:19:48.995Z</time>
      </trkpt>
      <trkpt lat="43.64536" lon="3.7553">
        <ele>145.2</ele>
        <time>2024-04-07T17:19:49.995Z</time>
      </trkpt>
      <trkpt lat="43.64535" lon="3.7553">
        <ele>145.2</ele>
        <time>2024-04-07T17:19:50.995Z</time>
      </trkpt>
      <trkpt lat="43.64533" lon="3.75532">
        <ele>145</ele>
        <time>2024-04-07T17:19:51.995Z</time>
      </trkpt>
      <trkpt lat="43.64532" lon="3.75533">
        <ele>145</ele>
        <time>2024-04-07T17:19:52.995Z</time>
      </trkpt>
      <trkpt lat="43.64532" lon="3.75534">
        <ele>144.9</ele>
        <time>2024-04-07T17:19:53.995Z</time>
      </trkpt>
      <trkpt lat="43.64529" lon="3.75537">
        <ele>144.7</ele>
        <time>2024-04-07T17:19:55.995Z</time>
      </trkpt>
      <trkpt lat="43.64525" lon="3.75539">
        <ele>144.6</ele>
        <time>2024-04-07T17:19:56.995Z</time>
      </trkpt>
      <trkpt lat="43.64524" lon="3.7554">
        <ele>144.6</ele>
        <time>2024-04-07T17:19:57.995Z</time>
      </trkpt>
      <trkpt lat="43.64522" lon="3.75541">
        <ele>144.5</ele>
        <time>2024-04-07T17:19:58.995Z</time>
      </trkpt>
      <trkpt lat="43.64517" lon="3.75543">
        <ele>144.5</ele>
        <time>2024-04-07T17:20:00.995Z</time>
      </trkpt>
      <trkpt lat="43.64515" lon="3.75544">
        <ele>144.4</ele>
        <time>2024-04-07T17:20:01.995Z</time>
      </trkpt>
      <trkpt lat="43.64512" lon="3.75545">
        <ele>144.4</ele>
        <time>2024-04-07T17:20:02.995Z</time>
      </trkpt>
      <trkpt lat="43.64511" lon="3.75546">
        <ele>144.3</ele>
        <time>2024-04-07T17:20:03.995Z</time>
      </trkpt>
      <trkpt lat="43.64505" lon="3.75547">
        <ele>144.3</ele>
        <time>2024-04-07T17:20:05.995Z</time>
      </trkpt>
      <trkpt lat="43.64502" lon="3.75547">
        <ele>144.3</ele>
        <time>2024-04-07T17:20:06.995Z</time>
      </trkpt>
      <trkpt lat="43.64498" lon="3.75547">
        <ele>144.3</ele>
        <time>2024-04-07T17:20:08.995Z</time>
      </trkpt>
      <trkpt lat="43.64495" lon="3.75547">
        <ele>144.3</ele>
        <time>2024-04-07T17:20:09.995Z</time>
      </trkpt>
      <trkpt lat="43.64492" lon="3.75548">
        <ele>144.2</ele>
        <time>2024-04-07T17:20:11.995Z</time>
      </trkpt>
      <trkpt lat="43.64491" lon="3.75548">
        <ele>144.2</ele>
        <time>2024-04-07T17:20:12.995Z</time>
      </trkpt>
      <trkpt lat="43.64488" lon="3.75548">
        <ele>144.2</ele>
        <time>2024-04-07T17:20:13.995Z</time>
      </trkpt>
      <trkpt lat="43.64486" lon="3.75548">
        <ele>144.1</ele>
        <time>2024-04-07T17:20:14.995Z</time>
      </trkpt>
      <trkpt lat="43.64483" lon="3.7555">
        <ele>144.1</ele>
        <time>2024-04-07T17:20:16.995Z</time>
      </trkpt>
      <trkpt lat="43.6448" lon="3.7555">
        <ele>144.1</ele>
        <time>2024-04-07T17:20:17.995Z</time>
      </trkpt>
      <trkpt lat="43.64477" lon="3.75551">
        <ele>144</ele>
        <time>2024-04-07T17:20:19.995Z</time>
      </trkpt>
      <trkpt lat="43.64472" lon="3.75552">
        <ele>144</ele>
        <time>2024-04-07T17:20:21.995Z</time>
      </trkpt>
      <trkpt lat="43.64469" lon="3.75552">
        <ele>143.9</ele>
        <time>2024-04-07T17:20:22.995Z</time>
      </trkpt>
      <trkpt lat="43.64468" lon="3.75552">
        <ele>143.9</ele>
        <time>2024-04-07T17:20:23.995Z</time>
      </trkpt>
      <trkpt lat="43.64466" lon="3.75552">
        <ele>143.8</ele>
        <time>2024-04-07T17:20:25.995Z</time>
      </trkpt>
      <trkpt lat="43.64463" lon="3.75554">
        <ele>143.7</ele>
        <time>2024-04-07T17:20:26.995Z</time>
      </trkpt>
      <trkpt lat="43.64461" lon="3.75555">
        <ele>143.6</ele>
        <time>2024-04-07T17:20:27.995Z</time>
      </trkpt>
      <trkpt lat="43.64458" lon="3.75555">
        <ele>143.5</ele>
        <time>2024-04-07T17:20:28.995Z</time>
      </trkpt>
      <trkpt lat="43.64457" lon="3.75556">
        <ele>143.4</ele>
        <time>2024-04-07T17:20:29.995Z</time>
      </trkpt>
      <trkpt lat="43.64453" lon="3.75556">
        <ele>143.3</ele>
        <time>2024-04-07T17:20:30.995Z</time>
      </trkpt>
      <trkpt lat="43.64452" lon="3.75557">
        <ele>143.3</ele>
        <time>2024-04-07T17:20:31.995Z</time>
      </trkpt>
      <trkpt lat="43.64449" lon="3.75557">
        <ele>143.2</ele>
        <time>2024-04-07T17:20:32.995Z</time>
      </trkpt>
      <trkpt lat="43.64445" lon="3.75558">
        <ele>143</ele>
        <time>2024-04-07T17:20:33.995Z</time>
      </trkpt>
      <trkpt lat="43.64444" lon="3.75558">
        <ele>143</ele>
        <time>2024-04-07T17:20:34.995Z</time>
      </trkpt>
      <trkpt lat="43.64442" lon="3.75557">
        <ele>142.9</ele>
        <time>2024-04-07T17:20:35.995Z</time>
      </trkpt>
      <trkpt lat="43.64438" lon="3.75557">
        <ele>142.8</ele>
        <time>2024-04-07T17:20:37.995Z</time>
      </trkpt>
      <trkpt lat="43.64437" lon="3.75558">
        <ele>142.7</ele>
        <time>2024-04-07T17:20:38.995Z</time>
      </trkpt>
      <trkpt lat="43.64432" lon="3.7556">
        <ele>142.6</ele>
        <time>2024-04-07T17:20:40.995Z</time>
      </trkpt>
      <trkpt lat="43.64431" lon="3.7556">
        <ele>142.5</ele>
        <time>2024-04-07T17:20:41.995Z</time>
      </trkpt>
      <trkpt lat="43.6443" lon="3.7556">
        <ele>142.5</ele>
        <time>2024-04-07T17:20:42.995Z</time>
      </trkpt>
      <trkpt lat="43.64426" lon="3.75561">
        <ele>142.3</ele>
        <time>2024-04-07T17:20:43.995Z</time>
      </trkpt>
      <trkpt lat="43.64425" lon="3.75561">
        <ele>142.3</ele>
        <time>2024-04-07T17:20:44.995Z</time>
      </trkpt>
      <trkpt lat="43.64423" lon="3.75561">
        <ele>142.2</ele>
        <time>2024-04-07T17:20:45.995Z</time>
      </trkpt>
      <trkpt lat="43.64419" lon="3.75562">
        <ele>142.1</ele>
        <time>2024-04-07T17:20:47.995Z</time>
      </trkpt>
      <trkpt lat="43.64416" lon="3.75562">
        <ele>142</ele>
        <time>2024-04-07T17:20:48.995Z</time>
      </trkpt>
      <trkpt lat="43.64412" lon="3.75564">
        <ele>142</ele>
        <time>2024-04-07T17:20:49.995Z</time>
      </trkpt>
      <trkpt lat="43.64411" lon="3.75564">
        <ele>142</ele>
        <time>2024-04-07T17:20:50.995Z</time>
      </trkpt>
      <trkpt lat="43.64409" lon="3.75569">
        <ele>142</ele>
        <time>2024-04-07T17:20:52.995Z</time>
      </trkpt>
      <trkpt lat="43.6441" lon="3.75573">
        <ele>142</ele>
        <time>2024-04-07T17:20:53.995Z</time>
      </trkpt>
      <trkpt lat="43.6441" lon="3.75574">
        <ele>142</ele>
        <time>2024-04-07T17:20:54.995Z</time>
      </trkpt>
      <trkpt lat="43.64413" lon="3.75577">
        <ele>142</ele>
        <time>2024-04-07T17:20:55.995Z</time>
      </trkpt>
      <trkpt lat="43.64414" lon="3.75577">
        <ele>142</ele>
        <time>2024-04-07T17:20:56.995Z</time>
      </trkpt>
      <trkpt lat="43.64415" lon="3.75578">
        <ele>142</ele>
        <time>2024-04-07T17:20:57.995Z</time>
      </trkpt>
      <trkpt lat="43.64419" lon="3.7558">
        <ele>142.1</ele>
        <time>2024-04-07T17:20:59.995Z</time>
      </trkpt>
      <trkpt lat="43.64421" lon="3.75581">
        <ele>142.2</ele>
        <time>2024-04-07T17:21:00.995Z</time>
      </trkpt>
      <trkpt lat="43.64424" lon="3.75583">
        <ele>142.3</ele>
        <time>2024-04-07T17:21:01.995Z</time>
      </trkpt>
      <trkpt lat="43.64425" lon="3.75584">
        <ele>142.3</ele>
        <time>2024-04-07T17:21:02.995Z</time>
      </trkpt>
      <trkpt lat="43.64429" lon="3.75588">
        <ele>142.4</ele>
        <time>2024-04-07T17:21:04.995Z</time>
      </trkpt>
      <trkpt lat="43.64431" lon="3.7559">
        <ele>142.4</ele>
        <time>2024-04-07T17:21:05.995Z</time>
      </trkpt>
      <trkpt lat="43.64432" lon="3.75592">
        <ele>142.4</ele>
        <time>2024-04-07T17:21:07.995Z</time>
      </trkpt>
      <trkpt lat="43.64433" lon="3.75592">
        <ele>142.4</ele>
        <time>2024-04-07T17:21:08.995Z</time>
      </trkpt>
      <trkpt lat="43.64434" lon="3.75592">
        <ele>142.4</ele>
        <time>2024-04-07T17:21:09.995Z</time>
      </trkpt>
      <trkpt lat="43.64437" lon="3.75594">
        <ele>142.5</ele>
        <time>2024-04-07T17:21:11.995Z</time>
      </trkpt>
      <trkpt lat="43.64438" lon="3.75595">
        <ele>142.4</ele>
        <time>2024-04-07T17:21:12.995Z</time>
      </trkpt>
      <trkpt lat="43.6444" lon="3.75597">
        <ele>142.4</ele>
        <time>2024-04-07T17:21:13.995Z</time>
      </trkpt>
      <trkpt lat="43.64442" lon="3.75599">
        <ele>142.4</ele>
        <time>2024-04-07T17:21:15.995Z</time>
      </trkpt>
      <trkpt lat="43.64443" lon="3.756">
        <ele>142.4</ele>
        <time>2024-04-07T17:21:16.995Z</time>
      </trkpt>
      <trkpt lat="43.64445" lon="3.75601">
        <ele>142.4</ele>
        <time>2024-04-07T17:21:17.995Z</time>
      </trkpt>
      <trkpt lat="43.64446" lon="3.75603">
        <ele>142.3</ele>
        <time>2024-04-07T17:21:18.995Z</time>
      </trkpt>
      <trkpt lat="43.64447" lon="3.75605">
        <ele>142.2</ele>
        <time>2024-04-07T17:21:19.995Z</time>
      </trkpt>
      <trkpt lat="43.64449" lon="3.75606">
        <ele>142.2</ele>
        <time>2024-04-07T17:21:20.995Z</time>
      </trkpt>
      <trkpt lat="43.64451" lon="3.75607">
        <ele>142.1</ele>
        <time>2024-04-07T17:21:21.995Z</time>
      </trkpt>
      <trkpt lat="43.64453" lon="3.75608">
        <ele>142.1</ele>
        <time>2024-04-07T17:21:22.995Z</time>
      </trkpt>
      <trkpt lat="43.64454" lon="3.75608">
        <ele>142.1</ele>
        <time>2024-04-07T17:21:24.995Z</time>
      </trkpt>
      <trkpt lat="43.64454" lon="3.75608">
        <ele>142.1</ele>
        <time>2024-04-07T17:21:25.995Z</time>
      </trkpt>
      <trkpt lat="43.64455" lon="3.75608">
        <ele>142.1</ele>
        <time>2024-04-07T17:21:26.995Z</time>
      </trkpt>
      <trkpt lat="43.64456" lon="3.75609">
        <ele>142.1</ele>
        <time>2024-04-07T17:21:27.995Z</time>
      </trkpt>
      <trkpt lat="43.64457" lon="3.75609">
        <ele>142.1</ele>
        <time>2024-04-07T17:21:28.995Z</time>
      </trkpt>
      <trkpt lat="43.64461" lon="3.75612">
        <ele>142</ele>
        <time>2024-04-07T17:21:30.995Z</time>
      </trkpt>
      <trkpt lat="43.64461" lon="3.75612">
        <ele>142</ele>
        <time>2024-04-07T17:21:31.995Z</time>
      </trkpt>
      <trkpt lat="43.64462" lon="3.75613">
        <ele>141.9</ele>
        <time>2024-04-07T17:21:32.995Z</time>
      </trkpt>
      <trkpt lat="43.64463" lon="3.75613">
        <ele>141.9</ele>
        <time>2024-04-07T17:21:33.995Z</time>
      </trkpt>
      <trkpt lat="43.64465" lon="3.75614">
        <ele>141.9</ele>
        <time>2024-04-07T17:21:34.995Z</time>
      </trkpt>
      <trkpt lat="43.64468" lon="3.75618">
        <ele>141.8</ele>
        <time>2024-04-07T17:21:36.995Z</time>
      </trkpt>
      <trkpt lat="43.6447" lon="3.75621">
        <ele>141.6</ele>
        <time>2024-04-07T17:21:37.995Z</time>
      </trkpt>
      <trkpt lat="43.64472" lon="3.75623">
        <ele>141.6</ele>
        <time>2024-04-07T17:21:38.995Z</time>
      </trkpt>
      <trkpt lat="43.64475" lon="3.75625">
        <ele>141.6</ele>
        <time>2024-04-07T17:21:39.995Z</time>
      </trkpt>
      <trkpt lat="43.64475" lon="3.75626">
        <ele>141.5</ele>
        <time>2024-04-07T17:21:40.995Z</time>
      </trkpt>
      <trkpt lat="43.64477" lon="3.75627">
        <ele>141.5</ele>
        <time>2024-04-07T17:21:41.995Z</time>
      </trkpt>
      <trkpt lat="43.64478" lon="3.75629">
        <ele>141.5</ele>
        <time>2024-04-07T17:21:42.995Z</time>
      </trkpt>
      <trkpt lat="43.64479" lon="3.75632">
        <ele>141.4</ele>
        <time>2024-04-07T17:21:43.995Z</time>
      </trkpt>
      <trkpt lat="43.6448" lon="3.75633">
        <ele>141.4</ele>
        <time>2024-04-07T17:21:44.995Z</time>
      </trkpt>
      <trkpt lat="43.64482" lon="3.75636">
        <ele>141.4</ele>
        <time>2024-04-07T17:21:45.995Z</time>
      </trkpt>
      <trkpt lat="43.64485" lon="3.7564">
        <ele>141.4</ele>
        <time>2024-04-07T17:21:46.995Z</time>
      </trkpt>
      <trkpt lat="43.64488" lon="3.75643">
        <ele>141.5</ele>
        <time>2024-04-07T17:21:48.995Z</time>
      </trkpt>
      <trkpt lat="43.6449" lon="3.75645">
        <ele>141.5</ele>
        <time>2024-04-07T17:21:49.995Z</time>
      </trkpt>
      <trkpt lat="43.64494" lon="3.75646">
        <ele>141.6</ele>
        <time>2024-04-07T17:21:50.995Z</time>
      </trkpt>
      <trkpt lat="43.645" lon="3.75647">
        <ele>141.7</ele>
        <time>2024-04-07T17:21:51.995Z</time>
      </trkpt>
      <trkpt lat="43.64502" lon="3.75649">
        <ele>141.7</ele>
        <time>2024-04-07T17:21:52.995Z</time>
      </trkpt>
      <trkpt lat="43.64504" lon="3.75651">
        <ele>141.6</ele>
        <time>2024-04-07T17:21:54.995Z</time>
      </trkpt>
      <trkpt lat="43.64507" lon="3.75652">
        <ele>141.6</ele>
        <time>2024-04-07T17:21:56.995Z</time>
      </trkpt>
      <trkpt lat="43.64509" lon="3.75652">
        <ele>141.7</ele>
        <time>2024-04-07T17:21:57.995Z</time>
      </trkpt>
      <trkpt lat="43.6451" lon="3.75654">
        <ele>141.7</ele>
        <time>2024-04-07T17:21:58.995Z</time>
      </trkpt>
      <trkpt lat="43.64511" lon="3.75658">
        <ele>141.6</ele>
        <time>2024-04-07T17:21:59.995Z</time>
      </trkpt>
      <trkpt lat="43.64512" lon="3.75659">
        <ele>141.6</ele>
        <time>2024-04-07T17:22:00.995Z</time>
      </trkpt>
      <trkpt lat="43.64515" lon="3.75661">
        <ele>141.6</ele>
        <time>2024-04-07T17:22:01.995Z</time>
      </trkpt>
      <trkpt lat="43.64516" lon="3.75662">
        <ele>141.6</ele>
        <time>2024-04-07T17:22:02.995Z</time>
      </trkpt>
      <trkpt lat="43.64519" lon="3.75664">
        <ele>141.7</ele>
        <time>2024-04-07T17:22:03.995Z</time>
      </trkpt>
      <trkpt lat="43.64523" lon="3.75667">
        <ele>141.8</ele>
        <time>2024-04-07T17:22:05.995Z</time>
      </trkpt>
      <trkpt lat="43.64525" lon="3.75669">
        <ele>141.9</ele>
        <time>2024-04-07T17:22:06.995Z</time>
      </trkpt>
      <trkpt lat="43.64526" lon="3.7567">
        <ele>142.2</ele>
        <time>2024-04-07T17:22:07.971Z</time>
      </trkpt>
      <trkpt lat="43.64531" lon="3.75717">
        <ele>142.2</ele>
        <time>2024-04-07T17:22:35.036Z</time>
      </trkpt>
      <trkpt lat="43.64537" lon="3.75765">
        <ele>143.7</ele>
        <time>2024-04-07T17:23:10.845Z</time>
      </trkpt>
      <trkpt lat="43.64553" lon="3.75746">
        <ele>143.2</ele>
        <time>2024-04-07T17:23:32.492Z</time>
      </trkpt>
      <trkpt lat="43.64569" lon="3.75727">
        <ele>144</ele>
        <time>2024-04-07T17:23:54.139Z</time>
      </trkpt>
      <trkpt lat="43.64576" lon="3.75743">
        <ele>144.2</ele>
        <time>2024-04-07T17:24:08.226Z</time>
      </trkpt>
      <trkpt lat="43.64582" lon="3.7576">
        <ele>144.5</ele>
        <time>2024-04-07T17:24:22.313Z</time>
      </trkpt>
      <trkpt lat="43.64583" lon="3.7576">
        <ele>145</ele>
        <time>2024-04-07T17:24:23.043Z</time>
      </trkpt>
      <trkpt lat="43.64585" lon="3.75765">
        <ele>145.1</ele>
        <time>2024-04-07T17:24:24.043Z</time>
      </trkpt>
      <trkpt lat="43.64587" lon="3.75769">
        <ele>145.2</ele>
        <time>2024-04-07T17:24:25.043Z</time>
      </trkpt>
      <trkpt lat="43.64588" lon="3.75771">
        <ele>145.2</ele>
        <time>2024-04-07T17:24:26.043Z</time>
      </trkpt>
      <trkpt lat="43.6459" lon="3.75777">
        <ele>145.2</ele>
        <time>2024-04-07T17:24:28.043Z</time>
      </trkpt>
      <trkpt lat="43.64591" lon="3.75782">
        <ele>145.3</ele>
        <time>2024-04-07T17:24:29.043Z</time>
      </trkpt>
      <trkpt lat="43.64592" lon="3.75783">
        <ele>145.3</ele>
        <time>2024-04-07T17:24:30.043Z</time>
      </trkpt>
      <trkpt lat="43.64593" lon="3.75785">
        <ele>145.3</ele>
        <time>2024-04-07T17:24:31.043Z</time>
      </trkpt>
      <trkpt lat="43.64594" lon="3.75788">
        <ele>145.4</ele>
        <time>2024-04-07T17:24:32.043Z</time>
      </trkpt>
      <trkpt lat="43.64594" lon="3.75792">
        <ele>145.4</ele>
        <time>2024-04-07T17:24:33.043Z</time>
      </trkpt>
      <trkpt lat="43.64595" lon="3.75794">
        <ele>145.4</ele>
        <time>2024-04-07T17:24:34.043Z</time>
      </trkpt>
      <trkpt lat="43.64595" lon="3.75798">
        <ele>145.4</ele>
        <time>2024-04-07T17:24:35.043Z</time>
      </trkpt>
      <trkpt lat="43.64595" lon="3.75799">
        <ele>145.4</ele>
        <time>2024-04-07T17:24:36.043Z</time>
      </trkpt>
      <trkpt lat="43.64596" lon="3.75801">
        <ele>145.5</ele>
        <time>2024-04-07T17:24:37.043Z</time>
      </trkpt>
      <trkpt lat="43.64598" lon="3.75808">
        <ele>145.5</ele>
        <time>2024-04-07T17:24:39.043Z</time>
      </trkpt>
      <trkpt lat="43.64599" lon="3.75809">
        <ele>145.5</ele>
        <time>2024-04-07T17:24:40.043Z</time>
      </trkpt>
      <trkpt lat="43.64599" lon="3.75811">
        <ele>145.5</ele>
        <time>2024-04-07T17:24:41.043Z</time>
      </trkpt>
      <trkpt lat="43.64601" lon="3.75815">
        <ele>145.4</ele>
        <time>2024-04-07T17:24:43.043Z</time>
      </trkpt>
      <trkpt lat="43.64601" lon="3.75818">
        <ele>145.4</ele>
        <time>2024-04-07T17:24:44.043Z</time>
      </trkpt>
      <trkpt lat="43.64601" lon="3.75822">
        <ele>145.3</ele>
        <time>2024-04-07T17:24:45.043Z</time>
      </trkpt>
      <trkpt lat="43.64602" lon="3.75824">
        <ele>145.2</ele>
        <time>2024-04-07T17:24:46.043Z</time>
      </trkpt>
      <trkpt lat="43.64602" lon="3.75827">
        <ele>145.2</ele>
        <time>2024-04-07T17:24:47.043Z</time>
      </trkpt>
      <trkpt lat="43.64605" lon="3.75833">
        <ele>145</ele>
        <time>2024-04-07T17:24:49.043Z</time>
      </trkpt>
      <trkpt lat="43.64607" lon="3.75835">
        <ele>144.9</ele>
        <time>2024-04-07T17:24:50.043Z</time>
      </trkpt>
      <trkpt lat="43.6461" lon="3.75837">
        <ele>144.9</ele>
        <time>2024-04-07T17:24:51.043Z</time>
      </trkpt>
      <trkpt lat="43.64611" lon="3.75838">
        <ele>144.8</ele>
        <time>2024-04-07T17:24:52.043Z</time>
      </trkpt>
      <trkpt lat="43.64614" lon="3.7584">
        <ele>144.9</ele>
        <time>2024-04-07T17:24:53.043Z</time>
      </trkpt>
      <trkpt lat="43.64615" lon="3.75841">
        <ele>144.9</ele>
        <time>2024-04-07T17:24:54.043Z</time>
      </trkpt>
      <trkpt lat="43.64616" lon="3.75842">
        <ele>144.9</ele>
        <time>2024-04-07T17:24:55.043Z</time>
      </trkpt>
      <trkpt lat="43.64617" lon="3.75844">
        <ele>144.8</ele>
        <time>2024-04-07T17:24:56.043Z</time>
      </trkpt>
      <trkpt lat="43.64619" lon="3.75847">
        <ele>144.8</ele>
        <time>2024-04-07T17:24:57.043Z</time>
      </trkpt>
      <trkpt lat="43.64622" lon="3.75853">
        <ele>144.7</ele>
        <time>2024-04-07T17:24:59.043Z</time>
      </trkpt>
      <trkpt lat="43.64625" lon="3.75856">
        <ele>144.7</ele>
        <time>2024-04-07T17:25:00.043Z</time>
      </trkpt>
      <trkpt lat="43.64627" lon="3.75859">
        <ele>144.6</ele>
        <time>2024-04-07T17:25:01.043Z</time>
      </trkpt>
      <trkpt lat="43.64634" lon="3.75864">
        <ele>144.7</ele>
        <time>2024-04-07T17:25:03.043Z</time>
      </trkpt>
      <trkpt lat="43.64638" lon="3.75865">
        <ele>144.8</ele>
        <time>2024-04-07T17:25:04.043Z</time>
      </trkpt>
      <trkpt lat="43.64642" lon="3.75868">
        <ele>144.8</ele>
        <time>2024-04-07T17:25:05.043Z</time>
      </trkpt>
      <trkpt lat="43.64645" lon="3.7587">
        <ele>144.8</ele>
        <time>2024-04-07T17:25:07.043Z</time>
      </trkpt>
      <trkpt lat="43.64651" lon="3.7587">
        <ele>145</ele>
        <time>2024-04-07T17:25:08.043Z</time>
      </trkpt>
      <trkpt lat="43.64653" lon="3.75872">
        <ele>144.9</ele>
        <time>2024-04-07T17:25:09.043Z</time>
      </trkpt>
      <trkpt lat="43.64655" lon="3.75874">
        <ele>144.8</ele>
        <time>2024-04-07T17:25:10.043Z</time>
      </trkpt>
      <trkpt lat="43.64657" lon="3.75877">
        <ele>144.7</ele>
        <time>2024-04-07T17:25:11.043Z</time>
      </trkpt>
      <trkpt lat="43.6466" lon="3.75881">
        <ele>144.5</ele>
        <time>2024-04-07T17:25:13.043Z</time>
      </trkpt>
      <trkpt lat="43.64662" lon="3.75881">
        <ele>144.5</ele>
        <time>2024-04-07T17:25:14.043Z</time>
      </trkpt>
      <trkpt lat="43.64667" lon="3.75882">
        <ele>144.5</ele>
        <time>2024-04-07T17:25:16.043Z</time>
      </trkpt>
      <trkpt lat="43.6467" lon="3.75883">
        <ele>144.5</ele>
        <time>2024-04-07T17:25:17.043Z</time>
      </trkpt>
      <trkpt lat="43.64673" lon="3.75884">
        <ele>144.6</ele>
        <time>2024-04-07T17:25:18.043Z</time>
      </trkpt>
      <trkpt lat="43.64678" lon="3.75887">
        <ele>144.5</ele>
        <time>2024-04-07T17:25:20.043Z</time>
      </trkpt>
      <trkpt lat="43.64681" lon="3.75889">
        <ele>144.5</ele>
        <time>2024-04-07T17:25:21.043Z</time>
      </trkpt>
      <trkpt lat="43.64683" lon="3.75892">
        <ele>144.5</ele>
        <time>2024-04-07T17:25:22.043Z</time>
      </trkpt>
      <trkpt lat="43.64686" lon="3.75895">
        <ele>144.5</ele>
        <time>2024-04-07T17:25:23.043Z</time>
      </trkpt>
      <trkpt lat="43.64688" lon="3.75897">
        <ele>144.5</ele>
        <time>2024-04-07T17:25:24.043Z</time>
      </trkpt>
      <trkpt lat="43.64691" lon="3.759">
        <ele>144.5</ele>
        <time>2024-04-07T17:25:25.043Z</time>
      </trkpt>
      <trkpt lat="43.64694" lon="3.75903">
        <ele>144.5</ele>
        <time>2024-04-07T17:25:26.043Z</time>
      </trkpt>
      <trkpt lat="43.64697" lon="3.75906">
        <ele>144.5</ele>
        <time>2024-04-07T17:25:27.043Z</time>
      </trkpt>
      <trkpt lat="43.64701" lon="3.75909">
        <ele>144.5</ele>
        <time>2024-04-07T17:25:29.043Z</time>
      </trkpt>
      <trkpt lat="43.64703" lon="3.75911">
        <ele>144.5</ele>
        <time>2024-04-07T17:25:30.043Z</time>
      </trkpt>
      <trkpt lat="43.64706" lon="3.75912">
        <ele>144.6</ele>
        <time>2024-04-07T17:25:31.043Z</time>
      </trkpt>
      <trkpt lat="43.64709" lon="3.75914">
        <ele>144.6</ele>
        <time>2024-04-07T17:25:32.043Z</time>
      </trkpt>
      <trkpt lat="43.64712" lon="3.75914">
        <ele>144.7</ele>
        <time>2024-04-07T17:25:33.043Z</time>
      </trkpt>
      <trkpt lat="43.64715" lon="3.75917">
        <ele>144.7</ele>
        <time>2024-04-07T17:25:34.043Z</time>
      </trkpt>
      <trkpt lat="43.64716" lon="3.75918">
        <ele>144.7</ele>
        <time>2024-04-07T17:25:35.043Z</time>
      </trkpt>
      <trkpt lat="43.64719" lon="3.75921">
        <ele>144.7</ele>
        <time>2024-04-07T17:25:36.043Z</time>
      </trkpt>
      <trkpt lat="43.64719" lon="3.75929">
        <ele>144.4</ele>
        <time>2024-04-07T17:25:38.043Z</time>
      </trkpt>
      <trkpt lat="43.64718" lon="3.75933">
        <ele>144.3</ele>
        <time>2024-04-07T17:25:39.043Z</time>
      </trkpt>
      <trkpt lat="43.64717" lon="3.75938">
        <ele>144</ele>
        <time>2024-04-07T17:25:40.043Z</time>
      </trkpt>
      <trkpt lat="43.64716" lon="3.75943">
        <ele>143.8</ele>
        <time>2024-04-07T17:25:41.043Z</time>
      </trkpt>
      <trkpt lat="43.64716" lon="3.75948">
        <ele>143.6</ele>
        <time>2024-04-07T17:25:42.043Z</time>
      </trkpt>
      <trkpt lat="43.64716" lon="3.75953">
        <ele>143.5</ele>
        <time>2024-04-07T17:25:43.043Z</time>
      </trkpt>
      <trkpt lat="43.64716" lon="3.75958">
        <ele>143.3</ele>
        <time>2024-04-07T17:25:44.043Z</time>
      </trkpt>
      <trkpt lat="43.64718" lon="3.75964">
        <ele>143.1</ele>
        <time>2024-04-07T17:25:46.043Z</time>
      </trkpt>
      <trkpt lat="43.64721" lon="3.75975">
        <ele>143</ele>
        <time>2024-04-07T17:25:47.043Z</time>
      </trkpt>
      <trkpt lat="43.64722" lon="3.75981">
        <ele>143</ele>
        <time>2024-04-07T17:25:48.043Z</time>
      </trkpt>
      <trkpt lat="43.64723" lon="3.75986">
        <ele>143</ele>
        <time>2024-04-07T17:25:49.043Z</time>
      </trkpt>
      <trkpt lat="43.64724" lon="3.7599">
        <ele>143.1</ele>
        <time>2024-04-07T17:25:50.043Z</time>
      </trkpt>
      <trkpt lat="43.64723" lon="3.75995">
        <ele>143</ele>
        <time>2024-04-07T17:25:51.043Z</time>
      </trkpt>
      <trkpt lat="43.64723" lon="3.75997">
        <ele>143</ele>
        <time>2024-04-07T17:25:52.043Z</time>
      </trkpt>
      <trkpt lat="43.64723" lon="3.76002">
        <ele>143</ele>
        <time>2024-04-07T17:25:53.043Z</time>
      </trkpt>
      <trkpt lat="43.64724" lon="3.76011">
        <ele>142.7</ele>
        <time>2024-04-07T17:25:55.043Z</time>
      </trkpt>
      <trkpt lat="43.64724" lon="3.76016">
        <ele>142.5</ele>
        <time>2024-04-07T17:25:56.043Z</time>
      </trkpt>
      <trkpt lat="43.64724" lon="3.7602">
        <ele>142.4</ele>
        <time>2024-04-07T17:25:57.043Z</time>
      </trkpt>
      <trkpt lat="43.64724" lon="3.76025">
        <ele>142.2</ele>
        <time>2024-04-07T17:25:59.043Z</time>
      </trkpt>
      <trkpt lat="43.64724" lon="3.76037">
        <ele>141.8</ele>
        <time>2024-04-07T17:26:00.043Z</time>
      </trkpt>
      <trkpt lat="43.64724" lon="3.76044">
        <ele>141.5</ele>
        <time>2024-04-07T17:26:01.043Z</time>
      </trkpt>
      <trkpt lat="43.64725" lon="3.76051">
        <ele>141.4</ele>
        <time>2024-04-07T17:26:03.043Z</time>
      </trkpt>
      <trkpt lat="43.64728" lon="3.76066">
        <ele>141.3</ele>
        <time>2024-04-07T17:26:04.043Z</time>
      </trkpt>
      <trkpt lat="43.64729" lon="3.76072">
        <ele>141.3</ele>
        <time>2024-04-07T17:26:05.043Z</time>
      </trkpt>
      <trkpt lat="43.6473" lon="3.76078">
        <ele>141.3</ele>
        <time>2024-04-07T17:26:06.043Z</time>
      </trkpt>
      <trkpt lat="43.64731" lon="3.76084">
        <ele>141.3</ele>
        <time>2024-04-07T17:26:07.043Z</time>
      </trkpt>
      <trkpt lat="43.64731" lon="3.76089">
        <ele>141.2</ele>
        <time>2024-04-07T17:26:08.043Z</time>
      </trkpt>
      <trkpt lat="43.6473" lon="3.76094">
        <ele>141</ele>
        <time>2024-04-07T17:26:09.043Z</time>
      </trkpt>
      <trkpt lat="43.64732" lon="3.76099">
        <ele>141</ele>
        <time>2024-04-07T17:26:10.043Z</time>
      </trkpt>
      <trkpt lat="43.64732" lon="3.76105">
        <ele>140.8</ele>
        <time>2024-04-07T17:26:11.043Z</time>
      </trkpt>
      <trkpt lat="43.64732" lon="3.7611">
        <ele>140.7</ele>
        <time>2024-04-07T17:26:12.043Z</time>
      </trkpt>
      <trkpt lat="43.64733" lon="3.76119">
        <ele>140.7</ele>
        <time>2024-04-07T17:26:14.043Z</time>
      </trkpt>
      <trkpt lat="43.64733" lon="3.76124">
        <ele>140.6</ele>
        <time>2024-04-07T17:26:15.043Z</time>
      </trkpt>
      <trkpt lat="43.64733" lon="3.76129">
        <ele>140.5</ele>
        <time>2024-04-07T17:26:16.043Z</time>
      </trkpt>
      <trkpt lat="43.64733" lon="3.76132">
        <ele>140.5</ele>
        <time>2024-04-07T17:26:17.043Z</time>
      </trkpt>
      <trkpt lat="43.64735" lon="3.76138">
        <ele>140.5</ele>
        <time>2024-04-07T17:26:19.043Z</time>
      </trkpt>
      <trkpt lat="43.64736" lon="3.76141">
        <ele>140.5</ele>
        <time>2024-04-07T17:26:20.043Z</time>
      </trkpt>
      <trkpt lat="43.64737" lon="3.76146">
        <ele>140.5</ele>
        <time>2024-04-07T17:26:21.043Z</time>
      </trkpt>
      <trkpt lat="43.64738" lon="3.76153">
        <ele>140.6</ele>
        <time>2024-04-07T17:26:23.043Z</time>
      </trkpt>
      <trkpt lat="43.64738" lon="3.76158">
        <ele>140.6</ele>
        <time>2024-04-07T17:26:24.043Z</time>
      </trkpt>
      <trkpt lat="43.64739" lon="3.76164">
        <ele>140.6</ele>
        <time>2024-04-07T17:26:25.043Z</time>
      </trkpt>
      <trkpt lat="43.6474" lon="3.76169">
        <ele>140.6</ele>
        <time>2024-04-07T17:26:26.043Z</time>
      </trkpt>
      <trkpt lat="43.6474" lon="3.76174">
        <ele>140.5</ele>
        <time>2024-04-07T17:26:27.043Z</time>
      </trkpt>
      <trkpt lat="43.64741" lon="3.76179">
        <ele>140.4</ele>
        <time>2024-04-07T17:26:29.043Z</time>
      </trkpt>
      <trkpt lat="43.64744" lon="3.76189">
        <ele>140.2</ele>
        <time>2024-04-07T17:26:30.043Z</time>
      </trkpt>
      <trkpt lat="43.64745" lon="3.76193">
        <ele>140</ele>
        <time>2024-04-07T17:26:31.043Z</time>
      </trkpt>
      <trkpt lat="43.64748" lon="3.76202">
        <ele>140</ele>
        <time>2024-04-07T17:26:33.043Z</time>
      </trkpt>
      <trkpt lat="43.64749" lon="3.76207">
        <ele>140</ele>
        <time>2024-04-07T17:26:34.043Z</time>
      </trkpt>
      <trkpt lat="43.64749" lon="3.76212">
        <ele>140</ele>
        <time>2024-04-07T17:26:35.043Z</time>
      </trkpt>
      <trkpt lat="43.64749" lon="3.76217">
        <ele>140</ele>
        <time>2024-04-07T17:26:36.043Z</time>
      </trkpt>
      <trkpt lat="43.6475" lon="3.76222">
        <ele>140</ele>
        <time>2024-04-07T17:26:37.043Z</time>
      </trkpt>
      <trkpt lat="43.6475" lon="3.76226">
        <ele>139.9</ele>
        <time>2024-04-07T17:26:38.043Z</time>
      </trkpt>
      <trkpt lat="43.64751" lon="3.76231">
        <ele>139.8</ele>
        <time>2024-04-07T17:26:39.043Z</time>
      </trkpt>
      <trkpt lat="43.64751" lon="3.76236">
        <ele>139.6</ele>
        <time>2024-04-07T17:26:40.043Z</time>
      </trkpt>
      <trkpt lat="43.64751" lon="3.76241">
        <ele>139.4</ele>
        <time>2024-04-07T17:26:41.043Z</time>
      </trkpt>
      <trkpt lat="43.64751" lon="3.76245">
        <ele>139.3</ele>
        <time>2024-04-07T17:26:42.043Z</time>
      </trkpt>
      <trkpt lat="43.64752" lon="3.7625">
        <ele>139.2</ele>
        <time>2024-04-07T17:26:43.043Z</time>
      </trkpt>
      <trkpt lat="43.64753" lon="3.76253">
        <ele>139.4</ele>
        <time>2024-04-07T17:26:44.043Z</time>
      </trkpt>
      <trkpt lat="43.64754" lon="3.76257">
        <ele>139.6</ele>
        <time>2024-04-07T17:26:45.043Z</time>
      </trkpt>
      <trkpt lat="43.64755" lon="3.76262">
        <ele>139.8</ele>
        <time>2024-04-07T17:26:46.043Z</time>
      </trkpt>
      <trkpt lat="43.64755" lon="3.76267">
        <ele>139.9</ele>
        <time>2024-04-07T17:26:47.043Z</time>
      </trkpt>
      <trkpt lat="43.64754" lon="3.76273">
        <ele>140</ele>
        <time>2024-04-07T17:26:48.043Z</time>
      </trkpt>
      <trkpt lat="43.64754" lon="3.76278">
        <ele>140.1</ele>
        <time>2024-04-07T17:26:50.043Z</time>
      </trkpt>
      <trkpt lat="43.64752" lon="3.76282">
        <ele>140.1</ele>
        <time>2024-04-07T17:26:51.043Z</time>
      </trkpt>
      <trkpt lat="43.64749" lon="3.76291">
        <ele>140</ele>
        <time>2024-04-07T17:26:52.043Z</time>
      </trkpt>
      <trkpt lat="43.64747" lon="3.76295">
        <ele>140</ele>
        <time>2024-04-07T17:26:53.043Z</time>
      </trkpt>
      <trkpt lat="43.64747" lon="3.76303">
        <ele>140</ele>
        <time>2024-04-07T17:26:55.043Z</time>
      </trkpt>
      <trkpt lat="43.6475" lon="3.76311">
        <ele>139.8</ele>
        <time>2024-04-07T17:26:57.043Z</time>
      </trkpt>
      <trkpt lat="43.64751" lon="3.76315">
        <ele>139.7</ele>
        <time>2024-04-07T17:26:58.043Z</time>
      </trkpt>
      <trkpt lat="43.64752" lon="3.76321">
        <ele>139.6</ele>
        <time>2024-04-07T17:27:00.043Z</time>
      </trkpt>
      <trkpt lat="43.64754" lon="3.76322">
        <ele>139.7</ele>
        <time>2024-04-07T17:27:01.043Z</time>
      </trkpt>
      <trkpt lat="43.64757" lon="3.76322">
        <ele>140</ele>
        <time>2024-04-07T17:27:03.043Z</time>
      </trkpt>
      <trkpt lat="43.64758" lon="3.76319">
        <ele>140.1</ele>
        <time>2024-04-07T17:27:04.043Z</time>
      </trkpt>
      <trkpt lat="43.64763" lon="3.7631">
        <ele>140.5</ele>
        <time>2024-04-07T17:27:05.043Z</time>
      </trkpt>
      <trkpt lat="43.64766" lon="3.76306">
        <ele>140.6</ele>
        <time>2024-04-07T17:27:06.043Z</time>
      </trkpt>
      <trkpt lat="43.64769" lon="3.76303">
        <ele>140.7</ele>
        <time>2024-04-07T17:27:07.043Z</time>
      </trkpt>
      <trkpt lat="43.6477" lon="3.76302">
        <ele>140.7</ele>
        <time>2024-04-07T17:27:08.043Z</time>
      </trkpt>
      <trkpt lat="43.64771" lon="3.76299">
        <ele>140.8</ele>
        <time>2024-04-07T17:27:09.043Z</time>
      </trkpt>
      <trkpt lat="43.64773" lon="3.76295">
        <ele>140.8</ele>
        <time>2024-04-07T17:27:10.043Z</time>
      </trkpt>
      <trkpt lat="43.64775" lon="3.7629">
        <ele>140.9</ele>
        <time>2024-04-07T17:27:11.043Z</time>
      </trkpt>
      <trkpt lat="43.64775" lon="3.76289">
        <ele>140.9</ele>
        <time>2024-04-07T17:27:12.043Z</time>
      </trkpt>
      <trkpt lat="43.64776" lon="3.76286">
        <ele>140.9</ele>
        <time>2024-04-07T17:27:13.043Z</time>
      </trkpt>
      <trkpt lat="43.64777" lon="3.76284">
        <ele>141</ele>
        <time>2024-04-07T17:27:15.043Z</time>
      </trkpt>
      <trkpt lat="43.64781" lon="3.76278">
        <ele>141.2</ele>
        <time>2024-04-07T17:27:16.043Z</time>
      </trkpt>
      <trkpt lat="43.64783" lon="3.76275">
        <ele>141.5</ele>
        <time>2024-04-07T17:27:17.043Z</time>
      </trkpt>
      <trkpt lat="43.64783" lon="3.76272">
        <ele>141.6</ele>
        <time>2024-04-07T17:27:18.043Z</time>
      </trkpt>
      <trkpt lat="43.64784" lon="3.76267">
        <ele>141.8</ele>
        <time>2024-04-07T17:27:20.043Z</time>
      </trkpt>
      <trkpt lat="43.64785" lon="3.76265">
        <ele>142</ele>
        <time>2024-04-07T17:27:21.043Z</time>
      </trkpt>
      <trkpt lat="43.64788" lon="3.76263">
        <ele>142.3</ele>
        <time>2024-04-07T17:27:22.043Z</time>
      </trkpt>
      <trkpt lat="43.64788" lon="3.76262">
        <ele>142.3</ele>
        <time>2024-04-07T17:27:23.043Z</time>
      </trkpt>
      <trkpt lat="43.64789" lon="3.76259">
        <ele>142.5</ele>
        <time>2024-04-07T17:27:24.043Z</time>
      </trkpt>
      <trkpt lat="43.64791" lon="3.76254">
        <ele>142.8</ele>
        <time>2024-04-07T17:27:26.043Z</time>
      </trkpt>
      <trkpt lat="43.64795" lon="3.76247">
        <ele>143.2</ele>
        <time>2024-04-07T17:27:27.043Z</time>
      </trkpt>
      <trkpt lat="43.64796" lon="3.76244">
        <ele>143.3</ele>
        <time>2024-04-07T17:27:28.043Z</time>
      </trkpt>
      <trkpt lat="43.64796" lon="3.76239">
        <ele>143.3</ele>
        <time>2024-04-07T17:27:29.043Z</time>
      </trkpt>
      <trkpt lat="43.64796" lon="3.76237">
        <ele>143.3</ele>
        <time>2024-04-07T17:27:30.043Z</time>
      </trkpt>
      <trkpt lat="43.64797" lon="3.76232">
        <ele>143.4</ele>
        <time>2024-04-07T17:27:31.043Z</time>
      </trkpt>
      <trkpt lat="43.64797" lon="3.7623">
        <ele>143.4</ele>
        <time>2024-04-07T17:27:32.043Z</time>
      </trkpt>
      <trkpt lat="43.64798" lon="3.76222">
        <ele>143.5</ele>
        <time>2024-04-07T17:27:34.043Z</time>
      </trkpt>
      <trkpt lat="43.64799" lon="3.76219">
        <ele>143.5</ele>
        <time>2024-04-07T17:27:35.043Z</time>
      </trkpt>
      <trkpt lat="43.648" lon="3.76215">
        <ele>143.6</ele>
        <time>2024-04-07T17:27:37.043Z</time>
      </trkpt>
      <trkpt lat="43.64802" lon="3.76212">
        <ele>143.7</ele>
        <time>2024-04-07T17:27:38.043Z</time>
      </trkpt>
      <trkpt lat="43.64807" lon="3.76206">
        <ele>144</ele>
        <time>2024-04-07T17:27:39.043Z</time>
      </trkpt>
      <trkpt lat="43.64809" lon="3.76203">
        <ele>144</ele>
        <time>2024-04-07T17:27:40.043Z</time>
      </trkpt>
      <trkpt lat="43.6481" lon="3.76202">
        <ele>143.9</ele>
        <time>2024-04-07T17:27:41.043Z</time>
      </trkpt>
      <trkpt lat="43.64813" lon="3.76198">
        <ele>143.8</ele>
        <time>2024-04-07T17:27:43.043Z</time>
      </trkpt>
      <trkpt lat="43.64817" lon="3.76193">
        <ele>143.6</ele>
        <time>2024-04-07T17:27:45.043Z</time>
      </trkpt>
      <trkpt lat="43.6482" lon="3.76191">
        <ele>143.5</ele>
        <time>2024-04-07T17:27:46.043Z</time>
      </trkpt>
      <trkpt lat="43.64824" lon="3.7619">
        <ele>143.3</ele>
        <time>2024-04-07T17:27:47.043Z</time>
      </trkpt>
      <trkpt lat="43.64827" lon="3.76191">
        <ele>143.2</ele>
        <time>2024-04-07T17:27:48.043Z</time>
      </trkpt>
      <trkpt lat="43.64828" lon="3.76196">
        <ele>143.3</ele>
        <time>2024-04-07T17:27:50.043Z</time>
      </trkpt>
      <trkpt lat="43.6483" lon="3.76205">
        <ele>143.8</ele>
        <time>2024-04-07T17:27:51.043Z</time>
      </trkpt>
      <trkpt lat="43.64831" lon="3.76209">
        <ele>144</ele>
        <time>2024-04-07T17:27:52.043Z</time>
      </trkpt>
      <trkpt lat="43.64832" lon="3.76214">
        <ele>144.4</ele>
        <time>2024-04-07T17:27:53.043Z</time>
      </trkpt>
      <trkpt lat="43.64832" lon="3.76216">
        <ele>144.5</ele>
        <time>2024-04-07T17:27:54.043Z</time>
      </trkpt>
      <trkpt lat="43.64833" lon="3.76221">
        <ele>144.9</ele>
        <time>2024-04-07T17:27:55.043Z</time>
      </trkpt>
      <trkpt lat="43.64833" lon="3.76222">
        <ele>145</ele>
        <time>2024-04-07T17:27:56.043Z</time>
      </trkpt>
      <trkpt lat="43.64834" lon="3.76231">
        <ele>145</ele>
        <time>2024-04-07T17:27:58.043Z</time>
      </trkpt>
      <trkpt lat="43.64834" lon="3.76238">
        <ele>145</ele>
        <time>2024-04-07T17:28:00.043Z</time>
      </trkpt>
      <trkpt lat="43.64834" lon="3.7624">
        <ele>145</ele>
        <time>2024-04-07T17:28:01.043Z</time>
      </trkpt>
      <trkpt lat="43.64834" lon="3.76243">
        <ele>145</ele>
        <time>2024-04-07T17:28:02.043Z</time>
      </trkpt>
      <trkpt lat="43.64834" lon="3.7625">
        <ele>145</ele>
        <time>2024-04-07T17:28:04.043Z</time>
      </trkpt>
      <trkpt lat="43.64833" lon="3.76254">
        <ele>145.1</ele>
        <time>2024-04-07T17:28:06.043Z</time>
      </trkpt>
      <trkpt lat="43.64831" lon="3.76258">
        <ele>145.2</ele>
        <time>2024-04-07T17:28:08.043Z</time>
      </trkpt>
      <trkpt lat="43.64832" lon="3.76265">
        <ele>145.4</ele>
        <time>2024-04-07T17:28:10.043Z</time>
      </trkpt>
      <trkpt lat="43.64833" lon="3.7627">
        <ele>145.7</ele>
        <time>2024-04-07T17:28:11.043Z</time>
      </trkpt>
      <trkpt lat="43.64833" lon="3.76271">
        <ele>145.7</ele>
        <time>2024-04-07T17:28:12.043Z</time>
      </trkpt>
      <trkpt lat="43.64834" lon="3.76274">
        <ele>145.9</ele>
        <time>2024-04-07T17:28:13.043Z</time>
      </trkpt>
      <trkpt lat="43.64834" lon="3.76277">
        <ele>146</ele>
        <time>2024-04-07T17:28:15.043Z</time>
      </trkpt>
      <trkpt lat="43.64834" lon="3.76281">
        <ele>146.1</ele>
        <time>2024-04-07T17:28:16.043Z</time>
      </trkpt>
      <trkpt lat="43.64834" lon="3.76284">
        <ele>146.2</ele>
        <time>2024-04-07T17:28:17.043Z</time>
      </trkpt>
      <trkpt lat="43.64834" lon="3.76286">
        <ele>146.3</ele>
        <time>2024-04-07T17:28:19.043Z</time>
      </trkpt>
      <trkpt lat="43.64835" lon="3.76292">
        <ele>146.6</ele>
        <time>2024-04-07T17:28:20.043Z</time>
      </trkpt>
      <trkpt lat="43.64837" lon="3.76296">
        <ele>146.8</ele>
        <time>2024-04-07T17:28:21.043Z</time>
      </trkpt>
      <trkpt lat="43.64838" lon="3.76299">
        <ele>146.9</ele>
        <time>2024-04-07T17:28:22.043Z</time>
      </trkpt>
      <trkpt lat="43.64839" lon="3.76302">
        <ele>147.1</ele>
        <time>2024-04-07T17:28:24.043Z</time>
      </trkpt>
      <trkpt lat="43.64841" lon="3.76308">
        <ele>147.3</ele>
        <time>2024-04-07T17:28:25.043Z</time>
      </trkpt>
      <trkpt lat="43.64842" lon="3.76311">
        <ele>147.4</ele>
        <time>2024-04-07T17:28:26.043Z</time>
      </trkpt>
      <trkpt lat="43.64845" lon="3.76317">
        <ele>147.6</ele>
        <time>2024-04-07T17:28:28.043Z</time>
      </trkpt>
      <trkpt lat="43.64846" lon="3.76322">
        <ele>147.7</ele>
        <time>2024-04-07T17:28:29.043Z</time>
      </trkpt>
      <trkpt lat="43.64847" lon="3.76323">
        <ele>147.8</ele>
        <time>2024-04-07T17:28:30.043Z</time>
      </trkpt>
      <trkpt lat="43.64849" lon="3.76328">
        <ele>148</ele>
        <time>2024-04-07T17:28:31.043Z</time>
      </trkpt>
      <trkpt lat="43.64849" lon="3.76329">
        <ele>148</ele>
        <time>2024-04-07T17:28:32.043Z</time>
      </trkpt>
      <trkpt lat="43.64851" lon="3.76333">
        <ele>148.3</ele>
        <time>2024-04-07T17:28:33.043Z</time>
      </trkpt>
      <trkpt lat="43.64852" lon="3.76336">
        <ele>148.4</ele>
        <time>2024-04-07T17:28:34.043Z</time>
      </trkpt>
      <trkpt lat="43.64853" lon="3.76341">
        <ele>148.5</ele>
        <time>2024-04-07T17:28:35.043Z</time>
      </trkpt>
      <trkpt lat="43.64853" lon="3.76342">
        <ele>148.5</ele>
        <time>2024-04-07T17:28:36.043Z</time>
      </trkpt>
      <trkpt lat="43.64854" lon="3.76344">
        <ele>148.6</ele>
        <time>2024-04-07T17:28:37.043Z</time>
      </trkpt>
      <trkpt lat="43.64857" lon="3.76349">
        <ele>148.8</ele>
        <time>2024-04-07T17:28:39.043Z</time>
      </trkpt>
      <trkpt lat="43.64859" lon="3.76351">
        <ele>148.9</ele>
        <time>2024-04-07T17:28:40.043Z</time>
      </trkpt>
      <trkpt lat="43.6486" lon="3.76355">
        <ele>149</ele>
        <time>2024-04-07T17:28:41.043Z</time>
      </trkpt>
      <trkpt lat="43.64861" lon="3.76356">
        <ele>149</ele>
        <time>2024-04-07T17:28:42.043Z</time>
      </trkpt>
      <trkpt lat="43.64862" lon="3.76357">
        <ele>149</ele>
        <time>2024-04-07T17:28:43.043Z</time>
      </trkpt>
      <trkpt lat="43.64863" lon="3.76359">
        <ele>149.1</ele>
        <time>2024-04-07T17:28:44.043Z</time>
      </trkpt>
      <trkpt lat="43.64864" lon="3.76361">
        <ele>149.1</ele>
        <time>2024-04-07T17:28:45.043Z</time>
      </trkpt>
      <trkpt lat="43.64865" lon="3.76362">
        <ele>149.2</ele>
        <time>2024-04-07T17:28:46.043Z</time>
      </trkpt>
      <trkpt lat="43.64867" lon="3.76368">
        <ele>149.7</ele>
        <time>2024-04-07T17:28:48.043Z</time>
      </trkpt>
      <trkpt lat="43.64868" lon="3.76373">
        <ele>150</ele>
        <time>2024-04-07T17:28:49.043Z</time>
      </trkpt>
      <trkpt lat="43.64868" lon="3.76374">
        <ele>150.1</ele>
        <time>2024-04-07T17:28:50.043Z</time>
      </trkpt>
      <trkpt lat="43.6487" lon="3.76375">
        <ele>150.2</ele>
        <time>2024-04-07T17:28:51.043Z</time>
      </trkpt>
      <trkpt lat="43.64871" lon="3.76375">
        <ele>150.2</ele>
        <time>2024-04-07T17:28:52.043Z</time>
      </trkpt>
      <trkpt lat="43.64874" lon="3.76373">
        <ele>150.1</ele>
        <time>2024-04-07T17:28:53.043Z</time>
      </trkpt>
      <trkpt lat="43.64876" lon="3.76371">
        <ele>150.1</ele>
        <time>2024-04-07T17:28:55.043Z</time>
      </trkpt>
      <trkpt lat="43.64878" lon="3.76371">
        <ele>150.1</ele>
        <time>2024-04-07T17:28:57.043Z</time>
      </trkpt>
      <trkpt lat="43.6488" lon="3.7637">
        <ele>150.1</ele>
        <time>2024-04-07T17:28:58.043Z</time>
      </trkpt>
      <trkpt lat="43.64881" lon="3.76367">
        <ele>150</ele>
        <time>2024-04-07T17:29:00.043Z</time>
      </trkpt>
      <trkpt lat="43.64883" lon="3.76363">
        <ele>149.9</ele>
        <time>2024-04-07T17:29:01.043Z</time>
      </trkpt>
      <trkpt lat="43.64884" lon="3.76362">
        <ele>149.9</ele>
        <time>2024-04-07T17:29:02.043Z</time>
      </trkpt>
      <trkpt lat="43.64886" lon="3.76358">
        <ele>149.7</ele>
        <time>2024-04-07T17:29:03.043Z</time>
      </trkpt>
      <trkpt lat="43.64887" lon="3.76356">
        <ele>149.6</ele>
        <time>2024-04-07T17:29:04.043Z</time>
      </trkpt>
      <trkpt lat="43.64888" lon="3.76353">
        <ele>149.4</ele>
        <time>2024-04-07T17:29:05.043Z</time>
      </trkpt>
      <trkpt lat="43.64889" lon="3.7635">
        <ele>149.2</ele>
        <time>2024-04-07T17:29:06.043Z</time>
      </trkpt>
      <trkpt lat="43.64889" lon="3.76345">
        <ele>148.8</ele>
        <time>2024-04-07T17:29:08.043Z</time>
      </trkpt>
      <trkpt lat="43.64888" lon="3.76342">
        <ele>148.6</ele>
        <time>2024-04-07T17:29:09.043Z</time>
      </trkpt>
      <trkpt lat="43.64886" lon="3.76335">
        <ele>148.2</ele>
        <time>2024-04-07T17:29:11.043Z</time>
      </trkpt>
      <trkpt lat="43.64885" lon="3.76332">
        <ele>148.1</ele>
        <time>2024-04-07T17:29:12.043Z</time>
      </trkpt>
      <trkpt lat="43.64883" lon="3.76327">
        <ele>147.8</ele>
        <time>2024-04-07T17:29:13.043Z</time>
      </trkpt>
      <trkpt lat="43.64882" lon="3.76325">
        <ele>147.7</ele>
        <time>2024-04-07T17:29:14.043Z</time>
      </trkpt>
      <trkpt lat="43.6488" lon="3.76321">
        <ele>147.6</ele>
        <time>2024-04-07T17:29:15.043Z</time>
      </trkpt>
      <trkpt lat="43.6488" lon="3.76315">
        <ele>147.2</ele>
        <time>2024-04-07T17:29:16.043Z</time>
      </trkpt>
      <trkpt lat="43.64881" lon="3.76314">
        <ele>147.1</ele>
        <time>2024-04-07T17:29:17.043Z</time>
      </trkpt>
      <trkpt lat="43.64882" lon="3.76309">
        <ele>146.7</ele>
        <time>2024-04-07T17:29:18.043Z</time>
      </trkpt>
      <trkpt lat="43.64883" lon="3.76308">
        <ele>146.6</ele>
        <time>2024-04-07T17:29:19.043Z</time>
      </trkpt>
      <trkpt lat="43.64886" lon="3.76304">
        <ele>146.2</ele>
        <time>2024-04-07T17:29:20.043Z</time>
      </trkpt>
      <trkpt lat="43.64887" lon="3.76302">
        <ele>146</ele>
        <time>2024-04-07T17:29:21.043Z</time>
      </trkpt>
      <trkpt lat="43.64889" lon="3.76299">
        <ele>145.8</ele>
        <time>2024-04-07T17:29:23.043Z</time>
      </trkpt>
      <trkpt lat="43.64893" lon="3.76296">
        <ele>145.8</ele>
        <time>2024-04-07T17:29:24.043Z</time>
      </trkpt>
      <trkpt lat="43.64894" lon="3.76296">
        <ele>145.8</ele>
        <time>2024-04-07T17:29:25.043Z</time>
      </trkpt>
      <trkpt lat="43.64895" lon="3.76295">
        <ele>145.8</ele>
        <time>2024-04-07T17:29:26.043Z</time>
      </trkpt>
      <trkpt lat="43.64895" lon="3.76294">
        <ele>145.8</ele>
        <time>2024-04-07T17:29:27.043Z</time>
      </trkpt>
      <trkpt lat="43.64906" lon="3.76292">
        <ele>146.1</ele>
        <time>2024-04-07T17:30:10.043Z</time>
      </trkpt>
      <trkpt lat="43.6491" lon="3.76295">
        <ele>146.4</ele>
        <time>2024-04-07T17:30:12.043Z</time>
      </trkpt>
      <trkpt lat="43.64913" lon="3.76295">
        <ele>146.5</ele>
        <time>2024-04-07T17:30:13.043Z</time>
      </trkpt>
      <trkpt lat="43.64916" lon="3.76296">
        <ele>146.6</ele>
        <time>2024-04-07T17:30:14.043Z</time>
      </trkpt>
      <trkpt lat="43.64922" lon="3.76297">
        <ele>147.5</ele>
        <time>2024-04-07T17:30:16.043Z</time>
      </trkpt>
      <trkpt lat="43.64925" lon="3.76299">
        <ele>148</ele>
        <time>2024-04-07T17:30:17.043Z</time>
      </trkpt>
      <trkpt lat="43.64926" lon="3.76299">
        <ele>148.1</ele>
        <time>2024-04-07T17:30:18.043Z</time>
      </trkpt>
      <trkpt lat="43.64929" lon="3.763">
        <ele>148.6</ele>
        <time>2024-04-07T17:30:19.043Z</time>
      </trkpt>
      <trkpt lat="43.6493" lon="3.763">
        <ele>148.7</ele>
        <time>2024-04-07T17:30:20.043Z</time>
      </trkpt>
      <trkpt lat="43.64934" lon="3.76299">
        <ele>149.3</ele>
        <time>2024-04-07T17:30:21.043Z</time>
      </trkpt>
      <trkpt lat="43.64935" lon="3.763">
        <ele>149.4</ele>
        <time>2024-04-07T17:30:22.043Z</time>
      </trkpt>
      <trkpt lat="43.64936" lon="3.76303">
        <ele>149.7</ele>
        <time>2024-04-07T17:30:23.043Z</time>
      </trkpt>
      <trkpt lat="43.64937" lon="3.76304">
        <ele>149.9</ele>
        <time>2024-04-07T17:30:24.043Z</time>
      </trkpt>
      <trkpt lat="43.64937" lon="3.76309">
        <ele>150</ele>
        <time>2024-04-07T17:30:25.043Z</time>
      </trkpt>
      <trkpt lat="43.64937" lon="3.76312">
        <ele>150.1</ele>
        <time>2024-04-07T17:30:26.043Z</time>
      </trkpt>
      <trkpt lat="43.64937" lon="3.76318">
        <ele>150.2</ele>
        <time>2024-04-07T17:30:27.043Z</time>
      </trkpt>
      <trkpt lat="43.64936" lon="3.76322">
        <ele>150.1</ele>
        <time>2024-04-07T17:30:28.043Z</time>
      </trkpt>
      <trkpt lat="43.64936" lon="3.76328">
        <ele>150.3</ele>
        <time>2024-04-07T17:30:30.043Z</time>
      </trkpt>
      <trkpt lat="43.64936" lon="3.76331">
        <ele>150.3</ele>
        <time>2024-04-07T17:30:31.043Z</time>
      </trkpt>
      <trkpt lat="43.64937" lon="3.76334">
        <ele>150.5</ele>
        <time>2024-04-07T17:30:32.043Z</time>
      </trkpt>
      <trkpt lat="43.64938" lon="3.76337">
        <ele>150.7</ele>
        <time>2024-04-07T17:30:33.043Z</time>
      </trkpt>
      <trkpt lat="43.64939" lon="3.76339">
        <ele>150.9</ele>
        <time>2024-04-07T17:30:34.043Z</time>
      </trkpt>
      <trkpt lat="43.64939" lon="3.76343">
        <ele>151</ele>
        <time>2024-04-07T17:30:35.043Z</time>
      </trkpt>
      <trkpt lat="43.64939" lon="3.76346">
        <ele>151.2</ele>
        <time>2024-04-07T17:30:36.043Z</time>
      </trkpt>
      <trkpt lat="43.64938" lon="3.7635">
        <ele>151.3</ele>
        <time>2024-04-07T17:30:37.043Z</time>
      </trkpt>
      <trkpt lat="43.64938" lon="3.76356">
        <ele>151.5</ele>
        <time>2024-04-07T17:30:38.043Z</time>
      </trkpt>
      <trkpt lat="43.64939" lon="3.76358">
        <ele>151.7</ele>
        <time>2024-04-07T17:30:39.043Z</time>
      </trkpt>
      <trkpt lat="43.6494" lon="3.76361">
        <ele>151.8</ele>
        <time>2024-04-07T17:30:40.043Z</time>
      </trkpt>
      <trkpt lat="43.64941" lon="3.76362">
        <ele>151.9</ele>
        <time>2024-04-07T17:30:42.043Z</time>
      </trkpt>
      <trkpt lat="43.64945" lon="3.76367">
        <ele>151.9</ele>
        <time>2024-04-07T17:30:43.043Z</time>
      </trkpt>
      <trkpt lat="43.64946" lon="3.76368">
        <ele>151.7</ele>
        <time>2024-04-07T17:30:44.043Z</time>
      </trkpt>
      <trkpt lat="43.64946" lon="3.7637">
        <ele>151.7</ele>
        <time>2024-04-07T17:30:45.043Z</time>
      </trkpt>
      <trkpt lat="43.64946" lon="3.76373">
        <ele>151.7</ele>
        <time>2024-04-07T17:30:46.043Z</time>
      </trkpt>
      <trkpt lat="43.64947" lon="3.76381">
        <ele>151.6</ele>
        <time>2024-04-07T17:30:48.043Z</time>
      </trkpt>
      <trkpt lat="43.64948" lon="3.76387">
        <ele>151.5</ele>
        <time>2024-04-07T17:30:50.043Z</time>
      </trkpt>
      <trkpt lat="43.64947" lon="3.76392">
        <ele>151.6</ele>
        <time>2024-04-07T17:30:51.043Z</time>
      </trkpt>
      <trkpt lat="43.64946" lon="3.76396">
        <ele>151.8</ele>
        <time>2024-04-07T17:30:52.043Z</time>
      </trkpt>
      <trkpt lat="43.64946" lon="3.764">
        <ele>151.8</ele>
        <time>2024-04-07T17:30:53.043Z</time>
      </trkpt>
      <trkpt lat="43.64946" lon="3.76404">
        <ele>151.8</ele>
        <time>2024-04-07T17:30:54.043Z</time>
      </trkpt>
      <trkpt lat="43.64947" lon="3.76406">
        <ele>151.6</ele>
        <time>2024-04-07T17:30:55.043Z</time>
      </trkpt>
      <trkpt lat="43.64948" lon="3.76409">
        <ele>151.5</ele>
        <time>2024-04-07T17:30:56.043Z</time>
      </trkpt>
      <trkpt lat="43.64951" lon="3.76416">
        <ele>151.1</ele>
        <time>2024-04-07T17:30:58.043Z</time>
      </trkpt>
      <trkpt lat="43.64953" lon="3.76422">
        <ele>151</ele>
        <time>2024-04-07T17:31:00.043Z</time>
      </trkpt>
      <trkpt lat="43.64953" lon="3.76427">
        <ele>151.1</ele>
        <time>2024-04-07T17:31:01.043Z</time>
      </trkpt>
      <trkpt lat="43.64953" lon="3.76429">
        <ele>151.2</ele>
        <time>2024-04-07T17:31:02.043Z</time>
      </trkpt>
      <trkpt lat="43.64953" lon="3.76434">
        <ele>151.4</ele>
        <time>2024-04-07T17:31:04.043Z</time>
      </trkpt>
      <trkpt lat="43.64953" lon="3.76438">
        <ele>151.5</ele>
        <time>2024-04-07T17:31:05.043Z</time>
      </trkpt>
      <trkpt lat="43.64954" lon="3.76439">
        <ele>151.4</ele>
        <time>2024-04-07T17:31:06.043Z</time>
      </trkpt>
      <trkpt lat="43.64956" lon="3.76444">
        <ele>151.3</ele>
        <time>2024-04-07T17:31:07.043Z</time>
      </trkpt>
      <trkpt lat="43.64956" lon="3.76446">
        <ele>151.3</ele>
        <time>2024-04-07T17:31:08.043Z</time>
      </trkpt>
      <trkpt lat="43.64959" lon="3.76449">
        <ele>150.9</ele>
        <time>2024-04-07T17:31:09.043Z</time>
      </trkpt>
      <trkpt lat="43.6496" lon="3.76452">
        <ele>150.8</ele>
        <time>2024-04-07T17:31:10.043Z</time>
      </trkpt>
      <trkpt lat="43.64962" lon="3.76457">
        <ele>150.5</ele>
        <time>2024-04-07T17:31:11.043Z</time>
      </trkpt>
      <trkpt lat="43.64962" lon="3.76458">
        <ele>150.5</ele>
        <time>2024-04-07T17:31:12.043Z</time>
      </trkpt>
      <trkpt lat="43.64964" lon="3.76461">
        <ele>150.2</ele>
        <time>2024-04-07T17:31:13.043Z</time>
      </trkpt>
      <trkpt lat="43.64968" lon="3.76495">
        <ele>151</ele>
        <time>2024-04-07T17:31:22.043Z</time>
      </trkpt>
      <trkpt lat="43.64969" lon="3.765">
        <ele>151.2</ele>
        <time>2024-04-07T17:31:23.043Z</time>
      </trkpt>
      <trkpt lat="43.6497" lon="3.76506">
        <ele>151.4</ele>
        <time>2024-04-07T17:31:24.043Z</time>
      </trkpt>
      <trkpt lat="43.64971" lon="3.7651">
        <ele>151.4</ele>
        <time>2024-04-07T17:31:25.043Z</time>
      </trkpt>
      <trkpt lat="43.64972" lon="3.76515">
        <ele>151.6</ele>
        <time>2024-04-07T17:31:26.043Z</time>
      </trkpt>
      <trkpt lat="43.64974" lon="3.76519">
        <ele>151.3</ele>
        <time>2024-04-07T17:31:27.043Z</time>
      </trkpt>
      <trkpt lat="43.64974" lon="3.7653">
        <ele>151.7</ele>
        <time>2024-04-07T17:31:29.043Z</time>
      </trkpt>
      <trkpt lat="43.64975" lon="3.76535">
        <ele>151.5</ele>
        <time>2024-04-07T17:31:30.043Z</time>
      </trkpt>
      <trkpt lat="43.64977" lon="3.7654">
        <ele>151.2</ele>
        <time>2024-04-07T17:31:31.043Z</time>
      </trkpt>
      <trkpt lat="43.64977" lon="3.76541">
        <ele>151.2</ele>
        <time>2024-04-07T17:31:32.043Z</time>
      </trkpt>
      <trkpt lat="43.6498" lon="3.76545">
        <ele>150.8</ele>
        <time>2024-04-07T17:31:33.043Z</time>
      </trkpt>
      <trkpt lat="43.64981" lon="3.76551">
        <ele>150.7</ele>
        <time>2024-04-07T17:31:34.043Z</time>
      </trkpt>
      <trkpt lat="43.64981" lon="3.76557">
        <ele>150.7</ele>
        <time>2024-04-07T17:31:35.043Z</time>
      </trkpt>
      <trkpt lat="43.64981" lon="3.76564">
        <ele>150.7</ele>
        <time>2024-04-07T17:31:36.043Z</time>
      </trkpt>
      <trkpt lat="43.64981" lon="3.7657">
        <ele>150.7</ele>
        <time>2024-04-07T17:31:37.043Z</time>
      </trkpt>
      <trkpt lat="43.64981" lon="3.76576">
        <ele>150.7</ele>
        <time>2024-04-07T17:31:38.043Z</time>
      </trkpt>
      <trkpt lat="43.64981" lon="3.76582">
        <ele>150.7</ele>
        <time>2024-04-07T17:31:39.043Z</time>
      </trkpt>
      <trkpt lat="43.64981" lon="3.76587">
        <ele>150.5</ele>
        <time>2024-04-07T17:31:40.043Z</time>
      </trkpt>
      <trkpt lat="43.64981" lon="3.76591">
        <ele>150.2</ele>
        <time>2024-04-07T17:31:41.043Z</time>
      </trkpt>
      <trkpt lat="43.6498" lon="3.76597">
        <ele>149.9</ele>
        <time>2024-04-07T17:31:42.043Z</time>
      </trkpt>
      <trkpt lat="43.6498" lon="3.76602">
        <ele>149.5</ele>
        <time>2024-04-07T17:31:43.043Z</time>
      </trkpt>
      <trkpt lat="43.64979" lon="3.76607">
        <ele>149.3</ele>
        <time>2024-04-07T17:31:44.043Z</time>
      </trkpt>
      <trkpt lat="43.64979" lon="3.76612">
        <ele>149</ele>
        <time>2024-04-07T17:31:45.043Z</time>
      </trkpt>
      <trkpt lat="43.6498" lon="3.76617">
        <ele>148.7</ele>
        <time>2024-04-07T17:31:46.043Z</time>
      </trkpt>
      <trkpt lat="43.64983" lon="3.76633">
        <ele>148</ele>
        <time>2024-04-07T17:31:48.043Z</time>
      </trkpt>
      <trkpt lat="43.64984" lon="3.7664">
        <ele>147.8</ele>
        <time>2024-04-07T17:31:49.043Z</time>
      </trkpt>
      <trkpt lat="43.64983" lon="3.76647">
        <ele>148.2</ele>
        <time>2024-04-07T17:31:50.043Z</time>
      </trkpt>
      <trkpt lat="43.64982" lon="3.76654">
        <ele>148.7</ele>
        <time>2024-04-07T17:31:52.043Z</time>
      </trkpt>
      <trkpt lat="43.64983" lon="3.76666">
        <ele>149.2</ele>
        <time>2024-04-07T17:31:53.043Z</time>
      </trkpt>
      <trkpt lat="43.64983" lon="3.76672">
        <ele>149.3</ele>
        <time>2024-04-07T17:31:54.043Z</time>
      </trkpt>
      <trkpt lat="43.64983" lon="3.76679">
        <ele>149.4</ele>
        <time>2024-04-07T17:31:56.043Z</time>
      </trkpt>
      <trkpt lat="43.64984" lon="3.76684">
        <ele>149.4</ele>
        <time>2024-04-07T17:31:57.043Z</time>
      </trkpt>
      <trkpt lat="43.64983" lon="3.7669">
        <ele>149.5</ele>
        <time>2024-04-07T17:31:58.043Z</time>
      </trkpt>
      <trkpt lat="43.64984" lon="3.76701">
        <ele>149.8</ele>
        <time>2024-04-07T17:31:59.043Z</time>
      </trkpt>
      <trkpt lat="43.64983" lon="3.76706">
        <ele>150</ele>
        <time>2024-04-07T17:32:00.043Z</time>
      </trkpt>
      <trkpt lat="43.64981" lon="3.76716">
        <ele>150.5</ele>
        <time>2024-04-07T17:32:02.043Z</time>
      </trkpt>
      <trkpt lat="43.64979" lon="3.76725">
        <ele>150.7</ele>
        <time>2024-04-07T17:32:04.043Z</time>
      </trkpt>
      <trkpt lat="43.64978" lon="3.76728">
        <ele>150.7</ele>
        <time>2024-04-07T17:32:05.043Z</time>
      </trkpt>
      <trkpt lat="43.64977" lon="3.76732">
        <ele>150.8</ele>
        <time>2024-04-07T17:32:06.043Z</time>
      </trkpt>
      <trkpt lat="43.64976" lon="3.76737">
        <ele>150.8</ele>
        <time>2024-04-07T17:32:07.043Z</time>
      </trkpt>
      <trkpt lat="43.64975" lon="3.76741">
        <ele>150.8</ele>
        <time>2024-04-07T17:32:08.043Z</time>
      </trkpt>
      <trkpt lat="43.64975" lon="3.7675">
        <ele>150.8</ele>
        <time>2024-04-07T17:32:10.043Z</time>
      </trkpt>
      <trkpt lat="43.64975" lon="3.76756">
        <ele>150.6</ele>
        <time>2024-04-07T17:32:11.043Z</time>
      </trkpt>
      <trkpt lat="43.64974" lon="3.76761">
        <ele>150.5</ele>
        <time>2024-04-07T17:32:13.043Z</time>
      </trkpt>
      <trkpt lat="43.64974" lon="3.76772">
        <ele>150.1</ele>
        <time>2024-04-07T17:32:14.043Z</time>
      </trkpt>
      <trkpt lat="43.64974" lon="3.76781">
        <ele>150</ele>
        <time>2024-04-07T17:32:16.043Z</time>
      </trkpt>
      <trkpt lat="43.64973" lon="3.76786">
        <ele>150.3</ele>
        <time>2024-04-07T17:32:17.043Z</time>
      </trkpt>
      <trkpt lat="43.64973" lon="3.76794">
        <ele>150.5</ele>
        <time>2024-04-07T17:32:19.043Z</time>
      </trkpt>
      <trkpt lat="43.64974" lon="3.76799">
        <ele>150.7</ele>
        <time>2024-04-07T17:32:20.043Z</time>
      </trkpt>
      <trkpt lat="43.64974" lon="3.76801">
        <ele>150.7</ele>
        <time>2024-04-07T17:32:21.043Z</time>
      </trkpt>
      <trkpt lat="43.64975" lon="3.76807">
        <ele>150.8</ele>
        <time>2024-04-07T17:32:22.043Z</time>
      </trkpt>
      <trkpt lat="43.64978" lon="3.76819">
        <ele>150.6</ele>
        <time>2024-04-07T17:32:24.043Z</time>
      </trkpt>
      <trkpt lat="43.64979" lon="3.76824">
        <ele>150.5</ele>
        <time>2024-04-07T17:32:25.043Z</time>
      </trkpt>
      <trkpt lat="43.64979" lon="3.7683">
        <ele>150.5</ele>
        <time>2024-04-07T17:32:26.043Z</time>
      </trkpt>
      <trkpt lat="43.64981" lon="3.76847">
        <ele>150.4</ele>
        <time>2024-04-05T00:50:14.013Z</time>
      </trkpt>
      <trkpt lat="43.64984" lon="3.76858">
        <ele>150.2</ele>
        <time>2024-04-03T04:40:30.295Z</time>
      </trkpt>
      <trkpt lat="43.64984" lon="3.7687">
        <ele>149.9</ele>
        <time>2024-04-01T07:35:38.982Z</time>
      </trkpt>
      <trkpt lat="43.64985" lon="3.76889">
        <ele>149.2</ele>
        <time>2024-03-29T08:01:38.876Z</time>
      </trkpt>
      <trkpt lat="43.64985" lon="3.76933">
        <ele>147.7</ele>
        <time>2024-03-22T10:43:50.828Z</time>
      </trkpt>
      <trkpt lat="43.64986" lon="3.76974">
        <ele>145.9</ele>
        <time>2024-03-16T00:37:00.717Z</time>
      </trkpt>
      <trkpt lat="43.64983" lon="3.76992">
        <ele>144.8</ele>
        <time>2024-03-13T03:13:29.331Z</time>
      </trkpt>
      <trkpt lat="43.64978" lon="3.77024">
        <ele>143.1</ele>
        <time>2024-03-08T00:14:16.759Z</time>
      </trkpt>
      <trkpt lat="43.64974" lon="3.77058">
        <ele>140.2</ele>
        <time>2024-03-02T14:49:52.398Z</time>
      </trkpt>
      <trkpt lat="43.64974" lon="3.77091">
        <ele>135.7</ele>
        <time>2024-02-26T10:51:30.544Z</time>
      </trkpt>
      <trkpt lat="43.64965" lon="3.77104">
        <ele>136.6</ele>
        <time>2024-02-23T15:16:01.772Z</time>
      </trkpt>
      <trkpt lat="43.64969" lon="3.7713">
        <ele>132.9</ele>
        <time>2024-02-19T11:24:29.298Z</time>
      </trkpt>
      <trkpt lat="43.64978" lon="3.7717">
        <ele>128.3</ele>
        <time>2024-02-12T22:02:26.295Z</time>
      </trkpt>
      <trkpt lat="43.64989" lon="3.77225">
        <ele>126.5</ele>
        <time>2024-02-03T23:40:19.253Z</time>
      </trkpt>
      <trkpt lat="43.6499" lon="3.77268">
        <ele>122.3</ele>
        <time>2024-01-28T06:02:55.624Z</time>
      </trkpt>
      <trkpt lat="43.65004" lon="3.77376">
        <ele>117.8</ele>
        <time>2024-01-11T01:51:42.278Z</time>
      </trkpt>
      <trkpt lat="43.65" lon="3.77393">
        <ele>118.4</ele>
        <time>2024-01-08T06:42:19.619Z</time>
      </trkpt>
      <trkpt lat="43.64988" lon="3.77415">
        <ele>116.2</ele>
        <time>2024-01-03T23:12:16.463Z</time>
      </trkpt>
      <trkpt lat="43.64985" lon="3.77432">
        <ele>112.6</ele>
        <time>2024-01-01T05:28:04.857Z</time>
      </trkpt>
      <trkpt lat="43.6497" lon="3.77464">
        <ele>111</ele>
        <time>2023-12-26T06:13:49.259Z</time>
      </trkpt>
      <trkpt lat="43.64967" lon="3.775">
        <ele>113.9</ele>
        <time>2023-12-20T14:05:35.762Z</time>
      </trkpt>
      <trkpt lat="43.64967" lon="3.7754">
        <ele>115.2</ele>
        <time>2023-12-14T07:49:23.188Z</time>
      </trkpt>
      <trkpt lat="43.64955" lon="3.77574">
        <ele>112.8</ele>
        <time>2023-12-08T09:42:30.163Z</time>
      </trkpt>
      <trkpt lat="43.64954" lon="3.77593">
        <ele>109.9</ele>
        <time>2023-12-05T10:08:28.777Z</time>
      </trkpt>
      <trkpt lat="43.64938" lon="3.77596">
        <ele>109.4</ele>
        <time>2023-12-01T22:18:33.100Z</time>
      </trkpt>
      <trkpt lat="43.64922" lon="3.77594">
        <ele>107.5</ele>
        <time>2023-11-28T10:53:56.406Z</time>
      </trkpt>
      <trkpt lat="43.64905" lon="3.77588">
        <ele>105.8</ele>
        <time>2023-11-24T15:48:11.459Z</time>
      </trkpt>
      <trkpt lat="43.64895" lon="3.77574">
        <ele>106.3</ele>
        <time>2023-11-21T13:53:55.221Z</time>
      </trkpt>
      <trkpt lat="43.6489" lon="3.77569">
        <ele>106.2</ele>
        <time>2023-11-20T05:51:20.880Z</time>
      </trkpt>
      <trkpt lat="43.64883" lon="3.7758">
        <ele>105.1</ele>
        <time>2023-11-17T22:49:23.077Z</time>
      </trkpt>
      <trkpt lat="43.64871" lon="3.77593">
        <ele>104.4</ele>
        <time>2023-11-14T15:39:33.421Z</time>
      </trkpt>
      <trkpt lat="43.64865" lon="3.77616">
        <ele>101.2</ele>
        <time>2023-11-10T19:48:30.821Z</time>
      </trkpt>
      <trkpt lat="43.64858" lon="3.77656">
        <ele>96.8</ele>
        <time>2023-11-04T09:12:12.057Z</time>
      </trkpt>
      <trkpt lat="43.64843" lon="3.77666">
        <ele>96.7</ele>
        <time>2023-10-31T18:44:10.963Z</time>
      </trkpt>
      <trkpt lat="43.64823" lon="3.77646">
        <ele>97.6</ele>
        <time>2023-10-26T10:33:52.029Z</time>
      </trkpt>
      <trkpt lat="43.64812" lon="3.77643">
        <ele>98</ele>
        <time>2023-10-24T00:21:05.810Z</time>
      </trkpt>
      <trkpt lat="43.64799" lon="3.77626">
        <ele>99.5</ele>
        <time>2023-10-20T03:25:45.701Z</time>
      </trkpt>
      <trkpt lat="43.64777" lon="3.77601">
        <ele>100.4</ele>
        <time>2023-10-13T23:33:02.333Z</time>
      </trkpt>
      <trkpt lat="43.64763" lon="3.776">
        <ele>100.9</ele>
        <time>2023-10-10T22:45:59.101Z</time>
      </trkpt>
      <trkpt lat="43.6475" lon="3.77604">
        <ele>101.3</ele>
        <time>2023-10-08T01:37:06.513Z</time>
      </trkpt>
      <trkpt lat="43.64733" lon="3.77601">
        <ele>103.8</ele>
        <time>2023-10-04T08:38:19.487Z</time>
      </trkpt>
      <trkpt lat="43.64711" lon="3.77563">
        <ele>105.5</ele>
        <time>2023-09-26T17:48:20.135Z</time>
      </trkpt>
      <trkpt lat="43.64702" lon="3.77509">
        <ele>107.8</ele>
        <time>2023-09-18T01:37:13.039Z</time>
      </trkpt>
      <trkpt lat="43.64692" lon="3.77439">
        <ele>111.1</ele>
        <time>2023-09-06T21:33:34.595Z</time>
      </trkpt>
      <trkpt lat="43.64691" lon="3.774">
        <ele>113.9</ele>
        <time>2023-08-31T18:56:51.088Z</time>
      </trkpt>
      <trkpt lat="43.64691" lon="3.7738">
        <ele>115.4</ele>
        <time>2023-08-28T15:48:32.371Z</time>
      </trkpt>
      <trkpt lat="43.64682" lon="3.77337">
        <ele>118.9</ele>
        <time>2023-08-21T15:38:19.786Z</time>
      </trkpt>
      <trkpt lat="43.6467" lon="3.77284">
        <ele>121.4</ele>
        <time>2023-08-12T23:00:05.484Z</time>
      </trkpt>
      <trkpt lat="43.64665" lon="3.77248">
        <ele>125.3</ele>
        <time>2023-08-07T05:16:58.182Z</time>
      </trkpt>
      <trkpt lat="43.64657" lon="3.77216">
        <ele>128.6</ele>
        <time>2023-08-01T22:05:15.848Z</time>
      </trkpt>
      <trkpt lat="43.64651" lon="3.77185">
        <ele>130.4</ele>
        <time>2023-07-27T21:31:41.167Z</time>
      </trkpt>
      <trkpt lat="43.64646" lon="3.77145">
        <ele>131.7</ele>
        <time>2023-07-21T13:01:27.326Z</time>
      </trkpt>
      <trkpt lat="43.64649" lon="3.77127">
        <ele>132.7</ele>
        <time>2023-07-18T15:37:42.630Z</time>
      </trkpt>
      <trkpt lat="43.64644" lon="3.77114">
        <ele>132.5</ele>
        <time>2023-07-16T08:19:03.497Z</time>
      </trkpt>
      <trkpt lat="43.64638" lon="3.77113">
        <ele>131.9</ele>
        <time>2023-07-15T00:56:24.888Z</time>
      </trkpt>
      <trkpt lat="43.64625" lon="3.77117">
        <ele>131.3</ele>
        <time>2023-07-12T03:47:32.055Z</time>
      </trkpt>
      <trkpt lat="43.64617" lon="3.77121">
        <ele>130.9</ele>
        <time>2023-07-10T07:37:18.017Z</time>
      </trkpt>
      <trkpt lat="43.64601" lon="3.77125">
        <ele>130.7</ele>
        <time>2023-07-06T19:12:07.968Z</time>
      </trkpt>
      <trkpt lat="43.64584" lon="3.77131">
        <ele>131</ele>
        <time>2023-07-03T00:06:21.948Z</time>
      </trkpt>
      <trkpt lat="43.64573" lon="3.7714">
        <ele>131</ele>
        <time>2023-06-30T05:44:08.601Z</time>
      </trkpt>
      <trkpt lat="43.64566" lon="3.77169">
        <ele>131.4</ele>
        <time>2023-06-25T10:52:51.240Z</time>
      </trkpt>
      <trkpt lat="43.64563" lon="3.77202">
        <ele>131.8</ele>
        <time>2023-06-20T05:55:30.507Z</time>
      </trkpt>
      <trkpt lat="43.64563" lon="3.77223">
        <ele>132.6</ele>
        <time>2023-06-16T23:01:40.802Z</time>
      </trkpt>
      <trkpt lat="43.64574" lon="3.77273">
        <ele>134.6</ele>
        <time>2023-06-08T18:41:16.829Z</time>
      </trkpt>
      <trkpt lat="43.64576" lon="3.77293">
        <ele>135.3</ele>
        <time>2023-06-05T14:50:02.123Z</time>
      </trkpt>
      <trkpt lat="43.64581" lon="3.77308">
        <ele>135.9</ele>
        <time>2023-06-03T00:47:14.152Z</time>
      </trkpt>
      <trkpt lat="43.6459" lon="3.77311">
        <ele>134.7</ele>
        <time>2023-06-01T00:43:10.823Z</time>
      </trkpt>
      <trkpt lat="43.64599" lon="3.77313">
        <ele>132.9</ele>
        <time>2023-05-30T01:23:30.836Z</time>
      </trkpt>
      <trkpt lat="43.64608" lon="3.77313">
        <ele>131.1</ele>
        <time>2023-05-28T02:39:51.869Z</time>
      </trkpt>
      <trkpt lat="43.64613" lon="3.77314">
        <ele>130</ele>
        <time>2023-05-27T00:26:03.259Z</time>
      </trkpt>
      <trkpt lat="43.64624" lon="3.77323">
        <ele>127.5</ele>
        <time>2023-05-24T06:03:50.325Z</time>
      </trkpt>
      <trkpt lat="43.64626" lon="3.77341">
        <ele>126.7</ele>
        <time>2023-05-21T09:38:45.522Z</time>
      </trkpt>
      <trkpt lat="43.6463" lon="3.77369">
        <ele>126</ele>
        <time>2023-05-16T22:25:13.876Z</time>
      </trkpt>
      <trkpt lat="43.64627" lon="3.77401">
        <ele>125.8</ele>
        <time>2023-05-11T21:11:34.192Z</time>
      </trkpt>
      <trkpt lat="43.64623" lon="3.77432">
        <ele>125.1</ele>
        <time>2023-05-06T22:53:22.922Z</time>
      </trkpt>
      <trkpt lat="43.64615" lon="3.77467">
        <ele>123.9</ele>
        <time>2023-05-01T04:59:29.896Z</time>
      </trkpt>
      <trkpt lat="43.64607" lon="3.77496">
        <ele>122.5</ele>
        <time>2023-04-26T08:23:26.031Z</time>
      </trkpt>
      <trkpt lat="43.646" lon="3.77529">
        <ele>122.3</ele>
        <time>2023-04-20T23:11:35.042Z</time>
      </trkpt>
      <trkpt lat="43.64596" lon="3.77566">
        <ele>120.8</ele>
        <time>2023-04-15T02:38:30.643Z</time>
      </trkpt>
      <trkpt lat="43.64593" lon="3.7759">
        <ele>120.8</ele>
        <time>2023-04-11T07:08:19.463Z</time>
      </trkpt>
      <trkpt lat="43.64581" lon="3.77616">
        <ele>123.9</ele>
        <time>2023-04-06T11:16:45.095Z</time>
      </trkpt>
      <trkpt lat="43.64567" lon="3.7763">
        <ele>126.8</ele>
        <time>2023-04-02T17:33:27.055Z</time>
      </trkpt>
      <trkpt lat="43.6455" lon="3.77644">
        <ele>129.6</ele>
        <time>2023-03-29T10:48:38.180Z</time>
      </trkpt>
      <trkpt lat="43.64539" lon="3.77665">
        <ele>132.7</ele>
        <time>2023-03-25T09:24:42.865Z</time>
      </trkpt>
      <trkpt lat="43.64529" lon="3.7768">
        <ele>134.4</ele>
        <time>2023-03-22T04:47:08.989Z</time>
      </trkpt>
      <trkpt lat="43.6452" lon="3.77687">
        <ele>134.5</ele>
        <time>2023-03-19T23:09:56.898Z</time>
      </trkpt>
      <trkpt lat="43.64516" lon="3.77697">
        <ele>134.5</ele>
        <time>2023-03-18T04:14:15.330Z</time>
      </trkpt>
      <trkpt lat="43.64514" lon="3.77714">
        <ele>134.2</ele>
        <time>2023-03-15T11:31:45.732Z</time>
      </trkpt>
      <trkpt lat="43.64506" lon="3.7774">
        <ele>133.3</ele>
        <time>2023-03-11T01:22:56.677Z</time>
      </trkpt>
      <trkpt lat="43.64497" lon="3.77764">
        <ele>131.8</ele>
        <time>2023-03-06T19:49:29.745Z</time>
      </trkpt>
      <trkpt lat="43.64492" lon="3.77788">
        <ele>130.3</ele>
        <time>2023-03-02T21:59:35.596Z</time>
      </trkpt>
      <trkpt lat="43.6449" lon="3.77804">
        <ele>129.7</ele>
        <time>2023-02-28T08:59:24.468Z</time>
      </trkpt>
      <trkpt lat="43.64494" lon="3.77832">
        <ele>128.8</ele>
        <time>2023-02-23T21:45:44.411Z</time>
      </trkpt>
      <trkpt lat="43.64524" lon="3.77858">
        <ele>128.2</ele>
        <time>2023-02-16T05:54:26.741Z</time>
      </trkpt>
      <trkpt lat="43.64538" lon="3.77892">
        <ele>128.1</ele>
        <time>2023-02-10T02:56:08.890Z</time>
      </trkpt>
      <trkpt lat="43.64553" lon="3.77958">
        <ele>126</ele>
        <time>2023-01-30T07:01:48.929Z</time>
      </trkpt>
      <trkpt lat="43.64571" lon="3.7804">
        <ele>125.6</ele>
        <time>2023-01-16T21:05:33.718Z</time>
      </trkpt>
      <trkpt lat="43.64586" lon="3.78127">
        <ele>125.6</ele>
        <time>2023-01-02T21:05:02.668Z</time>
      </trkpt>
      <trkpt lat="43.64617" lon="3.78244">
        <ele>124.3</ele>
        <time>2022-12-14T08:58:37.725Z</time>
      </trkpt>
      <trkpt lat="43.64655" lon="3.78345">
        <ele>124.6</ele>
        <time>2022-11-26T13:17:52.641Z</time>
      </trkpt>
      <trkpt lat="43.64666" lon="3.78343">
        <ele>125</ele>
        <time>2022-11-24T03:41:39.891Z</time>
      </trkpt>
      <trkpt lat="43.64685" lon="3.78318">
        <ele>126</ele>
        <time>2022-11-18T11:29:08.408Z</time>
      </trkpt>
      <trkpt lat="43.64714" lon="3.78294">
        <ele>128.8</ele>
        <time>2022-11-11T03:59:09.372Z</time>
      </trkpt>
      <trkpt lat="43.64737" lon="3.78272">
        <ele>130.7</ele>
        <time>2022-11-05T02:45:28.118Z</time>
      </trkpt>
      <trkpt lat="43.64747" lon="3.78255">
        <ele>131.7</ele>
        <time>2022-11-01T16:26:58.414Z</time>
      </trkpt>
      <trkpt lat="43.64755" lon="3.78248">
        <ele>132.4</ele>
        <time>2022-10-30T15:17:19.021Z</time>
      </trkpt>
      <trkpt lat="43.64761" lon="3.78252">
        <ele>132.7</ele>
        <time>2022-10-29T04:42:06.221Z</time>
      </trkpt>
      <trkpt lat="43.64769" lon="3.78279">
        <ele>132.3</ele>
        <time>2022-10-24T15:05:29.156Z</time>
      </trkpt>
      <trkpt lat="43.64785" lon="3.78325">
        <ele>132.4</ele>
        <time>2022-10-16T15:20:46.373Z</time>
      </trkpt>
      <trkpt lat="43.64804" lon="3.78358">
        <ele>131.2</ele>
        <time>2022-10-10T00:54:43.500Z</time>
      </trkpt>
      <trkpt lat="43.64821" lon="3.78399">
        <ele>130.2</ele>
        <time>2022-10-02T15:23:05.907Z</time>
      </trkpt>
      <trkpt lat="43.64831" lon="3.78413">
        <ele>130.1</ele>
        <time>2022-09-29T13:28:48.009Z</time>
      </trkpt>
      <trkpt lat="43.64839" lon="3.78438">
        <ele>129.5</ele>
        <time>2022-09-25T06:47:04.664Z</time>
      </trkpt>
      <trkpt lat="43.64843" lon="3.78453">
        <ele>129</ele>
        <time>2022-09-22T18:43:37.650Z</time>
      </trkpt>
      <trkpt lat="43.64851" lon="3.7847">
        <ele>128.7</ele>
        <time>2022-09-19T14:32:33.412Z</time>
      </trkpt>
      <trkpt lat="43.64863" lon="3.78481">
        <ele>129.1</ele>
        <time>2022-09-16T11:46:47.636Z</time>
      </trkpt>
      <trkpt lat="43.64875" lon="3.78497">
        <ele>129.1</ele>
        <time>2022-09-12T21:12:26.568Z</time>
      </trkpt>
      <trkpt lat="43.64886" lon="3.78509">
        <ele>129</ele>
        <time>2022-09-09T20:26:49.300Z</time>
      </trkpt>
      <trkpt lat="43.64906" lon="3.7853">
        <ele>129.6</ele>
        <time>2022-09-04T10:02:15.908Z</time>
      </trkpt>
      <trkpt lat="43.64919" lon="3.78544">
        <ele>129.8</ele>
        <time>2022-08-31T20:28:11.832Z</time>
      </trkpt>
      <trkpt lat="43.64932" lon="3.78566">
        <ele>129.1</ele>
        <time>2022-08-27T09:45:44.771Z</time>
      </trkpt>
      <trkpt lat="43.64939" lon="3.78585">
        <ele>129.2</ele>
        <time>2022-08-24T01:39:50.021Z</time>
      </trkpt>
      <trkpt lat="43.64942" lon="3.78599">
        <ele>129.6</ele>
        <time>2022-08-21T18:48:40.317Z</time>
      </trkpt>
      <trkpt lat="43.64938" lon="3.78622">
        <ele>129.9</ele>
        <time>2022-08-18T01:56:41.002Z</time>
      </trkpt>
      <trkpt lat="43.64888" lon="3.7869">
        <ele>128</ele>
        <time>2022-08-02T21:43:53.242Z</time>
      </trkpt>
      <trkpt lat="43.64875" lon="3.78717">
        <ele>126.7</ele>
        <time>2022-07-28T19:53:37.497Z</time>
      </trkpt>
      <trkpt lat="43.64831" lon="3.7877">
        <ele>125.3</ele>
        <time>2022-07-16T04:51:15.905Z</time>
      </trkpt>
      <trkpt lat="43.64806" lon="3.78812">
        <ele>125.7</ele>
        <time>2022-07-07T16:32:22.167Z</time>
      </trkpt>
      <trkpt lat="43.64771" lon="3.78839">
        <ele>124.2</ele>
        <time>2022-06-29T00:25:39.238Z</time>
      </trkpt>
      <trkpt lat="43.64736" lon="3.78875">
        <ele>123.3</ele>
        <time>2022-06-19T13:54:10.262Z</time>
      </trkpt>
      <trkpt lat="43.64733" lon="3.78808">
        <ele>124</ele>
        <time>2022-06-09T01:42:32.898Z</time>
      </trkpt>
      <trkpt lat="43.64726" lon="3.78776">
        <ele>123.1</ele>
        <time>2022-06-03T20:06:53.567Z</time>
      </trkpt>
      <trkpt lat="43.64725" lon="3.78755">
        <ele>123</ele>
        <time>2022-05-31T13:02:57.199Z</time>
      </trkpt>
      <trkpt lat="43.64733" lon="3.78722">
        <ele>123</ele>
        <time>2022-05-26T02:17:55.374Z</time>
      </trkpt>
      <trkpt lat="43.64735" lon="3.78668">
        <ele>122.5</ele>
        <time>2022-05-17T15:09:38.009Z</time>
      </trkpt>
      <trkpt lat="43.64729" lon="3.78629">
        <ele>122.1</ele>
        <time>2022-05-11T09:21:59.113Z</time>
      </trkpt>
      <trkpt lat="43.64707" lon="3.78657">
        <ele>122.8</ele>
        <time>2022-05-04T22:05:03.856Z</time>
      </trkpt>
      <trkpt lat="43.64677" lon="3.78725">
        <ele>123.6</ele>
        <time>2022-04-22T10:52:31.227Z</time>
      </trkpt>
      <trkpt lat="43.64656" lon="3.78776">
        <ele>123.6</ele>
        <time>2022-04-13T06:25:17.974Z</time>
      </trkpt>
      <trkpt lat="43.64628" lon="3.78842">
        <ele>123.3</ele>
        <time>2022-04-01T06:59:20.766Z</time>
      </trkpt>
      <trkpt lat="43.64591" lon="3.78911">
        <ele>123.2</ele>
        <time>2022-03-18T20:20:14.817Z</time>
      </trkpt>
      <trkpt lat="43.64547" lon="3.78986">
        <ele>123.8</ele>
        <time>2022-03-03T17:35:29.393Z</time>
      </trkpt>
      <trkpt lat="43.64524" lon="3.79031">
        <ele>123.9</ele>
        <time>2022-02-23T02:36:19.763Z</time>
      </trkpt>
      <trkpt lat="43.64501" lon="3.79068">
        <ele>124</ele>
        <time>2022-02-15T11:20:48.299Z</time>
      </trkpt>
      <trkpt lat="43.64477" lon="3.79108">
        <ele>124</ele>
        <time>2022-02-07T08:07:30.012Z</time>
      </trkpt>
      <trkpt lat="43.64457" lon="3.79131">
        <ele>124.7</ele>
        <time>2022-02-01T17:02:01.634Z</time>
      </trkpt>
      <trkpt lat="43.64448" lon="3.79135">
        <ele>124.9</ele>
        <time>2022-01-30T15:56:56.695Z</time>
      </trkpt>
      <trkpt lat="43.64428" lon="3.79134">
        <ele>124.3</ele>
        <time>2022-01-26T08:02:32.160Z</time>
      </trkpt>
      <trkpt lat="43.644" lon="3.7914">
        <ele>124.6</ele>
        <time>2022-01-20T04:55:49.585Z</time>
      </trkpt>
      <trkpt lat="43.64379" lon="3.79147">
        <ele>125.1</ele>
        <time>2022-01-15T12:46:21.094Z</time>
      </trkpt>
      <trkpt lat="43.64359" lon="3.79154">
        <ele>125.6</ele>
        <time>2022-01-11T01:39:17.484Z</time>
      </trkpt>
      <trkpt lat="43.64343" lon="3.79155">
        <ele>126.2</ele>
        <time>2022-01-07T14:29:55.829Z</time>
      </trkpt>
      <trkpt lat="43.64331" lon="3.7916">
        <ele>126.7</ele>
        <time>2022-01-04T21:25:29.917Z</time>
      </trkpt>
      <trkpt lat="43.64318" lon="3.79175">
        <ele>126.3</ele>
        <time>2022-01-01T05:29:40.375Z</time>
      </trkpt>
      <trkpt lat="43.64315" lon="3.79187">
        <ele>126.1</ele>
        <time>2021-12-30T05:47:38.202Z</time>
      </trkpt>
      <trkpt lat="43.64309" lon="3.79201">
        <ele>125.4</ele>
        <time>2021-12-27T16:39:40.200Z</time>
      </trkpt>
      <trkpt lat="43.64299" lon="3.79213">
        <ele>123.4</ele>
        <time>2021-12-24T19:53:52.693Z</time>
      </trkpt>
      <trkpt lat="43.64288" lon="3.79215">
        <ele>122.5</ele>
        <time>2021-12-22T10:17:39.727Z</time>
      </trkpt>
      <trkpt lat="43.64287" lon="3.79234">
        <ele>121.9</ele>
        <time>2021-12-19T10:43:09.882Z</time>
      </trkpt>
      <trkpt lat="43.6429" lon="3.79257">
        <ele>119.7</ele>
        <time>2021-12-15T18:54:42.486Z</time>
      </trkpt>
      <trkpt lat="43.64286" lon="3.79289">
        <ele>114.5</ele>
        <time>2021-12-10T16:54:05.819Z</time>
      </trkpt>
      <trkpt lat="43.64286" lon="3.79313">
        <ele>110.4</ele>
        <time>2021-12-06T22:43:45.474Z</time>
      </trkpt>
      <trkpt lat="43.64278" lon="3.79362">
        <ele>102.8</ele>
        <time>2021-11-29T02:00:00.216Z</time>
      </trkpt>
      <trkpt lat="43.6427" lon="3.79394">
        <ele>99.2</ele>
        <time>2021-11-23T18:47:51.528Z</time>
      </trkpt>
      <trkpt lat="43.64264" lon="3.79416">
        <ele>95.6</ele>
        <time>2021-11-20T02:27:50.928Z</time>
      </trkpt>
      <trkpt lat="43.64265" lon="3.79428">
        <ele>93.7</ele>
        <time>2021-11-18T05:04:47.532Z</time>
      </trkpt>
      <trkpt lat="43.64271" lon="3.79433">
        <ele>91.9</ele>
        <time>2021-11-16T16:42:07.761Z</time>
      </trkpt>
      <trkpt lat="43.64286" lon="3.79432">
        <ele>88.7</ele>
        <time>2021-11-13T10:43:56.737Z</time>
      </trkpt>
      <trkpt lat="43.64295" lon="3.79437">
        <ele>85.2</ele>
        <time>2021-11-11T08:22:12.220Z</time>
      </trkpt>
      <trkpt lat="43.64294" lon="3.79463">
        <ele>80.5</ele>
        <time>2021-11-07T06:32:44.324Z</time>
      </trkpt>
      <trkpt lat="43.64289" lon="3.79477">
        <ele>79.5</ele>
        <time>2021-11-04T19:53:16.891Z</time>
      </trkpt>
      <trkpt lat="43.64293" lon="3.79495">
        <ele>75.9</ele>
        <time>2021-11-01T21:08:31.032Z</time>
      </trkpt>
      <trkpt lat="43.64293" lon="3.79511">
        <ele>73.6</ele>
        <time>2021-10-30T09:01:37.721Z</time>
      </trkpt>
      <trkpt lat="43.64298" lon="3.79524">
        <ele>70.8</ele>
        <time>2021-10-28T01:42:49.517Z</time>
      </trkpt>
      <trkpt lat="43.64307" lon="3.79525">
        <ele>69.2</ele>
        <time>2021-10-26T02:50:07.648Z</time>
      </trkpt>
      <trkpt lat="43.64314" lon="3.79519">
        <ele>69.2</ele>
        <time>2021-10-24T08:04:05.288Z</time>
      </trkpt>
      <trkpt lat="43.64322" lon="3.79514">
        <ele>69.3</ele>
        <time>2021-10-22T10:28:54.718Z</time>
      </trkpt>
      <trkpt lat="43.64332" lon="3.79522">
        <ele>67.2</ele>
        <time>2021-10-19T22:29:22.771Z</time>
      </trkpt>
      <trkpt lat="43.64342" lon="3.79525">
        <ele>67.2</ele>
        <time>2021-10-17T17:21:38.965Z</time>
      </trkpt>
      <trkpt lat="43.64352" lon="3.79531">
        <ele>66.8</ele>
        <time>2021-10-15T08:45:31.086Z</time>
      </trkpt>
      <trkpt lat="43.64359" lon="3.79543">
        <ele>65.2</ele>
        <time>2021-10-12T22:50:54.957Z</time>
      </trkpt>
      <trkpt lat="43.64377" lon="3.79543">
        <ele>63</ele>
        <time>2021-10-09T01:23:37.024Z</time>
      </trkpt>
      <trkpt lat="43.64394" lon="3.79531">
        <ele>62.6</ele>
        <time>2021-10-04T22:16:56.190Z</time>
      </trkpt>
      <trkpt lat="43.64426" lon="3.79498">
        <ele>63.5</ele>
        <time>2021-09-26T06:58:38.277Z</time>
      </trkpt>
      <trkpt lat="43.64443" lon="3.79482">
        <ele>63.3</ele>
        <time>2021-09-21T20:11:16.304Z</time>
      </trkpt>
      <trkpt lat="43.64465" lon="3.79455">
        <ele>65.3</ele>
        <time>2021-09-15T11:25:22.619Z</time>
      </trkpt>
      <trkpt lat="43.64474" lon="3.79447">
        <ele>65.2</ele>
        <time>2021-09-13T03:51:48.587Z</time>
      </trkpt>
      <trkpt lat="43.64501" lon="3.7944">
        <ele>63.1</ele>
        <time>2021-09-07T05:14:07.328Z</time>
      </trkpt>
      <trkpt lat="43.64526" lon="3.7944">
        <ele>61.7</ele>
        <time>2021-09-01T19:26:12.421Z</time>
      </trkpt>
      <trkpt lat="43.64547" lon="3.7944">
        <ele>59.7</ele>
        <time>2021-08-28T06:24:21.499Z</time>
      </trkpt>
      <trkpt lat="43.64571" lon="3.79439">
        <ele>58</ele>
        <time>2021-08-23T01:44:33.735Z</time>
      </trkpt>
      <trkpt lat="43.64585" lon="3.79449">
        <ele>55.4</ele>
        <time>2021-08-19T15:55:12.481Z</time>
      </trkpt>
      <trkpt lat="43.64588" lon="3.79452">
        <ele>54.9</ele>
        <time>2021-08-18T20:41:38.664Z</time>
      </trkpt>
      <trkpt lat="43.6459" lon="3.79455">
        <ele>54.5</ele>
        <time>2021-08-18T05:22:08.162Z</time>
      </trkpt>
      <trkpt lat="43.64595" lon="3.79462">
        <ele>53.9</ele>
        <time>2021-08-16T16:24:56.594Z</time>
      </trkpt>
      <trkpt lat="43.646" lon="3.79468">
        <ele>53.7</ele>
        <time>2021-08-15T06:02:05.440Z</time>
      </trkpt>
      <trkpt lat="43.64601" lon="3.79471">
        <ele>53.7</ele>
        <time>2021-08-14T17:37:31.980Z</time>
      </trkpt>
      <trkpt lat="43.64595" lon="3.79486">
        <ele>53.4</ele>
        <time>2021-08-14T17:56:14.126Z</time>
      </trkpt>
      <trkpt lat="43.64574" lon="3.79535">
        <ele>53.7</ele>
        <time>2021-08-14T18:03:41.550Z</time>
      </trkpt>
      <trkpt lat="43.64564" lon="3.79567">
        <ele>53.3</ele>
        <time>2021-08-14T18:08:15.187Z</time>
      </trkpt>
      <trkpt lat="43.6456" lon="3.79579">
        <ele>53.2</ele>
        <time>2021-08-14T18:10:03.566Z</time>
      </trkpt>
      <trkpt lat="43.64547" lon="3.79617">
        <ele>53.4</ele>
        <time>2021-08-14T18:15:33.784Z</time>
      </trkpt>
      <trkpt lat="43.64525" lon="3.79672">
        <ele>54</ele>
        <time>2021-08-14T18:23:48.409Z</time>
      </trkpt>
      <trkpt lat="43.64503" lon="3.7973">
        <ele>53.5</ele>
        <time>2021-08-14T18:32:26.811Z</time>
      </trkpt>
      <trkpt lat="43.64496" lon="3.7974">
        <ele>53.5</ele>
        <time>2021-08-14T18:34:20.203Z</time>
      </trkpt>
      <trkpt lat="43.64483" lon="3.79762">
        <ele>53.7</ele>
        <time>2021-08-14T18:37:59.126Z</time>
      </trkpt>
      <trkpt lat="43.64466" lon="3.79774">
        <ele>54.2</ele>
        <time>2021-08-14T18:41:29.739Z</time>
      </trkpt>
      <trkpt lat="43.64459" lon="3.79786">
        <ele>54.3</ele>
        <time>2021-08-14T18:43:26.669Z</time>
      </trkpt>
      <trkpt lat="43.64437" lon="3.7979">
        <ele>53.8</ele>
        <time>2021-08-14T18:47:26.197Z</time>
      </trkpt>
      <trkpt lat="43.64428" lon="3.79792">
        <ele>53.7</ele>
        <time>2021-08-14T18:49:07.358Z</time>
      </trkpt>
      <trkpt lat="43.64394" lon="3.79782">
        <ele>53</ele>
        <time>2021-08-14T19:02:50.371Z</time>
      </trkpt>
      <trkpt lat="43.64388" lon="3.79779">
        <ele>53</ele>
        <time>2021-08-14T19:05:23.594Z</time>
      </trkpt>
      <trkpt lat="43.64384" lon="3.79777">
        <ele>53</ele>
        <time>2021-08-14T19:07:08.595Z</time>
      </trkpt>
      <trkpt lat="43.64372" lon="3.79781">
        <ele>53</ele>
        <time>2021-08-14T19:10:58.089Z</time>
      </trkpt>
      <trkpt lat="43.64344" lon="3.7979">
        <ele>52.7</ele>
        <time>2021-08-14T19:19:42.138Z</time>
      </trkpt>
      <trkpt lat="43.64311" lon="3.79813">
        <ele>53</ele>
        <time>2021-08-14T19:30:44.601Z</time>
      </trkpt>
      <trkpt lat="43.6428" lon="3.79823">
        <ele>53.9</ele>
        <time>2021-08-14T19:40:19.717Z</time>
      </trkpt>
      <trkpt lat="43.64275" lon="3.79826">
        <ele>53.9</ele>
        <time>2021-08-14T19:41:57.232Z</time>
      </trkpt>
      <trkpt lat="43.64248" lon="3.79842">
        <ele>53</ele>
        <time>2021-08-14T19:50:41.211Z</time>
      </trkpt>
      <trkpt lat="43.64233" lon="3.79852">
        <ele>53</ele>
        <time>2021-08-14T19:55:45.378Z</time>
      </trkpt>
      <trkpt lat="43.64223" lon="3.79859">
        <ele>53</ele>
        <time>2021-08-14T19:57:50.884Z</time>
      </trkpt>
      <trkpt lat="43.64208" lon="3.79854">
        <ele>51.6</ele>
        <time>2021-08-14T19:57:52.550Z</time>
      </trkpt>
      <trkpt lat="43.64204" lon="3.79867">
        <ele>51.3</ele>
        <time>2021-08-14T19:57:53.653Z</time>
      </trkpt>
      <trkpt lat="43.6422" lon="3.79877">
        <ele>52.9</ele>
        <time>2021-08-14T19:57:53.884Z</time>
      </trkpt>
      <trkpt lat="43.6422" lon="3.79886">
        <ele>52.9</ele>
        <time>2021-08-14T19:57:55.497Z</time>
      </trkpt>
      <trkpt lat="43.64212" lon="3.79889">
        <ele>52.6</ele>
        <time>2021-08-14T19:57:56.744Z</time>
      </trkpt>
      <trkpt lat="43.642" lon="3.79889">
        <ele>52.2</ele>
        <time>2021-08-14T19:57:58.650Z</time>
      </trkpt>
      <trkpt lat="43.64133" lon="3.79939">
        <ele>52.8</ele>
        <time>2021-08-14T19:58:10.309Z</time>
      </trkpt>
      <trkpt lat="43.64067" lon="3.79991">
        <ele>53.2</ele>
        <time>2021-08-14T19:58:21.958Z</time>
      </trkpt>
      <trkpt lat="43.63987" lon="3.8005">
        <ele>53.4</ele>
        <time>2021-08-14T19:58:35.938Z</time>
      </trkpt>
      <trkpt lat="43.63937" lon="3.8008">
        <ele>53.2</ele>
        <time>2021-08-14T19:58:44.297Z</time>
      </trkpt>
      <trkpt lat="43.63891" lon="3.80103">
        <ele>51.5</ele>
        <time>2021-08-14T19:58:51.754Z</time>
      </trkpt>
      <trkpt lat="43.63881" lon="3.80114">
        <ele>52.3</ele>
        <time>2021-08-14T19:58:53.778Z</time>
      </trkpt>
      <trkpt lat="43.63875" lon="3.80111">
        <ele>51</ele>
        <time>2021-08-14T19:58:54.702Z</time>
      </trkpt>
      <trkpt lat="43.63868" lon="3.80116">
        <ele>51.3</ele>
        <time>2021-08-14T19:58:55.848Z</time>
      </trkpt>
      <trkpt lat="43.63864" lon="3.80124">
        <ele>51.9</ele>
        <time>2021-08-14T19:58:56.884Z</time>
      </trkpt>
      <trkpt lat="43.6386" lon="3.8013">
        <ele>52</ele>
        <time>2021-08-14T19:58:53.500Z</time>
      </trkpt>
      <trkpt lat="43.63859" lon="3.80132">
        <ele>52.1</ele>
        <time>2021-08-14T19:58:52.682Z</time>
      </trkpt>
      <trkpt lat="43.63854" lon="3.80133">
        <ele>51.9</ele>
        <time>2021-08-14T19:58:50.094Z</time>
      </trkpt>
      <trkpt lat="43.63852" lon="3.80134">
        <ele>51.8</ele>
        <time>2021-08-14T19:58:49.089Z</time>
      </trkpt>
      <trkpt lat="43.63847" lon="3.80115">
        <ele>49.4</ele>
        <time>2021-08-14T19:58:41.528Z</time>
      </trkpt>
      <trkpt lat="43.63843" lon="3.80116">
        <ele>49.2</ele>
        <time>2021-08-14T19:58:42.528Z</time>
      </trkpt>
      <trkpt lat="43.63842" lon="3.80117">
        <ele>49.3</ele>
        <time>2021-08-14T19:58:43.528Z</time>
      </trkpt>
      <trkpt lat="43.63839" lon="3.80119">
        <ele>49.3</ele>
        <time>2021-08-14T19:58:44.528Z</time>
      </trkpt>
      <trkpt lat="43.63836" lon="3.80121">
        <ele>49.3</ele>
        <time>2021-08-14T19:58:45.528Z</time>
      </trkpt>
      <trkpt lat="43.63833" lon="3.80123">
        <ele>49.3</ele>
        <time>2021-08-14T19:58:46.528Z</time>
      </trkpt>
      <trkpt lat="43.63831" lon="3.80124">
        <ele>49.5</ele>
        <time>2021-08-14T19:58:47.528Z</time>
      </trkpt>
      <trkpt lat="43.63828" lon="3.80126">
        <ele>49.7</ele>
        <time>2021-08-14T19:58:48.528Z</time>
      </trkpt>
      <trkpt lat="43.63825" lon="3.80127">
        <ele>49.7</ele>
        <time>2021-08-14T19:58:49.528Z</time>
      </trkpt>
      <trkpt lat="43.63823" lon="3.80127">
        <ele>49.7</ele>
        <time>2021-08-14T19:58:50.528Z</time>
      </trkpt>
      <trkpt lat="43.63821" lon="3.80128">
        <ele>49.7</ele>
        <time>2021-08-14T19:58:51.528Z</time>
      </trkpt>
      <trkpt lat="43.6382" lon="3.80129">
        <ele>49.7</ele>
        <time>2021-08-14T19:58:52.528Z</time>
      </trkpt>
      <trkpt lat="43.63818" lon="3.8013">
        <ele>49.6</ele>
        <time>2021-08-14T19:58:53.528Z</time>
      </trkpt>
      <trkpt lat="43.63817" lon="3.80131">
        <ele>49.6</ele>
        <time>2021-08-14T19:58:54.528Z</time>
      </trkpt>
      <trkpt lat="43.63816" lon="3.80131">
        <ele>49.5</ele>
        <time>2021-08-14T19:58:55.528Z</time>
      </trkpt>
      <trkpt lat="43.63816" lon="3.80132">
        <ele>49.5</ele>
        <time>2021-08-14T19:58:56.528Z</time>
      </trkpt>
      <trkpt lat="43.63817" lon="3.80132">
        <ele>49.5</ele>
        <time>2021-08-14T19:58:57.528Z</time>
      </trkpt>
      <trkpt lat="43.63817" lon="3.80132">
        <ele>49.5</ele>
        <time>2021-08-14T19:58:58.528Z</time>
      </trkpt>
      <trkpt lat="43.63816" lon="3.80133">
        <ele>49.4</ele>
        <time>2021-08-14T19:58:59.528Z</time>
      </trkpt>
      <trkpt lat="43.63816" lon="3.80133">
        <ele>49.4</ele>
        <time>2021-08-14T19:59:00.528Z</time>
      </trkpt>
      <trkpt lat="43.63816" lon="3.80133">
        <ele>49.4</ele>
        <time>2021-08-14T19:59:01.528Z</time>
      </trkpt>
      <trkpt lat="43.63815" lon="3.80133">
        <ele>49.4</ele>
        <time>2021-08-14T19:59:02.528Z</time>
      </trkpt>
      <trkpt lat="43.63814" lon="3.80134">
        <ele>49.2</ele>
        <time>2021-08-14T19:59:03.528Z</time>
      </trkpt>
      <trkpt lat="43.63812" lon="3.80135">
        <ele>49</ele>
        <time>2021-08-14T19:59:04.528Z</time>
      </trkpt>
      <trkpt lat="43.63811" lon="3.80136">
        <ele>48.9</ele>
        <time>2021-08-14T19:59:05.528Z</time>
      </trkpt>
      <trkpt lat="43.63808" lon="3.80139">
        <ele>48.3</ele>
        <time>2021-08-14T19:59:06.528Z</time>
      </trkpt>
      <trkpt lat="43.63807" lon="3.8014">
        <ele>48.3</ele>
        <time>2021-08-14T19:59:07.528Z</time>
      </trkpt>
      <trkpt lat="43.63805" lon="3.80142">
        <ele>48.4</ele>
        <time>2021-08-14T19:59:08.528Z</time>
      </trkpt>
      <trkpt lat="43.63804" lon="3.80143">
        <ele>48.5</ele>
        <time>2021-08-14T19:59:09.528Z</time>
      </trkpt>
      <trkpt lat="43.63803" lon="3.80144">
        <ele>48.7</ele>
        <time>2021-08-14T19:59:10.528Z</time>
      </trkpt>
      <trkpt lat="43.63801" lon="3.80145">
        <ele>48.8</ele>
        <time>2021-08-14T19:59:11.528Z</time>
      </trkpt>
      <trkpt lat="43.638" lon="3.80146">
        <ele>49</ele>
        <time>2021-08-14T19:59:12.528Z</time>
      </trkpt>
      <trkpt lat="43.63799" lon="3.80147">
        <ele>49.1</ele>
        <time>2021-08-14T19:59:13.528Z</time>
      </trkpt>
      <trkpt lat="43.63798" lon="3.80148">
        <ele>49.2</ele>
        <time>2021-08-14T19:59:14.528Z</time>
      </trkpt>
      <trkpt lat="43.63796" lon="3.8015">
        <ele>49.3</ele>
        <time>2021-08-14T19:59:15.528Z</time>
      </trkpt>
      <trkpt lat="43.63794" lon="3.80152">
        <ele>49.5</ele>
        <time>2021-08-14T19:59:16.528Z</time>
      </trkpt>
      <trkpt lat="43.63794" lon="3.80153">
        <ele>49.5</ele>
        <time>2021-08-14T19:59:17.528Z</time>
      </trkpt>
      <trkpt lat="43.63792" lon="3.80155">
        <ele>49.6</ele>
        <time>2021-08-14T19:59:18.528Z</time>
      </trkpt>
      <trkpt lat="43.6379" lon="3.80155">
        <ele>49.6</ele>
        <time>2021-08-14T19:59:19.528Z</time>
      </trkpt>
      <trkpt lat="43.63789" lon="3.80157">
        <ele>49.6</ele>
        <time>2021-08-14T19:59:20.528Z</time>
      </trkpt>
      <trkpt lat="43.63788" lon="3.80158">
        <ele>49.6</ele>
        <time>2021-08-14T19:59:21.528Z</time>
      </trkpt>
      <trkpt lat="43.63785" lon="3.80161">
        <ele>49.5</ele>
        <time>2021-08-14T19:59:22.528Z</time>
      </trkpt>
      <trkpt lat="43.63784" lon="3.80162">
        <ele>49.5</ele>
        <time>2021-08-14T19:59:23.528Z</time>
      </trkpt>
      <trkpt lat="43.63781" lon="3.80165">
        <ele>49.3</ele>
        <time>2021-08-14T19:59:24.528Z</time>
      </trkpt>
      <trkpt lat="43.63779" lon="3.80165">
        <ele>49.1</ele>
        <time>2021-08-14T19:59:25.528Z</time>
      </trkpt>
      <trkpt lat="43.63776" lon="3.80168">
        <ele>49.2</ele>
        <time>2021-08-14T19:59:26.528Z</time>
      </trkpt>
      <trkpt lat="43.63775" lon="3.80169">
        <ele>49.3</ele>
        <time>2021-08-14T19:59:28.528Z</time>
      </trkpt>
      <trkpt lat="43.63774" lon="3.8017">
        <ele>49.4</ele>
        <time>2021-08-14T19:59:29.528Z</time>
      </trkpt>
      <trkpt lat="43.63774" lon="3.80171">
        <ele>49.5</ele>
        <time>2021-08-14T19:59:30.528Z</time>
      </trkpt>
      <trkpt lat="43.63774" lon="3.80171">
        <ele>49.5</ele>
        <time>2021-08-14T19:59:31.528Z</time>
      </trkpt>
      <trkpt lat="43.63772" lon="3.80176">
        <ele>49.7</ele>
        <time>2021-08-14T19:59:32.528Z</time>
      </trkpt>
      <trkpt lat="43.63772" lon="3.80178">
        <ele>49.8</ele>
        <time>2021-08-14T19:59:33.528Z</time>
      </trkpt>
      <trkpt lat="43.6377" lon="3.80182">
        <ele>49.9</ele>
        <time>2021-08-14T19:59:34.528Z</time>
      </trkpt>
      <trkpt lat="43.63769" lon="3.80186">
        <ele>49.9</ele>
        <time>2021-08-14T19:59:35.528Z</time>
      </trkpt>
      <trkpt lat="43.63769" lon="3.8019">
        <ele>50</ele>
        <time>2021-08-14T19:59:36.528Z</time>
      </trkpt>
      <trkpt lat="43.63768" lon="3.80194">
        <ele>49.9</ele>
        <time>2021-08-14T19:59:37.528Z</time>
      </trkpt>
      <trkpt lat="43.63767" lon="3.80199">
        <ele>49.9</ele>
        <time>2021-08-14T19:59:38.528Z</time>
      </trkpt>
      <trkpt lat="43.63767" lon="3.80201">
        <ele>49.9</ele>
        <time>2021-08-14T19:59:39.528Z</time>
      </trkpt>
      <trkpt lat="43.63768" lon="3.80205">
        <ele>50.1</ele>
        <time>2021-08-14T19:59:40.528Z</time>
      </trkpt>
      <trkpt lat="43.63768" lon="3.80207">
        <ele>50.1</ele>
        <time>2021-08-14T19:59:41.528Z</time>
      </trkpt>
      <trkpt lat="43.6377" lon="3.80219">
        <ele>50.4</ele>
        <time>2021-08-14T19:59:45.528Z</time>
      </trkpt>
      <trkpt lat="43.6377" lon="3.80228">
        <ele>50.3</ele>
        <time>2021-08-14T19:59:50.732Z</time>
      </trkpt>
      <trkpt lat="43.63771" lon="3.80233">
        <ele>50.3</ele>
        <time>2021-08-14T19:59:48.528Z</time>
      </trkpt>
      <trkpt lat="43.63771" lon="3.8024">
        <ele>50.2</ele>
        <time>2021-08-14T19:59:50.528Z</time>
      </trkpt>
      <trkpt lat="43.63772" lon="3.80254">
        <ele>50.3</ele>
        <time>2021-08-14T19:59:55.528Z</time>
      </trkpt>
      <trkpt lat="43.63772" lon="3.80258">
        <ele>50.5</ele>
        <time>2021-08-14T19:59:56.528Z</time>
      </trkpt>
      <trkpt lat="43.63772" lon="3.80263">
        <ele>50.9</ele>
        <time>2021-08-14T19:59:57.528Z</time>
      </trkpt>
      <trkpt lat="43.63773" lon="3.80264">
        <ele>50.8</ele>
        <time>2021-08-14T19:59:58.528Z</time>
      </trkpt>
      <trkpt lat="43.63774" lon="3.80269">
        <ele>50.8</ele>
        <time>2021-08-14T19:59:59.528Z</time>
      </trkpt>
      <trkpt lat="43.63774" lon="3.80271">
        <ele>50.9</ele>
        <time>2021-08-14T20:00:00.528Z</time>
      </trkpt>
      <trkpt lat="43.63775" lon="3.80275">
        <ele>50.8</ele>
        <time>2021-08-14T20:00:01.528Z</time>
      </trkpt>
      <trkpt lat="43.63776" lon="3.80279">
        <ele>50.5</ele>
        <time>2021-08-14T20:00:02.528Z</time>
      </trkpt>
      <trkpt lat="43.63776" lon="3.80283">
        <ele>50.4</ele>
        <time>2021-08-14T20:00:03.528Z</time>
      </trkpt>
      <trkpt lat="43.63777" lon="3.80286">
        <ele>50</ele>
        <time>2021-08-14T20:00:04.528Z</time>
      </trkpt>
      <trkpt lat="43.63779" lon="3.80291">
        <ele>49.6</ele>
        <time>2021-08-14T20:00:05.528Z</time>
      </trkpt>
      <trkpt lat="43.63779" lon="3.80293">
        <ele>49.6</ele>
        <time>2021-08-14T20:00:06.528Z</time>
      </trkpt>
      <trkpt lat="43.6378" lon="3.80299">
        <ele>49.5</ele>
        <time>2021-08-14T20:00:07.528Z</time>
      </trkpt>
      <trkpt lat="43.63781" lon="3.80302">
        <ele>49.5</ele>
        <time>2021-08-14T20:00:08.528Z</time>
      </trkpt>
      <trkpt lat="43.63782" lon="3.80305">
        <ele>49.5</ele>
        <time>2021-08-14T20:00:10.528Z</time>
      </trkpt>
      <trkpt lat="43.63784" lon="3.80309">
        <ele>49.6</ele>
        <time>2021-08-14T20:00:11.528Z</time>
      </trkpt>
      <trkpt lat="43.63785" lon="3.8031">
        <ele>49.7</ele>
        <time>2021-08-14T20:00:12.528Z</time>
      </trkpt>
      <trkpt lat="43.63787" lon="3.80315">
        <ele>49.9</ele>
        <time>2021-08-14T20:00:13.528Z</time>
      </trkpt>
      <trkpt lat="43.63787" lon="3.80317">
        <ele>49.9</ele>
        <time>2021-08-14T20:00:14.528Z</time>
      </trkpt>
      <trkpt lat="43.63789" lon="3.80321">
        <ele>50</ele>
        <time>2021-08-14T20:00:15.528Z</time>
      </trkpt>
      <trkpt lat="43.63791" lon="3.80325">
        <ele>50.1</ele>
        <time>2021-08-14T20:00:16.528Z</time>
      </trkpt>
      <trkpt lat="43.63791" lon="3.80327">
        <ele>50.1</ele>
        <time>2021-08-14T20:00:17.528Z</time>
      </trkpt>
      <trkpt lat="43.63793" lon="3.80332">
        <ele>50.1</ele>
        <time>2021-08-14T20:00:18.528Z</time>
      </trkpt>
      <trkpt lat="43.63794" lon="3.80333">
        <ele>50.2</ele>
        <time>2021-08-14T20:00:19.528Z</time>
      </trkpt>
      <trkpt lat="43.63797" lon="3.80338">
        <ele>50.4</ele>
        <time>2021-08-14T20:00:20.528Z</time>
      </trkpt>
      <trkpt lat="43.63797" lon="3.80339">
        <ele>50.4</ele>
        <time>2021-08-14T20:00:21.528Z</time>
      </trkpt>
      <trkpt lat="43.63799" lon="3.80344">
        <ele>50.4</ele>
        <time>2021-08-14T20:00:22.528Z</time>
      </trkpt>
      <trkpt lat="43.638" lon="3.80345">
        <ele>50.4</ele>
        <time>2021-08-14T20:00:23.528Z</time>
      </trkpt>
      <trkpt lat="43.63802" lon="3.80349">
        <ele>50.4</ele>
        <time>2021-08-14T20:00:24.528Z</time>
      </trkpt>
      <trkpt lat="43.63802" lon="3.8035">
        <ele>50.4</ele>
        <time>2021-08-14T20:00:25.528Z</time>
      </trkpt>
      <trkpt lat="43.63804" lon="3.80355">
        <ele>50.2</ele>
        <time>2021-08-14T20:00:26.528Z</time>
      </trkpt>
      <trkpt lat="43.63804" lon="3.80356">
        <ele>50.2</ele>
        <time>2021-08-14T20:00:27.528Z</time>
      </trkpt>
      <trkpt lat="43.63806" lon="3.80361">
        <ele>50</ele>
        <time>2021-08-14T20:00:28.528Z</time>
      </trkpt>
      <trkpt lat="43.63806" lon="3.80363">
        <ele>50</ele>
        <time>2021-08-14T20:00:29.528Z</time>
      </trkpt>
      <trkpt lat="43.63808" lon="3.80368">
        <ele>49.9</ele>
        <time>2021-08-14T20:00:30.528Z</time>
      </trkpt>
      <trkpt lat="43.63808" lon="3.80369">
        <ele>49.9</ele>
        <time>2021-08-14T20:00:31.528Z</time>
      </trkpt>
      <trkpt lat="43.63809" lon="3.80375">
        <ele>49.8</ele>
        <time>2021-08-14T20:00:32.528Z</time>
      </trkpt>
      <trkpt lat="43.6381" lon="3.80376">
        <ele>49.9</ele>
        <time>2021-08-14T20:00:33.528Z</time>
      </trkpt>
      <trkpt lat="43.63811" lon="3.80381">
        <ele>49.8</ele>
        <time>2021-08-14T20:00:34.528Z</time>
      </trkpt>
      <trkpt lat="43.63811" lon="3.80383">
        <ele>49.8</ele>
        <time>2021-08-14T20:00:35.528Z</time>
      </trkpt>
      <trkpt lat="43.63812" lon="3.80385">
        <ele>49.8</ele>
        <time>2021-08-14T20:00:36.528Z</time>
      </trkpt>
      <trkpt lat="43.63813" lon="3.80386">
        <ele>49.9</ele>
        <time>2021-08-14T20:00:37.528Z</time>
      </trkpt>
      <trkpt lat="43.63813" lon="3.80387">
        <ele>49.9</ele>
        <time>2021-08-14T20:00:38.528Z</time>
      </trkpt>
      <trkpt lat="43.63814" lon="3.80388">
        <ele>49.9</ele>
        <time>2021-08-14T20:00:39.528Z</time>
      </trkpt>
      <trkpt lat="43.63814" lon="3.8039">
        <ele>49.9</ele>
        <time>2021-08-14T20:00:40.528Z</time>
      </trkpt>
      <trkpt lat="43.63815" lon="3.80392">
        <ele>50</ele>
        <time>2021-08-14T20:00:41.528Z</time>
      </trkpt>
      <trkpt lat="43.63815" lon="3.80394">
        <ele>50</ele>
        <time>2021-08-14T20:00:42.528Z</time>
      </trkpt>
      <trkpt lat="43.63817" lon="3.80397">
        <ele>50.1</ele>
        <time>2021-08-14T20:00:43.528Z</time>
      </trkpt>
      <trkpt lat="43.63818" lon="3.80398">
        <ele>50.2</ele>
        <time>2021-08-14T20:00:44.528Z</time>
      </trkpt>
      <trkpt lat="43.63822" lon="3.804">
        <ele>50.5</ele>
        <time>2021-08-14T20:00:45.528Z</time>
      </trkpt>
      <trkpt lat="43.63823" lon="3.80401">
        <ele>50.6</ele>
        <time>2021-08-14T20:00:46.528Z</time>
      </trkpt>
      <trkpt lat="43.63826" lon="3.80403">
        <ele>50.8</ele>
        <time>2021-08-14T20:00:47.528Z</time>
      </trkpt>
      <trkpt lat="43.63827" lon="3.80403">
        <ele>50.9</ele>
        <time>2021-08-14T20:00:48.528Z</time>
      </trkpt>
      <trkpt lat="43.63829" lon="3.80403">
        <ele>51.1</ele>
        <time>2021-08-14T20:00:49.528Z</time>
      </trkpt>
      <trkpt lat="43.63831" lon="3.80403">
        <ele>51.3</ele>
        <time>2021-08-14T20:00:50.528Z</time>
      </trkpt>
      <trkpt lat="43.63834" lon="3.80402">
        <ele>51.6</ele>
        <time>2021-08-14T20:00:51.528Z</time>
      </trkpt>
      <trkpt lat="43.63834" lon="3.80401">
        <ele>51.6</ele>
        <time>2021-08-14T20:00:52.528Z</time>
      </trkpt>
      <trkpt lat="43.63837" lon="3.80398">
        <ele>51.8</ele>
        <time>2021-08-14T20:01:08.528Z</time>
      </trkpt>
      <trkpt lat="43.6384" lon="3.80402">
        <ele>51.8</ele>
        <time>2021-08-14T20:01:14.696Z</time>
      </trkpt>
      <trkpt lat="43.63843" lon="3.80407">
        <ele>51.7</ele>
        <time>2021-08-14T20:01:21.651Z</time>
      </trkpt>
      <trkpt lat="43.63846" lon="3.80413">
        <ele>51.6</ele>
        <time>2021-08-14T20:01:29.460Z</time>
      </trkpt>
      <trkpt lat="43.63852" lon="3.80422">
        <ele>51.4</ele>
        <time>2021-08-14T20:01:42.564Z</time>
      </trkpt>
      <trkpt lat="43.63858" lon="3.80431">
        <ele>51.3</ele>
        <time>2021-08-14T20:01:55.668Z</time>
      </trkpt>
      <trkpt lat="43.63863" lon="3.80439">
        <ele>51.3</ele>
        <time>2021-08-14T20:02:06.987Z</time>
      </trkpt>
      <trkpt lat="43.63871" lon="3.8045">
        <ele>51.4</ele>
        <time>2021-08-14T20:02:23.687Z</time>
      </trkpt>
      <trkpt lat="43.63877" lon="3.80456">
        <ele>51.5</ele>
        <time>2021-08-14T20:02:34.646Z</time>
      </trkpt>
      <trkpt lat="43.63883" lon="3.80469">
        <ele>51.5</ele>
        <time>2021-08-14T20:02:51.157Z</time>
      </trkpt>
      <trkpt lat="43.6389" lon="3.80481">
        <ele>51.9</ele>
        <time>2021-08-14T20:03:07.662Z</time>
      </trkpt>
      <trkpt lat="43.63895" lon="3.80487">
        <ele>52.5</ele>
        <time>2021-08-14T20:03:17.461Z</time>
      </trkpt>
      <trkpt lat="43.63904" lon="3.80488">
        <ele>53.9</ele>
        <time>2021-08-14T20:03:30.821Z</time>
      </trkpt>
      <trkpt lat="43.6391" lon="3.80508">
        <ele>54.5</ele>
        <time>2021-08-14T20:03:54.006Z</time>
      </trkpt>
      <trkpt lat="43.63909" lon="3.80548">
        <ele>53.1</ele>
        <time>2021-08-14T20:04:36.867Z</time>
      </trkpt>
      <trkpt lat="43.6391" lon="3.80591">
        <ele>51.3</ele>
        <time>2021-08-14T20:05:22.938Z</time>
      </trkpt>
      <trkpt lat="43.63911" lon="3.8063">
        <ele>50.8</ele>
        <time>2021-08-14T20:06:04.728Z</time>
      </trkpt>
      <trkpt lat="43.63912" lon="3.80655">
        <ele>50.7</ele>
        <time>2021-08-14T20:06:31.541Z</time>
      </trkpt>
      <trkpt lat="43.63921" lon="3.80663">
        <ele>51.4</ele>
        <time>2021-08-14T20:06:47.376Z</time>
      </trkpt>
      <trkpt lat="43.63935" lon="3.80661">
        <ele>52.9</ele>
        <time>2021-08-14T20:07:08.202Z</time>
      </trkpt>
      <trkpt lat="43.63955" lon="3.80657">
        <ele>55.1</ele>
        <time>2021-08-14T20:07:38.105Z</time>
      </trkpt>
      <trkpt lat="43.63974" lon="3.80649">
        <ele>56.9</ele>
        <time>2021-08-14T20:08:07.496Z</time>
      </trkpt>
      <trkpt lat="43.63988" lon="3.80646">
        <ele>58.7</ele>
        <time>2021-08-14T20:08:28.459Z</time>
      </trkpt>
      <trkpt lat="43.63995" lon="3.80642">
        <ele>59.5</ele>
        <time>2021-08-14T20:08:39.667Z</time>
      </trkpt>
      <trkpt lat="43.6401" lon="3.80637">
        <ele>60.9</ele>
        <time>2021-08-14T20:09:02.499Z</time>
      </trkpt>
      <trkpt lat="43.64023" lon="3.8063">
        <ele>62.3</ele>
        <time>2021-08-14T20:09:23.144Z</time>
      </trkpt>
      <trkpt lat="43.64029" lon="3.80625">
        <ele>63.1</ele>
        <time>2021-08-14T20:09:33.512Z</time>
      </trkpt>
      <trkpt lat="43.6404" lon="3.8062">
        <ele>64.5</ele>
        <time>2021-08-14T20:09:50.647Z</time>
      </trkpt>
      <trkpt lat="43.64046" lon="3.80621">
        <ele>65.1</ele>
        <time>2021-08-14T20:09:59.589Z</time>
      </trkpt>
      <trkpt lat="43.6405" lon="3.80621">
        <ele>65.5</ele>
        <time>2021-08-14T20:10:05.507Z</time>
      </trkpt>
      <trkpt lat="43.64053" lon="3.80622">
        <ele>65.7</ele>
        <time>2021-08-14T20:10:10.073Z</time>
      </trkpt>
      <trkpt lat="43.64058" lon="3.80629">
        <ele>66.3</ele>
        <time>2021-08-14T20:10:20.605Z</time>
      </trkpt>
      <trkpt lat="43.64063" lon="3.80637">
        <ele>66.8</ele>
        <time>2021-08-14T20:10:31.924Z</time>
      </trkpt>
      <trkpt lat="43.6407" lon="3.80638">
        <ele>67.6</ele>
        <time>2021-08-14T20:10:42.337Z</time>
      </trkpt>
      <trkpt lat="43.64074" lon="3.80635">
        <ele>68.1</ele>
        <time>2021-08-14T20:10:49.071Z</time>
      </trkpt>
      <trkpt lat="43.64076" lon="3.80626">
        <ele>68.5</ele>
        <time>2021-08-14T20:10:59.152Z</time>
      </trkpt>
      <trkpt lat="43.64077" lon="3.80616">
        <ele>69</ele>
        <time>2021-08-14T20:11:09.962Z</time>
      </trkpt>
      <trkpt lat="43.64078" lon="3.80611">
        <ele>69.2</ele>
        <time>2021-08-14T20:11:15.517Z</time>
      </trkpt>
      <trkpt lat="43.64084" lon="3.80611">
        <ele>70.2</ele>
        <time>2021-08-14T20:11:24.395Z</time>
      </trkpt>
      <trkpt lat="43.64091" lon="3.80616">
        <ele>71.7</ele>
        <time>2021-08-14T20:11:36.055Z</time>
      </trkpt>
      <trkpt lat="43.64097" lon="3.80612">
        <ele>73.4</ele>
        <time>2021-08-14T20:11:45.912Z</time>
      </trkpt>
      <trkpt lat="43.64099" lon="3.80601">
        <ele>73.9</ele>
        <time>2021-08-14T20:11:58.057Z</time>
      </trkpt>
      <trkpt lat="43.64103" lon="3.80588">
        <ele>74.6</ele>
        <time>2021-08-14T20:12:13.184Z</time>
      </trkpt>
      <trkpt lat="43.64107" lon="3.80583">
        <ele>75.3</ele>
        <time>2021-08-14T20:12:21.165Z</time>
      </trkpt>
      <trkpt lat="43.64112" lon="3.80583">
        <ele>76.2</ele>
        <time>2021-08-14T20:12:28.563Z</time>
      </trkpt>
      <trkpt lat="43.64115" lon="3.80587">
        <ele>77</ele>
        <time>2021-08-14T20:12:34.731Z</time>
      </trkpt>
      <trkpt lat="43.64117" lon="3.80598">
        <ele>77.8</ele>
        <time>2021-08-14T20:12:46.876Z</time>
      </trkpt>
      <trkpt lat="43.64119" lon="3.80606">
        <ele>78.5</ele>
        <time>2021-08-14T20:12:55.939Z</time>
      </trkpt>
      <trkpt lat="43.64123" lon="3.80609">
        <ele>79.5</ele>
        <time>2021-08-14T20:12:56.528Z</time>
      </trkpt>
      <trkpt lat="43.64123" lon="3.8061">
        <ele>79.5</ele>
        <time>2021-08-14T20:12:57.528Z</time>
      </trkpt>
      <trkpt lat="43.64125" lon="3.80612">
        <ele>79.9</ele>
        <time>2021-08-14T20:12:58.528Z</time>
      </trkpt>
      <trkpt lat="43.64125" lon="3.80613">
        <ele>79.8</ele>
        <time>2021-08-14T20:12:59.528Z</time>
      </trkpt>
      <trkpt lat="43.64126" lon="3.80614">
        <ele>79.9</ele>
        <time>2021-08-14T20:13:00.528Z</time>
      </trkpt>
      <trkpt lat="43.64127" lon="3.80615">
        <ele>80</ele>
        <time>2021-08-14T20:13:01.528Z</time>
      </trkpt>
      <trkpt lat="43.64129" lon="3.80616">
        <ele>80.3</ele>
        <time>2021-08-14T20:13:02.528Z</time>
      </trkpt>
      <trkpt lat="43.6413" lon="3.80617">
        <ele>80.4</ele>
        <time>2021-08-14T20:13:03.528Z</time>
      </trkpt>
      <trkpt lat="43.64131" lon="3.80618">
        <ele>80.4</ele>
        <time>2021-08-14T20:13:04.528Z</time>
      </trkpt>
      <trkpt lat="43.64132" lon="3.8062">
        <ele>80.4</ele>
        <time>2021-08-14T20:13:05.528Z</time>
      </trkpt>
      <trkpt lat="43.64133" lon="3.80621">
        <ele>80.5</ele>
        <time>2021-08-14T20:13:06.528Z</time>
      </trkpt>
      <trkpt lat="43.64134" lon="3.80622">
        <ele>80.5</ele>
        <time>2021-08-14T20:13:07.528Z</time>
      </trkpt>
      <trkpt lat="43.64135" lon="3.80624">
        <ele>80.4</ele>
        <time>2021-08-14T20:13:08.528Z</time>
      </trkpt>
      <trkpt lat="43.64136" lon="3.80625">
        <ele>80.5</ele>
        <time>2021-08-14T20:13:09.528Z</time>
      </trkpt>
      <trkpt lat="43.64137" lon="3.80626">
        <ele>80.5</ele>
        <time>2021-08-14T20:13:10.528Z</time>
      </trkpt>
      <trkpt lat="43.64138" lon="3.80627">
        <ele>80.6</ele>
        <time>2021-08-14T20:13:11.528Z</time>
      </trkpt>
      <trkpt lat="43.64139" lon="3.80627">
        <ele>80.7</ele>
        <time>2021-08-14T20:13:12.528Z</time>
      </trkpt>
      <trkpt lat="43.6414" lon="3.80627">
        <ele>80.8</ele>
        <time>2021-08-14T20:13:13.528Z</time>
      </trkpt>
      <trkpt lat="43.64141" lon="3.80628">
        <ele>80.6</ele>
        <time>2021-08-14T20:13:14.528Z</time>
      </trkpt>
      <trkpt lat="43.64143" lon="3.80629">
        <ele>80.6</ele>
        <time>2021-08-14T20:13:15.528Z</time>
      </trkpt>
      <trkpt lat="43.64144" lon="3.8063">
        <ele>80.5</ele>
        <time>2021-08-14T20:13:16.528Z</time>
      </trkpt>
      <trkpt lat="43.64145" lon="3.80631">
        <ele>80.4</ele>
        <time>2021-08-14T20:13:17.528Z</time>
      </trkpt>
      <trkpt lat="43.64146" lon="3.80632">
        <ele>80.2</ele>
        <time>2021-08-14T20:13:18.528Z</time>
      </trkpt>
      <trkpt lat="43.64147" lon="3.80633">
        <ele>80.1</ele>
        <time>2021-08-14T20:13:19.528Z</time>
      </trkpt>
      <trkpt lat="43.64148" lon="3.80634">
        <ele>80</ele>
        <time>2021-08-14T20:13:20.528Z</time>
      </trkpt>
      <trkpt lat="43.64149" lon="3.80636">
        <ele>79.8</ele>
        <time>2021-08-14T20:13:21.528Z</time>
      </trkpt>
      <trkpt lat="43.6415" lon="3.80637">
        <ele>79.7</ele>
        <time>2021-08-14T20:13:22.528Z</time>
      </trkpt>
      <trkpt lat="43.64152" lon="3.80638">
        <ele>79.6</ele>
        <time>2021-08-14T20:13:23.528Z</time>
      </trkpt>
      <trkpt lat="43.64152" lon="3.80639">
        <ele>79.5</ele>
        <time>2021-08-14T20:13:24.528Z</time>
      </trkpt>
      <trkpt lat="43.64153" lon="3.80639">
        <ele>79.5</ele>
        <time>2021-08-14T20:13:25.528Z</time>
      </trkpt>
      <trkpt lat="43.64155" lon="3.80637">
        <ele>81.8</ele>
        <time>2021-08-14T20:13:27.087Z</time>
      </trkpt>
      <trkpt lat="43.64165" lon="3.80646">
        <ele>82.6</ele>
        <time>2021-08-14T20:13:37.025Z</time>
      </trkpt>
      <trkpt lat="43.64175" lon="3.80655">
        <ele>83.4</ele>
        <time>2021-08-14T20:13:46.963Z</time>
      </trkpt>
      <trkpt lat="43.64187" lon="3.80666">
        <ele>83.2</ele>
        <time>2021-08-14T20:13:59.124Z</time>
      </trkpt>
      <trkpt lat="43.642" lon="3.80678">
        <ele>82.6</ele>
        <time>2021-08-14T20:14:11.285Z</time>
      </trkpt>
      <trkpt lat="43.64201" lon="3.80685">
        <ele>81</ele>
        <time>2021-08-14T20:14:15.779Z</time>
      </trkpt>
      <trkpt lat="43.64213" lon="3.80701">
        <ele>80.8</ele>
        <time>2021-08-14T20:14:26.375Z</time>
      </trkpt>
      <trkpt lat="43.6422" lon="3.80713">
        <ele>80.5</ele>
        <time>2021-08-14T20:14:33.352Z</time>
      </trkpt>
      <trkpt lat="43.64221" lon="3.80728">
        <ele>81</ele>
        <time>2021-08-14T20:14:40.449Z</time>
      </trkpt>
      <trkpt lat="43.64218" lon="3.80765">
        <ele>82.5</ele>
        <time>2021-08-14T20:14:57.519Z</time>
      </trkpt>
      <trkpt lat="43.64225" lon="3.80779">
        <ele>82.5</ele>
        <time>2021-08-14T20:15:05.129Z</time>
      </trkpt>
      <trkpt lat="43.64225" lon="3.80785">
        <ele>82.8</ele>
        <time>2021-08-14T20:15:11.627Z</time>
      </trkpt>
      <trkpt lat="43.64225" lon="3.80796">
        <ele>83.3</ele>
        <time>2021-08-14T20:15:22.958Z</time>
      </trkpt>
      <trkpt lat="43.64221" lon="3.8082">
        <ele>84.8</ele>
        <time>2021-08-14T20:15:48.154Z</time>
      </trkpt>
      <trkpt lat="43.6422" lon="3.80838">
        <ele>86</ele>
        <time>2021-08-14T20:16:07.213Z</time>
      </trkpt>
      <trkpt lat="43.64223" lon="3.80852">
        <ele>86.3</ele>
        <time>2021-08-14T20:16:22.931Z</time>
      </trkpt>
      <trkpt lat="43.64235" lon="3.8087">
        <ele>85.5</ele>
        <time>2021-08-14T20:16:48.963Z</time>
      </trkpt>
      <trkpt lat="43.64238" lon="3.80884">
        <ele>85.8</ele>
        <time>2021-08-14T20:17:03.604Z</time>
      </trkpt>
      <trkpt lat="43.64238" lon="3.80908">
        <ele>87.3</ele>
        <time>2021-08-14T20:17:28.867Z</time>
      </trkpt>
      <trkpt lat="43.64236" lon="3.80939">
        <ele>88.8</ele>
        <time>2021-08-14T20:17:57.684Z</time>
      </trkpt>
      <trkpt lat="43.64224" lon="3.80998">
        <ele>92.5</ele>
        <time>2021-08-14T20:18:53.594Z</time>
      </trkpt>
      <trkpt lat="43.6422" lon="3.81007">
        <ele>93.3</ele>
        <time>2021-08-14T20:19:03.157Z</time>
      </trkpt>
      <trkpt lat="43.64204" lon="3.81021">
        <ele>96.3</ele>
        <time>2021-08-14T20:19:26.747Z</time>
      </trkpt>
      <trkpt lat="43.64198" lon="3.81027">
        <ele>97.3</ele>
        <time>2021-08-14T20:19:36.516Z</time>
      </trkpt>
      <trkpt lat="43.64193" lon="3.81057">
        <ele>98.3</ele>
        <time>2021-08-14T20:20:04.799Z</time>
      </trkpt>
      <trkpt lat="43.64187" lon="3.81074">
        <ele>99</ele>
        <time>2021-08-14T20:20:21.774Z</time>
      </trkpt>
      <trkpt lat="43.64196" lon="3.81082">
        <ele>97.8</ele>
        <time>2021-08-14T20:20:35.338Z</time>
      </trkpt>
      <trkpt lat="43.64228" lon="3.81134">
        <ele>99.5</ele>
        <time>2021-08-14T20:21:37.471Z</time>
      </trkpt>
      <trkpt lat="43.6422" lon="3.81158">
        <ele>103.5</ele>
        <time>2021-08-14T20:22:02.328Z</time>
      </trkpt>
      <trkpt lat="43.64247" lon="3.81212">
        <ele>106</ele>
        <time>2021-08-14T20:23:02.862Z</time>
      </trkpt>
      <trkpt lat="43.64252" lon="3.81211">
        <ele>103.3</ele>
        <time>2021-08-14T20:23:09.560Z</time>
      </trkpt>
      <trkpt lat="43.64267" lon="3.81218">
        <ele>104.7</ele>
        <time>2021-08-14T20:23:30.315Z</time>
      </trkpt>
      <trkpt lat="43.64283" lon="3.81225">
        <ele>100.9</ele>
        <time>2021-08-14T20:23:45.036Z</time>
      </trkpt>
      <trkpt lat="43.64295" lon="3.81237">
        <ele>98.1</ele>
        <time>2021-08-14T20:23:59.003Z</time>
      </trkpt>
      <trkpt lat="43.64308" lon="3.8125">
        <ele>95.4</ele>
        <time>2021-08-14T20:24:14.481Z</time>
      </trkpt>
      <trkpt lat="43.64313" lon="3.81271">
        <ele>94.9</ele>
        <time>2021-08-14T20:24:30.022Z</time>
      </trkpt>
      <trkpt lat="43.64318" lon="3.81291">
        <ele>95.2</ele>
        <time>2021-08-14T20:24:45.563Z</time>
      </trkpt>
      <trkpt lat="43.64328" lon="3.8131">
        <ele>94.5</ele>
        <time>2021-08-14T20:25:02.975Z</time>
      </trkpt>
      <trkpt lat="43.64339" lon="3.8133">
        <ele>93.7</ele>
        <time>2021-08-14T20:25:21.087Z</time>
      </trkpt>
      <trkpt lat="43.64348" lon="3.81353">
        <ele>95.4</ele>
        <time>2021-08-14T20:25:40.909Z</time>
      </trkpt>
      <trkpt lat="43.64358" lon="3.81376">
        <ele>96.9</ele>
        <time>2021-08-14T20:26:00.731Z</time>
      </trkpt>
      <trkpt lat="43.64371" lon="3.81396">
        <ele>96.9</ele>
        <time>2021-08-14T20:26:21.071Z</time>
      </trkpt>
      <trkpt lat="43.64383" lon="3.81416">
        <ele>96</ele>
        <time>2021-08-14T20:26:40.853Z</time>
      </trkpt>
      <trkpt lat="43.64393" lon="3.81444">
        <ele>97</ele>
        <time>2021-08-14T20:27:02.880Z</time>
      </trkpt>
      <trkpt lat="43.64402" lon="3.81471">
        <ele>97.9</ele>
        <time>2021-08-14T20:27:25.587Z</time>
      </trkpt>
      <trkpt lat="43.64412" lon="3.81491">
        <ele>97.3</ele>
        <time>2021-08-14T20:27:43.608Z</time>
      </trkpt>
      <trkpt lat="43.64421" lon="3.81511">
        <ele>95.4</ele>
        <time>2021-08-14T20:28:01.629Z</time>
      </trkpt>
      <trkpt lat="43.64438" lon="3.81533">
        <ele>91.4</ele>
        <time>2021-08-14T20:28:25.615Z</time>
      </trkpt>
      <trkpt lat="43.64455" lon="3.81555">
        <ele>87.8</ele>
        <time>2021-08-14T20:28:49.601Z</time>
      </trkpt>
      <trkpt lat="43.64457" lon="3.81567">
        <ele>89</ele>
        <time>2021-08-14T20:28:58.621Z</time>
      </trkpt>
      <trkpt lat="43.64468" lon="3.81603">
        <ele>89.8</ele>
        <time>2021-08-14T20:29:23.324Z</time>
      </trkpt>
      <trkpt lat="43.64488" lon="3.81679">
        <ele>95.8</ele>
        <time>2021-08-14T20:30:14.807Z</time>
      </trkpt>
      <trkpt lat="43.64497" lon="3.81716">
        <ele>98</ele>
        <time>2021-08-14T20:30:39.311Z</time>
      </trkpt>
      <trkpt lat="43.64498" lon="3.81726">
        <ele>98.8</ele>
        <time>2021-08-14T20:30:45.943Z</time>
      </trkpt>
      <trkpt lat="43.64498" lon="3.81741">
        <ele>100.3</ele>
        <time>2021-08-14T20:30:55.341Z</time>
      </trkpt>
      <trkpt lat="43.64486" lon="3.81797">
        <ele>105.3</ele>
        <time>2021-08-14T20:31:32.434Z</time>
      </trkpt>
      <trkpt lat="43.6447" lon="3.81896">
        <ele>107.5</ele>
        <time>2021-08-14T20:32:36.874Z</time>
      </trkpt>
      <trkpt lat="43.64464" lon="3.81923">
        <ele>107.3</ele>
        <time>2021-08-14T20:32:54.831Z</time>
      </trkpt>
      <trkpt lat="43.64462" lon="3.81933">
        <ele>107</ele>
        <time>2021-08-14T20:33:01.368Z</time>
      </trkpt>
      <trkpt lat="43.64459" lon="3.8194">
        <ele>106.8</ele>
        <time>2021-08-14T20:33:06.227Z</time>
      </trkpt>
      <trkpt lat="43.64452" lon="3.8195">
        <ele>107</ele>
        <time>2021-08-14T20:33:15.565Z</time>
      </trkpt>
      <trkpt lat="43.6445" lon="3.81953">
        <ele>105.3</ele>
        <time>2021-08-14T20:33:17.986Z</time>
      </trkpt>
      <trkpt lat="43.64409" lon="3.82023">
        <ele>102.4</ele>
        <time>2021-08-14T20:34:14.986Z</time>
      </trkpt>
      <trkpt lat="43.64368" lon="3.82094">
        <ele>101.3</ele>
        <time>2021-08-14T21:01:58.037Z</time>
      </trkpt>
      <trkpt lat="43.64361" lon="3.82106">
        <ele>101.4</ele>
        <time>2021-08-14T21:06:46.042Z</time>
      </trkpt>
      <trkpt lat="43.64354" lon="3.82118">
        <ele>101.5</ele>
        <time>2021-08-14T21:17:28.368Z</time>
      </trkpt>
      <trkpt lat="43.64351" lon="3.82135">
        <ele>101.2</ele>
        <time>2021-08-14T21:29:22.394Z</time>
      </trkpt>
      <trkpt lat="43.64348" lon="3.82152">
        <ele>101.2</ele>
        <time>2021-08-14T21:41:16.421Z</time>
      </trkpt>
      <trkpt lat="43.64352" lon="3.82161">
        <ele>100.7</ele>
        <time>2021-08-14T21:48:42.476Z</time>
      </trkpt>
      <trkpt lat="43.64355" lon="3.82171">
        <ele>100.4</ele>
        <time>2021-08-14T21:56:08.530Z</time>
      </trkpt>
      <trkpt lat="43.6436" lon="3.82177">
        <ele>100.1</ele>
        <time>2021-08-14T22:02:12.539Z</time>
      </trkpt>
      <trkpt lat="43.64365" lon="3.82183">
        <ele>99.7</ele>
        <time>2021-08-14T22:04:38.219Z</time>
      </trkpt>
      <trkpt lat="43.64387" lon="3.82195">
        <ele>98.1</ele>
        <time>2021-08-14T22:13:35.894Z</time>
      </trkpt>
      <trkpt lat="43.64406" lon="3.8221">
        <ele>98</ele>
        <time>2021-08-14T22:14:55.148Z</time>
      </trkpt>
      <trkpt lat="43.64412" lon="3.82218">
        <ele>98</ele>
        <time>2021-08-14T22:15:23.877Z</time>
      </trkpt>
      <trkpt lat="43.64415" lon="3.82226">
        <ele>98</ele>
        <time>2021-08-14T22:15:46.427Z</time>
      </trkpt>
      <trkpt lat="43.64416" lon="3.82234">
        <ele>98</ele>
        <time>2021-08-14T22:16:08.637Z</time>
      </trkpt>
      <trkpt lat="43.64421" lon="3.82232">
        <ele>98</ele>
        <time>2021-08-14T22:16:26.480Z</time>
      </trkpt>
      <trkpt lat="43.64425" lon="3.82244">
        <ele>98</ele>
        <time>2021-08-14T22:16:58.475Z</time>
      </trkpt>
      <trkpt lat="43.64428" lon="3.82251">
        <ele>98</ele>
        <time>2021-08-14T22:17:20.499Z</time>
      </trkpt>
      <trkpt lat="43.64435" lon="3.82255">
        <ele>98.1</ele>
        <time>2021-08-14T22:17:47.219Z</time>
      </trkpt>
      <trkpt lat="43.64442" lon="3.82261">
        <ele>98.1</ele>
        <time>2021-08-14T22:18:15.513Z</time>
      </trkpt>
      <trkpt lat="43.6445" lon="3.82271">
        <ele>98</ele>
        <time>2021-08-14T22:18:52.834Z</time>
      </trkpt>
      <trkpt lat="43.64456" lon="3.82273">
        <ele>98</ele>
        <time>2021-08-14T22:41:02.817Z</time>
      </trkpt>
      <trkpt lat="43.64458" lon="3.82273">
        <ele>98</ele>
        <time>2021-08-14T22:47:47.261Z</time>
      </trkpt>
      <trkpt lat="43.6446" lon="3.82273">
        <ele>98</ele>
        <time>2021-08-14T22:54:31.705Z</time>
      </trkpt>
      <trkpt lat="43.6446" lon="3.82273">
        <ele>98</ele>
        <time>2021-08-14T22:55:30.618Z</time>
      </trkpt>
      <trkpt lat="43.6446" lon="3.82273">
        <ele>98</ele>
        <time>2021-08-14T22:56:29.531Z</time>
      </trkpt>
      <trkpt lat="43.64463" lon="3.82279">
        <ele>98</ele>
        <time>2021-08-14T23:14:57.726Z</time>
      </trkpt>
      <trkpt lat="43.64468" lon="3.82288">
        <ele>98.1</ele>
        <time>2021-08-14T23:15:37.176Z</time>
      </trkpt>
      <trkpt lat="43.64469" lon="3.82291">
        <ele>98.1</ele>
        <time>2021-08-14T23:15:51.173Z</time>
      </trkpt>
      <trkpt lat="43.64478" lon="3.82284">
        <ele>98.1</ele>
        <time>2021-08-14T23:16:42.278Z</time>
      </trkpt>
      <trkpt lat="43.64484" lon="3.82281">
        <ele>98.1</ele>
        <time>2021-08-14T23:17:13.075Z</time>
      </trkpt>
      <trkpt lat="43.64488" lon="3.82286">
        <ele>98.3</ele>
        <time>2021-08-14T23:17:40.643Z</time>
      </trkpt>
      <trkpt lat="43.64496" lon="3.82291">
        <ele>98.8</ele>
        <time>2021-08-14T23:18:21.304Z</time>
      </trkpt>
      <trkpt lat="43.64503" lon="3.82301">
        <ele>99.9</ele>
        <time>2021-08-14T23:19:14.581Z</time>
      </trkpt>
      <trkpt lat="43.64506" lon="3.82302">
        <ele>100.1</ele>
        <time>2021-08-14T23:19:30.932Z</time>
      </trkpt>
      <trkpt lat="43.64514" lon="3.82304">
        <ele>100.5</ele>
        <time>2021-08-14T23:20:20.089Z</time>
      </trkpt>
      <trkpt lat="43.64537" lon="3.82309">
        <ele>101.2</ele>
        <time>2021-08-14T23:22:36.622Z</time>
      </trkpt>
      <trkpt lat="43.64554" lon="3.82311">
        <ele>101.6</ele>
        <time>2021-08-14T23:24:18.318Z</time>
      </trkpt>
      <trkpt lat="43.64581" lon="3.82322">
        <ele>100.8</ele>
        <time>2021-08-14T23:29:14.113Z</time>
      </trkpt>
      <trkpt lat="43.64581" lon="3.82326">
        <ele>100.5</ele>
        <time>2021-08-14T23:29:48.356Z</time>
      </trkpt>
      <trkpt lat="43.64583" lon="3.82329">
        <ele>100.3</ele>
        <time>2021-08-14T23:30:14.329Z</time>
      </trkpt>
      <trkpt lat="43.64601" lon="3.82346">
        <ele>100</ele>
        <time>2021-08-14T23:34:13.663Z</time>
      </trkpt>
      <trkpt lat="43.64681" lon="3.82404">
        <ele>100.8</ele>
        <time>2021-08-14T23:50:29.233Z</time>
      </trkpt>
      <trkpt lat="43.64714" lon="3.82424">
        <ele>101.2</ele>
        <time>2021-08-14T23:57:03.889Z</time>
      </trkpt>
      <trkpt lat="43.64719" lon="3.82426">
        <ele>101.3</ele>
        <time>2021-08-14T23:57:54.100Z</time>
      </trkpt>
      <trkpt lat="43.64724" lon="3.82428">
        <ele>101.5</ele>
        <time>2021-08-14T23:58:47.646Z</time>
      </trkpt>
      <trkpt lat="43.64754" lon="3.82431">
        <ele>102.7</ele>
        <time>2021-08-15T00:04:12.859Z</time>
      </trkpt>
      <trkpt lat="43.64777" lon="3.82426">
        <ele>103.3</ele>
        <time>2021-08-15T00:08:22.448Z</time>
      </trkpt>
      <trkpt lat="43.64779" lon="3.82426">
        <ele>103.4</ele>
        <time>2021-08-15T00:08:50.717Z</time>
      </trkpt>
      <trkpt lat="43.64782" lon="3.82426">
        <ele>104.3</ele>
        <time>2021-08-15T00:08:59.264Z</time>
      </trkpt>
      <trkpt lat="43.64779" lon="3.82426">
        <ele>104.3</ele>
        <time>2021-08-15T00:09:07.480Z</time>
      </trkpt>
      <trkpt lat="43.64806" lon="3.8242">
        <ele>104.5</ele>
        <time>2021-08-15T00:10:33.998Z</time>
      </trkpt>
      <trkpt lat="43.6484" lon="3.82416">
        <ele>104.8</ele>
        <time>2021-08-15T00:12:19.783Z</time>
      </trkpt>
      <trkpt lat="43.6486" lon="3.82412">
        <ele>104.3</ele>
        <time>2021-08-15T00:13:25.928Z</time>
      </trkpt>
      <trkpt lat="43.64866" lon="3.82414">
        <ele>104.5</ele>
        <time>2021-08-15T00:13:44.921Z</time>
      </trkpt>
      <trkpt lat="43.64869" lon="3.82415">
        <ele>104.8</ele>
        <time>2021-08-15T00:13:53.553Z</time>
      </trkpt>
      <trkpt lat="43.6488" lon="3.82429">
        <ele>105.8</ele>
        <time>2021-08-15T00:14:41.667Z</time>
      </trkpt>
      <trkpt lat="43.64886" lon="3.82439">
        <ele>106.5</ele>
        <time>2021-08-15T00:15:11.874Z</time>
      </trkpt>
      <trkpt lat="43.64903" lon="3.8246">
        <ele>108.3</ele>
        <time>2021-08-15T00:16:24.564Z</time>
      </trkpt>
      <trkpt lat="43.64916" lon="3.82462">
        <ele>108.8</ele>
        <time>2021-08-15T00:17:08.288Z</time>
      </trkpt>
      <trkpt lat="43.64919" lon="3.82462">
        <ele>108.8</ele>
        <time>2021-08-15T00:17:15.996Z</time>
      </trkpt>
      <trkpt lat="43.64924" lon="3.8246">
        <ele>109</ele>
        <time>2021-08-15T00:17:34.989Z</time>
      </trkpt>
      <trkpt lat="43.6493" lon="3.82453">
        <ele>108.8</ele>
        <time>2021-08-15T00:17:59.379Z</time>
      </trkpt>
      <trkpt lat="43.64939" lon="3.82447">
        <ele>109</ele>
        <time>2021-08-15T00:18:31.630Z</time>
      </trkpt>
      <trkpt lat="43.64943" lon="3.82444">
        <ele>109.3</ele>
        <time>2021-08-15T00:18:44.703Z</time>
      </trkpt>
      <trkpt lat="43.64947" lon="3.82443">
        <ele>109.5</ele>
        <time>2021-08-15T00:18:59.247Z</time>
      </trkpt>
      <trkpt lat="43.64953" lon="3.82438">
        <ele>109.5</ele>
        <time>2021-08-15T00:19:22.273Z</time>
      </trkpt>
      <trkpt lat="43.64962" lon="3.82433">
        <ele>110</ele>
        <time>2021-08-15T00:19:53.035Z</time>
      </trkpt>
      <trkpt lat="43.64967" lon="3.82428">
        <ele>110.3</ele>
        <time>2021-08-15T00:20:10.715Z</time>
      </trkpt>
      <trkpt lat="43.64976" lon="3.82428">
        <ele>111</ele>
        <time>2021-08-15T00:20:41.493Z</time>
      </trkpt>
      <trkpt lat="43.64983" lon="3.82426">
        <ele>111.5</ele>
        <time>2021-08-15T00:21:02.469Z</time>
      </trkpt>
      <trkpt lat="43.64984" lon="3.82425">
        <ele>112.3</ele>
        <time>2021-08-15T00:21:08.683Z</time>
      </trkpt>
      <trkpt lat="43.64993" lon="3.82419">
        <ele>112.3</ele>
        <time>2021-08-15T00:21:38.752Z</time>
      </trkpt>
      <trkpt lat="43.64996" lon="3.82419">
        <ele>112.5</ele>
        <time>2021-08-15T00:21:49.011Z</time>
      </trkpt>
      <trkpt lat="43.65" lon="3.82416">
        <ele>112.8</ele>
        <time>2021-08-15T00:22:02.781Z</time>
      </trkpt>
      <trkpt lat="43.65002" lon="3.82416">
        <ele>113</ele>
        <time>2021-08-15T00:22:09.498Z</time>
      </trkpt>
      <trkpt lat="43.65005" lon="3.82415">
        <ele>113</ele>
        <time>2021-08-15T00:22:18.195Z</time>
      </trkpt>
      <trkpt lat="43.65011" lon="3.82417">
        <ele>113.8</ele>
        <time>2021-08-15T00:22:38.099Z</time>
      </trkpt>
      <trkpt lat="43.65012" lon="3.82415">
        <ele>113.5</ele>
        <time>2021-08-15T00:22:44.846Z</time>
      </trkpt>
      <trkpt lat="43.65025" lon="3.82411">
        <ele>114.3</ele>
        <time>2021-08-15T00:23:25.736Z</time>
      </trkpt>
      <trkpt lat="43.65041" lon="3.82408">
        <ele>115</ele>
        <time>2021-08-15T00:24:18.257Z</time>
      </trkpt>
      <trkpt lat="43.65064" lon="3.82404">
        <ele>116.5</ele>
        <time>2021-08-15T00:25:31.953Z</time>
      </trkpt>
      <trkpt lat="43.65067" lon="3.82385">
        <ele>115.3</ele>
        <time>2021-08-15T00:26:18.077Z</time>
      </trkpt>
      <trkpt lat="43.65072" lon="3.82368">
        <ele>114.3</ele>
        <time>2021-08-15T00:26:59.102Z</time>
      </trkpt>
      <trkpt lat="43.65078" lon="3.82357">
        <ele>114</ele>
        <time>2021-08-15T00:27:30.828Z</time>
      </trkpt>
      <trkpt lat="43.65083" lon="3.82353">
        <ele>114.3</ele>
        <time>2021-08-15T00:27:51.391Z</time>
      </trkpt>
      <trkpt lat="43.65088" lon="3.8235">
        <ele>113.8</ele>
        <time>2021-08-15T00:28:09.242Z</time>
      </trkpt>
      <trkpt lat="43.65095" lon="3.8235">
        <ele>113.5</ele>
        <time>2021-08-15T00:28:28.755Z</time>
      </trkpt>
      <trkpt lat="43.65109" lon="3.82355">
        <ele>113</ele>
        <time>2021-08-15T00:29:14.950Z</time>
      </trkpt>
      <trkpt lat="43.65114" lon="3.82359">
        <ele>119.5</ele>
        <time>2021-08-15T00:29:34.829Z</time>
      </trkpt>
      <trkpt lat="43.6512" lon="3.82361">
        <ele>119.3</ele>
        <time>2021-08-15T00:30:51.612Z</time>
      </trkpt>
      <trkpt lat="43.65125" lon="3.82364">
        <ele>119.2</ele>
        <time>2021-08-15T00:33:31.424Z</time>
      </trkpt>
      <trkpt lat="43.65132" lon="3.82374">
        <ele>119.7</ele>
        <time>2021-08-15T00:37:53.315Z</time>
      </trkpt>
      <trkpt lat="43.65139" lon="3.82383">
        <ele>120.3</ele>
        <time>2021-08-15T00:42:15.206Z</time>
      </trkpt>
      <trkpt lat="43.65151" lon="3.82409">
        <ele>119.6</ele>
        <time>2021-08-15T00:52:24.919Z</time>
      </trkpt>
      <trkpt lat="43.65163" lon="3.82435">
        <ele>118.3</ele>
        <time>2021-08-15T01:01:21.571Z</time>
      </trkpt>
      <trkpt lat="43.65161" lon="3.82439">
        <ele>118.4</ele>
        <time>2021-08-15T01:02:45.981Z</time>
      </trkpt>
      <trkpt lat="43.65159" lon="3.82446">
        <ele>118.5</ele>
        <time>2021-08-15T01:02:47.981Z</time>
      </trkpt>
      <trkpt lat="43.65158" lon="3.82451">
        <ele>118.4</ele>
        <time>2021-08-15T01:02:48.981Z</time>
      </trkpt>
      <trkpt lat="43.65158" lon="3.82456">
        <ele>118.2</ele>
        <time>2021-08-15T01:02:49.981Z</time>
      </trkpt>
      <trkpt lat="43.65155" lon="3.82472">
        <ele>117.8</ele>
        <time>2021-08-15T01:02:52.981Z</time>
      </trkpt>
      <trkpt lat="43.65156" lon="3.82495">
        <ele>117.8</ele>
        <time>2021-08-15T01:02:56.981Z</time>
      </trkpt>
      <trkpt lat="43.65159" lon="3.82508">
        <ele>117.8</ele>
        <time>2021-08-15T01:02:58.981Z</time>
      </trkpt>
      <trkpt lat="43.65161" lon="3.82514">
        <ele>117.8</ele>
        <time>2021-08-15T01:02:59.981Z</time>
      </trkpt>
      <trkpt lat="43.65164" lon="3.8252">
        <ele>117.8</ele>
        <time>2021-08-15T01:03:00.981Z</time>
      </trkpt>
      <trkpt lat="43.65175" lon="3.82535">
        <ele>117.2</ele>
        <time>2021-08-15T01:03:03.981Z</time>
      </trkpt>
      <trkpt lat="43.65182" lon="3.82545">
        <ele>117.1</ele>
        <time>2021-08-15T01:03:05.981Z</time>
      </trkpt>
      <trkpt lat="43.65197" lon="3.82571">
        <ele>117.9</ele>
        <time>2021-08-15T01:03:10.981Z</time>
      </trkpt>
      <trkpt lat="43.65202" lon="3.8258">
        <ele>118.2</ele>
        <time>2021-08-15T01:03:12.981Z</time>
      </trkpt>
      <trkpt lat="43.65212" lon="3.82593">
        <ele>118.7</ele>
        <time>2021-08-15T01:03:15.981Z</time>
      </trkpt>
      <trkpt lat="43.65223" lon="3.82601">
        <ele>118.9</ele>
        <time>2021-08-15T01:03:18.981Z</time>
      </trkpt>
      <trkpt lat="43.65227" lon="3.82603">
        <ele>119</ele>
        <time>2021-08-15T01:03:19.981Z</time>
      </trkpt>
      <trkpt lat="43.65231" lon="3.82606">
        <ele>119.3</ele>
        <time>2021-08-15T01:03:20.981Z</time>
      </trkpt>
      <trkpt lat="43.65236" lon="3.82613">
        <ele>120.2</ele>
        <time>2021-08-15T01:03:22.981Z</time>
      </trkpt>
      <trkpt lat="43.65242" lon="3.82619">
        <ele>120.8</ele>
        <time>2021-08-15T01:03:24.981Z</time>
      </trkpt>
      <trkpt lat="43.6525" lon="3.82628">
        <ele>121.8</ele>
        <time>2021-08-15T01:03:27.981Z</time>
      </trkpt>
      <trkpt lat="43.65263" lon="3.82646">
        <ele>122.6</ele>
        <time>2021-08-15T01:03:32.981Z</time>
      </trkpt>
      <trkpt lat="43.65267" lon="3.82654">
        <ele>123</ele>
        <time>2021-08-15T01:03:34.981Z</time>
      </trkpt>
      <trkpt lat="43.65273" lon="3.8265">
        <ele>122</ele>
        <time>2021-08-15T01:03:36.468Z</time>
      </trkpt>
      <trkpt lat="43.65325" lon="3.82704">
        <ele>124.5</ele>
        <time>2021-08-15T01:03:50.745Z</time>
      </trkpt>
      <trkpt lat="43.65357" lon="3.82717">
        <ele>124.5</ele>
        <time>2021-08-15T01:03:57.969Z</time>
      </trkpt>
      <trkpt lat="43.65402" lon="3.82739">
        <ele>125.5</ele>
        <time>2021-08-15T01:04:08.300Z</time>
      </trkpt>
      <trkpt lat="43.65426" lon="3.82763">
        <ele>126</ele>
        <time>2021-08-15T01:04:14.808Z</time>
      </trkpt>
      <trkpt lat="43.65487" lon="3.82797">
        <ele>123.5</ele>
        <time>2021-08-15T01:04:29.067Z</time>
      </trkpt>
      <trkpt lat="43.65508" lon="3.82834">
        <ele>126.5</ele>
        <time>2021-08-15T01:04:31.081Z</time>
      </trkpt>
      <trkpt lat="43.65523" lon="3.82832">
        <ele>126.4</ele>
        <time>2021-08-15T01:04:32.015Z</time>
      </trkpt>
      <trkpt lat="43.65539" lon="3.8283">
        <ele>125.6</ele>
        <time>2021-08-15T01:04:35.811Z</time>
      </trkpt>
      <trkpt lat="43.65545" lon="3.82835">
        <ele>125.5</ele>
        <time>2021-08-15T01:04:37.571Z</time>
      </trkpt>
      <trkpt lat="43.65552" lon="3.8284">
        <ele>125.3</ele>
        <time>2021-08-15T01:04:39.331Z</time>
      </trkpt>
      <trkpt lat="43.65561" lon="3.8285">
        <ele>125.2</ele>
        <time>2021-08-15T01:04:42.129Z</time>
      </trkpt>
      <trkpt lat="43.6557" lon="3.8286">
        <ele>124.7</ele>
        <time>2021-08-15T01:04:45.226Z</time>
      </trkpt>
      <trkpt lat="43.65609" lon="3.8288">
        <ele>118.3</ele>
        <time>2021-08-15T01:04:56.271Z</time>
      </trkpt>
      <trkpt lat="43.65648" lon="3.829">
        <ele>113.4</ele>
        <time>2021-08-15T01:05:07.315Z</time>
      </trkpt>
      <trkpt lat="43.65692" lon="3.82915">
        <ele>106.6</ele>
        <time>2021-08-15T01:05:19.367Z</time>
      </trkpt>
      <trkpt lat="43.65736" lon="3.82931">
        <ele>97.6</ele>
        <time>2021-08-15T01:05:31.419Z</time>
      </trkpt>
      <trkpt lat="43.65744" lon="3.8294">
        <ele>91.7</ele>
        <time>2021-08-15T01:05:34.273Z</time>
      </trkpt>
      <trkpt lat="43.65749" lon="3.82952">
        <ele>91.4</ele>
        <time>2021-08-15T01:05:36.273Z</time>
      </trkpt>
      <trkpt lat="43.65755" lon="3.82971">
        <ele>91.4</ele>
        <time>2021-08-15T01:05:38.273Z</time>
      </trkpt>
      <trkpt lat="43.65758" lon="3.82984">
        <ele>91.4</ele>
        <time>2021-08-15T01:05:39.273Z</time>
      </trkpt>
      <trkpt lat="43.65763" lon="3.82998">
        <ele>91.1</ele>
        <time>2021-08-15T01:05:41.273Z</time>
      </trkpt>
      <trkpt lat="43.65766" lon="3.83009">
        <ele>90.9</ele>
        <time>2021-08-15T01:05:42.273Z</time>
      </trkpt>
      <trkpt lat="43.65772" lon="3.83024">
        <ele>90.5</ele>
        <time>2021-08-15T01:05:45.273Z</time>
      </trkpt>
      <trkpt lat="43.65777" lon="3.83035">
        <ele>90.1</ele>
        <time>2021-08-15T01:05:46.273Z</time>
      </trkpt>
      <trkpt lat="43.65787" lon="3.83055">
        <ele>89.3</ele>
        <time>2021-08-15T01:05:47.273Z</time>
      </trkpt>
      <trkpt lat="43.65796" lon="3.83045">
        <ele>89.2</ele>
        <time>2021-08-15T01:05:50.273Z</time>
      </trkpt>
      <trkpt lat="43.65807" lon="3.83037">
        <ele>89.4</ele>
        <time>2021-08-15T01:05:52.273Z</time>
      </trkpt>
      <trkpt lat="43.65815" lon="3.83034">
        <ele>89.9</ele>
        <time>2021-08-15T01:05:54.273Z</time>
      </trkpt>
      <trkpt lat="43.65829" lon="3.83031">
        <ele>90.6</ele>
        <time>2021-08-15T01:05:57.273Z</time>
      </trkpt>
      <trkpt lat="43.65836" lon="3.83024">
        <ele>90.8</ele>
        <time>2021-08-15T01:05:58.273Z</time>
      </trkpt>
      <trkpt lat="43.65846" lon="3.83018">
        <ele>90.6</ele>
        <time>2021-08-15T01:06:00.273Z</time>
      </trkpt>
      <trkpt lat="43.65861" lon="3.83015">
        <ele>90.4</ele>
        <time>2021-08-15T01:06:03.273Z</time>
      </trkpt>
      <trkpt lat="43.65875" lon="3.83013">
        <ele>90.9</ele>
        <time>2021-08-15T01:06:06.273Z</time>
      </trkpt>
      <trkpt lat="43.65895" lon="3.83009">
        <ele>91.9</ele>
        <time>2021-08-15T01:06:10.273Z</time>
      </trkpt>
      <trkpt lat="43.65904" lon="3.83008">
        <ele>92.2</ele>
        <time>2021-08-15T01:06:12.273Z</time>
      </trkpt>
      <trkpt lat="43.65909" lon="3.83007">
        <ele>92.5</ele>
        <time>2021-08-15T01:06:13.273Z</time>
      </trkpt>
      <trkpt lat="43.65932" lon="3.83004">
        <ele>93.8</ele>
        <time>2021-08-15T01:06:18.273Z</time>
      </trkpt>
      <trkpt lat="43.65937" lon="3.83003">
        <ele>94.2</ele>
        <time>2021-08-15T01:06:19.273Z</time>
      </trkpt>
      <trkpt lat="43.65959" lon="3.83001">
        <ele>94.3</ele>
        <time>2021-08-15T01:06:24.273Z</time>
      </trkpt>
      <trkpt lat="43.65973" lon="3.82998">
        <ele>94.2</ele>
        <time>2021-08-15T01:06:27.273Z</time>
      </trkpt>
      <trkpt lat="43.65981" lon="3.82997">
        <ele>94.4</ele>
        <time>2021-08-15T01:06:29.273Z</time>
      </trkpt>
      <trkpt lat="43.65985" lon="3.82996">
        <ele>94.5</ele>
        <time>2021-08-15T01:06:30.273Z</time>
      </trkpt>
      <trkpt lat="43.65997" lon="3.82992">
        <ele>95.1</ele>
        <time>2021-08-15T01:06:33.273Z</time>
      </trkpt>
      <trkpt lat="43.66005" lon="3.8299">
        <ele>95.9</ele>
        <time>2021-08-15T01:06:35.273Z</time>
      </trkpt>
      <trkpt lat="43.66029" lon="3.82985">
        <ele>98.2</ele>
        <time>2021-08-15T01:06:41.273Z</time>
      </trkpt>
      <trkpt lat="43.66045" lon="3.82983">
        <ele>99.6</ele>
        <time>2021-08-15T01:06:46.273Z</time>
      </trkpt>
      <trkpt lat="43.6605" lon="3.82982">
        <ele>100.1</ele>
        <time>2021-08-15T01:06:48.273Z</time>
      </trkpt>
      <trkpt lat="43.66053" lon="3.82979">
        <ele>100.8</ele>
        <time>2021-08-15T01:06:50.273Z</time>
      </trkpt>
      <trkpt lat="43.66054" lon="3.82978">
        <ele>101</ele>
        <time>2021-08-15T01:06:51.273Z</time>
      </trkpt>
      <trkpt lat="43.66056" lon="3.82977">
        <ele>101.3</ele>
        <time>2021-08-15T01:06:55.273Z</time>
      </trkpt>
      <trkpt lat="43.66057" lon="3.82976">
        <ele>101.5</ele>
        <time>2021-08-15T01:06:56.273Z</time>
      </trkpt>
      <trkpt lat="43.66062" lon="3.82973">
        <ele>105.7</ele>
        <time>2021-08-15T01:07:00.062Z</time>
      </trkpt>
      <trkpt lat="43.6605" lon="3.82943">
        <ele>111.1</ele>
        <time>2021-08-15T01:07:17.088Z</time>
      </trkpt>
      <trkpt lat="43.66039" lon="3.82913">
        <ele>115.1</ele>
        <time>2021-08-15T01:07:34.216Z</time>
      </trkpt>
      <trkpt lat="43.66028" lon="3.829">
        <ele>115.1</ele>
        <time>2021-08-15T01:07:44.402Z</time>
      </trkpt>
      <trkpt lat="43.66017" lon="3.82886">
        <ele>113.7</ele>
        <time>2021-08-15T01:07:54.589Z</time>
      </trkpt>
      <trkpt lat="43.66011" lon="3.82867">
        <ele>112.6</ele>
        <time>2021-08-15T01:08:05.392Z</time>
      </trkpt>
      <trkpt lat="43.66004" lon="3.82848">
        <ele>110.1</ele>
        <time>2021-08-15T01:08:13.641Z</time>
      </trkpt>
      <trkpt lat="43.66008" lon="3.82835">
        <ele>109.8</ele>
        <time>2021-08-15T01:08:18.953Z</time>
      </trkpt>
      <trkpt lat="43.66011" lon="3.82822">
        <ele>109.1</ele>
        <time>2021-08-15T01:08:24.265Z</time>
      </trkpt>
      <trkpt lat="43.6602" lon="3.82815">
        <ele>110.3</ele>
        <time>2021-08-15T01:08:29.920Z</time>
      </trkpt>
      <trkpt lat="43.6603" lon="3.82808">
        <ele>111.5</ele>
        <time>2021-08-15T01:08:35.602Z</time>
      </trkpt>
      <trkpt lat="43.66044" lon="3.82799">
        <ele>113.7</ele>
        <time>2021-08-15T01:08:44.271Z</time>
      </trkpt>
      <trkpt lat="43.66059" lon="3.8279">
        <ele>115.8</ele>
        <time>2021-08-15T01:08:54.779Z</time>
      </trkpt>
      <trkpt lat="43.66067" lon="3.82773">
        <ele>114.2</ele>
        <time>2021-08-15T01:09:04.229Z</time>
      </trkpt>
      <trkpt lat="43.66075" lon="3.82757">
        <ele>112.4</ele>
        <time>2021-08-15T01:09:13.679Z</time>
      </trkpt>
      <trkpt lat="43.66091" lon="3.82761">
        <ele>115.1</ele>
        <time>2021-08-15T01:09:23.806Z</time>
      </trkpt>
      <trkpt lat="43.66106" lon="3.82766">
        <ele>117.9</ele>
        <time>2021-08-15T01:09:33.933Z</time>
      </trkpt>
      <trkpt lat="43.66106" lon="3.82766">
        <ele>108.8</ele>
        <time>2021-08-15T01:09:34.144Z</time>
      </trkpt>
      <trkpt lat="43.66108" lon="3.82766">
        <ele>108.9</ele>
        <time>2021-08-15T01:09:35.144Z</time>
      </trkpt>
      <trkpt lat="43.66112" lon="3.82765">
        <ele>108.8</ele>
        <time>2021-08-15T01:09:38.144Z</time>
      </trkpt>
      <trkpt lat="43.66114" lon="3.82764">
        <ele>108.6</ele>
        <time>2021-08-15T01:09:39.144Z</time>
      </trkpt>
      <trkpt lat="43.66119" lon="3.82762">
        <ele>108.1</ele>
        <time>2021-08-15T01:09:41.144Z</time>
      </trkpt>
      <trkpt lat="43.66127" lon="3.8276">
        <ele>107.7</ele>
        <time>2021-08-15T01:09:43.144Z</time>
      </trkpt>
      <trkpt lat="43.66142" lon="3.8276">
        <ele>108</ele>
        <time>2021-08-15T01:09:46.144Z</time>
      </trkpt>
      <trkpt lat="43.66151" lon="3.82754">
        <ele>106.9</ele>
        <time>2021-08-15T01:09:46.939Z</time>
      </trkpt>
      <trkpt lat="43.66154" lon="3.82753">
        <ele>106.8</ele>
        <time>2021-08-15T01:09:47.220Z</time>
      </trkpt>
      <trkpt lat="43.66164" lon="3.82744">
        <ele>106.4</ele>
        <time>2021-08-15T01:09:48.211Z</time>
      </trkpt>
      <trkpt lat="43.66185" lon="3.82734">
        <ele>106.5</ele>
        <time>2021-08-15T01:09:50.011Z</time>
      </trkpt>
      <trkpt lat="43.66202" lon="3.82712">
        <ele>105.8</ele>
        <time>2021-08-15T01:09:51.921Z</time>
      </trkpt>
      <trkpt lat="43.66205" lon="3.82705">
        <ele>105.5</ele>
        <time>2021-08-15T01:09:52.407Z</time>
      </trkpt>
      <trkpt lat="43.66227" lon="3.82728">
        <ele>108.9</ele>
        <time>2021-08-15T01:09:54.700Z</time>
      </trkpt>
      <trkpt lat="43.66244" lon="3.82722">
        <ele>108</ele>
        <time>2021-08-15T01:09:56.091Z</time>
      </trkpt>
      <trkpt lat="43.66247" lon="3.82721">
        <ele>107.9</ele>
        <time>2021-08-15T01:09:56.363Z</time>
      </trkpt>
      <trkpt lat="43.66252" lon="3.82707">
        <ele>107.4</ele>
        <time>2021-08-15T01:09:58.281Z</time>
      </trkpt>
      <trkpt lat="43.66255" lon="3.827">
        <ele>107.6</ele>
        <time>2021-08-15T01:09:59.339Z</time>
      </trkpt>
      <trkpt lat="43.66259" lon="3.82695">
        <ele>108</ele>
        <time>2021-08-15T01:10:00.286Z</time>
      </trkpt>
      <trkpt lat="43.66259" lon="3.82691">
        <ele>107.6</ele>
        <time>2021-08-15T01:10:00.881Z</time>
      </trkpt>
      <trkpt lat="43.66257" lon="3.82686">
        <ele>106.8</ele>
        <time>2021-08-15T01:10:01.600Z</time>
      </trkpt>
      <trkpt lat="43.66256" lon="3.8268">
        <ele>106</ele>
        <time>2021-08-15T01:10:02.406Z</time>
      </trkpt>
      <trkpt lat="43.66258" lon="3.82675">
        <ele>105.9</ele>
        <time>2021-08-15T01:10:03.077Z</time>
      </trkpt>
      <trkpt lat="43.66259" lon="3.8267">
        <ele>105.6</ele>
        <time>2021-08-15T01:10:03.798Z</time>
      </trkpt>
      <trkpt lat="43.66258" lon="3.82663">
        <ele>104.9</ele>
        <time>2021-08-15T01:10:04.754Z</time>
      </trkpt>
      <trkpt lat="43.6626" lon="3.82656">
        <ele>104.8</ele>
        <time>2021-08-15T01:10:05.636Z</time>
      </trkpt>
      <trkpt lat="43.6626" lon="3.8265">
        <ele>104.4</ele>
        <time>2021-08-15T01:10:06.447Z</time>
      </trkpt>
      <trkpt lat="43.66258" lon="3.82645">
        <ele>103.9</ele>
        <time>2021-08-15T01:10:07.118Z</time>
      </trkpt>
      <trkpt lat="43.66257" lon="3.82637">
        <ele>103.5</ele>
        <time>2021-08-15T01:10:08.197Z</time>
      </trkpt>
      <trkpt lat="43.66258" lon="3.82633">
        <ele>103.7</ele>
        <time>2021-08-15T01:10:08.703Z</time>
      </trkpt>
      <trkpt lat="43.66259" lon="3.8263">
        <ele>103.9</ele>
        <time>2021-08-15T01:10:09.095Z</time>
      </trkpt>
      <trkpt lat="43.66263" lon="3.82629">
        <ele>104.3</ele>
        <time>2021-08-15T01:10:09.689Z</time>
      </trkpt>
      <trkpt lat="43.66271" lon="3.82627">
        <ele>105.2</ele>
        <time>2021-08-15T01:10:11.237Z</time>
      </trkpt>
      <trkpt lat="43.66281" lon="3.82625">
        <ele>106.6</ele>
        <time>2021-08-15T01:10:12.995Z</time>
      </trkpt>
      <trkpt lat="43.66289" lon="3.8262">
        <ele>108.5</ele>
        <time>2021-08-15T01:10:14.501Z</time>
      </trkpt>
      <trkpt lat="43.66291" lon="3.82611">
        <ele>109.4</ele>
        <time>2021-08-15T01:10:15.659Z</time>
      </trkpt>
      <trkpt lat="43.66294" lon="3.82606">
        <ele>109.6</ele>
        <time>2021-08-15T01:10:16.236Z</time>
      </trkpt>
      <trkpt lat="43.66294" lon="3.82606">
        <ele>109.6</ele>
        <time>2021-08-15T01:10:16.267Z</time>
      </trkpt>
      <trkpt lat="43.66297" lon="3.82601">
        <ele>109.8</ele>
        <time>2021-08-15T01:10:16.890Z</time>
      </trkpt>
      <trkpt lat="43.66296" lon="3.82592">
        <ele>109.1</ele>
        <time>2021-08-15T01:10:17.745Z</time>
      </trkpt>
      <trkpt lat="43.66296" lon="3.82583">
        <ele>108.6</ele>
        <time>2021-08-15T01:10:18.550Z</time>
      </trkpt>
      <trkpt lat="43.663" lon="3.82571">
        <ele>109.1</ele>
        <time>2021-08-15T01:10:19.780Z</time>
      </trkpt>
      <trkpt lat="43.66304" lon="3.82563">
        <ele>109.7</ele>
        <time>2021-08-15T01:10:20.681Z</time>
      </trkpt>
      <trkpt lat="43.663" lon="3.82538">
        <ele>108</ele>
        <time>2021-08-15T01:10:23.005Z</time>
      </trkpt>
      <trkpt lat="43.663" lon="3.82524">
        <ele>107.2</ele>
        <time>2021-08-15T01:10:24.324Z</time>
      </trkpt>
      <trkpt lat="43.66307" lon="3.82462">
        <ele>105.3</ele>
        <time>2021-08-15T01:09:55.148Z</time>
      </trkpt>
      <trkpt lat="43.6631" lon="3.82456">
        <ele>105.8</ele>
        <time>2021-08-15T01:09:52.086Z</time>
      </trkpt>
      <trkpt lat="43.66313" lon="3.82451">
        <ele>106.1</ele>
        <time>2021-08-15T01:09:49.024Z</time>
      </trkpt>
      <trkpt lat="43.66315" lon="3.82448">
        <ele>106.2</ele>
        <time>2021-08-15T01:09:46.962Z</time>
      </trkpt>
      <trkpt lat="43.66318" lon="3.82445">
        <ele>106.4</ele>
        <time>2021-08-15T01:09:44.900Z</time>
      </trkpt>
      <trkpt lat="43.6633" lon="3.82434">
        <ele>108</ele>
        <time>2021-08-15T01:09:35.572Z</time>
      </trkpt>
      <trkpt lat="43.66343" lon="3.82423">
        <ele>111.3</ele>
        <time>2021-08-15T01:09:24.568Z</time>
      </trkpt>
      <trkpt lat="43.66351" lon="3.82417">
        <ele>112.8</ele>
        <time>2021-08-15T01:09:17.635Z</time>
      </trkpt>
      <trkpt lat="43.66359" lon="3.82412">
        <ele>114.2</ele>
        <time>2021-08-15T01:09:12.715Z</time>
      </trkpt>
      <trkpt lat="43.66362" lon="3.82408">
        <ele>114.6</ele>
        <time>2021-08-15T01:09:10.463Z</time>
      </trkpt>
      <trkpt lat="43.66365" lon="3.82404">
        <ele>114.9</ele>
        <time>2021-08-15T01:09:08.211Z</time>
      </trkpt>
      <trkpt lat="43.66366" lon="3.82401">
        <ele>114.9</ele>
        <time>2021-08-15T01:09:06.952Z</time>
      </trkpt>
      <trkpt lat="43.66367" lon="3.82398">
        <ele>114.9</ele>
        <time>2021-08-15T01:09:06.671Z</time>
      </trkpt>
      <trkpt lat="43.66366" lon="3.82395">
        <ele>114.4</ele>
        <time>2021-08-15T01:09:06.384Z</time>
      </trkpt>
      <trkpt lat="43.66365" lon="3.82392">
        <ele>114</ele>
        <time>2021-08-15T01:09:05.716Z</time>
      </trkpt>
      <trkpt lat="43.66364" lon="3.82388">
        <ele>113.6</ele>
        <time>2021-08-15T01:09:04.886Z</time>
      </trkpt>
      <trkpt lat="43.66362" lon="3.82385">
        <ele>113.3</ele>
        <time>2021-08-15T01:09:04.407Z</time>
      </trkpt>
      <trkpt lat="43.66361" lon="3.82379">
        <ele>113.3</ele>
        <time>2021-08-15T01:09:03.640Z</time>
      </trkpt>
      <trkpt lat="43.66359" lon="3.82372">
        <ele>113.2</ele>
        <time>2021-08-15T01:09:01.962Z</time>
      </trkpt>
      <trkpt lat="43.66358" lon="3.82368">
        <ele>113.2</ele>
        <time>2021-08-15T01:09:00.802Z</time>
      </trkpt>
      <trkpt lat="43.66356" lon="3.82364">
        <ele>113</ele>
        <time>2021-08-15T01:09:00.028Z</time>
      </trkpt>
      <trkpt lat="43.66353" lon="3.8236">
        <ele>112.7</ele>
        <time>2021-08-15T01:08:58.996Z</time>
      </trkpt>
      <trkpt lat="43.66349" lon="3.82357">
        <ele>112.3</ele>
        <time>2021-08-15T01:08:57.045Z</time>
      </trkpt>
      <trkpt lat="43.66347" lon="3.8235">
        <ele>112.7</ele>
        <time>2021-08-15T01:08:54.832Z</time>
      </trkpt>
      <trkpt lat="43.66345" lon="3.82344">
        <ele>112.8</ele>
        <time>2021-08-15T01:08:53.198Z</time>
      </trkpt>
      <trkpt lat="43.66341" lon="3.82342">
        <ele>112.1</ele>
        <time>2021-08-15T01:08:51.661Z</time>
      </trkpt>
      <trkpt lat="43.66336" lon="3.82339">
        <ele>111.2</ele>
        <time>2021-08-15T01:08:48.811Z</time>
      </trkpt>
      <trkpt lat="43.66332" lon="3.82328">
        <ele>111.1</ele>
        <time>2021-08-15T01:08:43.138Z</time>
      </trkpt>
      <trkpt lat="43.66328" lon="3.82316">
        <ele>111.3</ele>
        <time>2021-08-15T01:08:40.469Z</time>
      </trkpt>
      <trkpt lat="43.66323" lon="3.82304">
        <ele>111.3</ele>
        <time>2021-08-15T01:08:37.634Z</time>
      </trkpt>
      <trkpt lat="43.6632" lon="3.82291">
        <ele>111.9</ele>
        <time>2021-08-15T01:08:36.319Z</time>
      </trkpt>
      <trkpt lat="43.6631" lon="3.82215">
        <ele>114.3</ele>
        <time>2021-08-15T01:08:27.401Z</time>
      </trkpt>
      <trkpt lat="43.66307" lon="3.82187">
        <ele>115.2</ele>
        <time>2021-08-15T01:08:24.016Z</time>
      </trkpt>
      <trkpt lat="43.66277" lon="3.82132">
        <ele>111.3</ele>
        <time>2021-08-15T01:08:16.089Z</time>
      </trkpt>
      <trkpt lat="43.66267" lon="3.82089">
        <ele>112.1</ele>
        <time>2021-08-15T01:08:10.813Z</time>
      </trkpt>
      <trkpt lat="43.66253" lon="3.82059">
        <ele>109.9</ele>
        <time>2021-08-15T01:08:06.615Z</time>
      </trkpt>
      <trkpt lat="43.66243" lon="3.82029">
        <ele>110.4</ele>
        <time>2021-08-15T01:08:02.796Z</time>
      </trkpt>
      <trkpt lat="43.66242" lon="3.82026">
        <ele>110.5</ele>
        <time>2021-08-15T01:08:02.390Z</time>
      </trkpt>
      <trkpt lat="43.66207" lon="3.81998">
        <ele>104.9</ele>
        <time>2021-08-15T01:07:49.187Z</time>
      </trkpt>
      <trkpt lat="43.66204" lon="3.81996">
        <ele>104.4</ele>
        <time>2021-08-15T01:07:48.147Z</time>
      </trkpt>
      <trkpt lat="43.6622" lon="3.81892">
        <ele>109.6</ele>
        <time>2021-08-15T01:07:23.385Z</time>
      </trkpt>
      <trkpt lat="43.66223" lon="3.81846">
        <ele>110.2</ele>
        <time>2021-08-15T01:07:12.591Z</time>
      </trkpt>
      <trkpt lat="43.66226" lon="3.81837">
        <ele>111.1</ele>
        <time>2021-08-15T01:07:10.249Z</time>
      </trkpt>
      <trkpt lat="43.66226" lon="3.81777">
        <ele>112.2</ele>
        <time>2021-08-15T01:06:56.145Z</time>
      </trkpt>
      <trkpt lat="43.66227" lon="3.81772">
        <ele>112.6</ele>
        <time>2021-08-15T01:06:55.389Z</time>
      </trkpt>
      <trkpt lat="43.6623" lon="3.81761">
        <ele>113.9</ele>
        <time>2021-08-15T01:06:53.716Z</time>
      </trkpt>
      <trkpt lat="43.66223" lon="3.81732">
        <ele>112.6</ele>
        <time>2021-08-15T01:06:49.213Z</time>
      </trkpt>
      <trkpt lat="43.66221" lon="3.81664">
        <ele>113.5</ele>
        <time>2021-08-15T01:06:39.007Z</time>
      </trkpt>
      <trkpt lat="43.66216" lon="3.81639">
        <ele>111</ele>
        <time>2021-08-15T01:06:35.125Z</time>
      </trkpt>
      <trkpt lat="43.66218" lon="3.81617">
        <ele>111</ele>
        <time>2021-08-15T01:06:31.900Z</time>
      </trkpt>
      <trkpt lat="43.66213" lon="3.81584">
        <ele>108.4</ele>
        <time>2021-08-15T01:06:26.976Z</time>
      </trkpt>
      <trkpt lat="43.66204" lon="3.81574">
        <ele>105.6</ele>
        <time>2021-08-15T01:06:24.565Z</time>
      </trkpt>
      <trkpt lat="43.66209" lon="3.81556">
        <ele>107.2</ele>
        <time>2021-08-15T01:06:21.681Z</time>
      </trkpt>
      <trkpt lat="43.66202" lon="3.81525">
        <ele>105.5</ele>
        <time>2021-08-15T01:06:16.839Z</time>
      </trkpt>
      <trkpt lat="43.66189" lon="3.81491">
        <ele>101.8</ele>
        <time>2021-08-15T01:06:11.077Z</time>
      </trkpt>
      <trkpt lat="43.66165" lon="3.81451">
        <ele>95</ele>
        <time>2021-08-15T01:06:03.444Z</time>
      </trkpt>
      <trkpt lat="43.66168" lon="3.81422">
        <ele>93.7</ele>
        <time>2021-08-15T01:05:59.110Z</time>
      </trkpt>
      <trkpt lat="43.66144" lon="3.81328">
        <ele>86.7</ele>
        <time>2021-08-15T01:05:44.305Z</time>
      </trkpt>
      <trkpt lat="43.66174" lon="3.81304">
        <ele>88.7</ele>
        <time>2021-08-15T01:05:37.211Z</time>
      </trkpt>
      <trkpt lat="43.66203" lon="3.81284">
        <ele>90.7</ele>
        <time>2021-08-15T01:05:30.632Z</time>
      </trkpt>
      <trkpt lat="43.66229" lon="3.81284">
        <ele>94.5</ele>
        <time>2021-08-15T01:05:25.140Z</time>
      </trkpt>
      <trkpt lat="43.66291" lon="3.81258">
        <ele>101.1</ele>
        <time>2021-08-15T01:05:11.768Z</time>
      </trkpt>
      <trkpt lat="43.66309" lon="3.81241">
        <ele>101.3</ele>
        <time>2021-08-15T01:05:07.342Z</time>
      </trkpt>
      <trkpt lat="43.66342" lon="3.81241">
        <ele>106.9</ele>
        <time>2021-08-15T01:05:00.575Z</time>
      </trkpt>
      <trkpt lat="43.66374" lon="3.81238">
        <ele>109.3</ele>
        <time>2021-08-15T01:04:54.056Z</time>
      </trkpt>
      <trkpt lat="43.66407" lon="3.81238">
        <ele>111.6</ele>
        <time>2021-08-15T01:04:47.289Z</time>
      </trkpt>
      <trkpt lat="43.66434" lon="3.81243">
        <ele>115.5</ele>
        <time>2021-08-15T01:04:41.602Z</time>
      </trkpt>
      <trkpt lat="43.6646" lon="3.81241">
        <ele>118.2</ele>
        <time>2021-08-15T01:04:36.371Z</time>
      </trkpt>
      <trkpt lat="43.66484" lon="3.81241">
        <ele>121.1</ele>
        <time>2021-08-15T01:04:31.393Z</time>
      </trkpt>
      <trkpt lat="43.66509" lon="3.81247">
        <ele>125.8</ele>
        <time>2021-08-15T01:04:26.166Z</time>
      </trkpt>
      <trkpt lat="43.6653" lon="3.81246">
        <ele>128.8</ele>
        <time>2021-08-15T01:04:21.800Z</time>
      </trkpt>
      <trkpt lat="43.66551" lon="3.81244">
        <ele>132.3</ele>
        <time>2021-08-15T01:04:17.475Z</time>
      </trkpt>
      <trkpt lat="43.66562" lon="3.81242">
        <ele>133.9</ele>
        <time>2021-08-15T01:04:15.118Z</time>
      </trkpt>
      <trkpt lat="43.66576" lon="3.81244">
        <ele>136.1</ele>
        <time>2021-08-15T01:04:12.289Z</time>
      </trkpt>
      <trkpt lat="43.66589" lon="3.81246">
        <ele>137.3</ele>
        <time>2021-08-15T01:04:09.604Z</time>
      </trkpt>
      <trkpt lat="43.66623" lon="3.81232">
        <ele>138.5</ele>
        <time>2021-08-15T01:04:02.411Z</time>
      </trkpt>
      <trkpt lat="43.66673" lon="3.81217">
        <ele>139.4</ele>
        <time>2021-08-15T01:03:51.750Z</time>
      </trkpt>
      <trkpt lat="43.66703" lon="3.81226">
        <ele>138.4</ele>
        <time>2021-08-15T01:03:45.474Z</time>
      </trkpt>
      <trkpt lat="43.66706" lon="3.81224">
        <ele>138.5</ele>
        <time>2021-08-15T01:03:44.957Z</time>
      </trkpt>
      <trkpt lat="43.66699" lon="3.81252">
        <ele>136.9</ele>
        <time>2021-08-15T01:03:40.632Z</time>
      </trkpt>
      <trkpt lat="43.66693" lon="3.81262">
        <ele>137.4</ele>
        <time>2021-08-15T01:03:42.632Z</time>
      </trkpt>
      <trkpt lat="43.66687" lon="3.81274">
        <ele>137.6</ele>
        <time>2021-08-15T01:03:44.632Z</time>
      </trkpt>
      <trkpt lat="43.66664" lon="3.81303">
        <ele>136.1</ele>
        <time>2021-08-15T01:03:50.632Z</time>
      </trkpt>
      <trkpt lat="43.66651" lon="3.81317">
        <ele>135.6</ele>
        <time>2021-08-15T01:03:56.631Z</time>
      </trkpt>
      <trkpt lat="43.66638" lon="3.81331">
        <ele>135.1</ele>
        <time>2021-08-15T01:03:56.632Z</time>
      </trkpt>
      <trkpt lat="43.66626" lon="3.81347">
        <ele>135.2</ele>
        <time>2021-08-15T01:03:59.632Z</time>
      </trkpt>
      <trkpt lat="43.66622" lon="3.8135">
        <ele>135.4</ele>
        <time>2021-08-15T01:04:00.632Z</time>
      </trkpt>
      <trkpt lat="43.66608" lon="3.81348">
        <ele>136.2</ele>
        <time>2021-08-15T01:04:03.632Z</time>
      </trkpt>
      <trkpt lat="43.666" lon="3.81345">
        <ele>136.6</ele>
        <time>2021-08-15T01:04:05.632Z</time>
      </trkpt>
      <trkpt lat="43.66596" lon="3.81343">
        <ele>136.9</ele>
        <time>2021-08-15T01:04:06.632Z</time>
      </trkpt>
      <trkpt lat="43.66584" lon="3.8134">
        <ele>137.7</ele>
        <time>2021-08-15T01:04:09.632Z</time>
      </trkpt>
      <trkpt lat="43.66563" lon="3.81336">
        <ele>139.4</ele>
        <time>2021-08-15T01:04:15.632Z</time>
      </trkpt>
      <trkpt lat="43.66548" lon="3.81332">
        <ele>140</ele>
        <time>2021-08-15T01:04:19.632Z</time>
      </trkpt>
      <trkpt lat="43.66541" lon="3.8133">
        <ele>139.9</ele>
        <time>2021-08-15T01:04:21.632Z</time>
      </trkpt>
      <trkpt lat="43.66533" lon="3.81329">
        <ele>139.9</ele>
        <time>2021-08-15T01:04:23.632Z</time>
      </trkpt>
      <trkpt lat="43.66524" lon="3.81328">
        <ele>139.8</ele>
        <time>2021-08-15T01:04:25.632Z</time>
      </trkpt>
      <trkpt lat="43.66515" lon="3.81329">
        <ele>139.8</ele>
        <time>2021-08-15T01:03:56.328Z</time>
      </trkpt>
      <trkpt lat="43.66493" lon="3.81337">
        <ele>139.9</ele>
        <time>2021-08-15T01:02:48.369Z</time>
      </trkpt>
      <trkpt lat="43.66481" lon="3.8134">
        <ele>139.7</ele>
        <time>2021-08-15T01:02:10.261Z</time>
      </trkpt>
      <trkpt lat="43.66465" lon="3.81342">
        <ele>139.7</ele>
        <time>2021-08-15T01:01:21.160Z</time>
      </trkpt>
      <trkpt lat="43.66407" lon="3.8138">
        <ele>145.6</ele>
        <time>2021-08-15T00:58:02.699Z</time>
      </trkpt>
      <trkpt lat="43.66389" lon="3.81393">
        <ele>147.1</ele>
        <time>2021-08-15T00:56:59.493Z</time>
      </trkpt>
      <trkpt lat="43.66355" lon="3.81435">
        <ele>149.3</ele>
        <time>2021-08-15T00:54:40.324Z</time>
      </trkpt>
      <trkpt lat="43.66353" lon="3.81437">
        <ele>149.3</ele>
        <time>2021-08-15T00:54:37.092Z</time>
      </trkpt>
      <trkpt lat="43.66347" lon="3.81441">
        <ele>149.2</ele>
        <time>2021-08-15T00:54:30.130Z</time>
      </trkpt>
      <trkpt lat="43.66344" lon="3.81459">
        <ele>150.2</ele>
        <time>2021-08-15T00:54:14.860Z</time>
      </trkpt>
      <trkpt lat="43.66349" lon="3.81483">
        <ele>151</ele>
        <time>2021-08-15T00:53:54.530Z</time>
      </trkpt>
      <trkpt lat="43.6635" lon="3.81494">
        <ele>151</ele>
        <time>2021-08-15T00:53:45.281Z</time>
      </trkpt>
      <trkpt lat="43.66351" lon="3.81501">
        <ele>151</ele>
        <time>2021-08-15T00:53:39.327Z</time>
      </trkpt>
      <trkpt lat="43.66353" lon="3.81521">
        <ele>151</ele>
        <time>2021-08-15T00:53:23.135Z</time>
      </trkpt>
      <trkpt lat="43.66356" lon="3.81533">
        <ele>151</ele>
        <time>2021-08-15T00:53:12.769Z</time>
      </trkpt>
      <trkpt lat="43.66357" lon="3.81538">
        <ele>151</ele>
        <time>2021-08-15T00:53:08.595Z</time>
      </trkpt>
      <trkpt lat="43.66349" lon="3.81544">
        <ele>151</ele>
        <time>2021-08-15T00:52:58.778Z</time>
      </trkpt>
      <trkpt lat="43.66324" lon="3.8157">
        <ele>148.6</ele>
        <time>2021-08-15T00:52:22.735Z</time>
      </trkpt>
      <trkpt lat="43.66323" lon="3.81577">
        <ele>148.3</ele>
        <time>2021-08-15T00:52:16.653Z</time>
      </trkpt>
      <trkpt lat="43.66326" lon="3.81587">
        <ele>148.6</ele>
        <time>2021-08-15T00:52:08.308Z</time>
      </trkpt>
      <trkpt lat="43.66334" lon="3.81594">
        <ele>150</ele>
        <time>2021-08-15T00:51:55.892Z</time>
      </trkpt>
      <trkpt lat="43.66329" lon="3.81624">
        <ele>148.9</ele>
        <time>2021-08-15T00:51:23.485Z</time>
      </trkpt>
      <trkpt lat="43.66323" lon="3.81655">
        <ele>147.4</ele>
        <time>2021-08-15T00:50:36.466Z</time>
      </trkpt>
      <trkpt lat="43.66322" lon="3.81671">
        <ele>147.1</ele>
        <time>2021-08-15T00:50:13.379Z</time>
      </trkpt>
      <trkpt lat="43.6632" lon="3.81686">
        <ele>146.6</ele>
        <time>2021-08-15T00:49:50.292Z</time>
      </trkpt>
      <trkpt lat="43.66323" lon="3.81692">
        <ele>147.4</ele>
        <time>2021-08-15T00:49:38.430Z</time>
      </trkpt>
      <trkpt lat="43.66327" lon="3.81698">
        <ele>148.3</ele>
        <time>2021-08-15T00:49:26.568Z</time>
      </trkpt>
      <trkpt lat="43.66334" lon="3.81697">
        <ele>149.9</ele>
        <time>2021-08-15T00:49:13.348Z</time>
      </trkpt>
      <trkpt lat="43.6634" lon="3.81696">
        <ele>149.5</ele>
        <time>2021-08-15T00:49:01.762Z</time>
      </trkpt>
      <trkpt lat="43.66348" lon="3.81698">
        <ele>148.9</ele>
        <time>2021-08-15T00:48:47.966Z</time>
      </trkpt>
      <trkpt lat="43.66355" lon="3.81699">
        <ele>148.4</ele>
        <time>2021-08-15T00:48:34.646Z</time>
      </trkpt>
      <trkpt lat="43.66359" lon="3.8169">
        <ele>148.3</ele>
        <time>2021-08-15T00:48:21.330Z</time>
      </trkpt>
      <trkpt lat="43.66363" lon="3.81681">
        <ele>148.3</ele>
        <time>2021-08-15T00:48:09.086Z</time>
      </trkpt>
      <trkpt lat="43.66375" lon="3.81688">
        <ele>147.2</ele>
        <time>2021-08-15T00:47:49.232Z</time>
      </trkpt>
      <trkpt lat="43.66386" lon="3.81694">
        <ele>146.2</ele>
        <time>2021-08-15T00:47:29.378Z</time>
      </trkpt>
      <trkpt lat="43.66407" lon="3.81708">
        <ele>145.5</ele>
        <time>2021-08-15T00:46:52.083Z</time>
      </trkpt>
      <trkpt lat="43.66417" lon="3.81716">
        <ele>145</ele>
        <time>2021-08-15T00:46:54.083Z</time>
      </trkpt>
      <trkpt lat="43.66421" lon="3.8172">
        <ele>144.9</ele>
        <time>2021-08-15T00:46:55.083Z</time>
      </trkpt>
      <trkpt lat="43.66435" lon="3.81732">
        <ele>144.3</ele>
        <time>2021-08-15T00:46:58.083Z</time>
      </trkpt>
      <trkpt lat="43.66445" lon="3.81738">
        <ele>144</ele>
        <time>2021-08-15T00:47:00.083Z</time>
      </trkpt>
      <trkpt lat="43.66455" lon="3.81744">
        <ele>143.6</ele>
        <time>2021-08-15T00:47:02.083Z</time>
      </trkpt>
      <trkpt lat="43.66465" lon="3.81749">
        <ele>143.3</ele>
        <time>2021-08-15T00:47:04.083Z</time>
      </trkpt>
      <trkpt lat="43.66476" lon="3.81766">
        <ele>142.9</ele>
        <time>2021-08-15T00:47:07.083Z</time>
      </trkpt>
      <trkpt lat="43.66482" lon="3.81778">
        <ele>142.6</ele>
        <time>2021-08-15T00:47:09.083Z</time>
      </trkpt>
      <trkpt lat="43.66486" lon="3.81783">
        <ele>142.5</ele>
        <time>2021-08-15T00:47:10.083Z</time>
      </trkpt>
      <trkpt lat="43.66491" lon="3.81788">
        <ele>142.3</ele>
        <time>2021-08-15T00:47:11.083Z</time>
      </trkpt>
      <trkpt lat="43.66501" lon="3.81796">
        <ele>142</ele>
        <time>2021-08-15T00:47:13.083Z</time>
      </trkpt>
      <trkpt lat="43.66512" lon="3.81803">
        <ele>141.6</ele>
        <time>2021-08-15T00:47:15.083Z</time>
      </trkpt>
      <trkpt lat="43.66517" lon="3.81807">
        <ele>141.4</ele>
        <time>2021-08-15T00:47:16.083Z</time>
      </trkpt>
      <trkpt lat="43.66522" lon="3.8181">
        <ele>141.2</ele>
        <time>2021-08-15T00:47:17.083Z</time>
      </trkpt>
      <trkpt lat="43.66541" lon="3.81831">
        <ele>141</ele>
        <time>2021-08-15T00:47:21.083Z</time>
      </trkpt>
      <trkpt lat="43.6655" lon="3.81841">
        <ele>140.7</ele>
        <time>2021-08-15T00:47:23.083Z</time>
      </trkpt>
      <trkpt lat="43.6656" lon="3.81848">
        <ele>140.5</ele>
        <time>2021-08-15T00:47:25.083Z</time>
      </trkpt>
      <trkpt lat="43.6657" lon="3.81855">
        <ele>140.2</ele>
        <time>2021-08-15T00:47:27.083Z</time>
      </trkpt>
      <trkpt lat="43.66585" lon="3.81868">
        <ele>139.5</ele>
        <time>2021-08-15T00:47:30.083Z</time>
      </trkpt>
      <trkpt lat="43.66605" lon="3.81888">
        <ele>138.1</ele>
        <time>2021-08-15T00:47:34.083Z</time>
      </trkpt>
      <trkpt lat="43.66617" lon="3.81898">
        <ele>137.9</ele>
        <time>2021-08-15T00:47:36.083Z</time>
      </trkpt>
      <trkpt lat="43.66641" lon="3.81912">
        <ele>136.3</ele>
        <time>2021-08-15T00:47:40.083Z</time>
      </trkpt>
      <trkpt lat="43.66653" lon="3.8192">
        <ele>136</ele>
        <time>2021-08-15T00:47:42.083Z</time>
      </trkpt>
      <trkpt lat="43.66664" lon="3.8193">
        <ele>135.6</ele>
        <time>2021-08-15T00:47:44.083Z</time>
      </trkpt>
      <trkpt lat="43.66686" lon="3.81948">
        <ele>135</ele>
        <time>2021-08-15T00:47:48.083Z</time>
      </trkpt>
      <trkpt lat="43.66711" lon="3.81957">
        <ele>134.5</ele>
        <time>2021-08-15T00:47:52.083Z</time>
      </trkpt>
      <trkpt lat="43.66724" lon="3.81961">
        <ele>134.5</ele>
        <time>2021-08-15T00:47:54.083Z</time>
      </trkpt>
      <trkpt lat="43.6673" lon="3.81963">
        <ele>134.8</ele>
        <time>2021-08-15T00:47:55.083Z</time>
      </trkpt>
      <trkpt lat="43.66739" lon="3.8197">
        <ele>135.2</ele>
        <time>2021-08-15T00:47:57.083Z</time>
      </trkpt>
      <trkpt lat="43.66761" lon="3.81992">
        <ele>134.9</ele>
        <time>2021-08-15T00:48:02.083Z</time>
      </trkpt>
      <trkpt lat="43.66765" lon="3.81999">
        <ele>134.6</ele>
        <time>2021-08-15T00:48:03.083Z</time>
      </trkpt>
      <trkpt lat="43.66775" lon="3.82031">
        <ele>132.8</ele>
        <time>2021-08-15T00:48:07.083Z</time>
      </trkpt>
      <trkpt lat="43.6678" lon="3.82051">
        <ele>131.4</ele>
        <time>2021-08-15T00:48:09.083Z</time>
      </trkpt>
      <trkpt lat="43.66788" lon="3.82082">
        <ele>131</ele>
        <time>2021-08-15T00:48:12.083Z</time>
      </trkpt>
      <trkpt lat="43.66808" lon="3.82117">
        <ele>128.3</ele>
        <time>2021-08-15T00:48:16.083Z</time>
      </trkpt>
      <trkpt lat="43.66819" lon="3.82133">
        <ele>128.2</ele>
        <time>2021-08-15T00:48:18.083Z</time>
      </trkpt>
      <trkpt lat="43.66825" lon="3.82142">
        <ele>127.5</ele>
        <time>2021-08-15T00:48:19.083Z</time>
      </trkpt>
      <trkpt lat="43.66829" lon="3.82152">
        <ele>126.6</ele>
        <time>2021-08-15T00:48:20.083Z</time>
      </trkpt>
      <trkpt lat="43.66833" lon="3.82184">
        <ele>125.1</ele>
        <time>2021-08-15T00:48:23.083Z</time>
      </trkpt>
      <trkpt lat="43.66822" lon="3.82203">
        <ele>127</ele>
        <time>2021-08-15T00:48:18.456Z</time>
      </trkpt>
      <trkpt lat="43.66821" lon="3.82205">
        <ele>127.2</ele>
        <time>2021-08-15T00:48:18.035Z</time>
      </trkpt>
      <trkpt lat="43.66799" lon="3.82224">
        <ele>130</ele>
        <time>2021-08-15T00:48:11.377Z</time>
      </trkpt>
      <trkpt lat="43.66788" lon="3.82235">
        <ele>131.6</ele>
        <time>2021-08-15T00:48:07.804Z</time>
      </trkpt>
      <trkpt lat="43.66779" lon="3.82246">
        <ele>132.1</ele>
        <time>2021-08-15T00:48:04.684Z</time>
      </trkpt>
      <trkpt lat="43.66768" lon="3.82266">
        <ele>133.6</ele>
        <time>2021-08-15T00:48:00.078Z</time>
      </trkpt>
      <trkpt lat="43.66731" lon="3.8229">
        <ele>135.8</ele>
        <time>2021-08-15T00:47:49.300Z</time>
      </trkpt>
      <trkpt lat="43.66717" lon="3.82321">
        <ele>137.9</ele>
        <time>2021-08-15T00:47:42.530Z</time>
      </trkpt>
      <trkpt lat="43.66714" lon="3.82322">
        <ele>138.2</ele>
        <time>2021-08-15T00:47:41.718Z</time>
      </trkpt>
      <trkpt lat="43.66707" lon="3.82328">
        <ele>138.9</ele>
        <time>2021-08-15T00:47:39.536Z</time>
      </trkpt>
      <trkpt lat="43.66693" lon="3.82321">
        <ele>139.7</ele>
        <time>2021-08-15T00:47:35.682Z</time>
      </trkpt>
      <trkpt lat="43.66673" lon="3.8232">
        <ele>141.4</ele>
        <time>2021-08-15T00:47:30.425Z</time>
      </trkpt>
      <trkpt lat="43.66652" lon="3.82326">
        <ele>142.7</ele>
        <time>2021-08-15T00:47:24.972Z</time>
      </trkpt>
      <trkpt lat="43.66642" lon="3.82333">
        <ele>142.9</ele>
        <time>2021-08-15T00:47:21.917Z</time>
      </trkpt>
      <trkpt lat="43.66631" lon="3.82334">
        <ele>143.3</ele>
        <time>2021-08-15T00:47:19.131Z</time>
      </trkpt>
      <trkpt lat="43.66615" lon="3.82332">
        <ele>143.9</ele>
        <time>2021-08-15T00:47:14.980Z</time>
      </trkpt>
      <trkpt lat="43.66614" lon="3.82335">
        <ele>143.8</ele>
        <time>2021-08-15T00:47:14.293Z</time>
      </trkpt>
      <trkpt lat="43.66612" lon="3.82346">
        <ele>143.5</ele>
        <time>2021-08-15T00:47:12.131Z</time>
      </trkpt>
      <trkpt lat="43.6661" lon="3.82358">
        <ele>143.2</ele>
        <time>2021-08-15T00:47:14.131Z</time>
      </trkpt>
      <trkpt lat="43.66608" lon="3.82376">
        <ele>143.1</ele>
        <time>2021-08-15T00:47:17.131Z</time>
      </trkpt>
      <trkpt lat="43.66608" lon="3.82396">
        <ele>142.9</ele>
        <time>2021-08-15T00:47:20.131Z</time>
      </trkpt>
      <trkpt lat="43.66609" lon="3.82403">
        <ele>142.6</ele>
        <time>2021-08-15T00:47:21.131Z</time>
      </trkpt>
      <trkpt lat="43.66611" lon="3.82409">
        <ele>142.3</ele>
        <time>2021-08-15T00:47:22.131Z</time>
      </trkpt>
      <trkpt lat="43.66617" lon="3.82427">
        <ele>141.6</ele>
        <time>2021-08-15T00:47:25.131Z</time>
      </trkpt>
      <trkpt lat="43.66619" lon="3.82432">
        <ele>141.4</ele>
        <time>2021-08-15T00:47:27.131Z</time>
      </trkpt>
      <trkpt lat="43.6662" lon="3.82436">
        <ele>141.3</ele>
        <time>2021-08-15T00:47:29.131Z</time>
      </trkpt>
      <trkpt lat="43.66622" lon="3.82442">
        <ele>141.1</ele>
        <time>2021-08-15T00:47:31.131Z</time>
      </trkpt>
      <trkpt lat="43.66625" lon="3.82455">
        <ele>140.2</ele>
        <time>2021-08-15T00:47:34.131Z</time>
      </trkpt>
      <trkpt lat="43.66633" lon="3.82484">
        <ele>138.4</ele>
        <time>2021-08-15T00:47:39.131Z</time>
      </trkpt>
      <trkpt lat="43.66636" lon="3.8251">
        <ele>136.1</ele>
        <time>2021-08-15T00:47:42.131Z</time>
      </trkpt>
      <trkpt lat="43.66636" lon="3.82519">
        <ele>135.5</ele>
        <time>2021-08-15T00:47:43.131Z</time>
      </trkpt>
      <trkpt lat="43.66637" lon="3.82528">
        <ele>134.8</ele>
        <time>2021-08-15T00:47:44.131Z</time>
      </trkpt>
      <trkpt lat="43.66641" lon="3.82557">
        <ele>130.8</ele>
        <time>2021-08-15T00:47:47.131Z</time>
      </trkpt>
      <trkpt lat="43.66643" lon="3.82567">
        <ele>129.8</ele>
        <time>2021-08-15T00:47:48.131Z</time>
      </trkpt>
      <trkpt lat="43.66646" lon="3.82582">
        <ele>128.4</ele>
        <time>2021-08-15T00:47:50.131Z</time>
      </trkpt>
      <trkpt lat="43.66648" lon="3.82589">
        <ele>127.5</ele>
        <time>2021-08-15T00:47:51.131Z</time>
      </trkpt>
      <trkpt lat="43.6665" lon="3.82595">
        <ele>126.7</ele>
        <time>2021-08-15T00:47:52.131Z</time>
      </trkpt>
      <trkpt lat="43.66651" lon="3.82602">
        <ele>125.7</ele>
        <time>2021-08-15T00:47:53.131Z</time>
      </trkpt>
      <trkpt lat="43.66654" lon="3.82611">
        <ele>124.6</ele>
        <time>2021-08-15T00:47:54.131Z</time>
      </trkpt>
      <trkpt lat="43.66656" lon="3.82618">
        <ele>123.8</ele>
        <time>2021-08-15T00:47:55.131Z</time>
      </trkpt>
      <trkpt lat="43.66658" lon="3.82626">
        <ele>122.9</ele>
        <time>2021-08-15T00:47:56.131Z</time>
      </trkpt>
      <trkpt lat="43.66662" lon="3.8264">
        <ele>121</ele>
        <time>2021-08-15T00:47:58.131Z</time>
      </trkpt>
      <trkpt lat="43.66665" lon="3.82647">
        <ele>119.9</ele>
        <time>2021-08-15T00:47:59.131Z</time>
      </trkpt>
      <trkpt lat="43.66666" lon="3.82655">
        <ele>118.7</ele>
        <time>2021-08-15T00:48:00.131Z</time>
      </trkpt>
      <trkpt lat="43.66669" lon="3.82662">
        <ele>117.6</ele>
        <time>2021-08-15T00:48:02.131Z</time>
      </trkpt>
      <trkpt lat="43.66672" lon="3.82663">
        <ele>117.3</ele>
        <time>2021-08-15T00:48:03.131Z</time>
      </trkpt>
      <trkpt lat="43.66678" lon="3.82663">
        <ele>117.1</ele>
        <time>2021-08-15T00:48:05.131Z</time>
      </trkpt>
      <trkpt lat="43.66681" lon="3.82661">
        <ele>117.3</ele>
        <time>2021-08-15T00:48:06.131Z</time>
      </trkpt>
      <trkpt lat="43.66685" lon="3.82661">
        <ele>117.2</ele>
        <time>2021-08-15T00:48:07.131Z</time>
      </trkpt>
      <trkpt lat="43.66689" lon="3.8266">
        <ele>117.2</ele>
        <time>2021-08-15T00:48:08.131Z</time>
      </trkpt>
      <trkpt lat="43.66698" lon="3.82658">
        <ele>117</ele>
        <time>2021-08-15T00:48:10.131Z</time>
      </trkpt>
      <trkpt lat="43.66702" lon="3.82657">
        <ele>116.9</ele>
        <time>2021-08-15T00:48:11.131Z</time>
      </trkpt>
      <trkpt lat="43.66709" lon="3.82652">
        <ele>117.3</ele>
        <time>2021-08-15T00:48:13.131Z</time>
      </trkpt>
      <trkpt lat="43.6672" lon="3.82645">
        <ele>118</ele>
        <time>2021-08-15T00:48:16.131Z</time>
      </trkpt>
      <trkpt lat="43.66724" lon="3.82644">
        <ele>117.9</ele>
        <time>2021-08-15T00:48:17.131Z</time>
      </trkpt>
      <trkpt lat="43.66728" lon="3.82642">
        <ele>117.8</ele>
        <time>2021-08-15T00:48:18.131Z</time>
      </trkpt>
      <trkpt lat="43.66741" lon="3.82635">
        <ele>117.4</ele>
        <time>2021-08-15T00:48:21.131Z</time>
      </trkpt>
      <trkpt lat="43.66761" lon="3.82622">
        <ele>116.2</ele>
        <time>2021-08-15T00:48:25.131Z</time>
      </trkpt>
      <trkpt lat="43.66784" lon="3.82609">
        <ele>114.6</ele>
        <time>2021-08-15T00:48:29.131Z</time>
      </trkpt>
      <trkpt lat="43.6679" lon="3.82604">
        <ele>114.4</ele>
        <time>2021-08-15T00:48:30.131Z</time>
      </trkpt>
      <trkpt lat="43.66809" lon="3.82584">
        <ele>114.7</ele>
        <time>2021-08-15T00:48:34.131Z</time>
      </trkpt>
      <trkpt lat="43.66814" lon="3.8258">
        <ele>114.7</ele>
        <time>2021-08-15T00:48:35.131Z</time>
      </trkpt>
      <trkpt lat="43.66837" lon="3.82561">
        <ele>114.9</ele>
        <time>2021-08-15T00:48:40.131Z</time>
      </trkpt>
      <trkpt lat="43.66844" lon="3.82555">
        <ele>114.5</ele>
        <time>2021-08-15T00:48:41.131Z</time>
      </trkpt>
      <trkpt lat="43.66856" lon="3.82542">
        <ele>114.1</ele>
        <time>2021-08-15T00:48:44.131Z</time>
      </trkpt>
      <trkpt lat="43.6686" lon="3.82538">
        <ele>114</ele>
        <time>2021-08-15T00:48:45.131Z</time>
      </trkpt>
      <trkpt lat="43.66883" lon="3.82519">
        <ele>113.6</ele>
        <time>2021-08-15T00:48:49.131Z</time>
      </trkpt>
      <trkpt lat="43.66902" lon="3.825">
        <ele>114.5</ele>
        <time>2021-08-15T00:48:53.131Z</time>
      </trkpt>
      <trkpt lat="43.66906" lon="3.82498">
        <ele>114.7</ele>
        <time>2021-08-15T00:48:54.131Z</time>
      </trkpt>
      <trkpt lat="43.6691" lon="3.82495">
        <ele>114.9</ele>
        <time>2021-08-15T00:48:55.131Z</time>
      </trkpt>
      <trkpt lat="43.6692" lon="3.82485">
        <ele>115.3</ele>
        <time>2021-08-15T00:48:58.131Z</time>
      </trkpt>
      <trkpt lat="43.66924" lon="3.82481">
        <ele>115.3</ele>
        <time>2021-08-15T00:48:59.131Z</time>
      </trkpt>
      <trkpt lat="43.66942" lon="3.82466">
        <ele>114.7</ele>
        <time>2021-08-15T00:49:03.131Z</time>
      </trkpt>
      <trkpt lat="43.66952" lon="3.82458">
        <ele>114.1</ele>
        <time>2021-08-15T00:49:05.131Z</time>
      </trkpt>
      <trkpt lat="43.66961" lon="3.82449">
        <ele>113.4</ele>
        <time>2021-08-15T00:49:07.131Z</time>
      </trkpt>
      <trkpt lat="43.66976" lon="3.82435">
        <ele>112.4</ele>
        <time>2021-08-15T00:49:10.131Z</time>
      </trkpt>
      <trkpt lat="43.66979" lon="3.8243">
        <ele>112.8</ele>
        <time>2021-08-15T00:49:11.131Z</time>
      </trkpt>
      <trkpt lat="43.66988" lon="3.82412">
        <ele>114.4</ele>
        <time>2021-08-15T00:49:15.131Z</time>
      </trkpt>
      <trkpt lat="43.66992" lon="3.82406">
        <ele>114.9</ele>
        <time>2021-08-15T00:49:17.131Z</time>
      </trkpt>
      <trkpt lat="43.66995" lon="3.824">
        <ele>115.3</ele>
        <time>2021-08-15T00:49:20.131Z</time>
      </trkpt>
      <trkpt lat="43.67003" lon="3.8239">
        <ele>115.9</ele>
        <time>2021-08-15T00:49:24.131Z</time>
      </trkpt>
      <trkpt lat="43.67007" lon="3.82383">
        <ele>116</ele>
        <time>2021-08-15T00:49:26.131Z</time>
      </trkpt>
      <trkpt lat="43.67011" lon="3.82377">
        <ele>116.2</ele>
        <time>2021-08-15T00:49:27.131Z</time>
      </trkpt>
      <trkpt lat="43.67015" lon="3.82369">
        <ele>116.6</ele>
        <time>2021-08-15T00:49:29.131Z</time>
      </trkpt>
      <trkpt lat="43.67017" lon="3.82362">
        <ele>116.9</ele>
        <time>2021-08-15T00:49:30.131Z</time>
      </trkpt>
      <trkpt lat="43.67019" lon="3.82355">
        <ele>117.3</ele>
        <time>2021-08-15T00:49:31.131Z</time>
      </trkpt>
      <trkpt lat="43.67024" lon="3.82338">
        <ele>117.9</ele>
        <time>2021-08-15T00:49:35.131Z</time>
      </trkpt>
      <trkpt lat="43.67031" lon="3.82319">
        <ele>118.9</ele>
        <time>2021-08-15T00:49:40.131Z</time>
      </trkpt>
      <trkpt lat="43.67034" lon="3.82305">
        <ele>119.6</ele>
        <time>2021-08-15T00:49:42.131Z</time>
      </trkpt>
      <trkpt lat="43.67038" lon="3.82288">
        <ele>120.3</ele>
        <time>2021-08-15T00:49:46.131Z</time>
      </trkpt>
      <trkpt lat="43.67043" lon="3.8227">
        <ele>120.6</ele>
        <time>2021-08-15T00:49:50.131Z</time>
      </trkpt>
      <trkpt lat="43.67046" lon="3.8226">
        <ele>120.7</ele>
        <time>2021-08-15T00:49:52.131Z</time>
      </trkpt>
      <trkpt lat="43.67051" lon="3.82244">
        <ele>120.9</ele>
        <time>2021-08-15T00:49:55.131Z</time>
      </trkpt>
      <trkpt lat="43.67055" lon="3.82224">
        <ele>121.9</ele>
        <time>2021-08-15T00:50:00.131Z</time>
      </trkpt>
      <trkpt lat="43.67059" lon="3.82211">
        <ele>122.6</ele>
        <time>2021-08-15T00:50:03.131Z</time>
      </trkpt>
      <trkpt lat="43.67063" lon="3.82199">
        <ele>123.2</ele>
        <time>2021-08-15T00:50:06.131Z</time>
      </trkpt>
      <trkpt lat="43.67065" lon="3.82195">
        <ele>123.3</ele>
        <time>2021-08-15T00:50:07.131Z</time>
      </trkpt>
      <trkpt lat="43.67065" lon="3.82192">
        <ele>123.4</ele>
        <time>2021-08-15T00:50:07.928Z</time>
      </trkpt>
      <trkpt lat="43.67069" lon="3.82178">
        <ele>123.6</ele>
        <time>2021-08-15T00:50:11.131Z</time>
      </trkpt>
      <trkpt lat="43.67067" lon="3.82163">
        <ele>124.4</ele>
        <time>2021-08-15T00:50:15.131Z</time>
      </trkpt>
      <trkpt lat="43.67067" lon="3.82154">
        <ele>124.8</ele>
        <time>2021-08-15T00:50:17.131Z</time>
      </trkpt>
      <trkpt lat="43.67065" lon="3.82142">
        <ele>125.5</ele>
        <time>2021-08-15T00:50:20.131Z</time>
      </trkpt>
      <trkpt lat="43.67053" lon="3.8214">
        <ele>126.1</ele>
        <time>2021-08-15T00:50:30.482Z</time>
      </trkpt>
      <trkpt lat="43.67047" lon="3.82135">
        <ele>126.9</ele>
        <time>2021-08-15T00:50:26.131Z</time>
      </trkpt>
      <trkpt lat="43.67062" lon="3.82116">
        <ele>127.2</ele>
        <time>2021-08-15T00:50:31.131Z</time>
      </trkpt>
      <trkpt lat="43.67074" lon="3.82098">
        <ele>127.1</ele>
        <time>2021-08-15T00:50:33.131Z</time>
      </trkpt>
      <trkpt lat="43.67087" lon="3.8208">
        <ele>127.2</ele>
        <time>2021-08-15T00:50:36.131Z</time>
      </trkpt>
      <trkpt lat="43.67099" lon="3.82064">
        <ele>128.4</ele>
        <time>2021-08-15T00:50:37.131Z</time>
      </trkpt>
      <trkpt lat="43.67107" lon="3.82055">
        <ele>129</ele>
        <time>2021-08-15T00:50:38.131Z</time>
      </trkpt>
      <trkpt lat="43.67112" lon="3.8204">
        <ele>129.6</ele>
        <time>2021-08-15T00:50:42.131Z</time>
      </trkpt>
      <trkpt lat="43.67113" lon="3.82012">
        <ele>130.6</ele>
        <time>2021-08-15T00:50:48.131Z</time>
      </trkpt>
      <trkpt lat="43.67116" lon="3.81988">
        <ele>131.3</ele>
        <time>2021-08-15T00:50:53.131Z</time>
      </trkpt>
      <trkpt lat="43.67121" lon="3.81968">
        <ele>131.5</ele>
        <time>2021-08-15T00:50:56.131Z</time>
      </trkpt>
      <trkpt lat="43.67125" lon="3.81948">
        <ele>132.3</ele>
        <time>2021-08-15T00:51:00.131Z</time>
      </trkpt>
      <trkpt lat="43.67128" lon="3.81933">
        <ele>132.9</ele>
        <time>2021-08-15T00:51:03.131Z</time>
      </trkpt>
      <trkpt lat="43.67128" lon="3.81919">
        <ele>133.5</ele>
        <time>2021-08-15T00:51:06.131Z</time>
      </trkpt>
      <trkpt lat="43.67127" lon="3.81883">
        <ele>133</ele>
        <time>2021-08-15T00:51:11.131Z</time>
      </trkpt>
      <trkpt lat="43.67124" lon="3.81867">
        <ele>133</ele>
        <time>2021-08-15T00:51:13.131Z</time>
      </trkpt>
      <trkpt lat="43.67116" lon="3.81825">
        <ele>131</ele>
        <time>2021-08-15T00:51:18.131Z</time>
      </trkpt>
      <trkpt lat="43.67112" lon="3.81809">
        <ele>130.2</ele>
        <time>2021-08-15T00:51:20.131Z</time>
      </trkpt>
      <trkpt lat="43.67106" lon="3.81794">
        <ele>129.6</ele>
        <time>2021-08-15T00:51:22.131Z</time>
      </trkpt>
      <trkpt lat="43.67096" lon="3.8178">
        <ele>129.7</ele>
        <time>2021-08-15T00:51:24.131Z</time>
      </trkpt>
      <trkpt lat="43.67082" lon="3.81761">
        <ele>130.4</ele>
        <time>2021-08-15T00:51:27.131Z</time>
      </trkpt>
      <trkpt lat="43.67077" lon="3.81755">
        <ele>130.4</ele>
        <time>2021-08-15T00:51:28.131Z</time>
      </trkpt>
      <trkpt lat="43.67063" lon="3.8174">
        <ele>130.3</ele>
        <time>2021-08-15T00:51:31.131Z</time>
      </trkpt>
      <trkpt lat="43.67053" lon="3.81731">
        <ele>130.3</ele>
        <time>2021-08-15T00:51:33.131Z</time>
      </trkpt>
      <trkpt lat="43.67043" lon="3.8172">
        <ele>129.4</ele>
        <time>2021-08-15T00:51:35.131Z</time>
      </trkpt>
      <trkpt lat="43.67034" lon="3.81705">
        <ele>128</ele>
        <time>2021-08-15T00:51:37.131Z</time>
      </trkpt>
      <trkpt lat="43.67005" lon="3.81667">
        <ele>124.9</ele>
        <time>2021-08-15T00:51:42.131Z</time>
      </trkpt>
      <trkpt lat="43.66998" lon="3.81659">
        <ele>124.4</ele>
        <time>2021-08-15T00:51:43.131Z</time>
      </trkpt>
      <trkpt lat="43.66993" lon="3.8165">
        <ele>123.8</ele>
        <time>2021-08-15T00:51:44.131Z</time>
      </trkpt>
      <trkpt lat="43.66982" lon="3.81629">
        <ele>121.9</ele>
        <time>2021-08-15T00:51:46.131Z</time>
      </trkpt>
      <trkpt lat="43.66969" lon="3.81611">
        <ele>119.8</ele>
        <time>2021-08-15T00:51:48.131Z</time>
      </trkpt>
      <trkpt lat="43.66961" lon="3.81601">
        <ele>117.9</ele>
        <time>2021-08-15T00:51:49.131Z</time>
      </trkpt>
      <trkpt lat="43.66952" lon="3.81591">
        <ele>116.2</ele>
        <time>2021-08-15T00:51:50.131Z</time>
      </trkpt>
      <trkpt lat="43.66931" lon="3.8158">
        <ele>116.1</ele>
        <time>2021-08-15T00:51:52.131Z</time>
      </trkpt>
      <trkpt lat="43.66913" lon="3.81576">
        <ele>117.5</ele>
        <time>2021-08-15T00:51:54.131Z</time>
      </trkpt>
      <trkpt lat="43.66898" lon="3.81574">
        <ele>118.4</ele>
        <time>2021-08-15T00:51:56.131Z</time>
      </trkpt>
      <trkpt lat="43.66891" lon="3.81567">
        <ele>118.2</ele>
        <time>2021-08-15T00:51:57.131Z</time>
      </trkpt>
      <trkpt lat="43.66882" lon="3.81558">
        <ele>118.7</ele>
        <time>2021-08-15T00:51:59.131Z</time>
      </trkpt>
      <trkpt lat="43.66878" lon="3.81553">
        <ele>119.5</ele>
        <time>2021-08-15T00:52:00.131Z</time>
      </trkpt>
      <trkpt lat="43.6687" lon="3.81544">
        <ele>120.8</ele>
        <time>2021-08-15T00:52:02.131Z</time>
      </trkpt>
      <trkpt lat="43.66862" lon="3.81538">
        <ele>121.1</ele>
        <time>2021-08-15T00:52:04.131Z</time>
      </trkpt>
      <trkpt lat="43.6685" lon="3.81526">
        <ele>121.7</ele>
        <time>2021-08-15T00:52:09.131Z</time>
      </trkpt>
      <trkpt lat="43.66841" lon="3.81518">
        <ele>122.7</ele>
        <time>2021-08-15T00:52:12.131Z</time>
      </trkpt>
      <trkpt lat="43.66828" lon="3.81507">
        <ele>123.1</ele>
        <time>2021-08-15T00:52:16.131Z</time>
      </trkpt>
      <trkpt lat="43.66808" lon="3.81495">
        <ele>124.8</ele>
        <time>2021-08-15T00:52:22.131Z</time>
      </trkpt>
      <trkpt lat="43.66787" lon="3.81483">
        <ele>126.2</ele>
        <time>2021-08-15T00:52:28.131Z</time>
      </trkpt>
      <trkpt lat="43.66773" lon="3.81472">
        <ele>126.5</ele>
        <time>2021-08-15T00:52:33.131Z</time>
      </trkpt>
      <trkpt lat="43.66761" lon="3.81464">
        <ele>127.7</ele>
        <time>2021-08-15T00:52:36.131Z</time>
      </trkpt>
      <trkpt lat="43.66748" lon="3.81457">
        <ele>128</ele>
        <time>2021-08-15T00:52:40.131Z</time>
      </trkpt>
      <trkpt lat="43.66729" lon="3.81449">
        <ele>128.8</ele>
        <time>2021-08-15T00:52:45.131Z</time>
      </trkpt>
      <trkpt lat="43.66704" lon="3.81442">
        <ele>130.3</ele>
        <time>2021-08-15T00:52:52.131Z</time>
      </trkpt>
      <trkpt lat="43.66697" lon="3.81435">
        <ele>130.5</ele>
        <time>2021-08-15T00:52:53.131Z</time>
      </trkpt>
      <trkpt lat="43.66685" lon="3.81419">
        <ele>130.4</ele>
        <time>2021-08-15T00:52:58.131Z</time>
      </trkpt>
      <trkpt lat="43.66677" lon="3.81401">
        <ele>130.8</ele>
        <time>2021-08-15T00:53:07.013Z</time>
      </trkpt>
      <trkpt lat="43.66679" lon="3.81387">
        <ele>131.1</ele>
        <time>2021-08-15T00:53:04.131Z</time>
      </trkpt>
      <trkpt lat="43.6668" lon="3.81377">
        <ele>131.9</ele>
        <time>2021-08-15T00:53:06.131Z</time>
      </trkpt>
      <trkpt lat="43.66682" lon="3.81366">
        <ele>132.6</ele>
        <time>2021-08-15T00:53:09.131Z</time>
      </trkpt>
      <trkpt lat="43.66686" lon="3.81353">
        <ele>133.6</ele>
        <time>2021-08-15T00:53:12.131Z</time>
      </trkpt>
      <trkpt lat="43.66691" lon="3.81337">
        <ele>134.7</ele>
        <time>2021-08-15T00:53:16.131Z</time>
      </trkpt>
      <trkpt lat="43.66697" lon="3.81322">
        <ele>135.9</ele>
        <time>2021-08-15T00:53:20.131Z</time>
      </trkpt>
      <trkpt lat="43.66702" lon="3.81305">
        <ele>137</ele>
        <time>2021-08-15T00:53:24.131Z</time>
      </trkpt>
      <trkpt lat="43.66707" lon="3.81297">
        <ele>137.2</ele>
        <time>2021-08-15T00:53:26.131Z</time>
      </trkpt>
      <trkpt lat="43.66711" lon="3.81288">
        <ele>137.3</ele>
        <time>2021-08-15T00:53:29.131Z</time>
      </trkpt>
      <trkpt lat="43.66718" lon="3.81277">
        <ele>137.1</ele>
        <time>2021-08-15T00:53:31.131Z</time>
      </trkpt>
      <trkpt lat="43.66734" lon="3.81254">
        <ele>135.3</ele>
        <time>2021-08-15T00:53:36.131Z</time>
      </trkpt>
      <trkpt lat="43.66745" lon="3.81236">
        <ele>135.8</ele>
        <time>2021-08-15T00:53:39.131Z</time>
      </trkpt>
      <trkpt lat="43.66758" lon="3.81214">
        <ele>137.3</ele>
        <time>2021-08-15T00:53:43.131Z</time>
      </trkpt>
      <trkpt lat="43.6676" lon="3.81193">
        <ele>137.9</ele>
        <time>2021-08-15T00:53:47.131Z</time>
      </trkpt>
      <trkpt lat="43.66761" lon="3.8116">
        <ele>137.3</ele>
        <time>2021-08-15T00:53:52.131Z</time>
      </trkpt>
      <trkpt lat="43.66763" lon="3.81132">
        <ele>136.7</ele>
        <time>2021-08-15T00:54:01.080Z</time>
      </trkpt>
      <trkpt lat="43.66765" lon="3.81107">
        <ele>136.2</ele>
        <time>2021-08-15T00:54:00.131Z</time>
      </trkpt>
      <trkpt lat="43.66766" lon="3.81088">
        <ele>135.6</ele>
        <time>2021-08-15T00:54:02.131Z</time>
      </trkpt>
      <trkpt lat="43.66766" lon="3.81065">
        <ele>135.3</ele>
        <time>2021-08-15T00:54:05.131Z</time>
      </trkpt>
      <trkpt lat="43.66769" lon="3.81021">
        <ele>133.1</ele>
        <time>2021-08-15T00:54:10.131Z</time>
      </trkpt>
      <trkpt lat="43.66765" lon="3.8101">
        <ele>134.3</ele>
        <time>2021-08-15T00:54:11.095Z</time>
      </trkpt>
      <trkpt lat="43.66748" lon="3.81">
        <ele>136.3</ele>
        <time>2021-08-15T00:54:12.131Z</time>
      </trkpt>
      <trkpt lat="43.66726" lon="3.80971">
        <ele>140.8</ele>
        <time>2021-08-15T00:54:14.131Z</time>
      </trkpt>
      <trkpt lat="43.66707" lon="3.80947">
        <ele>144.5</ele>
        <time>2021-08-15T00:54:21.568Z</time>
      </trkpt>
      <trkpt lat="43.66672" lon="3.80903">
        <ele>147.8</ele>
        <time>2021-08-15T00:54:36.153Z</time>
      </trkpt>
      <trkpt lat="43.66701" lon="3.80859">
        <ele>147</ele>
        <time>2021-08-15T00:54:44.377Z</time>
      </trkpt>
      <trkpt lat="43.66722" lon="3.80826">
        <ele>147</ele>
        <time>2021-08-15T00:54:42.226Z</time>
      </trkpt>
      <trkpt lat="43.66743" lon="3.80798">
        <ele>146.3</ele>
        <time>2021-08-15T00:54:55.177Z</time>
      </trkpt>
      <trkpt lat="43.66749" lon="3.80754">
        <ele>145.2</ele>
        <time>2021-08-15T00:55:07.306Z</time>
      </trkpt>
      <trkpt lat="43.66763" lon="3.8074">
        <ele>144.5</ele>
        <time>2021-08-15T00:55:09.942Z</time>
      </trkpt>
      <trkpt lat="43.66774" lon="3.80752">
        <ele>144.2</ele>
        <time>2021-08-15T00:55:12.080Z</time>
      </trkpt>
      <trkpt lat="43.6679" lon="3.80751">
        <ele>143.2</ele>
        <time>2021-08-15T00:55:14.524Z</time>
      </trkpt>
      <trkpt lat="43.66798" lon="3.80757">
        <ele>142.8</ele>
        <time>2021-08-15T00:55:15.912Z</time>
      </trkpt>
      <trkpt lat="43.66804" lon="3.80767">
        <ele>142.7</ele>
        <time>2021-08-15T00:55:17.346Z</time>
      </trkpt>
      <trkpt lat="43.66814" lon="3.80768">
        <ele>141.4</ele>
        <time>2021-08-15T00:55:18.876Z</time>
      </trkpt>
      <trkpt lat="43.66822" lon="3.8077">
        <ele>140.4</ele>
        <time>2021-08-15T00:55:20.116Z</time>
      </trkpt>
      <trkpt lat="43.66833" lon="3.80759">
        <ele>138.4</ele>
        <time>2021-08-15T00:55:22.187Z</time>
      </trkpt>
      <trkpt lat="43.66837" lon="3.80748">
        <ele>137.5</ele>
        <time>2021-08-15T00:55:23.546Z</time>
      </trkpt>
      <trkpt lat="43.66836" lon="3.80718">
        <ele>137.8</ele>
        <time>2021-08-15T00:55:26.861Z</time>
      </trkpt>
      <trkpt lat="43.66835" lon="3.80706">
        <ele>138.3</ele>
        <time>2021-08-15T00:55:28.194Z</time>
      </trkpt>
      <trkpt lat="43.6683" lon="3.80693">
        <ele>139.3</ele>
        <time>2021-08-15T00:55:29.819Z</time>
      </trkpt>
      <trkpt lat="43.66826" lon="3.80678">
        <ele>139</ele>
        <time>2021-08-15T00:55:31.583Z</time>
      </trkpt>
      <trkpt lat="43.66821" lon="3.80671">
        <ele>139.1</ele>
        <time>2021-08-15T00:55:32.668Z</time>
      </trkpt>
      <trkpt lat="43.66821" lon="3.80658">
        <ele>138.4</ele>
        <time>2021-08-15T00:55:34.103Z</time>
      </trkpt>
      <trkpt lat="43.66821" lon="3.80641">
        <ele>137.6</ele>
        <time>2021-08-15T00:55:35.979Z</time>
      </trkpt>
      <trkpt lat="43.66815" lon="3.80628">
        <ele>136.2</ele>
        <time>2021-08-15T00:55:37.681Z</time>
      </trkpt>
      <trkpt lat="43.66774" lon="3.80598">
        <ele>134.5</ele>
        <time>2021-08-15T00:55:42.132Z</time>
      </trkpt>
      <trkpt lat="43.66746" lon="3.80584">
        <ele>135.4</ele>
        <time>2021-08-15T00:55:50.797Z</time>
      </trkpt>
      <trkpt lat="43.66702" lon="3.80569">
        <ele>136.6</ele>
        <time>2021-08-15T00:56:03.985Z</time>
      </trkpt>
      <trkpt lat="43.66608" lon="3.80547">
        <ele>142.4</ele>
        <time>2021-08-15T00:56:23.067Z</time>
      </trkpt>
      <trkpt lat="43.66551" lon="3.80468">
        <ele>147</ele>
        <time>2021-08-15T00:56:51.035Z</time>
      </trkpt>
      <trkpt lat="43.66503" lon="3.80398">
        <ele>147.3</ele>
        <time>2021-08-15T00:57:06.131Z</time>
      </trkpt>
      <trkpt lat="43.66511" lon="3.80373">
        <ele>146.4</ele>
        <time>2021-08-15T00:57:15.065Z</time>
      </trkpt>
      <trkpt lat="43.66505" lon="3.80364">
        <ele>146.1</ele>
        <time>2021-08-15T00:57:10.131Z</time>
      </trkpt>
      <trkpt lat="43.66496" lon="3.80353">
        <ele>145.9</ele>
        <time>2021-08-15T00:57:12.131Z</time>
      </trkpt>
      <trkpt lat="43.66481" lon="3.80357">
        <ele>146.7</ele>
        <time>2021-08-15T00:57:15.131Z</time>
      </trkpt>
      <trkpt lat="43.66457" lon="3.80358">
        <ele>147.6</ele>
        <time>2021-08-15T00:57:18.131Z</time>
      </trkpt>
      <trkpt lat="43.66436" lon="3.80349">
        <ele>148.1</ele>
        <time>2021-08-15T00:57:20.131Z</time>
      </trkpt>
      <trkpt lat="43.66407" lon="3.80343">
        <ele>148.5</ele>
        <time>2021-08-15T00:57:24.131Z</time>
      </trkpt>
      <trkpt lat="43.66391" lon="3.80322">
        <ele>148.5</ele>
        <time>2021-08-15T00:57:26.131Z</time>
      </trkpt>
      <trkpt lat="43.66376" lon="3.80306">
        <ele>149</ele>
        <time>2021-08-15T00:57:32.131Z</time>
      </trkpt>
      <trkpt lat="43.66357" lon="3.80282">
        <ele>149</ele>
        <time>2021-08-15T00:57:40.131Z</time>
      </trkpt>
      <trkpt lat="43.66341" lon="3.80257">
        <ele>148.8</ele>
        <time>2021-08-15T00:57:45.131Z</time>
      </trkpt>
      <trkpt lat="43.6633" lon="3.80251">
        <ele>149.1</ele>
        <time>2021-08-15T00:57:47.086Z</time>
      </trkpt>
      <trkpt lat="43.66315" lon="3.80246">
        <ele>149.5</ele>
        <time>2021-08-15T00:57:49.637Z</time>
      </trkpt>
      <trkpt lat="43.66297" lon="3.80233">
        <ele>149.3</ele>
        <time>2021-08-15T00:57:52.995Z</time>
      </trkpt>
      <trkpt lat="43.66283" lon="3.80219">
        <ele>148.9</ele>
        <time>2021-08-15T00:57:55.852Z</time>
      </trkpt>
      <trkpt lat="43.66272" lon="3.80204">
        <ele>148.3</ele>
        <time>2021-08-15T00:57:58.407Z</time>
      </trkpt>
      <trkpt lat="43.66263" lon="3.80182">
        <ele>147.8</ele>
        <time>2021-08-15T00:58:01.430Z</time>
      </trkpt>
      <trkpt lat="43.66245" lon="3.80165">
        <ele>147.9</ele>
        <time>2021-08-15T00:58:05.034Z</time>
      </trkpt>
      <trkpt lat="43.66248" lon="3.80135">
        <ele>146.9</ele>
        <time>2021-08-15T00:58:08.656Z</time>
      </trkpt>
      <trkpt lat="43.66245" lon="3.8011">
        <ele>145.9</ele>
        <time>2021-08-15T00:58:11.687Z</time>
      </trkpt>
      <trkpt lat="43.66231" lon="3.80082">
        <ele>143.9</ele>
        <time>2021-08-15T00:58:15.758Z</time>
      </trkpt>
      <trkpt lat="43.66214" lon="3.80083">
        <ele>143.7</ele>
        <time>2021-08-15T00:58:18.571Z</time>
      </trkpt>
      <trkpt lat="43.66202" lon="3.80091">
        <ele>143.8</ele>
        <time>2021-08-15T00:58:20.774Z</time>
      </trkpt>
      <trkpt lat="43.66179" lon="3.80058">
        <ele>140.6</ele>
        <time>2021-08-15T00:58:26.255Z</time>
      </trkpt>
      <trkpt lat="43.66177" lon="3.80043">
        <ele>138.8</ele>
        <time>2021-08-15T00:58:26.131Z</time>
      </trkpt>
      <trkpt lat="43.66172" lon="3.80028">
        <ele>137</ele>
        <time>2021-08-15T00:58:27.131Z</time>
      </trkpt>
      <trkpt lat="43.66165" lon="3.80019">
        <ele>136.3</ele>
        <time>2021-08-15T00:58:30.131Z</time>
      </trkpt>
      <trkpt lat="43.66155" lon="3.80001">
        <ele>135.8</ele>
        <time>2021-08-15T00:58:33.131Z</time>
      </trkpt>
      <trkpt lat="43.66152" lon="3.79995">
        <ele>135.8</ele>
        <time>2021-08-15T00:58:34.131Z</time>
      </trkpt>
      <trkpt lat="43.66149" lon="3.79988">
        <ele>135.8</ele>
        <time>2021-08-15T00:58:35.131Z</time>
      </trkpt>
      <trkpt lat="43.66138" lon="3.79962">
        <ele>136.3</ele>
        <time>2021-08-15T00:58:39.131Z</time>
      </trkpt>
      <trkpt lat="43.66132" lon="3.7995">
        <ele>136.1</ele>
        <time>2021-08-15T00:58:41.131Z</time>
      </trkpt>
      <trkpt lat="43.66128" lon="3.79945">
        <ele>136.2</ele>
        <time>2021-08-15T00:58:42.131Z</time>
      </trkpt>
      <trkpt lat="43.66121" lon="3.79935">
        <ele>136.3</ele>
        <time>2021-08-15T00:58:44.131Z</time>
      </trkpt>
      <trkpt lat="43.66106" lon="3.79925">
        <ele>136.5</ele>
        <time>2021-08-15T00:58:47.131Z</time>
      </trkpt>
      <trkpt lat="43.66094" lon="3.79898">
        <ele>134.7</ele>
        <time>2021-08-15T00:58:50.131Z</time>
      </trkpt>
      <trkpt lat="43.66082" lon="3.79866">
        <ele>131.3</ele>
        <time>2021-08-15T00:58:54.131Z</time>
      </trkpt>
      <trkpt lat="43.66077" lon="3.79841">
        <ele>128.1</ele>
        <time>2021-08-15T00:59:02.131Z</time>
      </trkpt>
      <trkpt lat="43.66084" lon="3.79814">
        <ele>126.6</ele>
        <time>2021-08-15T00:59:04.131Z</time>
      </trkpt>
      <trkpt lat="43.66096" lon="3.79784">
        <ele>123.7</ele>
        <time>2021-08-15T00:59:04.205Z</time>
      </trkpt>
      <trkpt lat="43.66093" lon="3.7977">
        <ele>122.1</ele>
        <time>2021-08-15T00:59:04.236Z</time>
      </trkpt>
      <trkpt lat="43.66083" lon="3.79751">
        <ele>120.1</ele>
        <time>2021-08-15T00:59:04.286Z</time>
      </trkpt>
      <trkpt lat="43.66081" lon="3.79729">
        <ele>115.2</ele>
        <time>2021-08-15T00:59:04.333Z</time>
      </trkpt>
      <trkpt lat="43.66076" lon="3.79704">
        <ele>109.3</ele>
        <time>2021-08-15T00:59:04.388Z</time>
      </trkpt>
      <trkpt lat="43.66073" lon="3.79681">
        <ele>104.3</ele>
        <time>2021-08-15T00:59:04.438Z</time>
      </trkpt>
      <trkpt lat="43.66079" lon="3.79657">
        <ele>100.5</ele>
        <time>2021-08-15T00:59:04.492Z</time>
      </trkpt>
      <trkpt lat="43.66089" lon="3.79639">
        <ele>96.8</ele>
        <time>2021-08-15T00:59:04.540Z</time>
      </trkpt>
      <trkpt lat="43.66091" lon="3.79627">
        <ele>94.2</ele>
        <time>2021-08-15T00:59:04.566Z</time>
      </trkpt>
      <trkpt lat="43.66084" lon="3.79613">
        <ele>93.2</ele>
        <time>2021-08-15T00:59:04.602Z</time>
      </trkpt>
      <trkpt lat="43.66068" lon="3.79598">
        <ele>92.9</ele>
        <time>2021-08-15T00:59:04.659Z</time>
      </trkpt>
      <trkpt lat="43.66062" lon="3.79576">
        <ele>91</ele>
        <time>2021-08-15T00:59:04.709Z</time>
      </trkpt>
      <trkpt lat="43.66049" lon="3.79562">
        <ele>88.9</ele>
        <time>2021-08-15T00:59:04.758Z</time>
      </trkpt>
      <trkpt lat="43.6604" lon="3.79543">
        <ele>86.7</ele>
        <time>2021-08-15T00:59:04.807Z</time>
      </trkpt>
      <trkpt lat="43.6603" lon="3.79547">
        <ele>85.9</ele>
        <time>2021-08-15T00:59:04.838Z</time>
      </trkpt>
      <trkpt lat="43.6603" lon="3.79588">
        <ele>88.5</ele>
        <time>2021-08-15T00:59:04.926Z</time>
      </trkpt>
      <trkpt lat="43.66031" lon="3.7963">
        <ele>91.1</ele>
        <time>2021-08-15T00:59:05.016Z</time>
      </trkpt>
      <trkpt lat="43.66022" lon="3.79669">
        <ele>95.4</ele>
        <time>2021-08-15T00:59:05.104Z</time>
      </trkpt>
      <trkpt lat="43.66015" lon="3.7971">
        <ele>98.3</ele>
        <time>2021-08-15T00:59:05.131Z</time>
      </trkpt>
      <trkpt lat="43.66003" lon="3.79759">
        <ele>100.6</ele>
        <time>2021-08-15T00:59:05.644Z</time>
      </trkpt>
      <trkpt lat="43.65997" lon="3.79848">
        <ele>107.7</ele>
        <time>2021-08-15T00:59:06.531Z</time>
      </trkpt>
      <trkpt lat="43.65994" lon="3.79877">
        <ele>111.4</ele>
        <time>2021-08-15T00:59:06.821Z</time>
      </trkpt>
      <trkpt lat="43.65986" lon="3.79903">
        <ele>113.8</ele>
        <time>2021-08-15T00:59:07.101Z</time>
      </trkpt>
      <trkpt lat="43.65971" lon="3.79914">
        <ele>112.9</ele>
        <time>2021-08-15T00:59:07.333Z</time>
      </trkpt>
      <trkpt lat="43.65947" lon="3.79943">
        <ele>114.9</ele>
        <time>2021-08-15T00:59:07.770Z</time>
      </trkpt>
      <trkpt lat="43.65919" lon="3.79989">
        <ele>120.5</ele>
        <time>2021-08-15T00:59:08.366Z</time>
      </trkpt>
      <trkpt lat="43.65895" lon="3.80001">
        <ele>121.9</ele>
        <time>2021-08-15T00:59:08.716Z</time>
      </trkpt>
      <trkpt lat="43.65883" lon="3.80007">
        <ele>123.4</ele>
        <time>2021-08-15T00:59:08.891Z</time>
      </trkpt>
      <trkpt lat="43.65867" lon="3.80012">
        <ele>125</ele>
        <time>2021-08-15T00:59:09.116Z</time>
      </trkpt>
      <trkpt lat="43.65829" lon="3.80018">
        <ele>129.7</ele>
        <time>2021-08-15T00:59:09.131Z</time>
      </trkpt>
      <trkpt lat="43.65805" lon="3.80021">
        <ele>132</ele>
        <time>2021-08-15T00:59:12.131Z</time>
      </trkpt>
      <trkpt lat="43.65785" lon="3.80022">
        <ele>133.2</ele>
        <time>2021-08-15T00:59:17.457Z</time>
      </trkpt>
      <trkpt lat="43.65755" lon="3.80031">
        <ele>135.8</ele>
        <time>2021-08-15T00:59:25.628Z</time>
      </trkpt>
      <trkpt lat="43.65727" lon="3.80042">
        <ele>139.1</ele>
        <time>2021-08-15T00:59:33.375Z</time>
      </trkpt>
      <trkpt lat="43.65698" lon="3.80066">
        <ele>141.7</ele>
        <time>2021-08-15T00:59:42.371Z</time>
      </trkpt>
      <trkpt lat="43.65683" lon="3.80083">
        <ele>142.8</ele>
        <time>2021-08-15T00:59:47.534Z</time>
      </trkpt>
      <trkpt lat="43.65661" lon="3.80102">
        <ele>144.2</ele>
        <time>2021-08-15T00:59:54.438Z</time>
      </trkpt>
      <trkpt lat="43.65651" lon="3.80087">
        <ele>144.6</ele>
        <time>2021-08-15T00:59:58.365Z</time>
      </trkpt>
      <trkpt lat="43.65621" lon="3.80034">
        <ele>146.6</ele>
        <time>2021-08-15T01:00:11.323Z</time>
      </trkpt>
      <trkpt lat="43.65597" lon="3.79993">
        <ele>147.4</ele>
        <time>2021-08-15T01:00:21.479Z</time>
      </trkpt>
      <trkpt lat="43.65565" lon="3.7994">
        <ele>147</ele>
        <time>2021-08-15T01:00:34.772Z</time>
      </trkpt>
      <trkpt lat="43.65547" lon="3.79908">
        <ele>147</ele>
        <time>2021-08-15T01:00:42.577Z</time>
      </trkpt>
      <trkpt lat="43.65536" lon="3.79889">
        <ele>147</ele>
        <time>2021-08-15T01:00:47.263Z</time>
      </trkpt>
      <trkpt lat="43.65542" lon="3.79885">
        <ele>146.9</ele>
        <time>2021-08-15T01:00:49.036Z</time>
      </trkpt>
      <trkpt lat="43.65551" lon="3.79883">
        <ele>146.8</ele>
        <time>2021-08-15T01:00:51.462Z</time>
      </trkpt>
      <trkpt lat="43.65573" lon="3.7988">
        <ele>146.7</ele>
        <time>2021-08-15T01:00:57.346Z</time>
      </trkpt>
      <trkpt lat="43.65623" lon="3.79892">
        <ele>146.1</ele>
        <time>2021-08-15T01:01:10.853Z</time>
      </trkpt>
      <trkpt lat="43.65693" lon="3.79903">
        <ele>144.6</ele>
        <time>2021-08-15T01:01:29.604Z</time>
      </trkpt>
      <trkpt lat="43.65718" lon="3.79883">
        <ele>144</ele>
        <time>2021-08-15T01:01:37.292Z</time>
      </trkpt>
      <trkpt lat="43.65739" lon="3.79865">
        <ele>143.4</ele>
        <time>2021-08-15T01:01:43.869Z</time>
      </trkpt>
      <trkpt lat="43.65737" lon="3.7986">
        <ele>143.5</ele>
        <time>2021-08-15T01:01:44.969Z</time>
      </trkpt>
      <trkpt lat="43.6573" lon="3.79854">
        <ele>143.7</ele>
        <time>2021-08-15T01:01:47.161Z</time>
      </trkpt>
      <trkpt lat="43.65698" lon="3.79834">
        <ele>144</ele>
        <time>2021-08-15T01:01:56.508Z</time>
      </trkpt>
      <trkpt lat="43.65673" lon="3.79819">
        <ele>143.6</ele>
        <time>2021-08-15T01:02:03.762Z</time>
      </trkpt>
      <trkpt lat="43.65626" lon="3.7978">
        <ele>141.7</ele>
        <time>2021-08-15T01:02:18.353Z</time>
      </trkpt>
      <trkpt lat="43.65594" lon="3.79759">
        <ele>139.4</ele>
        <time>2021-08-15T01:02:27.781Z</time>
      </trkpt>
      <trkpt lat="43.65567" lon="3.7975">
        <ele>138</ele>
        <time>2021-08-15T01:02:35.173Z</time>
      </trkpt>
      <trkpt lat="43.65554" lon="3.7973">
        <ele>136</ele>
        <time>2021-08-15T01:02:40.350Z</time>
      </trkpt>
      <trkpt lat="43.65536" lon="3.79689">
        <ele>136.6</ele>
        <time>2021-08-15T01:02:49.585Z</time>
      </trkpt>
      <trkpt lat="43.65522" lon="3.79639">
        <ele>140.6</ele>
        <time>2021-08-15T01:02:59.909Z</time>
      </trkpt>
      <trkpt lat="43.65512" lon="3.79617">
        <ele>142</ele>
        <time>2021-08-15T01:03:04.912Z</time>
      </trkpt>
      <trkpt lat="43.65486" lon="3.79581">
        <ele>144.5</ele>
        <time>2021-08-15T01:03:14.707Z</time>
      </trkpt>
      <trkpt lat="43.65477" lon="3.79566">
        <ele>144.7</ele>
        <time>2021-08-15T01:03:18.459Z</time>
      </trkpt>
      <trkpt lat="43.65432" lon="3.79515">
        <ele>143.3</ele>
        <time>2021-08-15T01:03:33.378Z</time>
      </trkpt>
      <trkpt lat="43.6543" lon="3.79513">
        <ele>143.2</ele>
        <time>2021-08-14T10:27:00.963Z</time>
      </trkpt>
      <trkpt lat="43.65429" lon="3.79507">
        <ele>142.8</ele>
        <time>2021-08-15T01:03:33.378Z</time>
      </trkpt>
      <trkpt lat="43.65439" lon="3.79484">
        <ele>141.8</ele>
        <time>2021-08-15T01:03:42.684Z</time>
      </trkpt>
      <trkpt lat="43.65446" lon="3.79455">
        <ele>140.3</ele>
        <time>2021-08-15T01:03:51.203Z</time>
      </trkpt>
      <trkpt lat="43.65461" lon="3.7941">
        <ele>136.5</ele>
        <time>2021-08-15T01:04:09.584Z</time>
      </trkpt>
      <trkpt lat="43.65482" lon="3.79366">
        <ele>129.4</ele>
        <time>2021-08-15T01:04:00.451Z</time>
      </trkpt>
      <trkpt lat="43.65488" lon="3.79356">
        <ele>127.6</ele>
        <time>2021-08-15T01:04:00.309Z</time>
      </trkpt>
      <trkpt lat="43.65494" lon="3.79342">
        <ele>124.9</ele>
        <time>2021-08-15T01:04:00.131Z</time>
      </trkpt>
      <trkpt lat="43.65508" lon="3.79339">
        <ele>123.6</ele>
        <time>2021-08-15T01:03:59.917Z</time>
      </trkpt>
      <trkpt lat="43.6555" lon="3.79315">
        <ele>112.8</ele>
        <time>2021-08-15T01:03:59.231Z</time>
      </trkpt>
      <trkpt lat="43.65554" lon="3.79307">
        <ele>109.7</ele>
        <time>2021-08-15T01:03:59.124Z</time>
      </trkpt>
      <trkpt lat="43.65575" lon="3.79308">
        <ele>106.2</ele>
        <time>2021-08-15T01:03:58.807Z</time>
      </trkpt>
      <trkpt lat="43.65583" lon="3.793">
        <ele>102.5</ele>
        <time>2021-08-15T01:03:58.658Z</time>
      </trkpt>
      <trkpt lat="43.65595" lon="3.79296">
        <ele>99.3</ele>
        <time>2021-08-15T01:03:58.471Z</time>
      </trkpt>
      <trkpt lat="43.65598" lon="3.79286">
        <ele>96.1</ele>
        <time>2021-08-15T01:03:58.352Z</time>
      </trkpt>
      <trkpt lat="43.65597" lon="3.79277">
        <ele>93.8</ele>
        <time>2021-08-15T01:03:58.252Z</time>
      </trkpt>
      <trkpt lat="43.65598" lon="3.79261">
        <ele>88.8</ele>
        <time>2021-08-15T01:03:58.076Z</time>
      </trkpt>
      <trkpt lat="43.65613" lon="3.79238">
        <ele>80.8</ele>
        <time>2021-08-15T01:03:57.738Z</time>
      </trkpt>
      <trkpt lat="43.65607" lon="3.7923">
        <ele>79.4</ele>
        <time>2021-08-15T01:03:57.612Z</time>
      </trkpt>
      <trkpt lat="43.65593" lon="3.79224">
        <ele>79.4</ele>
        <time>2021-08-15T01:03:57.390Z</time>
      </trkpt>
      <trkpt lat="43.65585" lon="3.79214">
        <ele>77.8</ele>
        <time>2021-08-15T01:03:57.227Z</time>
      </trkpt>
      <trkpt lat="43.65574" lon="3.79204">
        <ele>76.8</ele>
        <time>2021-08-15T01:03:57.028Z</time>
      </trkpt>
      <trkpt lat="43.6557" lon="3.79194">
        <ele>74.8</ele>
        <time>2021-08-15T01:03:56.903Z</time>
      </trkpt>
      <trkpt lat="43.65563" lon="3.7919">
        <ele>74.9</ele>
        <time>2021-08-15T01:03:56.788Z</time>
      </trkpt>
      <trkpt lat="43.65557" lon="3.79178">
        <ele>72.7</ele>
        <time>2021-08-15T01:03:56.780Z</time>
      </trkpt>
      <trkpt lat="43.65536" lon="3.79165">
        <ele>74</ele>
        <time>2021-08-15T01:03:16.682Z</time>
      </trkpt>
      <trkpt lat="43.65521" lon="3.79166">
        <ele>76.8</ele>
        <time>2021-08-15T01:02:47.493Z</time>
      </trkpt>
      <trkpt lat="43.65513" lon="3.79165">
        <ele>77.8</ele>
        <time>2021-08-15T01:02:23.114Z</time>
      </trkpt>
      <trkpt lat="43.65499" lon="3.79163">
        <ele>79.1</ele>
        <time>2021-08-15T01:01:56.187Z</time>
      </trkpt>
      <trkpt lat="43.65486" lon="3.79158">
        <ele>78.2</ele>
        <time>2021-08-15T01:01:57.298Z</time>
      </trkpt>
      <trkpt lat="43.65465" lon="3.79161">
        <ele>79.3</ele>
        <time>2021-08-15T01:01:51.232Z</time>
      </trkpt>
      <trkpt lat="43.65451" lon="3.79158">
        <ele>78.5</ele>
        <time>2021-08-15T01:01:53.228Z</time>
      </trkpt>
      <trkpt lat="43.65444" lon="3.79153">
        <ele>77.6</ele>
        <time>2021-08-15T01:01:33.055Z</time>
      </trkpt>
      <trkpt lat="43.65425" lon="3.7915">
        <ele>77.7</ele>
        <time>2021-08-15T01:01:06.845Z</time>
      </trkpt>
      <trkpt lat="43.65402" lon="3.79146">
        <ele>78.3</ele>
        <time>2021-08-15T01:00:52.351Z</time>
      </trkpt>
      <trkpt lat="43.65372" lon="3.79139">
        <ele>78.6</ele>
        <time>2021-08-15T01:00:49.782Z</time>
      </trkpt>
      <trkpt lat="43.65328" lon="3.79134">
        <ele>79</ele>
        <time>2021-08-15T01:00:42.097Z</time>
      </trkpt>
      <trkpt lat="43.65313" lon="3.79115">
        <ele>75.6</ele>
        <time>2021-08-15T01:00:14.119Z</time>
      </trkpt>
      <trkpt lat="43.65286" lon="3.79106">
        <ele>72.3</ele>
        <time>2021-08-15T01:00:21.670Z</time>
      </trkpt>
      <trkpt lat="43.65275" lon="3.79108">
        <ele>71.7</ele>
        <time>2021-08-15T01:00:31.655Z</time>
      </trkpt>
      <trkpt lat="43.6526" lon="3.79107">
        <ele>71.5</ele>
        <time>2021-08-15T01:01:28.208Z</time>
      </trkpt>
      <trkpt lat="43.65253" lon="3.79103">
        <ele>70.9</ele>
        <time>2021-08-15T01:01:00.180Z</time>
      </trkpt>
      <trkpt lat="43.65247" lon="3.79093">
        <ele>69.6</ele>
        <time>2021-08-15T01:01:03.377Z</time>
      </trkpt>
      <trkpt lat="43.65239" lon="3.79087">
        <ele>69.1</ele>
        <time>2021-08-15T01:01:05.569Z</time>
      </trkpt>
      <trkpt lat="43.65226" lon="3.79079">
        <ele>68.3</ele>
        <time>2021-08-15T01:01:09.282Z</time>
      </trkpt>
      <trkpt lat="43.65214" lon="3.79061">
        <ele>65.8</ele>
        <time>2021-08-15T01:01:13.995Z</time>
      </trkpt>
      <trkpt lat="43.65205" lon="3.7905">
        <ele>66.6</ele>
        <time>2021-08-15T01:01:20.503Z</time>
      </trkpt>
      <trkpt lat="43.65165" lon="3.79052">
        <ele>67.3</ele>
        <time>2021-08-15T01:01:42.182Z</time>
      </trkpt>
      <trkpt lat="43.65125" lon="3.79054">
        <ele>69.2</ele>
        <time>2021-08-15T01:02:22.513Z</time>
      </trkpt>
      <trkpt lat="43.65102" lon="3.79068">
        <ele>69.9</ele>
        <time>2021-08-15T01:02:47.426Z</time>
      </trkpt>
      <trkpt lat="43.65079" lon="3.79081">
        <ele>68.2</ele>
        <time>2021-08-15T01:03:44.117Z</time>
      </trkpt>
      <trkpt lat="43.65065" lon="3.79077">
        <ele>66.4</ele>
        <time>2021-08-15T01:04:16.806Z</time>
      </trkpt>
      <trkpt lat="43.65051" lon="3.79073">
        <ele>64.6</ele>
        <time>2021-08-15T01:04:51.406Z</time>
      </trkpt>
      <trkpt lat="43.65039" lon="3.79058">
        <ele>62.3</ele>
        <time>2021-08-15T01:05:31.075Z</time>
      </trkpt>
      <trkpt lat="43.65027" lon="3.79044">
        <ele>60.7</ele>
        <time>2021-08-15T01:06:10.744Z</time>
      </trkpt>
      <trkpt lat="43.65017" lon="3.79036">
        <ele>60</ele>
        <time>2021-08-15T01:06:37.364Z</time>
      </trkpt>
      <trkpt lat="43.65008" lon="3.79028">
        <ele>59.7</ele>
        <time>2021-08-15T01:07:03.984Z</time>
      </trkpt>
      <trkpt lat="43.65003" lon="3.79065">
        <ele>59.5</ele>
        <time>2021-08-15T01:08:09.691Z</time>
      </trkpt>
      <trkpt lat="43.64998" lon="3.79101">
        <ele>62.1</ele>
        <time>2021-08-15T01:09:01.900Z</time>
      </trkpt>
    </trkseg>
  </trk>
</gpx>